
Distance (Route):
Temperature : 0°C
Humidity : 0%
Pressure : 0hPa| Receiver | Date | Latitude | Longitude | Direction | Speed | Altitude | Climb | Temperature | Humidity | Pressure | Voltage | Killtimer | Uptime | BKT | XDATA |
|---|---|---|---|---|---|---|---|---|---|---|---|---|---|---|---|
| EA3GEO | 2026-09-04 00:55:42 | 41.19141 | 2.24416 | 77° | 24km/h | 185m | -11.7m/s | 0°C | 0% | 0hPa | 0V | 00:00:00 | 00:00:00 | 00:00:00 | |
| EA3GEO | 2026-09-04 00:55:36 | 41.19132 | 2.24371 | 76° | 24km/h | 256m | -12.0m/s | 0°C | 0% | 0hPa | 0V | 00:00:00 | 00:00:00 | 00:00:00 | |
| EA3GEO | 2026-09-04 00:55:30 | 41.19123 | 2.24331 | 74° | 20km/h | 329m | -12.3m/s | 0°C | 0% | 0hPa | 0V | 00:00:00 | 00:00:00 | 00:00:00 | |
| EA3IBE | 2026-09-04 00:55:17 | 41.19100 | 2.24233 | 76° | 24km/h | 488m | -11.8m/s | 0°C | 0% | 0hPa | 0V | 00:00:00 | 00:00:00 | 00:00:00 | |
| EA3GEO | 2026-09-04 00:55:16 | 41.19098 | 2.24225 | 80° | 22km/h | 500m | -11.8m/s | 0°C | 0% | 0hPa | 0V | 00:00:00 | 00:00:00 | 00:00:00 | |
| EA3GEO | 2026-09-04 00:55:10 | 41.19102 | 2.24197 | 112° | 7km/h | 569m | -11.4m/s | 0°C | 0% | 0hPa | 0V | 00:00:00 | 00:00:00 | 00:00:00 | |
| EA3GEO | 2026-09-04 00:55:04 | 41.19100 | 2.24183 | 71° | 9km/h | 643m | -11.7m/s | 0°C | 0% | 0hPa | 0V | 00:00:00 | 00:00:00 | 00:00:00 | |
| EA3IBE | 2026-09-04 00:55:00 | 41.19097 | 2.24172 | 76° | 11km/h | 693m | -12.6m/s | 0°C | 0% | 0hPa | 0V | 00:00:00 | 00:00:00 | 00:00:00 | |
| EA3GEO | 2026-09-04 00:54:57 | 41.19095 | 2.24164 | 77° | 7km/h | 729m | -12.0m/s | 0°C | 0% | 0hPa | 0V | 00:00:00 | 00:00:00 | 00:00:00 | |
| EA3GEO | 2026-09-04 00:54:52 | 41.19095 | 2.24147 | 81° | 7km/h | 791m | -12.7m/s | 0°C | 0% | 0hPa | 0V | 00:00:00 | 00:00:00 | 00:00:00 | |
| EA3GEO | 2026-09-04 00:54:46 | 41.19094 | 2.24132 | 102° | 9km/h | 864m | -12.2m/s | 0°C | 0% | 0hPa | 0V | 00:00:00 | 00:00:00 | 00:00:00 | |
| EA3IBE | 2026-09-04 00:54:45 | 41.19095 | 2.24129 | 105° | 9km/h | 877m | -12.1m/s | 0°C | 0% | 0hPa | 0V | 00:00:00 | 00:00:00 | 00:00:00 | |
| EA3GEO | 2026-09-04 00:54:40 | 41.19095 | 2.24115 | 73° | 5km/h | 937m | -11.9m/s | 0°C | 0% | 0hPa | 0V | 00:00:00 | 00:00:00 | 00:00:00 | |
| EA3IBE | 2026-09-04 00:54:35 | 41.19093 | 2.24109 | 87° | 5km/h | 997m | -11.9m/s | 0°C | 0% | 0hPa | 0V | 00:00:00 | 00:00:00 | 00:00:00 | |
| EA3GEO | 2026-09-04 00:54:34 | 41.19093 | 2.24107 | 88° | 5km/h | 1009m | -12.1m/s | 0°C | 0% | 0hPa | 0V | 00:00:00 | 00:00:00 | 00:00:00 | |
| EA3GEO | 2026-09-04 00:54:29 | 41.19096 | 2.24098 | 88° | 5km/h | 1070m | -11.6m/s | 0°C | 0% | 0hPa | 0V | 00:00:00 | 00:00:00 | 00:00:00 | |
| EA3GEO | 2026-09-04 00:54:23 | 41.19095 | 2.24084 | 55° | 7km/h | 1141m | -12.2m/s | 0°C | 0% | 0hPa | 0V | 00:00:00 | 00:00:00 | 00:00:00 | |
| EA3GEO | 2026-09-04 00:54:18 | 41.19089 | 2.24069 | 82° | 9km/h | 1205m | -12.2m/s | 0°C | 0% | 0hPa | 0V | 00:00:00 | 00:00:00 | 00:00:00 | |
| EA3IBE | 2026-09-04 00:54:15 | 41.19088 | 2.24059 | 86° | 7km/h | 1240m | -12.3m/s | 0°C | 0% | 0hPa | 0V | 00:00:00 | 00:00:00 | 00:00:00 | |
| EA3GEO | 2026-09-04 00:54:12 | 41.19089 | 2.24051 | 84° | 4km/h | 1278m | -12.8m/s | 0°C | 0% | 0hPa | 0V | 00:00:00 | 00:00:00 | 00:00:00 | |
| EA3GEO | 2026-09-04 00:54:06 | 41.19093 | 2.24033 | 101° | 9km/h | 1355m | -12.6m/s | 0°C | 0% | 0hPa | 0V | 00:00:00 | 00:00:00 | 00:00:00 | |
| EA3IBE | 2026-09-04 00:54:03 | 41.19095 | 2.24028 | 77° | 5km/h | 1393m | -13.2m/s | 0°C | 0% | 0hPa | 0V | 00:00:00 | 00:00:00 | 00:00:00 | |
| EA3GEO | 2026-09-04 00:54:00 | 41.19096 | 2.24026 | 198° | 4km/h | 1430m | -13.4m/s | 0°C | 0% | 0hPa | 0V | 00:00:00 | 00:00:00 | 00:00:00 | |
| EA3GEO | 2026-09-04 00:53:53 | 41.19104 | 2.24020 | 146° | 4km/h | 1520m | -13.1m/s | 0°C | 0% | 0hPa | 0V | 00:00:00 | 00:00:00 | 00:00:00 | |
| EA3IBE | 2026-09-04 00:53:49 | 41.19110 | 2.24013 | 159° | 9km/h | 1570m | -12.2m/s | 0°C | 0% | 0hPa | 0V | 00:00:00 | 00:00:00 | 00:00:00 | |
| EA3GEO | 2026-09-04 00:53:47 | 41.19118 | 2.24011 | 173° | 9km/h | 1605m | -11.9m/s | 0°C | 0% | 0hPa | 0V | 00:00:00 | 00:00:00 | 00:00:00 | |
| EA3IBE | 2026-09-04 00:53:44 | 41.19121 | 2.24008 | 137° | 5km/h | 1627m | -12.1m/s | 0°C | 0% | 0hPa | 0V | 00:00:00 | 00:00:00 | 00:00:00 | |
| EA3GEO | 2026-09-04 00:53:40 | 41.19124 | 2.24004 | 211° | 4km/h | 1678m | -13.5m/s | 0°C | 0% | 0hPa | 0V | 00:00:00 | 00:00:00 | 00:00:00 | |
| EA3GEO | 2026-09-04 00:53:34 | 41.19131 | 2.23996 | 100° | 4km/h | 1754m | -13.0m/s | 0°C | 0% | 0hPa | 0V | 00:00:00 | 00:00:00 | 00:00:00 | |
| EA3IBE | 2026-09-04 00:53:30 | 41.19136 | 2.23992 | 140° | 11km/h | 1806m | -13.9m/s | 0°C | 0% | 0hPa | 0V | 00:00:00 | 00:00:00 | 00:00:00 | |
| EA3GEO | 2026-09-04 00:53:26 | 41.19144 | 2.23984 | 147° | 5km/h | 1859m | -12.9m/s | 0°C | 0% | 0hPa | 0V | 00:00:00 | 00:00:00 | 00:00:00 | |
| EA3IBE | 2026-09-04 00:53:22 | 41.19150 | 2.23975 | 136° | 11km/h | 1910m | -12.3m/s | 0°C | 0% | 0hPa | 0V | 00:00:00 | 00:00:00 | 00:00:00 | |
| EA3GEO | 2026-09-04 00:53:20 | 41.19154 | 2.23970 | 134° | 11km/h | 1935m | -12.7m/s | 0°C | 0% | 0hPa | 0V | 00:00:00 | 00:00:00 | 00:00:00 | |
| EA3IBE | 2026-09-04 00:53:16 | 41.19164 | 2.23960 | 146° | 15km/h | 1986m | -12.7m/s | 0°C | 0% | 0hPa | 0V | 00:00:00 | 00:00:00 | 00:00:00 | |
| EA3GEO | 2026-09-04 00:53:15 | 41.19167 | 2.23957 | 135° | 13km/h | 1998m | -13.0m/s | 0°C | 0% | 0hPa | 0V | 00:00:00 | 00:00:00 | 00:00:00 | |
| EA3IBE | 2026-09-04 00:53:10 | 41.19184 | 2.23943 | 155° | 16km/h | 2060m | -12.5m/s | 0°C | 0% | 0hPa | 0V | 00:00:00 | 00:00:00 | 00:00:00 | |
| EA3GEO | 2026-09-04 00:53:09 | 41.19188 | 2.23941 | 164° | 16km/h | 2073m | -12.8m/s | 0°C | 0% | 0hPa | 0V | 00:00:00 | 00:00:00 | 00:00:00 | |
| EA3IBE | 2026-09-04 00:53:03 | 41.19214 | 2.23930 | 171° | 18km/h | 2148m | -12.4m/s | 0°C | 0% | 0hPa | 0V | 00:00:00 | 00:00:00 | 00:00:00 | |
| EA3IBE | 2026-09-04 00:52:57 | 41.19239 | 2.23926 | 186° | 15km/h | 2223m | -12.5m/s | 0°C | 0% | 0hPa | 0V | 00:00:00 | 00:00:00 | 00:00:00 | |
| EA3GEO | 2026-09-04 00:52:52 | 41.19256 | 2.23929 | 200° | 15km/h | 2285m | -12.2m/s | 0°C | 0% | 0hPa | 0V | 00:00:00 | 00:00:00 | 00:00:00 | |
| EA3IBE | 2026-09-04 00:52:50 | 41.19263 | 2.23932 | 206° | 13km/h | 2310m | -12.4m/s | 0°C | 0% | 0hPa | 0V | 00:00:00 | 00:00:00 | 00:00:00 | |
| EA3GEO | 2026-09-04 00:52:47 | 41.19272 | 2.23938 | 209° | 15km/h | 2347m | -12.1m/s | 0°C | 0% | 0hPa | 0V | 00:00:00 | 00:00:00 | 00:00:00 | |
| EA3IBE | 2026-09-04 00:52:44 | 41.19281 | 2.23945 | 212° | 13km/h | 2384m | -12.4m/s | 0°C | 0% | 0hPa | 0V | 00:00:00 | 00:00:00 | 00:00:00 | |
| EA3GEO | 2026-09-04 00:52:41 | 41.19287 | 2.23951 | 216° | 9km/h | 2420m | -12.5m/s | 0°C | 0% | 0hPa | 0V | 00:00:00 | 00:00:00 | 00:00:00 | |
| EA3IBE | 2026-09-04 00:52:37 | 41.19294 | 2.23958 | 204° | 7km/h | 2469m | -12.6m/s | 0°C | 0% | 0hPa | 0V | 00:00:00 | 00:00:00 | 00:00:00 | |
| EA3GEO | 2026-09-04 00:52:35 | 41.19297 | 2.23958 | 178° | 7km/h | 2493m | -12.6m/s | 0°C | 0% | 0hPa | 0V | 00:00:00 | 00:00:00 | 00:00:00 | |
| EA3GEO | 2026-09-04 00:52:29 | 41.19308 | 2.23956 | 132° | 2km/h | 2563m | -13.8m/s | 0°C | 0% | 0hPa | 0V | 00:00:00 | 00:00:00 | 00:00:00 | |
| EA3GEO | 2026-09-04 00:52:22 | 41.19316 | 2.23951 | 150° | 7km/h | 2649m | -13.5m/s | 0°C | 0% | 0hPa | 0V | 00:00:00 | 00:00:00 | 00:00:00 | |
| EA3GEO | 2026-09-04 00:52:09 | 41.19329 | 2.23949 | 204° | 2km/h | 2814m | -15.7m/s | 0°C | 0% | 0hPa | 0V | 00:00:00 | 00:00:00 | 00:00:00 | |
| EA3GEO | 2026-09-04 00:52:01 | 41.19342 | 2.23947 | 112° | 4km/h | 2915m | -13.9m/s | 0°C | 0% | 0hPa | 0V | 00:00:00 | 00:00:00 | 00:00:00 | |
| EA3GEO | 2026-09-04 00:51:44 | 41.19371 | 2.23938 | 195° | 7km/h | 3131m | -13.0m/s | 0°C | 0% | 0hPa | 0V | 00:00:00 | 00:00:00 | 00:00:00 | |
| EA3GEO | 2026-09-04 00:51:20 | 41.19431 | 2.23949 | 153° | 9km/h | 3441m | -13.6m/s | 0°C | 0% | 0hPa | 0V | 00:00:00 | 00:00:00 | 00:00:00 | |
| EA3GEO | 2026-09-04 00:51:14 | 41.19443 | 2.23941 | 145° | 11km/h | 3521m | -13.9m/s | 0°C | 0% | 0hPa | 0V | 00:00:00 | 00:00:00 | 00:00:00 | |
| EA3GEO | 2026-09-04 00:51:06 | 41.19459 | 2.23925 | 140° | 13km/h | 3631m | -15.0m/s | 0°C | 0% | 0hPa | 0V | 00:00:00 | 00:00:00 | 00:00:00 | |
| EA3GEO | 2026-09-04 00:50:56 | 41.19479 | 2.23917 | 181° | 9km/h | 3773m | -13.8m/s | 0°C | 0% | 0hPa | 0V | 00:00:00 | 00:00:00 | 00:00:00 | |
| EA3GEO | 2026-09-04 00:50:41 | 41.19541 | 2.23910 | 176° | 24km/h | 3991m | -15.0m/s | 0°C | 0% | 0hPa | 0V | 00:00:00 | 00:00:00 | 00:00:00 | |
| EA3GEO | 2026-09-04 00:50:37 | 41.19566 | 2.23900 | 143° | 20km/h | 4063m | -14.5m/s | 0°C | 0% | 0hPa | 0V | 00:00:00 | 00:00:00 | 00:00:00 | |
| EA3GEO | 2026-09-04 00:50:30 | 41.19587 | 2.23879 | 157° | 18km/h | 4148m | -14.0m/s | 0°C | 0% | 0hPa | 0V | 00:00:00 | 00:00:00 | 00:00:00 | |
| EA3GEO | 2026-09-04 00:50:25 | 41.19610 | 2.23866 | 156° | 18km/h | 4217m | -14.0m/s | 0°C | 0% | 0hPa | 0V | 00:00:00 | 00:00:00 | 00:00:00 | |
| EA3GEO | 2026-09-04 00:50:19 | 41.19632 | 2.23853 | 168° | 15km/h | 4306m | -14.5m/s | 0°C | 0% | 0hPa | 0V | 00:00:00 | 00:00:00 | 00:00:00 | |
| EA3GEO | 2026-09-04 00:50:12 | 41.19655 | 2.23846 | 169° | 16km/h | 4408m | -14.2m/s | 0°C | 0% | 0hPa | 0V | 00:00:00 | 00:00:00 | 00:00:00 | |
| EA3GEO | 2026-09-04 00:50:07 | 41.19671 | 2.23840 | 151° | 9km/h | 4480m | -14.3m/s | 0°C | 0% | 0hPa | 0V | 00:00:00 | 00:00:00 | 00:00:00 | |
| EA3GEO | 2026-09-04 00:50:01 | 41.19692 | 2.23823 | 158° | 20km/h | 4560m | -13.1m/s | 0°C | 0% | 0hPa | 0V | 00:00:00 | 00:00:00 | 00:00:00 | |
| EA3GEO | 2026-09-04 00:49:55 | 41.19719 | 2.23810 | 165° | 18km/h | 4639m | -13.2m/s | 0°C | 0% | 0hPa | 0V | 00:00:00 | 00:00:00 | 00:00:00 | |
| EA3GEO | 2026-09-04 00:49:50 | 41.19740 | 2.23801 | 160° | 16km/h | 4704m | -12.9m/s | 0°C | 0% | 0hPa | 0V | 00:00:00 | 00:00:00 | 00:00:00 | |
| EA3GEO | 2026-09-04 00:49:38 | 41.19786 | 2.23774 | 156° | 13km/h | 4862m | -12.9m/s | 0°C | 0% | 0hPa | 0V | 00:00:00 | 00:00:00 | 00:00:00 | |
| EA3GEO | 2026-09-04 00:49:33 | 41.19800 | 2.23767 | 167° | 11km/h | 4927m | -12.9m/s | 0°C | 0% | 0hPa | 0V | 00:00:00 | 00:00:00 | 00:00:00 | |
| EA3GEO | 2026-09-04 00:49:27 | 41.19811 | 2.23760 | 146° | 7km/h | 5007m | -13.7m/s | 0°C | 0% | 0hPa | 0V | 00:00:00 | 00:00:00 | 00:00:00 | |
| EA3GEO | 2026-09-04 00:49:21 | 41.19818 | 2.23753 | 141° | 4km/h | 5087m | -13.2m/s | 0°C | 0% | 0hPa | 0V | 00:00:00 | 00:00:00 | 00:00:00 | |
| EA3GEO | 2026-09-04 00:49:15 | 41.19825 | 2.23748 | 151° | 7km/h | 5167m | -13.3m/s | 0°C | 0% | 0hPa | 0V | 00:00:00 | 00:00:00 | 00:00:00 | |
| EA3GEO | 2026-09-04 00:49:10 | 41.19834 | 2.23740 | 148° | 9km/h | 5234m | -13.3m/s | 0°C | 0% | 0hPa | 0V | 00:00:00 | 00:00:00 | 00:00:00 | |
| EA3GEO | 2026-09-04 00:49:04 | 41.19845 | 2.23727 | 130° | 11km/h | 5314m | -13.5m/s | 0°C | 0% | 0hPa | 0V | 00:00:00 | 00:00:00 | 00:00:00 | |
| EA3GEO | 2026-09-04 00:48:58 | 41.19858 | 2.23711 | 144° | 13km/h | 5394m | -13.4m/s | 0°C | 0% | 0hPa | 0V | 00:00:00 | 00:00:00 | 00:00:00 | |
| EA3GEO | 2026-09-04 00:48:52 | 41.19877 | 2.23694 | 156° | 15km/h | 5475m | -13.0m/s | 0°C | 0% | 0hPa | 0V | 00:00:00 | 00:00:00 | 00:00:00 | |
| EA3GEO | 2026-09-04 00:48:46 | 41.19897 | 2.23685 | 159° | 15km/h | 5555m | -13.4m/s | 0°C | 0% | 0hPa | 0V | 00:00:00 | 00:00:00 | 00:00:00 | |
| EA3GEO | 2026-09-04 00:48:41 | 41.19914 | 2.23676 | 158° | 16km/h | 5623m | -13.6m/s | 0°C | 0% | 0hPa | 0V | 00:00:00 | 00:00:00 | 00:00:00 | |
| EA3GEO | 2026-09-04 00:48:35 | 41.19936 | 2.23662 | 154° | 18km/h | 5705m | -13.7m/s | 0°C | 0% | 0hPa | 0V | 00:00:00 | 00:00:00 | 00:00:00 | |
| EA3GEO | 2026-09-04 00:48:30 | 41.19955 | 2.23651 | 151° | 15km/h | 5773m | -13.6m/s | 0°C | 0% | 0hPa | 0V | 00:00:00 | 00:00:00 | 00:00:00 | |
| EA3GEO | 2026-09-04 00:48:24 | 41.19971 | 2.23632 | 139° | 15km/h | 5854m | -13.6m/s | 0°C | 0% | 0hPa | 0V | 00:00:00 | 00:00:00 | 00:00:00 | |
| EA3GEO | 2026-09-04 00:48:19 | 41.19985 | 2.23615 | 131° | 13km/h | 5922m | -13.6m/s | 0°C | 0% | 0hPa | 0V | 00:00:00 | 00:00:00 | 00:00:00 | |
| EA3GEO | 2026-09-04 00:48:14 | 41.19997 | 2.23598 | 134° | 15km/h | 5991m | -13.7m/s | 0°C | 0% | 0hPa | 0V | 00:00:00 | 00:00:00 | 00:00:00 | |
| EA3IBE | 2026-09-04 00:48:13 | 41.20001 | 2.23591 | 134° | 13km/h | 6018m | -13.5m/s | 0°C | 0% | 0hPa | 0V | 00:00:00 | 00:00:00 | 00:00:00 | |
| EA3GEO | 2026-09-04 00:48:08 | 41.20010 | 2.23580 | 135° | 13km/h | 6073m | -13.7m/s | 0°C | 0% | 0hPa | 0V | 00:00:00 | 00:00:00 | 00:00:00 | |
| EA3GEO | 2026-09-04 00:48:03 | 41.20021 | 2.23564 | 137° | 15km/h | 6143m | -14.0m/s | 0°C | 0% | 0hPa | 0V | 00:00:00 | 00:00:00 | 00:00:00 | |
| EA3IBE | 2026-09-04 00:48:01 | 41.20026 | 2.23557 | 138° | 15km/h | 6171m | -13.8m/s | 0°C | 0% | 0hPa | 0V | 00:00:00 | 00:00:00 | 00:00:00 | |
| EA3GEO | 2026-09-04 00:47:58 | 41.20034 | 2.23547 | 134° | 16km/h | 6212m | -14.1m/s | 0°C | 0% | 0hPa | 0V | 00:00:00 | 00:00:00 | 00:00:00 | |
| EA3IBE | 2026-09-04 00:47:56 | 41.20039 | 2.23540 | 138° | 15km/h | 6240m | -14.2m/s | 0°C | 0% | 0hPa | 0V | 00:00:00 | 00:00:00 | 00:00:00 | |
| EA3GEO | 2026-09-04 00:47:52 | 41.20050 | 2.23526 | 143° | 15km/h | 6297m | -14.2m/s | 0°C | 0% | 0hPa | 0V | 00:00:00 | 00:00:00 | 00:00:00 | |
| EA3IBE | 2026-09-04 00:47:49 | 41.20056 | 2.23519 | 159° | 15km/h | 6340m | -14.3m/s | 0°C | 0% | 0hPa | 0V | 00:00:00 | 00:00:00 | 00:00:00 | |
| EA3GEO | 2026-09-04 00:47:46 | 41.20067 | 2.23510 | 143° | 16km/h | 6381m | -13.6m/s | 0°C | 0% | 0hPa | 0V | 00:00:00 | 00:00:00 | 00:00:00 | |
| EA3IBE | 2026-09-04 00:47:44 | 41.20074 | 2.23503 | 157° | 18km/h | 6410m | -13.8m/s | 0°C | 0% | 0hPa | 0V | 00:00:00 | 00:00:00 | 00:00:00 | |
| EA3GEO | 2026-09-04 00:47:40 | 41.20089 | 2.23497 | 166° | 13km/h | 6465m | -12.1m/s | 0°C | 0% | 0hPa | 0V | 00:00:00 | 00:00:00 | 00:00:00 | |
| EA3IBE | 2026-09-04 00:47:35 | 41.20106 | 2.23484 | 149° | 18km/h | 6529m | -14.0m/s | 0°C | 0% | 0hPa | 0V | 00:00:00 | 00:00:00 | 00:00:00 | |
| EA3GEO | 2026-09-04 00:47:33 | 41.20113 | 2.23478 | 148° | 22km/h | 6555m | -10.5m/s | 0°C | 0% | 0hPa | 0V | 00:00:00 | 00:00:00 | 00:00:00 | |
| EA3IBE | 2026-09-04 00:47:27 | 41.20136 | 2.23457 | 153° | 20km/h | 6633m | -14.4m/s | 0°C | 0% | 0hPa | 0V | 00:00:00 | 00:00:00 | 00:00:00 | |
| EA3IBE | 2026-09-04 00:47:22 | 41.20154 | 2.23443 | 153° | 13km/h | 6705m | -14.6m/s | 0°C | 0% | 0hPa | 0V | 00:00:00 | 00:00:00 | 00:00:00 | |
| EA3GEO | 2026-09-04 00:47:17 | 41.20169 | 2.23428 | 146° | 18km/h | 6782m | -16.3m/s | 0°C | 0% | 0hPa | 0V | 00:00:00 | 00:00:00 | 00:00:00 | |
| EA3IBE | 2026-09-04 00:47:16 | 41.20173 | 2.23424 | 144° | 22km/h | 6799m | -16.4m/s | 0°C | 0% | 0hPa | 0V | 00:00:00 | 00:00:00 | 00:00:00 | |
| EA3GEO | 2026-09-04 00:47:11 | 41.20191 | 2.23407 | 127° | 16km/h | 6876m | -14.9m/s | 0°C | 0% | 0hPa | 0V | 00:00:00 | 00:00:00 | 00:00:00 | |
| EA3IBE | 2026-09-04 00:47:10 | 41.20194 | 2.23403 | 135° | 18km/h | 6891m | -15.2m/s | 0°C | 0% | 0hPa | 0V | 00:00:00 | 00:00:00 | 00:00:00 | |
| EA3GEO | 2026-09-04 00:47:06 | 41.20206 | 2.23382 | 130° | 24km/h | 6956m | -16.1m/s | 0°C | 0% | 0hPa | 0V | 00:00:00 | 00:00:00 | 00:00:00 | |
| EA3IBE | 2026-09-04 00:47:05 | 41.20210 | 2.23376 | 131° | 24km/h | 6973m | -16.3m/s | 0°C | 0% | 0hPa | 0V | 00:00:00 | 00:00:00 | 00:00:00 | |
| EA3GEO | 2026-09-04 00:47:01 | 41.20225 | 2.23353 | 136° | 24km/h | 7038m | -15.2m/s | 0°C | 0% | 0hPa | 0V | 00:00:00 | 00:00:00 | 00:00:00 | |
| EA3IBE | 2026-09-04 00:47:00 | 41.20229 | 2.23348 | 137° | 26km/h | 7054m | -15.2m/s | 0°C | 0% | 0hPa | 0V | 00:00:00 | 00:00:00 | 00:00:00 | |
| EA3GEO | 2026-09-04 00:46:56 | 41.20249 | 2.23325 | 149° | 24km/h | 7113m | -15.4m/s | 0°C | 0% | 0hPa | 0V | 00:00:00 | 00:00:00 | 00:00:00 | |
| EA3IBE | 2026-09-04 00:46:54 | 41.20259 | 2.23316 | 153° | 22km/h | 7143m | -15.4m/s | 0°C | 0% | 0hPa | 0V | 00:00:00 | 00:00:00 | 00:00:00 | |
| EA3GEO | 2026-09-04 00:46:50 | 41.20277 | 2.23300 | 158° | 18km/h | 7205m | -15.1m/s | 0°C | 0% | 0hPa | 0V | 00:00:00 | 00:00:00 | 00:00:00 | |
| EA3IBE | 2026-09-04 00:46:48 | 41.20286 | 2.23293 | 161° | 18km/h | 7235m | -15.8m/s | 0°C | 0% | 0hPa | 0V | 00:00:00 | 00:00:00 | 00:00:00 | |
| EA3GEO | 2026-09-04 00:46:45 | 41.20299 | 2.23286 | 164° | 16km/h | 7280m | -15.0m/s | 0°C | 0% | 0hPa | 0V | 00:00:00 | 00:00:00 | 00:00:00 | |
| EA3IBE | 2026-09-04 00:46:42 | 41.20313 | 2.23280 | 149° | 16km/h | 7326m | -15.9m/s | 0°C | 0% | 0hPa | 0V | 00:00:00 | 00:00:00 | 00:00:00 | |
| EA3GEO | 2026-09-04 00:46:39 | 41.20322 | 2.23274 | 145° | 16km/h | 7376m | -15.9m/s | 0°C | 0% | 0hPa | 0V | 00:00:00 | 00:00:00 | 00:00:00 | |
| EA3IBE | 2026-09-04 00:46:36 | 41.20333 | 2.23267 | 154° | 18km/h | 7425m | -15.6m/s | 0°C | 0% | 0hPa | 0V | 00:00:00 | 00:00:00 | 00:00:00 | |
| EA3GEO | 2026-09-04 00:46:34 | 41.20340 | 2.23262 | 154° | 16km/h | 7457m | -15.0m/s | 0°C | 0% | 0hPa | 0V | 00:00:00 | 00:00:00 | 00:00:00 | |
| EA3IBE | 2026-09-04 00:46:30 | 41.20353 | 2.23251 | 139° | 15km/h | 7520m | -16.8m/s | 0°C | 0% | 0hPa | 0V | 00:00:00 | 00:00:00 | 00:00:00 | |
| EA3GEO | 2026-09-04 00:46:29 | 41.20356 | 2.23247 | 145° | 18km/h | 7537m | -15.3m/s | 0°C | 0% | 0hPa | 0V | 00:00:00 | 00:00:00 | 00:00:00 | |
| EA3IBE | 2026-09-04 00:46:24 | 41.20375 | 2.23230 | 145° | 16km/h | 7614m | -15.4m/s | 0°C | 0% | 0hPa | 0V | 00:00:00 | 00:00:00 | 00:00:00 | |
| EA3GEO | 2026-09-04 00:46:23 | 41.20378 | 2.23227 | 142° | 16km/h | 7629m | -14.8m/s | 0°C | 0% | 0hPa | 0V | 00:00:00 | 00:00:00 | 00:00:00 | |
| EA3GEO | 2026-09-04 00:46:18 | 41.20390 | 2.23207 | 124° | 15km/h | 7707m | -16.3m/s | 0°C | 0% | 0hPa | 0V | 00:00:00 | 00:00:00 | 00:00:00 | |
| EA3IBE | 2026-09-04 00:46:14 | 41.20395 | 2.23189 | 105° | 16km/h | 7768m | -15.8m/s | 0°C | 0% | 0hPa | 0V | 00:00:00 | 00:00:00 | 00:00:00 | |
| EA3GEO | 2026-09-04 00:46:13 | 41.20398 | 2.23179 | 121° | 16km/h | 7799m | -15.2m/s | 0°C | 0% | 0hPa | 0V | 00:00:00 | 00:00:00 | 00:00:00 | |
| EA3IBE | 2026-09-04 00:46:08 | 41.20410 | 2.23164 | 135° | 15km/h | 7863m | -16.8m/s | 0°C | 0% | 0hPa | 0V | 00:00:00 | 00:00:00 | 00:00:00 | |
| EA3GEO | 2026-09-04 00:46:07 | 41.20412 | 2.23162 | 148° | 15km/h | 7880m | -16.4m/s | 0°C | 0% | 0hPa | 0V | 00:00:00 | 00:00:00 | 00:00:00 | |
| EA3IBE | 2026-09-04 00:46:02 | 41.20430 | 2.23151 | 143° | 15km/h | 7960m | -16.7m/s | 0°C | 0% | 0hPa | 0V | 00:00:00 | 00:00:00 | 00:00:00 | |
| EA3GEO | 2026-09-04 00:46:01 | 41.20432 | 2.23149 | 150° | 13km/h | 7977m | -16.3m/s | 0°C | 0% | 0hPa | 0V | 00:00:00 | 00:00:00 | 00:00:00 | |
| EA3GEO | 2026-09-04 00:45:56 | 41.20449 | 2.23135 | 144° | 20km/h | 8057m | -16.0m/s | 0°C | 0% | 0hPa | 0V | 00:00:00 | 00:00:00 | 00:00:00 | |
| EA3GEO | 2026-09-04 00:45:51 | 41.20471 | 2.23118 | 151° | 22km/h | 8138m | -15.9m/s | 0°C | 0% | 0hPa | 0V | 00:00:00 | 00:00:00 | 00:00:00 | |
| EA3IBE | 2026-09-04 00:45:50 | 41.20476 | 2.23114 | 148° | 24km/h | 8154m | -15.6m/s | 0°C | 0% | 0hPa | 0V | 00:00:00 | 00:00:00 | 00:00:00 | |
| EA3GEO | 2026-09-04 00:45:45 | 41.20498 | 2.23093 | 137° | 20km/h | 8236m | -15.3m/s | 0°C | 0% | 0hPa | 0V | 00:00:00 | 00:00:00 | 00:00:00 | |
| EA3IBE | 2026-09-04 00:45:41 | 41.20510 | 2.23071 | 116° | 20km/h | 8300m | -16.9m/s | 0°C | 0% | 0hPa | 0V | 00:00:00 | 00:00:00 | 00:00:00 | |
| EA3GEO | 2026-09-04 00:45:40 | 41.20512 | 2.23064 | 111° | 20km/h | 8316m | -16.8m/s | 0°C | 0% | 0hPa | 0V | 00:00:00 | 00:00:00 | 00:00:00 | |
| EA3IBE | 2026-09-04 00:45:35 | 41.20523 | 2.23029 | 111° | 24km/h | 8399m | -17.1m/s | 0°C | 0% | 0hPa | 0V | 00:00:00 | 00:00:00 | 00:00:00 | |
| EA3GEO | 2026-09-04 00:45:34 | 41.20525 | 2.23022 | 113° | 24km/h | 8416m | -15.9m/s | 0°C | 0% | 0hPa | 0V | 00:00:00 | 00:00:00 | 00:00:00 | |
| EA3IBE | 2026-09-04 00:45:30 | 41.20534 | 2.22994 | 117° | 22km/h | 8480m | -15.9m/s | 0°C | 0% | 0hPa | 0V | 00:00:00 | 00:00:00 | 00:00:00 | |
| EA3GEO | 2026-09-04 00:45:28 | 41.20538 | 2.22981 | 114° | 22km/h | 8511m | -16.9m/s | 0°C | 0% | 0hPa | 0V | 00:00:00 | 00:00:00 | 00:00:00 | |
| EA3IBE | 2026-09-04 00:45:24 | 41.20547 | 2.22954 | 116° | 20km/h | 8581m | -17.6m/s | 0°C | 0% | 0hPa | 0V | 00:00:00 | 00:00:00 | 00:00:00 | |
| EA3GEO | 2026-09-04 00:45:22 | 41.20550 | 2.22942 | 103° | 20km/h | 8615m | -17.4m/s | 0°C | 0% | 0hPa | 0V | 00:00:00 | 00:00:00 | 00:00:00 | |
| EA3IBE | 2026-09-04 00:45:18 | 41.20556 | 2.22916 | 101° | 20km/h | 8683m | -16.8m/s | 0°C | 0% | 0hPa | 0V | 00:00:00 | 00:00:00 | 00:00:00 | |
| EA3GEO | 2026-09-04 00:45:17 | 41.20558 | 2.22903 | 91° | 16km/h | 8717m | -17.6m/s | 0°C | 0% | 0hPa | 0V | 00:00:00 | 00:00:00 | 00:00:00 | |
| EA3IBE | 2026-09-04 00:45:13 | 41.20561 | 2.22884 | 113° | 24km/h | 8768m | -16.3m/s | 0°C | 0% | 0hPa | 0V | 00:00:00 | 00:00:00 | 00:00:00 | |
| EA3GEO | 2026-09-04 00:45:10 | 41.20565 | 2.22862 | 113° | 24km/h | 8818m | -16.5m/s | 0°C | 0% | 0hPa | 0V | 00:00:00 | 00:00:00 | 00:00:00 | |
| EA3IBE | 2026-09-04 00:45:07 | 41.20570 | 2.22843 | 103° | 20km/h | 8868m | -16.5m/s | 0°C | 0% | 0hPa | 0V | 00:00:00 | 00:00:00 | 00:00:00 | |
| EA3GEO | 2026-09-04 00:45:04 | 41.20575 | 2.22826 | 103° | 18km/h | 8921m | -17.8m/s | 0°C | 0% | 0hPa | 0V | 00:00:00 | 00:00:00 | 00:00:00 | |
| EA3IBE | 2026-09-04 00:45:02 | 41.20579 | 2.22816 | 131° | 16km/h | 8955m | -17.4m/s | 0°C | 0% | 0hPa | 0V | 00:00:00 | 00:00:00 | 00:00:00 | |
| EA3IBE | 2026-09-04 00:44:56 | 41.20585 | 2.22794 | 98° | 11km/h | 9052m | -16.2m/s | 0°C | 0% | 0hPa | 0V | 00:00:00 | 00:00:00 | 00:00:00 | |
| EA3GEO | 2026-09-04 00:44:53 | 41.20589 | 2.22785 | 132° | 13km/h | 9102m | -17.8m/s | 0°C | 0% | 0hPa | 0V | 00:00:00 | 00:00:00 | 00:00:00 | |
| EA3IBE | 2026-09-04 00:44:51 | 41.20592 | 2.22778 | 120° | 15km/h | 9137m | -17.2m/s | 0°C | 0% | 0hPa | 0V | 00:00:00 | 00:00:00 | 00:00:00 | |
| EA3GEO | 2026-09-04 00:44:48 | 41.20595 | 2.22770 | 143° | 11km/h | 9188m | -16.0m/s | 0°C | 0% | 0hPa | 0V | 00:00:00 | 00:00:00 | 00:00:00 | |
| EA3IBE | 2026-09-04 00:44:45 | 41.20598 | 2.22762 | 112° | 9km/h | 9240m | -18.6m/s | 0°C | 0% | 0hPa | 0V | 00:00:00 | 00:00:00 | 00:00:00 | |
| EA3GEO | 2026-09-04 00:44:42 | 41.20601 | 2.22752 | 111° | 9km/h | 9294m | -18.2m/s | 0°C | 0% | 0hPa | 0V | 00:00:00 | 00:00:00 | 00:00:00 | |
| EA3IBE | 2026-09-04 00:44:39 | 41.20604 | 2.22743 | 123° | 7km/h | 9347m | -17.4m/s | 0°C | 0% | 0hPa | 0V | 00:00:00 | 00:00:00 | 00:00:00 | |
| EA3GEO | 2026-09-04 00:44:36 | 41.20608 | 2.22734 | 114° | 9km/h | 9399m | -16.3m/s | 0°C | 0% | 0hPa | 0V | 00:00:00 | 00:00:00 | 00:00:00 | |
| EA3IBE | 2026-09-04 00:44:30 | 41.20620 | 2.22711 | 121° | 15km/h | 9501m | -15.1m/s | 0°C | 0% | 0hPa | 0V | 00:00:00 | 00:00:00 | 00:00:00 | |
| EA3IBE | 2026-09-04 00:44:24 | 41.20634 | 2.22687 | 132° | 13km/h | 9603m | -17.5m/s | 0°C | 0% | 0hPa | 0V | 00:00:00 | 00:00:00 | 00:00:00 | |
| EA3IBE | 2026-09-04 00:44:19 | 41.20645 | 2.22669 | 139° | 16km/h | 9691m | -14.8m/s | 0°C | 0% | 0hPa | 0V | 00:00:00 | 00:00:00 | 00:00:00 | |
| EA3GEO | 2026-09-04 00:44:18 | 41.20648 | 2.22664 | 139° | 18km/h | 9705m | -13.6m/s | 0°C | 0% | 0hPa | 0V | 00:00:00 | 00:00:00 | 00:00:00 | |
| EA3IBE | 2026-09-04 00:44:13 | 41.20662 | 2.22648 | 133° | 13km/h | 9787m | -18.0m/s | 0°C | 0% | 0hPa | 0V | 00:00:00 | 00:00:00 | 00:00:00 | |
| EA3GEO | 2026-09-04 00:44:08 | 41.20675 | 2.22627 | 130° | 20km/h | 9871m | -17.3m/s | 0°C | 0% | 0hPa | 0V | 00:00:00 | 00:00:00 | 00:00:00 | |
| EA3IBE | 2026-09-04 00:44:07 | 41.20678 | 2.22622 | 135° | 16km/h | 9889m | -17.7m/s | 0°C | 0% | 0hPa | 0V | 00:00:00 | 00:00:00 | 00:00:00 | |
| EA3IBE | 2026-09-04 00:44:02 | 41.20693 | 2.22598 | 129° | 22km/h | 9972m | -18.2m/s | 0°C | 0% | 0hPa | 0V | 00:00:00 | 00:00:00 | 00:00:00 | |
| EA3IBE | 2026-09-04 00:43:56 | 41.20711 | 2.22567 | 106° | 20km/h | 10072m | -16.6m/s | 0°C | 0% | 0hPa | 0V | 00:00:00 | 00:00:00 | 00:00:00 | |
| EA3IBE | 2026-09-04 00:43:50 | 41.20724 | 2.22530 | 126° | 24km/h | 10181m | -18.2m/s | 0°C | 0% | 0hPa | 0V | 00:00:00 | 00:00:00 | 00:00:00 | |
| EA3GEO | 2026-09-04 00:43:45 | 41.20745 | 2.22503 | 132° | 22km/h | 10264m | -15.8m/s | 0°C | 0% | 0hPa | 0V | 00:00:00 | 00:00:00 | 00:00:00 | |
| EA3IBE | 2026-09-04 00:43:40 | 41.20765 | 2.22473 | 143° | 26km/h | 10345m | -16.0m/s | 0°C | 0% | 0hPa | 0V | 00:00:00 | 00:00:00 | 00:00:00 | |
| EA3GEO | 2026-09-04 00:43:39 | 41.20770 | 2.22468 | 146° | 22km/h | 10361m | -16.4m/s | 0°C | 0% | 0hPa | 0V | 00:00:00 | 00:00:00 | 00:00:00 | |
| EA3IBE | 2026-09-04 00:43:35 | 41.20787 | 2.22447 | 138° | 26km/h | 10432m | -19.6m/s | 0°C | 0% | 0hPa | 0V | 00:00:00 | 00:00:00 | 00:00:00 | |
| EA3GEO | 2026-09-04 00:43:33 | 41.20797 | 2.22436 | 143° | 27km/h | 10473m | -19.4m/s | 0°C | 0% | 0hPa | 0V | 00:00:00 | 00:00:00 | 00:00:00 | |
| EA3GEO | 2026-09-04 00:43:28 | 41.20820 | 2.22409 | 133° | 27km/h | 10554m | -13.9m/s | 0°C | 0% | 0hPa | 0V | 00:00:00 | 00:00:00 | 00:00:00 | |
| EA3IBE | 2026-09-04 00:43:26 | 41.20828 | 2.22398 | 144° | 26km/h | 10584m | -15.1m/s | 0°C | 0% | 0hPa | 0V | 00:00:00 | 00:00:00 | 00:00:00 | |
| EA3GEO | 2026-09-04 00:43:17 | 41.20873 | 2.22359 | 136° | 22km/h | 10739m | -15.4m/s | 0°C | 0% | 0hPa | 0V | 00:00:00 | 00:00:00 | 00:00:00 | |
| EA3IBE | 2026-09-04 00:43:11 | 41.20901 | 2.22337 | 158° | 20km/h | 10839m | -19.7m/s | 0°C | 0% | 0hPa | 0V | 00:00:00 | 00:00:00 | 00:00:00 | |
| EA3GEO | 2026-09-04 00:43:06 | 41.20923 | 2.22319 | 137° | 22km/h | 10933m | -16.2m/s | 0°C | 0% | 0hPa | 0V | 00:00:00 | 00:00:00 | 00:00:00 | |
| EA3IBE | 2026-09-04 00:43:05 | 41.20928 | 2.22316 | 153° | 24km/h | 10949m | -15.5m/s | 0°C | 0% | 0hPa | 0V | 00:00:00 | 00:00:00 | 00:00:00 | |
| EA3GEO | 2026-09-04 00:43:01 | 41.20951 | 2.22303 | 163° | 27km/h | 11012m | -17.5m/s | 0°C | 0% | 0hPa | 0V | 00:00:00 | 00:00:00 | 00:00:00 | |
| EA3GEO | 2026-09-04 00:42:55 | 41.20983 | 2.22286 | 158° | 15km/h | 11123m | -17.4m/s | 0°C | 0% | 0hPa | 0V | 00:00:00 | 00:00:00 | 00:00:00 | |
| EA3IBE | 2026-09-04 00:42:50 | 41.21006 | 2.22274 | 150° | 16km/h | 11208m | -17.1m/s | 0°C | 0% | 0hPa | 0V | 00:00:00 | 00:00:00 | 00:00:00 | |
| EA3IBE | 2026-09-04 00:42:44 | 41.21036 | 2.22262 | 150° | 15km/h | 11318m | -19.3m/s | 0°C | 0% | 0hPa | 0V | 00:00:00 | 00:00:00 | 00:00:00 | |
| EA3IBE | 2026-09-04 00:42:38 | 41.21058 | 2.22241 | 141° | 22km/h | 11418m | -13.0m/s | 0°C | 0% | 0hPa | 0V | 00:00:00 | 00:00:00 | 00:00:00 | |
| EA3GEO | 2026-09-04 00:42:32 | 41.21082 | 2.22225 | 162° | 16km/h | 11523m | -18.0m/s | 0°C | 0% | 0hPa | 0V | 00:00:00 | 00:00:00 | 00:00:00 | |
| EA3IBE | 2026-09-04 00:42:31 | 41.21086 | 2.22222 | 159° | 18km/h | 11541m | -19.0m/s | 0°C | 0% | 0hPa | 0V | 00:00:00 | 00:00:00 | 00:00:00 | |
| EA3GEO | 2026-09-04 00:42:27 | 41.21101 | 2.22212 | 153° | 13km/h | 11610m | -19.0m/s | 0°C | 0% | 0hPa | 0V | 00:00:00 | 00:00:00 | 00:00:00 | |
| EA3IBE | 2026-09-04 00:42:24 | 41.21113 | 2.22205 | 150° | 16km/h | 11667m | -18.8m/s | 0°C | 0% | 0hPa | 0V | 00:00:00 | 00:00:00 | 00:00:00 | |
| EA3GEO | 2026-09-04 00:42:22 | 41.21120 | 2.22199 | 146° | 13km/h | 11705m | -19.6m/s | 0°C | 0% | 0hPa | 0V | 00:00:00 | 00:00:00 | 00:00:00 | |
| EA3IBE | 2026-09-04 00:42:19 | 41.21128 | 2.22195 | 165° | 11km/h | 11762m | -19.1m/s | 0°C | 0% | 0hPa | 0V | 00:00:00 | 00:00:00 | 00:00:00 | |
| EA3GEO | 2026-09-04 00:42:16 | 41.21140 | 2.22193 | 181° | 13km/h | 11815m | -17.6m/s | 0°C | 0% | 0hPa | 0V | 00:00:00 | 00:00:00 | 00:00:00 | |
| EA3IBE | 2026-09-04 00:42:13 | 41.21149 | 2.22193 | 188° | 11km/h | 11870m | -19.4m/s | 0°C | 0% | 0hPa | 0V | 00:00:00 | 00:00:00 | 00:00:00 | |
| EA3GEO | 2026-09-04 00:42:11 | 41.21155 | 2.22193 | 194° | 11km/h | 11909m | -19.3m/s | 0°C | 0% | 0hPa | 0V | 00:00:00 | 00:00:00 | 00:00:00 | |
| EA3IBE | 2026-09-04 00:42:07 | 41.21165 | 2.22198 | 210° | 13km/h | 11987m | -19.6m/s | 0°C | 0% | 0hPa | 0V | 00:00:00 | 00:00:00 | 00:00:00 | |
| EA3GEO | 2026-09-04 00:42:05 | 41.21172 | 2.22202 | 202° | 15km/h | 12027m | -20.5m/s | 0°C | 0% | 0hPa | 0V | 00:00:00 | 00:00:00 | 00:00:00 | |
| EA3IBE | 2026-09-04 00:42:02 | 41.21182 | 2.22203 | 193° | 11km/h | 12088m | -19.9m/s | 0°C | 0% | 0hPa | 0V | 00:00:00 | 00:00:00 | 00:00:00 | |
| EA3GEO | 2026-09-04 00:41:59 | 41.21192 | 2.22204 | 186° | 16km/h | 12148m | -18.3m/s | 0°C | 0% | 0hPa | 0V | 00:00:00 | 00:00:00 | 00:00:00 | |
| EA3IBE | 2026-09-04 00:41:57 | 41.21201 | 2.22205 | 191° | 18km/h | 12183m | -16.3m/s | 0°C | 0% | 0hPa | 0V | 00:00:00 | 00:00:00 | 00:00:00 | |
| EA3GEO | 2026-09-04 00:41:54 | 41.21215 | 2.22209 | 188° | 16km/h | 12235m | -17.7m/s | 0°C | 0% | 0hPa | 0V | 00:00:00 | 00:00:00 | 00:00:00 | |
| EA3IBE | 2026-09-04 00:41:50 | 41.21231 | 2.22213 | 193° | 18km/h | 12309m | -19.0m/s | 0°C | 0% | 0hPa | 0V | 00:00:00 | 00:00:00 | 00:00:00 | |
| EA3GEO | 2026-09-04 00:41:49 | 41.21235 | 2.22215 | 200° | 20km/h | 12327m | -17.9m/s | 0°C | 0% | 0hPa | 0V | 00:00:00 | 00:00:00 | 00:00:00 | |
| EA3GEO | 2026-09-04 00:41:44 | 41.21264 | 2.22227 | 199° | 26km/h | 12418m | -17.0m/s | 0°C | 0% | 0hPa | 0V | 00:00:00 | 00:00:00 | 00:00:00 | |
| EA3IBE | 2026-09-04 00:41:39 | 41.21294 | 2.22237 | 189° | 27km/h | 12506m | -19.6m/s | 0°C | 0% | 0hPa | 0V | 00:00:00 | 00:00:00 | 00:00:00 | |
| EA3IBE | 2026-09-04 00:41:34 | 41.21326 | 2.22242 | 189° | 26km/h | 12598m | -19.2m/s | 0°C | 0% | 0hPa | 0V | 00:00:00 | 00:00:00 | 00:00:00 | |
| EA3IBE | 2026-09-04 00:41:28 | 41.21364 | 2.22249 | 192° | 29km/h | 12713m | -19.8m/s | 0°C | 0% | 0hPa | 0V | 00:00:00 | 00:00:00 | 00:00:00 | |
| EA3IBE | 2026-09-04 00:41:23 | 41.21397 | 2.22256 | 192° | 26km/h | 12816m | -20.4m/s | 0°C | 0% | 0hPa | 0V | 00:00:00 | 00:00:00 | 00:00:00 | |
| EA3IBE | 2026-09-04 00:41:18 | 41.21429 | 2.22258 | 178° | 31km/h | 12917m | -20.9m/s | 0°C | 0% | 0hPa | 0V | 00:00:00 | 00:00:00 | 00:00:00 | |
| EA3GEO | 2026-09-04 00:41:17 | 41.21436 | 2.22257 | 180° | 29km/h | 12939m | -21.2m/s | 0°C | 0% | 0hPa | 0V | 00:00:00 | 00:00:00 | 00:00:00 | |
| EA3GEO | 2026-09-04 00:41:12 | 41.21470 | 2.22258 | 181° | 27km/h | 13041m | -18.5m/s | 0°C | 0% | 0hPa | 0V | 00:00:00 | 00:00:00 | 00:00:00 | |
| EA3GEO | 2026-09-04 00:41:07 | 41.21499 | 2.22258 | 189° | 22km/h | 13122m | -15.5m/s | 0°C | 0% | 0hPa | 0V | 00:00:00 | 00:00:00 | 00:00:00 | |
| EA3IBE | 2026-09-04 00:41:04 | 41.21517 | 2.22257 | 179° | 26km/h | 13173m | -19.0m/s | 0°C | 0% | 0hPa | 0V | 00:00:00 | 00:00:00 | 00:00:00 | |
| EA3GEO | 2026-09-04 00:41:00 | 41.21538 | 2.22253 | 168° | 18km/h | 13244m | -12.4m/s | 0°C | 0% | 0hPa | 0V | 00:00:00 | 00:00:00 | 00:00:00 | |
| EA3IBE | 2026-09-04 00:40:56 | 41.21557 | 2.22244 | 164° | 26km/h | 13304m | -17.7m/s | 0°C | 0% | 0hPa | 0V | 00:00:00 | 00:00:00 | 00:00:00 | |
| EA3GEO | 2026-09-04 00:40:54 | 41.21567 | 2.22239 | 159° | 16km/h | 13340m | -17.2m/s | 0°C | 0% | 0hPa | 0V | 00:00:00 | 00:00:00 | 00:00:00 | |
| EA3IBE | 2026-09-04 00:40:47 | 41.21594 | 2.22217 | 147° | 26km/h | 13462m | -16.8m/s | 0°C | 0% | 0hPa | 0V | 00:00:00 | 00:00:00 | 00:00:00 | |
| EA3GEO | 2026-09-04 00:40:44 | 41.21607 | 2.22204 | 146° | 24km/h | 13513m | -17.7m/s | 0°C | 0% | 0hPa | 0V | 00:00:00 | 00:00:00 | 00:00:00 | |
| EA3IBE | 2026-09-04 00:40:41 | 41.21621 | 2.22189 | 135° | 27km/h | 13569m | -16.2m/s | 0°C | 0% | 0hPa | 0V | 00:00:00 | 00:00:00 | 00:00:00 | |
| EA3GEO | 2026-09-04 00:40:38 | 41.21634 | 2.22174 | 142° | 24km/h | 13614m | -12.6m/s | 0°C | 0% | 0hPa | 0V | 00:00:00 | 00:00:00 | 00:00:00 | |
| EA3GEO | 2026-09-04 00:40:33 | 41.21652 | 2.22147 | 128° | 22km/h | 13684m | -13.2m/s | 0°C | 0% | 0hPa | 0V | 00:00:00 | 00:00:00 | 00:00:00 | |
| EA3GEO | 2026-09-04 00:40:22 | 41.21679 | 2.22098 | 125° | 15km/h | 13841m | -13.7m/s | 0°C | 0% | 0hPa | 0V | 00:00:00 | 00:00:00 | 00:00:00 | |
| EA3GEO | 2026-09-04 00:40:14 | 41.21699 | 2.22058 | 121° | 20km/h | 13947m | -13.6m/s | 0°C | 0% | 0hPa | 0V | 00:00:00 | 00:00:00 | 00:00:00 | |
| EA3GEO | 2026-09-04 00:40:08 | 41.21719 | 2.22024 | 131° | 20km/h | 14029m | -12.4m/s | 0°C | 0% | 0hPa | 0V | 00:00:00 | 00:00:00 | 00:00:00 | |
| EA3GEO | 2026-09-04 00:39:59 | 41.21746 | 2.21982 | 122° | 15km/h | 14147m | -11.7m/s | 0°C | 0% | 0hPa | 0V | 00:00:00 | 00:00:00 | 00:00:00 | |
| EA3GEO | 2026-09-04 00:39:51 | 41.21764 | 2.21951 | 111° | 15km/h | 14242m | -12.1m/s | 0°C | 0% | 0hPa | 0V | 00:00:00 | 00:00:00 | 00:00:00 | |
| EA3GEO | 2026-09-04 00:39:44 | 41.21779 | 2.21914 | 125° | 16km/h | 14326m | -11.2m/s | 0°C | 0% | 0hPa | 0V | 00:00:00 | 00:00:00 | 00:00:00 | |
| EA3GEO | 2026-09-04 00:39:37 | 41.21803 | 2.21874 | 127° | 26km/h | 14414m | -11.4m/s | 0°C | 0% | 0hPa | 0V | 00:00:00 | 00:00:00 | 00:00:00 | |
| EA3GEO | 2026-09-04 00:39:31 | 41.21826 | 2.21841 | 128° | 22km/h | 14487m | -10.3m/s | 0°C | 0% | 0hPa | 0V | 00:00:00 | 00:00:00 | 00:00:00 | |
| EA3GEO | 2026-09-04 00:39:26 | 41.21844 | 2.21812 | 127° | 24km/h | 14544m | -9.9m/s | 0°C | 0% | 0hPa | 0V | 00:00:00 | 00:00:00 | 00:00:00 | |
| EA3GEO | 2026-09-04 00:39:20 | 41.21867 | 2.21771 | 126° | 24km/h | 14615m | -10.7m/s | 0°C | 0% | 0hPa | 0V | 00:00:00 | 00:00:00 | 00:00:00 | |
| EA3GEO | 2026-09-04 00:39:12 | 41.21903 | 2.21709 | 132° | 27km/h | 14706m | -10.8m/s | 0°C | 0% | 0hPa | 0V | 00:00:00 | 00:00:00 | 00:00:00 | |
| EA3GEO | 2026-09-04 00:39:06 | 41.21938 | 2.21672 | 154° | 29km/h | 14775m | -10.3m/s | 0°C | 0% | 0hPa | 0V | 00:00:00 | 00:00:00 | 00:00:00 | |
| EA3IBE | 2026-09-04 00:39:04 | 41.21952 | 2.21666 | 164° | 26km/h | 14796m | -11.0m/s | 0°C | 0% | 0hPa | 0V | 00:00:00 | 00:00:00 | 00:00:00 | |
| EA3GEO | 2026-09-04 00:39:01 | 41.21971 | 2.21655 | 155° | 24km/h | 14829m | -10.9m/s | 0°C | 0% | 0hPa | 0V | 00:00:00 | 00:00:00 | 00:00:00 | |
| EA3IBE | 2026-09-04 00:38:56 | 41.21996 | 2.21635 | 143° | 20km/h | 14886m | -11.0m/s | 0°C | 0% | 0hPa | 0V | 00:00:00 | 00:00:00 | 00:00:00 | |
| EA3GEO | 2026-09-04 00:38:53 | 41.22009 | 2.21620 | 143° | 24km/h | 14922m | -9.4m/s | 0°C | 0% | 0hPa | 0V | 00:00:00 | 00:00:00 | 00:00:00 | |
| EA3IBE | 2026-09-04 00:38:46 | 41.22042 | 2.21581 | 139° | 22km/h | 14999m | -10.8m/s | 0°C | 0% | 0hPa | 0V | 00:00:00 | 00:00:00 | 00:00:00 | |
| EA3GEO | 2026-09-04 00:38:43 | 41.22056 | 2.21563 | 132° | 27km/h | 15033m | -10.1m/s | 0°C | 0% | 0hPa | 0V | 00:00:00 | 00:00:00 | 00:00:00 | |
| EA3GEO | 2026-09-04 00:38:38 | 41.22077 | 2.21534 | 123° | 24km/h | 15089m | -9.5m/s | 0°C | 0% | 0hPa | 0V | 00:00:00 | 00:00:00 | 00:00:00 | |
| EA3GEO | 2026-09-04 00:38:31 | 41.22097 | 2.21479 | 112° | 29km/h | 15167m | -10.9m/s | 0°C | 0% | 0hPa | 0V | 00:00:00 | 00:00:00 | 00:00:00 | |
| EA3GEO | 2026-09-04 00:38:26 | 41.22114 | 2.21434 | 124° | 29km/h | 15224m | -10.4m/s | 0°C | 0% | 0hPa | 0V | 00:00:00 | 00:00:00 | 00:00:00 | |
| EA3GEO | 2026-09-04 00:38:19 | 41.22143 | 2.21373 | 121° | 33km/h | 15306m | -11.2m/s | 0°C | 0% | 0hPa | 0V | 00:00:00 | 00:00:00 | 00:00:00 | |
| EA3GEO | 2026-09-04 00:38:14 | 41.22172 | 2.21332 | 133° | 35km/h | 15364m | -11.2m/s | 0°C | 0% | 0hPa | 0V | 00:00:00 | 00:00:00 | 00:00:00 | |
| EA3GEO | 2026-09-04 00:38:09 | 41.22197 | 2.21291 | 112° | 29km/h | 15416m | -10.2m/s | 0°C | 0% | 0hPa | 0V | 00:00:00 | 00:00:00 | 00:00:00 | |
| EA3GEO | 2026-09-04 00:38:03 | 41.22210 | 2.21228 | 96° | 38km/h | 15487m | -11.3m/s | 0°C | 0% | 0hPa | 0V | 00:00:00 | 00:00:00 | 00:00:00 | |
| EA3GEO | 2026-09-04 00:37:56 | 41.22222 | 2.21125 | 101° | 46km/h | 15567m | -10.0m/s | 0°C | 0% | 0hPa | 0V | 00:00:00 | 00:00:00 | 00:00:00 | |
| EA3IBE | 2026-09-04 00:37:55 | 41.22224 | 2.21110 | 105° | 47km/h | 15580m | -10.7m/s | 0°C | 0% | 0hPa | 0V | 00:00:00 | 00:00:00 | 00:00:00 | |
| EA3IBE | 2026-09-04 00:37:49 | 41.22242 | 2.21006 | 104° | 51km/h | 15652m | -11.0m/s | 0°C | 0% | 0hPa | 0V | 00:00:00 | 00:00:00 | 00:00:00 | |
| EA3GEO | 2026-09-04 00:37:42 | 41.22274 | 2.20890 | 110° | 47km/h | 15734m | -11.6m/s | 0°C | 0% | 0hPa | 0V | 00:00:00 | 00:00:00 | 00:00:00 | |
| EA3IBE | 2026-09-04 00:37:41 | 41.22279 | 2.20875 | 115° | 47km/h | 15745m | -10.8m/s | 0°C | 0% | 0hPa | 0V | 00:00:00 | 00:00:00 | 00:00:00 | |
| EA3GEO | 2026-09-04 00:37:35 | 41.22308 | 2.20784 | 114° | 46km/h | 15819m | -9.9m/s | 0°C | 0% | 0hPa | 0V | 00:00:00 | 00:00:00 | 00:00:00 | |
| EA3IBE | 2026-09-04 00:37:28 | 41.22342 | 2.20687 | 120° | 40km/h | 15901m | -10.2m/s | 0°C | 0% | 0hPa | 0V | 00:00:00 | 00:00:00 | 00:00:00 | |
| EA3IBE | 2026-09-04 00:37:21 | 41.22379 | 2.20604 | 126° | 33km/h | 15995m | -9.2m/s | 0°C | 0% | 0hPa | 0V | 00:00:00 | 00:00:00 | 00:00:00 | |
| EA3GEO | 2026-09-04 00:37:14 | 41.22407 | 2.20554 | 128° | 31km/h | 16065m | -9.6m/s | 0°C | 0% | 0hPa | 0V | 00:00:00 | 00:00:00 | 00:00:00 | |
| EA3IBE | 2026-09-04 00:37:13 | 41.22411 | 2.20546 | 130° | 33km/h | 16076m | -10.6m/s | 0°C | 0% | 0hPa | 0V | 00:00:00 | 00:00:00 | 00:00:00 | |
| EA3GEO | 2026-09-04 00:37:08 | 41.22435 | 2.20500 | 124° | 33km/h | 16136m | -10.9m/s | 0°C | 0% | 0hPa | 0V | 00:00:00 | 00:00:00 | 00:00:00 | |
| EA3IBE | 2026-09-04 00:37:07 | 41.22440 | 2.20490 | 125° | 35km/h | 16148m | -9.8m/s | 0°C | 0% | 0hPa | 0V | 00:00:00 | 00:00:00 | 00:00:00 | |
| EA3IBE | 2026-09-04 00:37:00 | 41.22481 | 2.20422 | 135° | 38km/h | 16232m | -11.7m/s | 0°C | 0% | 0hPa | 0V | 00:00:00 | 00:00:00 | 00:00:00 | |
| EA3GEO | 2026-09-04 00:36:54 | 41.22520 | 2.20374 | 144° | 33km/h | 16301m | -9.8m/s | 0°C | 0% | 0hPa | 0V | 00:00:00 | 00:00:00 | 00:00:00 | |
| EA3IBE | 2026-09-04 00:36:53 | 41.22528 | 2.20366 | 138° | 40km/h | 16313m | -10.9m/s | 0°C | 0% | 0hPa | 0V | 00:00:00 | 00:00:00 | 00:00:00 | |
| EA3GEO | 2026-09-04 00:36:48 | 41.22565 | 2.20326 | 144° | 31km/h | 16374m | -11.4m/s | 0°C | 0% | 0hPa | 0V | 00:00:00 | 00:00:00 | 00:00:00 | |
| EA3IBE | 2026-09-04 00:36:47 | 41.22571 | 2.20319 | 145° | 31km/h | 16385m | -10.9m/s | 0°C | 0% | 0hPa | 0V | 00:00:00 | 00:00:00 | 00:00:00 | |
| EA3IBE | 2026-09-04 00:36:40 | 41.22614 | 2.20265 | 136° | 35km/h | 16471m | -11.0m/s | 0°C | 0% | 0hPa | 0V | 00:00:00 | 00:00:00 | 00:00:00 | |
| EA3GEO | 2026-09-04 00:36:33 | 41.22662 | 2.20197 | 135° | 37km/h | 16556m | -11.0m/s | 0°C | 0% | 0hPa | 0V | 00:00:00 | 00:00:00 | 00:00:00 | |
| EA3GEO | 2026-09-04 00:36:27 | 41.22700 | 2.20149 | 140° | 33km/h | 16628m | -10.6m/s | 0°C | 0% | 0hPa | 0V | 00:00:00 | 00:00:00 | 00:00:00 | |
| EA3IBE | 2026-09-04 00:36:26 | 41.22706 | 2.20143 | 142° | 31km/h | 16640m | -11.1m/s | 0°C | 0% | 0hPa | 0V | 00:00:00 | 00:00:00 | 00:00:00 | |
| EA3IBE | 2026-09-04 00:36:19 | 41.22754 | 2.20099 | 159° | 37km/h | 16725m | -11.2m/s | 0°C | 0% | 0hPa | 0V | 00:00:00 | 00:00:00 | 00:00:00 | |
| EA3GEO | 2026-09-04 00:36:13 | 41.22799 | 2.20075 | 170° | 27km/h | 16799m | -11.1m/s | 0°C | 0% | 0hPa | 0V | 00:00:00 | 00:00:00 | 00:00:00 | |
| EA3IBE | 2026-09-04 00:36:12 | 41.22806 | 2.20073 | 175° | 27km/h | 16811m | -11.0m/s | 0°C | 0% | 0hPa | 0V | 00:00:00 | 00:00:00 | 00:00:00 | |
| EA3GEO | 2026-09-04 00:36:05 | 41.22852 | 2.20073 | 188° | 22km/h | 16898m | -10.5m/s | 0°C | 0% | 0hPa | 0V | 00:00:00 | 00:00:00 | 00:00:00 | |
| EA3IBE | 2026-09-04 00:36:04 | 41.22858 | 2.20073 | 182° | 26km/h | 16910m | -10.5m/s | 0°C | 0% | 0hPa | 0V | 00:00:00 | 00:00:00 | 00:00:00 | |
| EA3GEO | 2026-09-04 00:35:58 | 41.22892 | 2.20069 | 179° | 20km/h | 16983m | -9.3m/s | 0°C | 0% | 0hPa | 0V | 00:00:00 | 00:00:00 | 00:00:00 | |
| EA3IBE | 2026-09-04 00:35:57 | 41.22897 | 2.20068 | 181° | 20km/h | 16994m | -10.6m/s | 0°C | 0% | 0hPa | 0V | 00:00:00 | 00:00:00 | 00:00:00 | |
| EA3GEO | 2026-09-04 00:35:50 | 41.22921 | 2.20062 | 176° | 9km/h | 17079m | -10.2m/s | 0°C | 0% | 0hPa | 0V | 00:00:00 | 00:00:00 | 00:00:00 | |
| EA3IBE | 2026-09-04 00:35:49 | 41.22923 | 2.20062 | 157° | 15km/h | 17091m | -11.7m/s | 0°C | 0% | 0hPa | 0V | 00:00:00 | 00:00:00 | 00:00:00 | |
| EA3GEO | 2026-09-04 00:35:43 | 41.22939 | 2.20046 | 126° | 13km/h | 17164m | -11.1m/s | 0°C | 0% | 0hPa | 0V | 00:00:00 | 00:00:00 | 00:00:00 | |
| EA3IBE | 2026-09-04 00:35:42 | 41.22941 | 2.20041 | 117° | 20km/h | 17176m | -11.5m/s | 0°C | 0% | 0hPa | 0V | 00:00:00 | 00:00:00 | 00:00:00 | |
| EA3GEO | 2026-09-04 00:35:35 | 41.22962 | 2.19996 | 128° | 24km/h | 17260m | -10.2m/s | 0°C | 0% | 0hPa | 0V | 00:00:00 | 00:00:00 | 00:00:00 | |
| EA3IBE | 2026-09-04 00:35:34 | 41.22966 | 2.19990 | 130° | 22km/h | 17272m | -10.8m/s | 0°C | 0% | 0hPa | 0V | 00:00:00 | 00:00:00 | 00:00:00 | |
| EA3IBE | 2026-09-04 00:35:26 | 41.22999 | 2.19947 | 149° | 24km/h | 17371m | -8.7m/s | 0°C | 0% | 0hPa | 0V | 00:00:00 | 00:00:00 | 00:00:00 | |
| EA3GEO | 2026-09-04 00:35:18 | 41.23040 | 2.19917 | 148° | 20km/h | 17470m | -10.7m/s | 0°C | 0% | 0hPa | 0V | 00:00:00 | 00:00:00 | 00:00:00 | |
| EA3IBE | 2026-09-04 00:35:17 | 41.23044 | 2.19913 | 146° | 16km/h | 17482m | -10.9m/s | 0°C | 0% | 0hPa | 0V | 00:00:00 | 00:00:00 | 00:00:00 | |
| EA3GEO | 2026-09-04 00:35:01 | 41.23084 | 2.19830 | 113° | 20km/h | 17678m | -9.9m/s | 0°C | 0% | 0hPa | 0V | 00:00:00 | 00:00:00 | 00:00:00 | |
| EA3GEO | 2026-09-04 00:34:53 | 41.23101 | 2.19772 | 106° | 18km/h | 17774m | -10.7m/s | 0°C | 0% | 0hPa | 0V | 00:00:00 | 00:00:00 | 00:00:00 | |
| EA3IBE | 2026-09-04 00:34:52 | 41.23103 | 2.19766 | 113° | 15km/h | 17787m | -10.5m/s | 0°C | 0% | 0hPa | 0V | 00:00:00 | 00:00:00 | 00:00:00 | |
| EA3IBE | 2026-09-04 00:34:45 | 41.23117 | 2.19722 | 102° | 18km/h | 17873m | -11.5m/s | 0°C | 0% | 0hPa | 0V | 00:00:00 | 00:00:00 | 00:00:00 | |
| EA3GEO | 2026-09-04 00:34:38 | 41.23119 | 2.19664 | 84° | 26km/h | 17959m | -11.6m/s | 0°C | 0% | 0hPa | 0V | 00:00:00 | 00:00:00 | 00:00:00 | |
| EA3GEO | 2026-09-04 00:34:31 | 41.23118 | 2.19592 | 90° | 33km/h | 18046m | -9.8m/s | 0°C | 0% | 0hPa | 0V | 00:00:00 | 00:00:00 | 00:00:00 | |
| EA3IBE | 2026-09-04 00:34:30 | 41.23119 | 2.19580 | 94° | 35km/h | 18058m | -11.2m/s | 0°C | 0% | 0hPa | 0V | 00:00:00 | 00:00:00 | 00:00:00 | |
| EA3GEO | 2026-09-04 00:34:22 | 41.23134 | 2.19484 | 109° | 33km/h | 18152m | -10.2m/s | 0°C | 0% | 0hPa | 0V | 00:00:00 | 00:00:00 | 00:00:00 | |
| EA3IBE | 2026-09-04 00:34:21 | 41.23136 | 2.19473 | 112° | 35km/h | 18164m | -10.5m/s | 0°C | 0% | 0hPa | 0V | 00:00:00 | 00:00:00 | 00:00:00 | |
| EA3GEO | 2026-09-04 00:34:13 | 41.23175 | 2.19395 | 132° | 24km/h | 18269m | -10.6m/s | 0°C | 0% | 0hPa | 0V | 00:00:00 | 00:00:00 | 00:00:00 | |
| EA3IBE | 2026-09-04 00:34:10 | 41.23183 | 2.19382 | 135° | 27km/h | 18294m | -12.1m/s | 0°C | 0% | 0hPa | 0V | 00:00:00 | 00:00:00 | 00:00:00 | |
| EA3GEO | 2026-09-04 00:34:02 | 41.23208 | 2.19343 | 139° | 15km/h | 18388m | -10.0m/s | 0°C | 0% | 0hPa | 0V | 00:00:00 | 00:00:00 | 00:00:00 | |
| EA3IBE | 2026-09-04 00:34:01 | 41.23211 | 2.19340 | 129° | 15km/h | 18400m | -10.1m/s | 0°C | 0% | 0hPa | 0V | 00:00:00 | 00:00:00 | 00:00:00 | |
| EA3IBE | 2026-09-04 00:33:54 | 41.23219 | 2.19307 | 99° | 16km/h | 18482m | -9.9m/s | 0°C | 0% | 0hPa | 0V | 00:00:00 | 00:00:00 | 00:00:00 | |
| EA3GEO | 2026-09-04 00:33:52 | 41.23221 | 2.19294 | 105° | 18km/h | 18505m | -10.6m/s | 0°C | 0% | 0hPa | 0V | 00:00:00 | 00:00:00 | 00:00:00 | |
| EA3IBE | 2026-09-04 00:33:49 | 41.23226 | 2.19275 | 106° | 22km/h | 18538m | -10.1m/s | 0°C | 0% | 0hPa | 0V | 00:00:00 | 00:00:00 | 00:00:00 | |
| EA3GEO | 2026-09-04 00:33:39 | 41.23252 | 2.19193 | 117° | 27km/h | 18648m | -10.9m/s | 0°C | 0% | 0hPa | 0V | 00:00:00 | 00:00:00 | 00:00:00 | |
| EA3GEO | 2026-09-04 00:33:34 | 41.23271 | 2.19148 | 121° | 29km/h | 18702m | -9.2m/s | 0°C | 0% | 0hPa | 0V | 00:00:00 | 00:00:00 | 00:00:00 | |
| EA3IBE | 2026-09-04 00:33:32 | 41.23280 | 2.19128 | 123° | 33km/h | 18722m | -8.8m/s | 0°C | 0% | 0hPa | 0V | 00:00:00 | 00:00:00 | 00:00:00 | |
| EA3GEO | 2026-09-04 00:33:16 | 41.23366 | 2.19002 | 147° | 27km/h | 18895m | -10.2m/s | 0°C | 0% | 0hPa | 0V | 00:00:00 | 00:00:00 | 00:00:00 | |
| EA3IBE | 2026-09-04 00:33:13 | 41.23382 | 2.18989 | 153° | 22km/h | 18929m | -10.5m/s | 0°C | 0% | 0hPa | 0V | 00:00:00 | 00:00:00 | 00:00:00 | |
| EA3GEO | 2026-09-04 00:33:11 | 41.23391 | 2.18984 | 168° | 18km/h | 18951m | -9.2m/s | 0°C | 0% | 0hPa | 0V | 00:00:00 | 00:00:00 | 00:00:00 | |
| EA3IBE | 2026-09-04 00:33:08 | 41.23404 | 2.18975 | 159° | 16km/h | 18984m | -11.0m/s | 0°C | 0% | 0hPa | 0V | 00:00:00 | 00:00:00 | 00:00:00 | |
| EA3GEO | 2026-09-04 00:32:56 | 41.23440 | 2.18954 | 144° | 11km/h | 19124m | -11.3m/s | 0°C | 0% | 0hPa | 0V | 00:00:00 | 00:00:00 | 00:00:00 | |
| EA3IBE | 2026-09-04 00:32:52 | 41.23452 | 2.18945 | 154° | 16km/h | 19172m | -10.4m/s | 0°C | 0% | 0hPa | 0V | 00:00:00 | 00:00:00 | 00:00:00 | |
| EA3GEO | 2026-09-04 00:32:45 | 41.23487 | 2.18928 | 165° | 18km/h | 19248m | -10.2m/s | 0°C | 0% | 0hPa | 0V | 00:00:00 | 00:00:00 | 00:00:00 | |
| EA3GEO | 2026-09-04 00:32:37 | 41.23512 | 2.18900 | 147° | 15km/h | 19339m | -9.4m/s | 0°C | 0% | 0hPa | 0V | 00:00:00 | 00:00:00 | 00:00:00 | |
| EA3GEO | 2026-09-04 00:32:32 | 41.23527 | 2.18882 | 124° | 22km/h | 19393m | -11.1m/s | 0°C | 0% | 0hPa | 0V | 00:00:00 | 00:00:00 | 00:00:00 | |
| EA3IBE | 2026-09-04 00:32:28 | 41.23540 | 2.18856 | 139° | 26km/h | 19482m | -27.4m/s | 0°C | 0% | 0hPa | 0V | 00:00:00 | 00:00:00 | 00:00:00 | |
| EA3GEO | 2026-09-04 00:32:25 | 41.23552 | 2.18837 | 136° | 33km/h | 19573m | -28.4m/s | 0°C | 0% | 0hPa | 0V | 00:00:00 | 00:00:00 | 00:00:00 | |
| EA3IBE | 2026-09-04 00:32:20 | 41.23582 | 2.18795 | 142° | 40km/h | 19724m | -29.0m/s | 0°C | 0% | 0hPa | 0V | 00:00:00 | 00:00:00 | 00:00:00 | |
| EA3GEO | 2026-09-04 00:32:19 | 41.23591 | 2.18788 | 153° | 40km/h | 19753m | -29.0m/s | 0°C | 0% | 0hPa | 0V | 00:00:00 | 00:00:00 | 00:00:00 | |
| EA3IBE | 2026-09-04 00:32:14 | 41.23637 | 2.18761 | 172° | 40km/h | 19906m | -25.4m/s | 0°C | 0% | 0hPa | 0V | 00:00:00 | 00:00:00 | 00:00:00 | |
| EA3GEO | 2026-09-04 00:32:12 | 41.23657 | 2.18758 | 179° | 33km/h | 19961m | -29.5m/s | 0°C | 0% | 0hPa | 0V | 00:00:00 | 00:00:00 | 00:00:00 | |
| EA3IBE | 2026-09-04 00:32:08 | 41.23697 | 2.18757 | 184° | 38km/h | 20052m | -21.3m/s | 0°C | 0% | 0hPa | 0V | 00:00:00 | 00:00:00 | 00:00:00 | |
| EA3GEO | 2026-09-04 00:32:04 | 41.23733 | 2.18767 | 207° | 29km/h | 20145m | -26.0m/s | 0°C | 0% | 0hPa | 0V | 00:00:00 | 00:00:00 | 00:00:00 | |
| EA3IBE | 2026-09-04 00:31:58 | 41.23761 | 2.18797 | 221° | 20km/h | 20314m | -30.9m/s | 0°C | 0% | 0hPa | 0V | 00:00:00 | 00:00:00 | 00:00:00 | |
| EA3IBE | 2026-09-04 00:31:51 | 41.23792 | 2.18817 | 209° | 26km/h | 20543m | -32.2m/s | 0°C | 0% | 0hPa | 0V | 00:00:00 | 00:00:00 | 00:00:00 | |
| EA3IBE | 2026-09-04 00:31:46 | 41.23817 | 2.18836 | 229° | 22km/h | 20697m | -28.4m/s | 0°C | 0% | 0hPa | 0V | 00:00:00 | 00:00:00 | 00:00:00 | |
| EA3GEO | 2026-09-04 00:31:45 | 41.23821 | 2.18841 | 219° | 18km/h | 20726m | -29.2m/s | 0°C | 0% | 0hPa | 0V | 00:00:00 | 00:00:00 | 00:00:00 | |
| EA3IBE | 2026-09-04 00:31:24 | 41.23880 | 2.18921 | 232° | 9km/h | 21298m | -29.5m/s | 0°C | 0% | 0hPa | 0V | 00:00:00 | 00:00:00 | 00:00:00 | |
| EA3GEO | 2026-09-04 00:31:23 | 41.23881 | 2.18924 | 230° | 13km/h | 21330m | -28.9m/s | 0°C | 0% | 0hPa | 0V | 00:00:00 | 00:00:00 | 00:00:00 | |
| EA3GEO | 2026-09-04 00:31:13 | 41.23886 | 2.18974 | 289° | 18km/h | 21642m | -25.2m/s | 0°C | 0% | 0hPa | 0V | 00:00:00 | 00:00:00 | 00:00:00 | |
| EA3GEO | 2026-09-04 00:31:06 | 41.23875 | 2.19007 | 266° | 9km/h | 21813m | -24.3m/s | 0°C | 0% | 0hPa | 0V | 00:00:00 | 00:00:00 | 00:00:00 | |
| EA3IBE | 2026-09-04 00:31:01 | 41.23876 | 2.19012 | 0° | 0km/h | 21947m | -24.7m/s | 0°C | 0% | 0hPa | 0V | 00:00:00 | 00:00:00 | 00:00:00 | |
| EA3GEO | 2026-09-04 00:30:59 | 41.23877 | 2.19009 | 142° | 7km/h | 21993m | -18.8m/s | 0°C | 0% | 0hPa | 0V | 00:00:00 | 00:00:00 | 00:00:00 | |
| EA3GEO | 2026-09-04 00:30:53 | 41.23886 | 2.19017 | 231° | 9km/h | 22107m | -20.3m/s | 0°C | 0% | 0hPa | 0V | 00:00:00 | 00:00:00 | 00:00:00 | |
| EA3IBE | 2026-09-04 00:30:52 | 41.23888 | 2.19019 | 217° | 11km/h | 22128m | -19.0m/s | 0°C | 0% | 0hPa | 0V | 00:00:00 | 00:00:00 | 00:00:00 | |
| EA3IBE | 2026-09-04 00:30:45 | 41.23898 | 2.19042 | 247° | 18km/h | 22298m | -34.1m/s | 0°C | 0% | 0hPa | 0V | 00:00:00 | 00:00:00 | 00:00:00 | |
| EA3GEO | 2026-09-04 00:30:41 | 41.23900 | 2.19068 | 283° | 18km/h | 22428m | -29.2m/s | 0°C | 0% | 0hPa | 0V | 00:00:00 | 00:00:00 | 00:00:00 | |
| EA3IBE | 2026-09-04 00:30:31 | 41.23882 | 2.19136 | 298° | 18km/h | 22638m | -28.4m/s | 0°C | 0% | 0hPa | 0V | 00:00:00 | 00:00:00 | 00:00:00 | |
| EA3GEO | 2026-09-04 00:30:30 | 41.23880 | 2.19141 | 301° | 13km/h | 22669m | -32.0m/s | 0°C | 0% | 0hPa | 0V | 00:00:00 | 00:00:00 | 00:00:00 | |
| EA3IBE | 2026-09-04 00:30:26 | 41.23875 | 2.19150 | 324° | 7km/h | 22814m | -34.7m/s | 0°C | 0% | 0hPa | 0V | 00:00:00 | 00:00:00 | 00:00:00 | |
| EA3GEO | 2026-09-04 00:30:23 | 41.23869 | 2.19153 | 356° | 5km/h | 22918m | -31.9m/s | 0°C | 0% | 0hPa | 0V | 00:00:00 | 00:00:00 | 00:00:00 | |
| EA3GEO | 2026-09-04 00:30:18 | 41.23866 | 2.19152 | 189° | 7km/h | 23107m | -30.7m/s | 0°C | 0% | 0hPa | 0V | 00:00:00 | 00:00:00 | 00:00:00 | |
| EA3IBE | 2026-09-04 00:30:15 | 41.23871 | 2.19154 | 210° | 18km/h | 23172m | -33.0m/s | 0°C | 0% | 0hPa | 0V | 00:00:00 | 00:00:00 | 00:00:00 | |
| EA3IBE | 2026-09-04 00:30:06 | 41.23928 | 2.19218 | 238° | 38km/h | 23453m | -24.0m/s | 0°C | 0% | 0hPa | 0V | 00:00:00 | 00:00:00 | 00:00:00 | |
| EA3IBE | 2026-09-04 00:30:00 | 41.23952 | 2.19275 | 243° | 40km/h | 23553m | -15.8m/s | 0°C | 0% | 0hPa | 0V | 00:00:00 | 00:00:00 | 00:00:00 | |
| EA3GEO | 2026-09-04 00:29:53 | 41.23964 | 2.19357 | 282° | 29km/h | 23676m | -27.4m/s | 0°C | 0% | 0hPa | 0V | 00:00:00 | 00:00:00 | 00:00:00 | |
| EA3IBE | 2026-09-04 00:29:48 | 41.23953 | 2.19401 | 296° | 18km/h | 23814m | -32.4m/s | 0°C | 0% | 0hPa | 0V | 00:00:00 | 00:00:00 | 00:00:00 | |
| EA3GEO | 2026-09-04 00:29:44 | 41.23947 | 2.19416 | 311° | 11km/h | 23960m | -33.7m/s | 0°C | 0% | 0hPa | 0V | 00:00:00 | 00:00:00 | 00:00:00 | |
| EA3IBE | 2026-09-04 00:29:41 | 41.23941 | 2.19423 | 339° | 7km/h | 24058m | -29.5m/s | 0°C | 0% | 0hPa | 0V | 00:00:00 | 00:00:00 | 00:00:00 | |
| EA3GEO | 2026-09-04 00:29:38 | 41.23936 | 2.19431 | 312° | 15km/h | 24137m | -22.3m/s | 0°C | 0% | 0hPa | 0V | 00:00:00 | 00:00:00 | 00:00:00 | |
| EA3IBE | 2026-09-04 00:29:23 | 41.23939 | 2.19511 | 296° | 18km/h | 24494m | -26.2m/s | 0°C | 0% | 0hPa | 0V | 00:00:00 | 00:00:00 | 00:00:00 | |
| EA3IBE | 2026-09-04 00:29:15 | 41.23924 | 2.19563 | 267° | 18km/h | 24720m | -35.7m/s | 0°C | 0% | 0hPa | 0V | 00:00:00 | 00:00:00 | 00:00:00 | |
| EA3IBE | 2026-09-04 00:29:06 | 41.23925 | 2.19632 | 286° | 29km/h | 24980m | -29.9m/s | 0°C | 0% | 0hPa | 0V | 00:00:00 | 00:00:00 | 00:00:00 | |
| EA3IBE | 2026-09-04 00:28:01 | 41.23904 | 2.20003 | 310° | 4km/h | 26963m | 6.4m/s | 0°C | 0% | 0hPa | 0V | 00:00:00 | 00:00:00 | 00:00:00 | |
| EA3IBE | 2026-09-04 00:27:47 | 41.23909 | 2.20043 | 264° | 13km/h | 26893m | 4.6m/s | 0°C | 0% | 0hPa | 0V | 00:00:00 | 00:00:00 | 00:00:00 | |
| EA3IBE | 2026-09-04 00:27:43 | 41.23901 | 2.20069 | 268° | 20km/h | 26868m | 6.0m/s | 0°C | 0% | 0hPa | 0V | 00:00:00 | 00:00:00 | 00:00:00 | |
| EA3IBE | 2026-09-04 00:27:35 | 41.23895 | 2.20089 | 299° | 5km/h | 26833m | 6.0m/s | 0°C | 0% | 0hPa | 0V | 00:00:00 | 00:00:00 | 00:00:00 | |
| EA3IBE | 2026-09-04 00:27:28 | 41.23892 | 2.20104 | 258° | 7km/h | 26798m | 5.8m/s | 0°C | 0% | 0hPa | 0V | 00:00:00 | 00:00:00 | 00:00:00 | |
| EA3IBE | 2026-09-04 00:27:21 | 41.23879 | 2.20125 | 282° | 13km/h | 26766m | 6.4m/s | 0°C | 0% | 0hPa | 0V | 00:00:00 | 00:00:00 | 00:00:00 | |
| EA3GEO | 2026-09-04 00:26:46 | 41.23816 | 2.20231 | 313° | 4km/h | 26597m | 5.3m/s | 0°C | 0% | 0hPa | 0V | 00:00:00 | 00:00:00 | 00:00:00 | |
| EA3GEO | 2026-09-04 00:26:31 | 41.23793 | 2.20245 | 273° | 15km/h | 26527m | 5.0m/s | 0°C | 0% | 0hPa | 0V | 00:00:00 | 00:00:00 | 00:00:00 | |
| EA3IBE | 2026-09-04 00:26:25 | 41.23783 | 2.20270 | 135° | 4km/h | 26499m | 6.0m/s | 0°C | 0% | 0hPa | 0V | 00:00:00 | 00:00:00 | 00:00:00 | |
| EA3GEO | 2026-09-04 00:26:24 | 41.23784 | 2.20268 | 127° | 9km/h | 26494m | 3.9m/s | 0°C | 0% | 0hPa | 0V | 00:00:00 | 00:00:00 | 00:00:00 | |
| EA3GEO | 2026-09-04 00:25:53 | 41.23725 | 2.20336 | 351° | 11km/h | 26349m | 4.6m/s | 0°C | 0% | 0hPa | 0V | 00:00:00 | 00:00:00 | 00:00:00 | |
| EA3GEO | 2026-09-04 00:25:47 | 41.23706 | 2.20364 | 323° | 29km/h | 26321m | 6.1m/s | 0°C | 0% | 0hPa | 0V | 00:00:00 | 00:00:00 | 00:00:00 | |
| EA3IBE | 2026-09-04 00:25:43 | 41.23685 | 2.20379 | 310° | 15km/h | 26301m | 5.7m/s | 0°C | 0% | 0hPa | 0V | 00:00:00 | 00:00:00 | 00:00:00 | |
| EA3IBE | 2026-09-04 00:25:36 | 41.23662 | 2.20408 | 328° | 22km/h | 26267m | 4.8m/s | 0°C | 0% | 0hPa | 0V | 00:00:00 | 00:00:00 | 00:00:00 | |
| EA3GEO | 2026-09-04 00:25:34 | 41.23651 | 2.20417 | 329° | 29km/h | 26258m | 5.8m/s | 0°C | 0% | 0hPa | 0V | 00:00:00 | 00:00:00 | 00:00:00 | |
| EA3IBE | 2026-09-04 00:25:30 | 41.23629 | 2.20443 | 295° | 26km/h | 26237m | 6.5m/s | 0°C | 0% | 0hPa | 0V | 00:00:00 | 00:00:00 | 00:00:00 | |
| EA3GEO | 2026-09-04 00:25:29 | 41.23627 | 2.20451 | 288° | 24km/h | 26232m | 4.4m/s | 0°C | 0% | 0hPa | 0V | 00:00:00 | 00:00:00 | 00:00:00 | |
| EA3GEO | 2026-09-04 00:25:24 | 41.23595 | 2.20488 | 318° | 29km/h | 26203m | 5.2m/s | 0°C | 0% | 0hPa | 0V | 00:00:00 | 00:00:00 | 00:00:00 | |
| EA3GEO | 2026-09-04 00:25:17 | 41.23558 | 2.20536 | 312° | 31km/h | 26172m | 5.8m/s | 0°C | 0% | 0hPa | 0V | 00:00:00 | 00:00:00 | 00:00:00 | |
| EA3IBE | 2026-09-04 00:25:14 | 41.23542 | 2.20556 | 332° | 33km/h | 26158m | 6.4m/s | 0°C | 0% | 0hPa | 0V | 00:00:00 | 00:00:00 | 00:00:00 | |
| EA3GEO | 2026-09-04 00:25:11 | 41.23516 | 2.20572 | 327° | 37km/h | 26142m | 5.1m/s | 0°C | 0% | 0hPa | 0V | 00:00:00 | 00:00:00 | 00:00:00 | |
| EA3IBE | 2026-09-04 00:25:05 | 41.23485 | 2.20622 | 331° | 40km/h | 26111m | 5.1m/s | 0°C | 0% | 0hPa | 0V | 00:00:00 | 00:00:00 | 00:00:00 | |
| EA3GEO | 2026-09-04 00:25:04 | 41.23476 | 2.20629 | 332° | 40km/h | 26106m | 5.1m/s | 0°C | 0% | 0hPa | 0V | 00:00:00 | 00:00:00 | 00:00:00 | |
| EA3IBE | 2026-09-04 00:24:58 | 41.23435 | 2.20684 | 304° | 38km/h | 26075m | 4.3m/s | 0°C | 0% | 0hPa | 0V | 00:00:00 | 00:00:00 | 00:00:00 | |
| EA3GEO | 2026-09-04 00:24:57 | 41.23430 | 2.20695 | 299° | 38km/h | 26070m | 6.3m/s | 0°C | 0% | 0hPa | 0V | 00:00:00 | 00:00:00 | 00:00:00 | |
| EA3GEO | 2026-09-04 00:24:52 | 41.23393 | 2.20740 | 323° | 29km/h | 26041m | 4.4m/s | 0°C | 0% | 0hPa | 0V | 00:00:00 | 00:00:00 | 00:00:00 | |
| EA3IBE | 2026-09-04 00:24:46 | 41.23382 | 2.20792 | 301° | 40km/h | 26014m | 6.0m/s | 0°C | 0% | 0hPa | 0V | 00:00:00 | 00:00:00 | 00:00:00 | |
| EA3GEO | 2026-09-04 00:24:45 | 41.23376 | 2.20803 | 319° | 42km/h | 26008m | 5.8m/s | 0°C | 0% | 0hPa | 0V | 00:00:00 | 00:00:00 | 00:00:00 | |
| EA3GEO | 2026-09-04 00:24:40 | 41.23346 | 2.20833 | 295° | 22km/h | 25982m | 4.8m/s | 0°C | 0% | 0hPa | 0V | 00:00:00 | 00:00:00 | 00:00:00 | |
| EA3IBE | 2026-09-04 00:24:39 | 41.23341 | 2.20849 | 295° | 31km/h | 25971m | 5.3m/s | 0°C | 0% | 0hPa | 0V | 00:00:00 | 00:00:00 | 00:00:00 | |
| EA3GEO | 2026-09-04 00:24:34 | 41.23329 | 2.20892 | 289° | 35km/h | 25951m | 4.5m/s | 0°C | 0% | 0hPa | 0V | 00:00:00 | 00:00:00 | 00:00:00 | |
| EA3IBE | 2026-09-04 00:24:30 | 41.23308 | 2.20931 | 316° | 38km/h | 25931m | 3.4m/s | 0°C | 0% | 0hPa | 0V | 00:00:00 | 00:00:00 | 00:00:00 | |
| EA3GEO | 2026-09-04 00:24:27 | 41.23298 | 2.20958 | 269° | 29km/h | 25915m | 5.9m/s | 0°C | 0% | 0hPa | 0V | 00:00:00 | 00:00:00 | 00:00:00 | |
| EA3IBE | 2026-09-04 00:24:25 | 41.23299 | 2.20979 | 276° | 33km/h | 25906m | 5.3m/s | 0°C | 0% | 0hPa | 0V | 00:00:00 | 00:00:00 | 00:00:00 | |
| EA3GEO | 2026-09-04 00:24:22 | 41.23286 | 2.21010 | 313° | 38km/h | 25890m | 5.1m/s | 0°C | 0% | 0hPa | 0V | 00:00:00 | 00:00:00 | 00:00:00 | |
| EA3IBE | 2026-09-04 00:24:19 | 41.23272 | 2.21036 | 295° | 29km/h | 25874m | 4.9m/s | 0°C | 0% | 0hPa | 0V | 00:00:00 | 00:00:00 | 00:00:00 | |
| EA3GEO | 2026-09-04 00:24:15 | 41.23266 | 2.21077 | 268° | 38km/h | 25853m | 6.3m/s | 0°C | 0% | 0hPa | 0V | 00:00:00 | 00:00:00 | 00:00:00 | |
| EA3IBE | 2026-09-04 00:24:13 | 41.23267 | 2.21103 | 272° | 40km/h | 25842m | 4.2m/s | 0°C | 0% | 0hPa | 0V | 00:00:00 | 00:00:00 | 00:00:00 | |
| EA3GEO | 2026-09-04 00:24:08 | 41.23249 | 2.21154 | 289° | 22km/h | 25815m | 6.1m/s | 0°C | 0% | 0hPa | 0V | 00:00:00 | 00:00:00 | 00:00:00 | |
| EA3IBE | 2026-09-04 00:24:06 | 41.23252 | 2.21169 | 246° | 31km/h | 25804m | 4.7m/s | 0°C | 0% | 0hPa | 0V | 00:00:00 | 00:00:00 | 00:00:00 | |
| EA3GEO | 2026-09-04 00:24:01 | 41.23254 | 2.21229 | 283° | 35km/h | 25778m | 5.2m/s | 0°C | 0% | 0hPa | 0V | 00:00:00 | 00:00:00 | 00:00:00 | |
| EA3GEO | 2026-09-04 00:23:56 | 41.23253 | 2.21279 | 283° | 29km/h | 25752m | 6.7m/s | 0°C | 0% | 0hPa | 0V | 00:00:00 | 00:00:00 | 00:00:00 | |
| EA3IBE | 2026-09-04 00:23:55 | 41.23251 | 2.21288 | 288° | 29km/h | 25746m | 5.5m/s | 0°C | 0% | 0hPa | 0V | 00:00:00 | 00:00:00 | 00:00:00 | |
| EA3GEO | 2026-09-04 00:23:50 | 41.23254 | 2.21338 | 265° | 31km/h | 25721m | 5.8m/s | 0°C | 0% | 0hPa | 0V | 00:00:00 | 00:00:00 | 00:00:00 | |
| EA3GEO | 2026-09-04 00:23:43 | 41.23245 | 2.21401 | 289° | 29km/h | 25681m | 6.1m/s | 0°C | 0% | 0hPa | 0V | 00:00:00 | 00:00:00 | 00:00:00 | |
| EA3IBE | 2026-09-04 00:23:38 | 41.23247 | 2.21449 | 251° | 29km/h | 25655m | 4.1m/s | 0°C | 0% | 0hPa | 0V | 00:00:00 | 00:00:00 | 00:00:00 | |
| EA3GEO | 2026-09-04 00:23:36 | 41.23249 | 2.21467 | 286° | 29km/h | 25644m | 6.2m/s | 0°C | 0% | 0hPa | 0V | 00:00:00 | 00:00:00 | 00:00:00 | |
| EA3IBE | 2026-09-04 00:23:31 | 41.23234 | 2.21514 | 289° | 31km/h | 25617m | 6.3m/s | 0°C | 0% | 0hPa | 0V | 00:00:00 | 00:00:00 | 00:00:00 | |
| EA3GEO | 2026-09-04 00:23:28 | 41.23232 | 2.21544 | 259° | 29km/h | 25602m | 4.6m/s | 0°C | 0% | 0hPa | 0V | 00:00:00 | 00:00:00 | 00:00:00 | |
| EA3IBE | 2026-09-04 00:23:25 | 41.23240 | 2.21573 | 259° | 29km/h | 25588m | 3.3m/s | 0°C | 0% | 0hPa | 0V | 00:00:00 | 00:00:00 | 00:00:00 | |
| EA3GEO | 2026-09-04 00:23:22 | 41.23233 | 2.21605 | 305° | 42km/h | 25570m | 4.9m/s | 0°C | 0% | 0hPa | 0V | 00:00:00 | 00:00:00 | 00:00:00 | |
| EA3IBE | 2026-09-04 00:23:18 | 41.23225 | 2.21651 | 253° | 37km/h | 25550m | 4.2m/s | 0°C | 0% | 0hPa | 0V | 00:00:00 | 00:00:00 | 00:00:00 | |
| EA3GEO | 2026-09-04 00:23:15 | 41.23228 | 2.21686 | 285° | 33km/h | 25535m | 5.5m/s | 0°C | 0% | 0hPa | 0V | 00:00:00 | 00:00:00 | 00:00:00 | |
| EA3GEO | 2026-09-04 00:23:10 | 41.23213 | 2.21734 | 282° | 31km/h | 25510m | 4.4m/s | 0°C | 0% | 0hPa | 0V | 00:00:00 | 00:00:00 | 00:00:00 | |
| EA3IBE | 2026-09-04 00:23:09 | 41.23212 | 2.21745 | 282° | 38km/h | 25505m | 5.5m/s | 0°C | 0% | 0hPa | 0V | 00:00:00 | 00:00:00 | 00:00:00 | |
| EA3GEO | 2026-09-04 00:23:05 | 41.23204 | 2.21803 | 272° | 38km/h | 25484m | 6.3m/s | 0°C | 0% | 0hPa | 0V | 00:00:00 | 00:00:00 | 00:00:00 | |
| EA3IBE | 2026-09-04 00:23:03 | 41.23204 | 2.21826 | 272° | 31km/h | 25475m | 4.3m/s | 0°C | 0% | 0hPa | 0V | 00:00:00 | 00:00:00 | 00:00:00 | |
| EA3IBE | 2026-09-04 00:22:56 | 41.23193 | 2.21906 | 257° | 35km/h | 25438m | 4.4m/s | 0°C | 0% | 0hPa | 0V | 00:00:00 | 00:00:00 | 00:00:00 | |
| EA3GEO | 2026-09-04 00:22:52 | 41.23193 | 2.21954 | 283° | 35km/h | 25418m | 4.6m/s | 0°C | 0% | 0hPa | 0V | 00:00:00 | 00:00:00 | 00:00:00 | |
| EA3IBE | 2026-09-04 00:22:50 | 41.23191 | 2.21973 | 271° | 24km/h | 25407m | 5.0m/s | 0°C | 0% | 0hPa | 0V | 00:00:00 | 00:00:00 | 00:00:00 | |
| EA3GEO | 2026-09-04 00:22:45 | 41.23190 | 2.22021 | 270° | 38km/h | 25383m | 4.1m/s | 0°C | 0% | 0hPa | 0V | 00:00:00 | 00:00:00 | 00:00:00 | |
| EA3IBE | 2026-09-04 00:22:39 | 41.23198 | 2.22078 | 307° | 26km/h | 25354m | 5.3m/s | 0°C | 0% | 0hPa | 0V | 00:00:00 | 00:00:00 | 00:00:00 | |
| EA3GEO | 2026-09-04 00:22:34 | 41.23190 | 2.22119 | 247° | 33km/h | 25331m | 4.7m/s | 0°C | 0% | 0hPa | 0V | 00:00:00 | 00:00:00 | 00:00:00 | |
| EA3GEO | 2026-09-04 00:22:28 | 41.23189 | 2.22169 | 312° | 13km/h | 25301m | 5.4m/s | 0°C | 0% | 0hPa | 0V | 00:00:00 | 00:00:00 | 00:00:00 | |
| EA3GEO | 2026-09-04 00:22:23 | 41.23178 | 2.22204 | 275° | 35km/h | 25278m | 4.7m/s | 0°C | 0% | 0hPa | 0V | 00:00:00 | 00:00:00 | 00:00:00 | |
| EA3GEO | 2026-09-04 00:22:17 | 41.23174 | 2.22252 | 312° | 29km/h | 25247m | 3.5m/s | 0°C | 0% | 0hPa | 0V | 00:00:00 | 00:00:00 | 00:00:00 | |
| EA3GEO | 2026-09-04 00:22:12 | 41.23172 | 2.22292 | 250° | 31km/h | 25225m | 3.9m/s | 0°C | 0% | 0hPa | 0V | 00:00:00 | 00:00:00 | 00:00:00 | |
| EA3IBE | 2026-09-04 00:22:07 | 41.23160 | 2.22322 | 334° | 18km/h | 25202m | 4.4m/s | 0°C | 0% | 0hPa | 0V | 00:00:00 | 00:00:00 | 00:00:00 | |
| EA3GEO | 2026-09-04 00:22:01 | 41.23147 | 2.22373 | 283° | 26km/h | 25177m | 3.8m/s | 0°C | 0% | 0hPa | 0V | 00:00:00 | 00:00:00 | 00:00:00 | |
| EA3IBE | 2026-09-04 00:21:58 | 41.23146 | 2.22384 | 267° | 5km/h | 25162m | 3.2m/s | 0°C | 0% | 0hPa | 0V | 00:00:00 | 00:00:00 | 00:00:00 | |
| EA3GEO | 2026-09-04 00:21:55 | 41.23141 | 2.22404 | 293° | 37km/h | 25147m | 5.2m/s | 0°C | 0% | 0hPa | 0V | 00:00:00 | 00:00:00 | 00:00:00 | |
| EA3IBE | 2026-09-04 00:21:48 | 41.23126 | 2.22462 | 277° | 22km/h | 25114m | 4.9m/s | 0°C | 0% | 0hPa | 0V | 00:00:00 | 00:00:00 | 00:00:00 | |
| EA3GEO | 2026-09-04 00:21:46 | 41.23125 | 2.22480 | 282° | 27km/h | 25105m | 4.5m/s | 0°C | 0% | 0hPa | 0V | 00:00:00 | 00:00:00 | 00:00:00 | |
| EA3GEO | 2026-09-04 00:21:39 | 41.23107 | 2.22539 | 280° | 31km/h | 25072m | 4.1m/s | 0°C | 0% | 0hPa | 0V | 00:00:00 | 00:00:00 | 00:00:00 | |
| EA3IBE | 2026-09-04 00:21:38 | 41.23106 | 2.22549 | 274° | 27km/h | 25067m | 5.8m/s | 0°C | 0% | 0hPa | 0V | 00:00:00 | 00:00:00 | 00:00:00 | |
| EA3IBE | 2026-09-04 00:21:33 | 41.23098 | 2.22590 | 292° | 33km/h | 25045m | 3.7m/s | 0°C | 0% | 0hPa | 0V | 00:00:00 | 00:00:00 | 00:00:00 | |
| EA3IBE | 2026-09-04 00:21:22 | 41.23085 | 2.22682 | 284° | 29km/h | 24987m | 5.0m/s | 0°C | 0% | 0hPa | 0V | 00:00:00 | 00:00:00 | 00:00:00 | |
| EA3GEO | 2026-09-04 00:21:21 | 41.23085 | 2.22682 | 284° | 29km/h | 24987m | 5.0m/s | 0°C | 0% | 0hPa | 0V | 00:00:00 | 00:00:00 | 00:00:00 | |
| EA3GEO | 2026-09-04 00:21:14 | 41.23082 | 2.22746 | 283° | 29km/h | 24954m | 3.2m/s | 0°C | 0% | 0hPa | 0V | 00:00:00 | 00:00:00 | 00:00:00 | |
| EA3IBE | 2026-09-04 00:21:11 | 41.23079 | 2.22766 | 282° | 16km/h | 24940m | 3.7m/s | 0°C | 0% | 0hPa | 0V | 00:00:00 | 00:00:00 | 00:00:00 | |
| EA3GEO | 2026-09-04 00:21:09 | 41.23077 | 2.22780 | 275° | 31km/h | 24932m | 6.5m/s | 0°C | 0% | 0hPa | 0V | 00:00:00 | 00:00:00 | 00:00:00 | |
| EA3IBE | 2026-09-04 00:21:04 | 41.23079 | 2.22834 | 258° | 16km/h | 24908m | 3.9m/s | 0°C | 0% | 0hPa | 0V | 00:00:00 | 00:00:00 | 00:00:00 | |
| EA3GEO | 2026-09-04 00:21:02 | 41.23079 | 2.22842 | 290° | 16km/h | 24899m | 4.8m/s | 0°C | 0% | 0hPa | 0V | 00:00:00 | 00:00:00 | 00:00:00 | |
| EA3IBE | 2026-09-04 00:20:58 | 41.23077 | 2.22874 | 253° | 29km/h | 24879m | 5.3m/s | 0°C | 0% | 0hPa | 0V | 00:00:00 | 00:00:00 | 00:00:00 | |
| EA3GEO | 2026-09-04 00:20:56 | 41.23082 | 2.22893 | 259° | 29km/h | 24869m | 5.2m/s | 0°C | 0% | 0hPa | 0V | 00:00:00 | 00:00:00 | 00:00:00 | |
| EA3GEO | 2026-09-04 00:20:50 | 41.23080 | 2.22925 | 270° | 13km/h | 24842m | 4.3m/s | 0°C | 0% | 0hPa | 0V | 00:00:00 | 00:00:00 | 00:00:00 | |
| EA3GEO | 2026-09-04 00:20:44 | 41.23083 | 2.22971 | 237° | 15km/h | 24813m | 4.1m/s | 0°C | 0% | 0hPa | 0V | 00:00:00 | 00:00:00 | 00:00:00 | |
| EA3IBE | 2026-09-04 00:20:43 | 41.23084 | 2.22975 | 245° | 13km/h | 24809m | 5.0m/s | 0°C | 0% | 0hPa | 0V | 00:00:00 | 00:00:00 | 00:00:00 | |
| EA3GEO | 2026-09-04 00:20:38 | 41.23090 | 2.22999 | 247° | 18km/h | 24784m | 4.3m/s | 0°C | 0% | 0hPa | 0V | 00:00:00 | 00:00:00 | 00:00:00 | |
| EA3IBE | 2026-09-04 00:20:37 | 41.23092 | 2.23005 | 259° | 22km/h | 24780m | 4.7m/s | 0°C | 0% | 0hPa | 0V | 00:00:00 | 00:00:00 | 00:00:00 | |
| EA3GEO | 2026-09-04 00:20:33 | 41.23088 | 2.23032 | 282° | 13km/h | 24759m | 5.5m/s | 0°C | 0% | 0hPa | 0V | 00:00:00 | 00:00:00 | 00:00:00 | |
| EA3IBE | 2026-09-04 00:20:31 | 41.23088 | 2.23039 | 273° | 13km/h | 24749m | 4.6m/s | 0°C | 0% | 0hPa | 0V | 00:00:00 | 00:00:00 | 00:00:00 | |
| EA3GEO | 2026-09-04 00:20:27 | 41.23087 | 2.23066 | 265° | 24km/h | 24730m | 5.5m/s | 0°C | 0% | 0hPa | 0V | 00:00:00 | 00:00:00 | 00:00:00 | |
| EA3IBE | 2026-09-04 00:20:25 | 41.23089 | 2.23080 | 267° | 20km/h | 24721m | 3.5m/s | 0°C | 0% | 0hPa | 0V | 00:00:00 | 00:00:00 | 00:00:00 | |
| EA3GEO | 2026-09-04 00:20:20 | 41.23078 | 2.23121 | 295° | 20km/h | 24696m | 5.9m/s | 0°C | 0% | 0hPa | 0V | 00:00:00 | 00:00:00 | 00:00:00 | |
| EA3IBE | 2026-09-04 00:20:19 | 41.23076 | 2.23126 | 285° | 13km/h | 24691m | 5.2m/s | 0°C | 0% | 0hPa | 0V | 00:00:00 | 00:00:00 | 00:00:00 | |
| EA3GEO | 2026-09-04 00:20:14 | 41.23070 | 2.23160 | 293° | 31km/h | 24667m | 5.1m/s | 0°C | 0% | 0hPa | 0V | 00:00:00 | 00:00:00 | 00:00:00 | |
| EA3IBE | 2026-09-04 00:20:12 | 41.23065 | 2.23177 | 298° | 22km/h | 24657m | 4.9m/s | 0°C | 0% | 0hPa | 0V | 00:00:00 | 00:00:00 | 00:00:00 | |
| EA3IBE | 2026-09-04 00:20:03 | 41.23047 | 2.23247 | 299° | 31km/h | 24612m | 5.6m/s | 0°C | 0% | 0hPa | 0V | 00:00:00 | 00:00:00 | 00:00:00 | |
| EA3IBE | 2026-09-04 00:19:58 | 41.23030 | 2.23288 | 286° | 20km/h | 24588m | 4.3m/s | 0°C | 0% | 0hPa | 0V | 00:00:00 | 00:00:00 | 00:00:00 | |
| EA3GEO | 2026-09-04 00:19:55 | 41.23025 | 2.23317 | 291° | 42km/h | 24573m | 4.5m/s | 0°C | 0% | 0hPa | 0V | 00:00:00 | 00:00:00 | 00:00:00 | |
| EA3IBE | 2026-09-04 00:19:51 | 41.23016 | 2.23358 | 277° | 18km/h | 24553m | 5.5m/s | 0°C | 0% | 0hPa | 0V | 00:00:00 | 00:00:00 | 00:00:00 | |
| EA3GEO | 2026-09-04 00:19:48 | 41.23015 | 2.23377 | 272° | 27km/h | 24538m | 3.9m/s | 0°C | 0% | 0hPa | 0V | 00:00:00 | 00:00:00 | 00:00:00 | |
| EA3IBE | 2026-09-04 00:19:45 | 41.23017 | 2.23406 | 262° | 29km/h | 24523m | 5.5m/s | 0°C | 0% | 0hPa | 0V | 00:00:00 | 00:00:00 | 00:00:00 | |
| EA3GEO | 2026-09-04 00:19:42 | 41.23016 | 2.23434 | 289° | 29km/h | 24507m | 5.3m/s | 0°C | 0% | 0hPa | 0V | 00:00:00 | 00:00:00 | 00:00:00 | |
| EA3IBE | 2026-09-04 00:19:39 | 41.23013 | 2.23453 | 241° | 11km/h | 24492m | 6.5m/s | 0°C | 0% | 0hPa | 0V | 00:00:00 | 00:00:00 | 00:00:00 | |
| EA3GEO | 2026-09-04 00:19:35 | 41.23022 | 2.23476 | 273° | 31km/h | 24471m | 5.6m/s | 0°C | 0% | 0hPa | 0V | 00:00:00 | 00:00:00 | 00:00:00 | |
| EA3IBE | 2026-09-04 00:19:33 | 41.23019 | 2.23497 | 287° | 31km/h | 24461m | 5.1m/s | 0°C | 0% | 0hPa | 0V | 00:00:00 | 00:00:00 | 00:00:00 | |
| EA3GEO | 2026-09-04 00:19:29 | 41.23018 | 2.23522 | 249° | 15km/h | 24441m | 5.7m/s | 0°C | 0% | 0hPa | 0V | 00:00:00 | 00:00:00 | 00:00:00 | |
| EA3IBE | 2026-09-04 00:19:27 | 41.23023 | 2.23533 | 237° | 22km/h | 24430m | 5.1m/s | 0°C | 0% | 0hPa | 0V | 00:00:00 | 00:00:00 | 00:00:00 | |
| EA3GEO | 2026-09-04 00:19:24 | 41.23032 | 2.23551 | 255° | 20km/h | 24416m | 3.9m/s | 0°C | 0% | 0hPa | 0V | 00:00:00 | 00:00:00 | 00:00:00 | |
| EA3IBE | 2026-09-04 00:19:22 | 41.23031 | 2.23566 | 293° | 27km/h | 24405m | 5.6m/s | 0°C | 0% | 0hPa | 0V | 00:00:00 | 00:00:00 | 00:00:00 | |
| EA3GEO | 2026-09-04 00:19:17 | 41.23032 | 2.23587 | 196° | 20km/h | 24380m | 4.3m/s | 0°C | 0% | 0hPa | 0V | 00:00:00 | 00:00:00 | 00:00:00 | |
| EA3IBE | 2026-09-04 00:19:15 | 41.23039 | 2.23595 | 248° | 24km/h | 24370m | 5.3m/s | 0°C | 0% | 0hPa | 0V | 00:00:00 | 00:00:00 | 00:00:00 | |
| EA3GEO | 2026-09-04 00:19:12 | 41.23040 | 2.23621 | 272° | 24km/h | 24355m | 5.3m/s | 0°C | 0% | 0hPa | 0V | 00:00:00 | 00:00:00 | 00:00:00 | |
| EA3IBE | 2026-09-04 00:19:10 | 41.23043 | 2.23632 | 227° | 15km/h | 24344m | 4.3m/s | 0°C | 0% | 0hPa | 0V | 00:00:00 | 00:00:00 | 00:00:00 | |
| EA3GEO | 2026-09-04 00:19:07 | 41.23050 | 2.23643 | 248° | 20km/h | 24330m | 5.4m/s | 0°C | 0% | 0hPa | 0V | 00:00:00 | 00:00:00 | 00:00:00 | |
| EA3IBE | 2026-09-04 00:19:04 | 41.23057 | 2.23666 | 239° | 26km/h | 24315m | 5.8m/s | 0°C | 0% | 0hPa | 0V | 00:00:00 | 00:00:00 | 00:00:00 | |
| EA3GEO | 2026-09-04 00:19:01 | 41.23067 | 2.23679 | 233° | 11km/h | 24300m | 6.0m/s | 0°C | 0% | 0hPa | 0V | 00:00:00 | 00:00:00 | 00:00:00 | |
| EA3IBE | 2026-09-04 00:18:52 | 41.23083 | 2.23718 | 243° | 13km/h | 24252m | 5.6m/s | 0°C | 0% | 0hPa | 0V | 00:00:00 | 00:00:00 | 00:00:00 | |
| EA3IBE | 2026-09-04 00:18:46 | 41.23082 | 2.23743 | 263° | 27km/h | 24222m | 3.8m/s | 0°C | 0% | 0hPa | 0V | 00:00:00 | 00:00:00 | 00:00:00 | |
| EA3IBE | 2026-09-04 00:18:41 | 41.23097 | 2.23765 | 275° | 5km/h | 24195m | 4.9m/s | 0°C | 0% | 0hPa | 0V | 00:00:00 | 00:00:00 | 00:00:00 | |
| EA3GEO | 2026-09-04 00:18:38 | 41.23092 | 2.23771 | 319° | 11km/h | 24181m | 5.2m/s | 0°C | 0% | 0hPa | 0V | 00:00:00 | 00:00:00 | 00:00:00 | |
| EA3IBE | 2026-09-04 00:18:35 | 41.23091 | 2.23785 | 263° | 22km/h | 24166m | 6.3m/s | 0°C | 0% | 0hPa | 0V | 00:00:00 | 00:00:00 | 00:00:00 | |
| EA3IBE | 2026-09-04 00:18:30 | 41.23100 | 2.23802 | 96° | 9km/h | 24142m | 3.8m/s | 0°C | 0% | 0hPa | 0V | 00:00:00 | 00:00:00 | 00:00:00 | |
| EA3GEO | 2026-09-04 00:18:25 | 41.23085 | 2.23812 | 280° | 18km/h | 24119m | 4.1m/s | 0°C | 0% | 0hPa | 0V | 00:00:00 | 00:00:00 | 00:00:00 | |
| EA3IBE | 2026-09-04 00:18:24 | 41.23086 | 2.23816 | 237° | 13km/h | 24115m | 5.7m/s | 0°C | 0% | 0hPa | 0V | 00:00:00 | 00:00:00 | 00:00:00 | |
| EA3IBE | 2026-09-04 00:18:19 | 41.23087 | 2.23810 | 337° | 20km/h | 24092m | 5.6m/s | 0°C | 0% | 0hPa | 0V | 00:00:00 | 00:00:00 | 00:00:00 | |
| EA3GEO | 2026-09-04 00:18:17 | 41.23078 | 2.23823 | 296° | 29km/h | 24082m | 5.0m/s | 0°C | 0% | 0hPa | 0V | 00:00:00 | 00:00:00 | 00:00:00 | |
| EA3IBE | 2026-09-04 00:18:14 | 41.23077 | 2.23840 | 223° | 5km/h | 24068m | 5.6m/s | 0°C | 0% | 0hPa | 0V | 00:00:00 | 00:00:00 | 00:00:00 | |
| EA3GEO | 2026-09-04 00:18:12 | 41.23077 | 2.23836 | 63° | 15km/h | 24056m | 5.3m/s | 0°C | 0% | 0hPa | 0V | 00:00:00 | 00:00:00 | 00:00:00 | |
| EA3IBE | 2026-09-04 00:18:08 | 41.23071 | 2.23835 | 267° | 22km/h | 24038m | 6.1m/s | 0°C | 0% | 0hPa | 0V | 00:00:00 | 00:00:00 | 00:00:00 | |
| EA3GEO | 2026-09-04 00:18:06 | 41.23071 | 2.23856 | 278° | 35km/h | 24029m | 4.0m/s | 0°C | 0% | 0hPa | 0V | 00:00:00 | 00:00:00 | 00:00:00 | |
| EA3IBE | 2026-09-04 00:18:02 | 41.23059 | 2.23876 | 27° | 7km/h | 24010m | 5.0m/s | 0°C | 0% | 0hPa | 0V | 00:00:00 | 00:00:00 | 00:00:00 | |
| EA3GEO | 2026-09-04 00:18:00 | 41.23060 | 2.23876 | 221° | 13km/h | 24000m | 5.2m/s | 0°C | 0% | 0hPa | 0V | 00:00:00 | 00:00:00 | 00:00:00 | |
| EA3IBE | 2026-09-04 00:17:56 | 41.23062 | 2.23907 | 293° | 29km/h | 23980m | 4.1m/s | 0°C | 0% | 0hPa | 0V | 00:00:00 | 00:00:00 | 00:00:00 | |
| EA3GEO | 2026-09-04 00:17:54 | 41.23058 | 2.23921 | 290° | 18km/h | 23971m | 5.2m/s | 0°C | 0% | 0hPa | 0V | 00:00:00 | 00:00:00 | 00:00:00 | |
| EA3IBE | 2026-09-04 00:17:50 | 41.23057 | 2.23938 | 302° | 11km/h | 23952m | 5.4m/s | 0°C | 0% | 0hPa | 0V | 00:00:00 | 00:00:00 | 00:00:00 | |
| EA3GEO | 2026-09-04 00:17:47 | 41.23050 | 2.23947 | 304° | 16km/h | 23937m | 4.4m/s | 0°C | 0% | 0hPa | 0V | 00:00:00 | 00:00:00 | 00:00:00 | |
| EA3IBE | 2026-09-04 00:17:44 | 41.23050 | 2.23964 | 265° | 18km/h | 23922m | 3.6m/s | 0°C | 0% | 0hPa | 0V | 00:00:00 | 00:00:00 | 00:00:00 | |
| EA3GEO | 2026-09-04 00:17:41 | 41.23044 | 2.23979 | 328° | 22km/h | 23908m | 4.1m/s | 0°C | 0% | 0hPa | 0V | 00:00:00 | 00:00:00 | 00:00:00 | |
| EA3IBE | 2026-09-04 00:17:38 | 41.23034 | 2.23995 | 292° | 22km/h | 23893m | 4.8m/s | 0°C | 0% | 0hPa | 0V | 00:00:00 | 00:00:00 | 00:00:00 | |
| EA3GEO | 2026-09-04 00:17:35 | 41.23029 | 2.24014 | 293° | 16km/h | 23878m | 4.5m/s | 0°C | 0% | 0hPa | 0V | 00:00:00 | 00:00:00 | 00:00:00 | |
| EA3IBE | 2026-09-04 00:17:32 | 41.23027 | 2.24029 | 270° | 18km/h | 23863m | 5.1m/s | 0°C | 0% | 0hPa | 0V | 00:00:00 | 00:00:00 | 00:00:00 | |
| EA3GEO | 2026-09-04 00:17:28 | 41.23019 | 2.24052 | 312° | 24km/h | 23843m | 3.7m/s | 0°C | 0% | 0hPa | 0V | 00:00:00 | 00:00:00 | 00:00:00 | |
| EA3IBE | 2026-09-04 00:17:27 | 41.23015 | 2.24059 | 298° | 24km/h | 23838m | 5.6m/s | 0°C | 0% | 0hPa | 0V | 00:00:00 | 00:00:00 | 00:00:00 | |
| EA3IBE | 2026-09-04 00:17:21 | 41.23012 | 2.24101 | 277° | 18km/h | 23808m | 4.8m/s | 0°C | 0% | 0hPa | 0V | 00:00:00 | 00:00:00 | 00:00:00 | |
| EA3IBE | 2026-09-04 00:17:17 | 41.23003 | 2.24141 | 308° | 27km/h | 23784m | 4.3m/s | 0°C | 0% | 0hPa | 0V | 00:00:00 | 00:00:00 | 00:00:00 | |
| EA3GEO | 2026-09-04 00:17:12 | 41.22993 | 2.24180 | 275° | 37km/h | 23763m | 4.2m/s | 0°C | 0% | 0hPa | 0V | 00:00:00 | 00:00:00 | 00:00:00 | |
| EA3IBE | 2026-09-04 00:17:10 | 41.22990 | 2.24201 | 290° | 29km/h | 23753m | 5.6m/s | 0°C | 0% | 0hPa | 0V | 00:00:00 | 00:00:00 | 00:00:00 | |
| EA3IBE | 2026-09-04 00:17:05 | 41.22983 | 2.24245 | 257° | 33km/h | 23730m | 4.7m/s | 0°C | 0% | 0hPa | 0V | 00:00:00 | 00:00:00 | 00:00:00 | |
| EA3IBE | 2026-09-04 00:16:57 | 41.22977 | 2.24337 | 277° | 37km/h | 23690m | 5.3m/s | 0°C | 0% | 0hPa | 0V | 00:00:00 | 00:00:00 | 00:00:00 | |
| EA3IBE | 2026-09-04 00:16:52 | 41.22989 | 2.24396 | 257° | 38km/h | 23666m | 3.7m/s | 0°C | 0% | 0hPa | 0V | 00:00:00 | 00:00:00 | 00:00:00 | |
| EA3IBE | 2026-09-04 00:16:44 | 41.23000 | 2.24512 | 231° | 33km/h | 23622m | 4.5m/s | 0°C | 0% | 0hPa | 0V | 00:00:00 | 00:00:00 | 00:00:00 | |
| EA3IBE | 2026-09-04 00:16:37 | 41.23010 | 2.24577 | 270° | 40km/h | 23594m | 3.5m/s | 0°C | 0% | 0hPa | 0V | 00:00:00 | 00:00:00 | 00:00:00 | |
| EA3IBE | 2026-09-04 00:16:32 | 41.23034 | 2.24647 | 231° | 38km/h | 23571m | 5.8m/s | 0°C | 0% | 0hPa | 0V | 00:00:00 | 00:00:00 | 00:00:00 | |
| EA3IBE | 2026-09-04 00:16:26 | 41.23056 | 2.24709 | 246° | 49km/h | 23542m | 4.9m/s | 0°C | 0% | 0hPa | 0V | 00:00:00 | 00:00:00 | 00:00:00 | |
| EA3IBE | 2026-09-04 00:16:20 | 41.23095 | 2.24786 | 237° | 47km/h | 23513m | 4.7m/s | 0°C | 0% | 0hPa | 0V | 00:00:00 | 00:00:00 | 00:00:00 | |
| EA3IBE | 2026-09-04 00:16:15 | 41.23120 | 2.24844 | 237° | 44km/h | 23488m | 5.6m/s | 0°C | 0% | 0hPa | 0V | 00:00:00 | 00:00:00 | 00:00:00 | |
| EA3GEO | 2026-09-04 00:16:13 | 41.23137 | 2.24869 | 225° | 53km/h | 23479m | 4.2m/s | 0°C | 0% | 0hPa | 0V | 00:00:00 | 00:00:00 | 00:00:00 | |
| EA3IBE | 2026-09-04 00:16:09 | 41.23167 | 2.24912 | 244° | 40km/h | 23460m | 6.7m/s | 0°C | 0% | 0hPa | 0V | 00:00:00 | 00:00:00 | 00:00:00 | |
| EA3GEO | 2026-09-04 00:16:07 | 41.23173 | 2.24937 | 254° | 37km/h | 23450m | 3.2m/s | 0°C | 0% | 0hPa | 0V | 00:00:00 | 00:00:00 | 00:00:00 | |
| EA3IBE | 2026-09-04 00:16:03 | 41.23198 | 2.24964 | 199° | 44km/h | 23431m | 4.6m/s | 0°C | 0% | 0hPa | 0V | 00:00:00 | 00:00:00 | 00:00:00 | |
| EA3GEO | 2026-09-04 00:16:02 | 41.23208 | 2.24971 | 208° | 47km/h | 23427m | 4.5m/s | 0°C | 0% | 0hPa | 0V | 00:00:00 | 00:00:00 | 00:00:00 | |
| EA3IBE | 2026-09-04 00:15:58 | 41.23235 | 2.25011 | 248° | 29km/h | 23407m | 5.0m/s | 0°C | 0% | 0hPa | 0V | 00:00:00 | 00:00:00 | 00:00:00 | |
| EA3GEO | 2026-09-04 00:15:54 | 41.23257 | 2.25039 | 211° | 42km/h | 23388m | 4.9m/s | 0°C | 0% | 0hPa | 0V | 00:00:00 | 00:00:00 | 00:00:00 | |
| EA3IBE | 2026-09-04 00:15:52 | 41.23276 | 2.25051 | 204° | 38km/h | 23379m | 5.2m/s | 0°C | 0% | 0hPa | 0V | 00:00:00 | 00:00:00 | 00:00:00 | |
| EA3GEO | 2026-09-04 00:15:48 | 41.23302 | 2.25069 | 221° | 31km/h | 23360m | 5.7m/s | 0°C | 0% | 0hPa | 0V | 00:00:00 | 00:00:00 | 00:00:00 | |
| EA3IBE | 2026-09-04 00:15:47 | 41.23308 | 2.25076 | 223° | 37km/h | 23354m | 5.4m/s | 0°C | 0% | 0hPa | 0V | 00:00:00 | 00:00:00 | 00:00:00 | |
| EA3GEO | 2026-09-04 00:15:42 | 41.23335 | 2.25106 | 194° | 15km/h | 23330m | 4.4m/s | 0°C | 0% | 0hPa | 0V | 00:00:00 | 00:00:00 | 00:00:00 | |
| EA3IBE | 2026-09-04 00:15:41 | 41.23340 | 2.25107 | 189° | 22km/h | 23326m | 4.1m/s | 0°C | 0% | 0hPa | 0V | 00:00:00 | 00:00:00 | 00:00:00 | |
| EA3GEO | 2026-09-04 00:15:37 | 41.23369 | 2.25124 | 220° | 33km/h | 23306m | 5.9m/s | 0°C | 0% | 0hPa | 0V | 00:00:00 | 00:00:00 | 00:00:00 | |
| EA3IBE | 2026-09-04 00:15:35 | 41.23378 | 2.25136 | 237° | 20km/h | 23295m | 4.2m/s | 0°C | 0% | 0hPa | 0V | 00:00:00 | 00:00:00 | 00:00:00 | |
| EA3GEO | 2026-09-04 00:15:31 | 41.23389 | 2.25146 | 170° | 9km/h | 23276m | 5.8m/s | 0°C | 0% | 0hPa | 0V | 00:00:00 | 00:00:00 | 00:00:00 | |
| EA3IBE | 2026-09-04 00:15:28 | 41.23397 | 2.25147 | 201° | 18km/h | 23260m | 6.1m/s | 0°C | 0% | 0hPa | 0V | 00:00:00 | 00:00:00 | 00:00:00 | |
| EA3GEO | 2026-09-04 00:15:26 | 41.23408 | 2.25154 | 218° | 26km/h | 23250m | 3.3m/s | 0°C | 0% | 0hPa | 0V | 00:00:00 | 00:00:00 | 00:00:00 | |
| EA3IBE | 2026-09-04 00:15:22 | 41.23416 | 2.25164 | 139° | 5km/h | 23231m | 5.5m/s | 0°C | 0% | 0hPa | 0V | 00:00:00 | 00:00:00 | 00:00:00 | |
| EA3GEO | 2026-09-04 00:15:18 | 41.23429 | 2.25155 | 165° | 16km/h | 23211m | 5.6m/s | 0°C | 0% | 0hPa | 0V | 00:00:00 | 00:00:00 | 00:00:00 | |
| EA3GEO | 2026-09-04 00:15:11 | 41.23449 | 2.25167 | 105° | 9km/h | 23172m | 4.4m/s | 0°C | 0% | 0hPa | 0V | 00:00:00 | 00:00:00 | 00:00:00 | |
| EA3IBE | 2026-09-04 00:15:05 | 41.23461 | 2.25160 | 228° | 11km/h | 23148m | 4.2m/s | 0°C | 0% | 0hPa | 0V | 00:00:00 | 00:00:00 | 00:00:00 | |
| EA3IBE | 2026-09-04 00:15:00 | 41.23465 | 2.25169 | 30° | 9km/h | 23123m | 5.6m/s | 0°C | 0% | 0hPa | 0V | 00:00:00 | 00:00:00 | 00:00:00 | |
| EA3GEO | 2026-09-04 00:14:54 | 41.23471 | 2.25156 | 231° | 7km/h | 23096m | 5.3m/s | 0°C | 0% | 0hPa | 0V | 00:00:00 | 00:00:00 | 00:00:00 | |
| EA3IBE | 2026-09-04 00:14:48 | 41.23463 | 2.25173 | 0° | 0km/h | 23068m | 4.3m/s | 0°C | 0% | 0hPa | 0V | 00:00:00 | 00:00:00 | 00:00:00 | |
| EA3IBE | 2026-09-04 00:14:43 | 41.23461 | 2.25170 | 186° | 2km/h | 23043m | 4.8m/s | 0°C | 0% | 0hPa | 0V | 00:00:00 | 00:00:00 | 00:00:00 | |
| EA3GEO | 2026-09-04 00:14:38 | 41.23448 | 2.25174 | 7° | 16km/h | 23021m | 4.6m/s | 0°C | 0% | 0hPa | 0V | 00:00:00 | 00:00:00 | 00:00:00 | |
| EA3IBE | 2026-09-04 00:14:36 | 41.23442 | 2.25171 | 57° | 9km/h | 23011m | 3.9m/s | 0°C | 0% | 0hPa | 0V | 00:00:00 | 00:00:00 | 00:00:00 | |
| EA3IBE | 2026-09-04 00:14:31 | 41.23432 | 2.25164 | 354° | 9km/h | 22988m | 5.4m/s | 0°C | 0% | 0hPa | 0V | 00:00:00 | 00:00:00 | 00:00:00 | |
| EA3GEO | 2026-09-04 00:14:25 | 41.23413 | 2.25168 | 336° | 5km/h | 22960m | 5.9m/s | 0°C | 0% | 0hPa | 0V | 00:00:00 | 00:00:00 | 00:00:00 | |
| EA3GEO | 2026-09-04 00:14:17 | 41.23391 | 2.25177 | 327° | 11km/h | 22919m | 5.5m/s | 0°C | 0% | 0hPa | 0V | 00:00:00 | 00:00:00 | 00:00:00 | |
| EA3IBE | 2026-09-04 00:14:14 | 41.23387 | 2.25182 | 304° | 11km/h | 22909m | 3.9m/s | 0°C | 0% | 0hPa | 0V | 00:00:00 | 00:00:00 | 00:00:00 | |
| EA3GEO | 2026-09-04 00:14:10 | 41.23382 | 2.25196 | 324° | 16km/h | 22891m | 5.9m/s | 0°C | 0% | 0hPa | 0V | 00:00:00 | 00:00:00 | 00:00:00 | |
| EA3IBE | 2026-09-04 00:14:08 | 41.23373 | 2.25202 | 339° | 20km/h | 22882m | 3.7m/s | 0°C | 0% | 0hPa | 0V | 00:00:00 | 00:00:00 | 00:00:00 | |
| EA3GEO | 2026-09-04 00:14:02 | 41.23364 | 2.25220 | 308° | 15km/h | 22854m | 4.0m/s | 0°C | 0% | 0hPa | 0V | 00:00:00 | 00:00:00 | 00:00:00 | |
| EA3IBE | 2026-09-04 00:13:56 | 41.23352 | 2.25245 | 304° | 18km/h | 22826m | 3.4m/s | 0°C | 0% | 0hPa | 0V | 00:00:00 | 00:00:00 | 00:00:00 | |
| EA3GEO | 2026-09-04 00:13:55 | 41.23349 | 2.25251 | 289° | 18km/h | 22821m | 5.6m/s | 0°C | 0% | 0hPa | 0V | 00:00:00 | 00:00:00 | 00:00:00 | |
| EA3IBE | 2026-09-04 00:13:51 | 41.23348 | 2.25276 | 295° | 18km/h | 22801m | 4.7m/s | 0°C | 0% | 0hPa | 0V | 00:00:00 | 00:00:00 | 00:00:00 | |
| EA3GEO | 2026-09-04 00:13:49 | 41.23343 | 2.25286 | 293° | 16km/h | 22794m | 4.2m/s | 0°C | 0% | 0hPa | 0V | 00:00:00 | 00:00:00 | 00:00:00 | |
| EA3IBE | 2026-09-04 00:13:46 | 41.23345 | 2.25301 | 256° | 15km/h | 22780m | 3.8m/s | 0°C | 0% | 0hPa | 0V | 00:00:00 | 00:00:00 | 00:00:00 | |
| EA3GEO | 2026-09-04 00:13:43 | 41.23343 | 2.25316 | 288° | 20km/h | 22766m | 4.0m/s | 0°C | 0% | 0hPa | 0V | 00:00:00 | 00:00:00 | 00:00:00 | |
| EA3IBE | 2026-09-04 00:13:40 | 41.23343 | 2.25336 | 262° | 22km/h | 22751m | 3.7m/s | 0°C | 0% | 0hPa | 0V | 00:00:00 | 00:00:00 | 00:00:00 | |
| EA3GEO | 2026-09-04 00:13:37 | 41.23341 | 2.25353 | 312° | 15km/h | 22737m | 4.3m/s | 0°C | 0% | 0hPa | 0V | 00:00:00 | 00:00:00 | 00:00:00 | |
| EA3IBE | 2026-09-04 00:13:36 | 41.23337 | 2.25358 | 319° | 7km/h | 22728m | 4.2m/s | 0°C | 0% | 0hPa | 0V | 00:00:00 | 00:00:00 | 00:00:00 | |
| EA3GEO | 2026-09-04 00:13:32 | 41.23331 | 2.25366 | 310° | 18km/h | 22715m | 5.0m/s | 0°C | 0% | 0hPa | 0V | 00:00:00 | 00:00:00 | 00:00:00 | |
| EA3IBE | 2026-09-04 00:13:29 | 41.23328 | 2.25386 | 262° | 24km/h | 22701m | 4.4m/s | 0°C | 0% | 0hPa | 0V | 00:00:00 | 00:00:00 | 00:00:00 | |
| EA3GEO | 2026-09-04 00:13:26 | 41.23327 | 2.25408 | 298° | 20km/h | 22688m | 5.1m/s | 0°C | 0% | 0hPa | 0V | 00:00:00 | 00:00:00 | 00:00:00 | |
| EA3IBE | 2026-09-04 00:13:21 | 41.23313 | 2.25423 | 330° | 15km/h | 22663m | 5.2m/s | 0°C | 0% | 0hPa | 0V | 00:00:00 | 00:00:00 | 00:00:00 | |
| EA3GEO | 2026-09-04 00:13:16 | 41.23310 | 2.25454 | 262° | 20km/h | 22641m | 3.5m/s | 0°C | 0% | 0hPa | 0V | 00:00:00 | 00:00:00 | 00:00:00 | |
| EA3IBE | 2026-09-04 00:13:08 | 41.23290 | 2.25489 | 290° | 24km/h | 22604m | 5.2m/s | 0°C | 0% | 0hPa | 0V | 00:00:00 | 00:00:00 | 00:00:00 | |
| EA3IBE | 2026-09-04 00:13:03 | 41.23285 | 2.25527 | 269° | 15km/h | 22582m | 4.0m/s | 0°C | 0% | 0hPa | 0V | 00:00:00 | 00:00:00 | 00:00:00 | |
| EA3IBE | 2026-09-04 00:12:57 | 41.23274 | 2.25556 | 271° | 27km/h | 22553m | 5.1m/s | 0°C | 0% | 0hPa | 0V | 00:00:00 | 00:00:00 | 00:00:00 | |
| EA3IBE | 2026-09-04 00:12:50 | 41.23276 | 2.25603 | 296° | 18km/h | 22521m | 5.8m/s | 0°C | 0% | 0hPa | 0V | 00:00:00 | 00:00:00 | 00:00:00 | |
| EA3GEO | 2026-09-04 00:12:46 | 41.23269 | 2.25630 | 251° | 22km/h | 22503m | 5.3m/s | 0°C | 0% | 0hPa | 0V | 00:00:00 | 00:00:00 | 00:00:00 | |
| EA3IBE | 2026-09-04 00:12:43 | 41.23277 | 2.25647 | 253° | 13km/h | 22489m | 4.7m/s | 0°C | 0% | 0hPa | 0V | 00:00:00 | 00:00:00 | 00:00:00 | |
| EA3GEO | 2026-09-04 00:12:39 | 41.23277 | 2.25665 | 268° | 16km/h | 22472m | 3.9m/s | 0°C | 0% | 0hPa | 0V | 00:00:00 | 00:00:00 | 00:00:00 | |
| EA3IBE | 2026-09-04 00:12:35 | 41.23275 | 2.25684 | 264° | 15km/h | 22453m | 4.9m/s | 0°C | 0% | 0hPa | 0V | 00:00:00 | 00:00:00 | 00:00:00 | |
| EA3GEO | 2026-09-04 00:12:33 | 41.23279 | 2.25695 | 236° | 22km/h | 22443m | 4.1m/s | 0°C | 0% | 0hPa | 0V | 00:00:00 | 00:00:00 | 00:00:00 | |
| EA3IBE | 2026-09-04 00:12:26 | 41.23284 | 2.25738 | 266° | 13km/h | 22410m | 3.7m/s | 0°C | 0% | 0hPa | 0V | 00:00:00 | 00:00:00 | 00:00:00 | |
| EA3IBE | 2026-09-04 00:12:20 | 41.23288 | 2.25766 | 241° | 24km/h | 22383m | 3.6m/s | 0°C | 0% | 0hPa | 0V | 00:00:00 | 00:00:00 | 00:00:00 | |
| EA3IBE | 2026-09-04 00:12:15 | 41.23293 | 2.25796 | 240° | 13km/h | 22360m | 5.3m/s | 0°C | 0% | 0hPa | 0V | 00:00:00 | 00:00:00 | 00:00:00 | |
| EA3GEO | 2026-09-04 00:12:14 | 41.23295 | 2.25800 | 228° | 15km/h | 22355m | 3.7m/s | 0°C | 0% | 0hPa | 0V | 00:00:00 | 00:00:00 | 00:00:00 | |
| EA3IBE | 2026-09-04 00:12:08 | 41.23313 | 2.25831 | 228° | 22km/h | 22328m | 3.4m/s | 0°C | 0% | 0hPa | 0V | 00:00:00 | 00:00:00 | 00:00:00 | |
| EA3GEO | 2026-09-04 00:12:03 | 41.23321 | 2.25845 | 203° | 13km/h | 22304m | 4.7m/s | 0°C | 0% | 0hPa | 0V | 00:00:00 | 00:00:00 | 00:00:00 | |
| EA3IBE | 2026-09-04 00:12:02 | 41.23325 | 2.25847 | 210° | 16km/h | 22300m | 3.3m/s | 0°C | 0% | 0hPa | 0V | 00:00:00 | 00:00:00 | 00:00:00 | |
| EA3GEO | 2026-09-04 00:11:58 | 41.23332 | 2.25865 | 263° | 16km/h | 22282m | 4.0m/s | 0°C | 0% | 0hPa | 0V | 00:00:00 | 00:00:00 | 00:00:00 | |
| EA3IBE | 2026-09-04 00:11:57 | 41.23333 | 2.25870 | 248° | 15km/h | 22278m | 5.2m/s | 0°C | 0% | 0hPa | 0V | 00:00:00 | 00:00:00 | 00:00:00 | |
| EA3GEO | 2026-09-04 00:11:52 | 41.23343 | 2.25873 | 115° | 4km/h | 22255m | 4.0m/s | 0°C | 0% | 0hPa | 0V | 00:00:00 | 00:00:00 | 00:00:00 | |
| EA3GEO | 2026-09-04 00:11:47 | 41.23351 | 2.25890 | 260° | 15km/h | 22231m | 4.8m/s | 0°C | 0% | 0hPa | 0V | 00:00:00 | 00:00:00 | 00:00:00 | |
| EA3GEO | 2026-09-04 00:11:41 | 41.23358 | 2.25900 | 289° | 7km/h | 22203m | 5.2m/s | 0°C | 0% | 0hPa | 0V | 00:00:00 | 00:00:00 | 00:00:00 | |
| EA3IBE | 2026-09-04 00:11:39 | 41.23357 | 2.25909 | 263° | 16km/h | 22194m | 5.7m/s | 0°C | 0% | 0hPa | 0V | 00:00:00 | 00:00:00 | 00:00:00 | |
| EA3GEO | 2026-09-04 00:11:35 | 41.23365 | 2.25926 | 204° | 5km/h | 22175m | 5.0m/s | 0°C | 0% | 0hPa | 0V | 00:00:00 | 00:00:00 | 00:00:00 | |
| EA3IBE | 2026-09-04 00:11:34 | 41.23366 | 2.25926 | 157° | 5km/h | 22170m | 4.8m/s | 0°C | 0% | 0hPa | 0V | 00:00:00 | 00:00:00 | 00:00:00 | |
| EA3GEO | 2026-09-04 00:11:30 | 41.23374 | 2.25927 | 233° | 7km/h | 22151m | 5.5m/s | 0°C | 0% | 0hPa | 0V | 00:00:00 | 00:00:00 | 00:00:00 | |
| EA3IBE | 2026-09-04 00:11:27 | 41.23375 | 2.25937 | 252° | 15km/h | 22137m | 5.5m/s | 0°C | 0% | 0hPa | 0V | 00:00:00 | 00:00:00 | 00:00:00 | |
| EA3GEO | 2026-09-04 00:11:24 | 41.23383 | 2.25945 | 177° | 11km/h | 22124m | 4.4m/s | 0°C | 0% | 0hPa | 0V | 00:00:00 | 00:00:00 | 00:00:00 | |
| EA3IBE | 2026-09-04 00:11:22 | 41.23386 | 2.25941 | 92° | 11km/h | 22114m | 4.2m/s | 0°C | 0% | 0hPa | 0V | 00:00:00 | 00:00:00 | 00:00:00 | |
| EA3GEO | 2026-09-04 00:11:18 | 41.23389 | 2.25939 | 236° | 16km/h | 22096m | 4.4m/s | 0°C | 0% | 0hPa | 0V | 00:00:00 | 00:00:00 | 00:00:00 | |
| EA3IBE | 2026-09-04 00:11:13 | 41.23398 | 2.25949 | 160° | 13km/h | 22073m | 5.4m/s | 0°C | 0% | 0hPa | 0V | 00:00:00 | 00:00:00 | 00:00:00 | |
| EA3GEO | 2026-09-04 00:11:12 | 41.23401 | 2.25947 | 160° | 13km/h | 22068m | 3.9m/s | 0°C | 0% | 0hPa | 0V | 00:00:00 | 00:00:00 | 00:00:00 | |
| EA3IBE | 2026-09-04 00:11:08 | 41.23406 | 2.25945 | 0° | 0km/h | 22049m | 5.6m/s | 0°C | 0% | 0hPa | 0V | 00:00:00 | 00:00:00 | 00:00:00 | |
| EA3GEO | 2026-09-04 00:11:06 | 41.23407 | 2.25945 | 207° | 4km/h | 22040m | 3.6m/s | 0°C | 0% | 0hPa | 0V | 00:00:00 | 00:00:00 | 00:00:00 | |
| EA3IBE | 2026-09-04 00:11:02 | 41.23405 | 2.25940 | 77° | 9km/h | 22021m | 5.0m/s | 0°C | 0% | 0hPa | 0V | 00:00:00 | 00:00:00 | 00:00:00 | |
| EA3GEO | 2026-09-04 00:11:00 | 41.23405 | 2.25935 | 119° | 7km/h | 22012m | 3.6m/s | 0°C | 0% | 0hPa | 0V | 00:00:00 | 00:00:00 | 00:00:00 | |
| EA3IBE | 2026-09-04 00:10:57 | 41.23403 | 2.25933 | 344° | 9km/h | 21997m | 4.6m/s | 0°C | 0% | 0hPa | 0V | 00:00:00 | 00:00:00 | 00:00:00 | |
| EA3GEO | 2026-09-04 00:10:54 | 41.23400 | 2.25937 | 317° | 2km/h | 21983m | 3.8m/s | 0°C | 0% | 0hPa | 0V | 00:00:00 | 00:00:00 | 00:00:00 | |
| EA3IBE | 2026-09-04 00:10:51 | 41.23395 | 2.25934 | 42° | 11km/h | 21969m | 4.1m/s | 0°C | 0% | 0hPa | 0V | 00:00:00 | 00:00:00 | 00:00:00 | |
| EA3GEO | 2026-09-04 00:10:48 | 41.23394 | 2.25930 | 220° | 4km/h | 21955m | 4.2m/s | 0°C | 0% | 0hPa | 0V | 00:00:00 | 00:00:00 | 00:00:00 | |
| EA3IBE | 2026-09-04 00:10:45 | 41.23393 | 2.25935 | 308° | 9km/h | 21941m | 3.9m/s | 0°C | 0% | 0hPa | 0V | 00:00:00 | 00:00:00 | 00:00:00 | |
| EA3GEO | 2026-09-04 00:10:43 | 41.23391 | 2.25940 | 271° | 5km/h | 21932m | 4.8m/s | 0°C | 0% | 0hPa | 0V | 00:00:00 | 00:00:00 | 00:00:00 | |
| EA3IBE | 2026-09-04 00:10:39 | 41.23389 | 2.25938 | 31° | 4km/h | 21914m | 3.4m/s | 0°C | 0% | 0hPa | 0V | 00:00:00 | 00:00:00 | 00:00:00 | |
| EA3GEO | 2026-09-04 00:10:37 | 41.23389 | 2.25941 | 254° | 11km/h | 21904m | 5.2m/s | 0°C | 0% | 0hPa | 0V | 00:00:00 | 00:00:00 | 00:00:00 | |
| EA3IBE | 2026-09-04 00:10:34 | 41.23390 | 2.25954 | 298° | 9km/h | 21889m | 4.9m/s | 0°C | 0% | 0hPa | 0V | 00:00:00 | 00:00:00 | 00:00:00 | |
| EA3GEO | 2026-09-04 00:10:31 | 41.23386 | 2.25961 | 276° | 7km/h | 21876m | 4.9m/s | 0°C | 0% | 0hPa | 0V | 00:00:00 | 00:00:00 | 00:00:00 | |
| EA3IBE | 2026-09-04 00:10:27 | 41.23389 | 2.25969 | 279° | 11km/h | 21855m | 4.4m/s | 0°C | 0% | 0hPa | 0V | 00:00:00 | 00:00:00 | 00:00:00 | |
| EA3IBE | 2026-09-04 00:10:20 | 41.23376 | 2.25997 | 328° | 13km/h | 21827m | 4.8m/s | 0°C | 0% | 0hPa | 0V | 00:00:00 | 00:00:00 | 00:00:00 | |
| EA3GEO | 2026-09-04 00:10:15 | 41.23370 | 2.26012 | 294° | 13km/h | 21804m | 4.0m/s | 0°C | 0% | 0hPa | 0V | 00:00:00 | 00:00:00 | 00:00:00 | |
| EA3IBE | 2026-09-04 00:10:14 | 41.23369 | 2.26016 | 283° | 16km/h | 21799m | 5.8m/s | 0°C | 0% | 0hPa | 0V | 00:00:00 | 00:00:00 | 00:00:00 | |
| EA3GEO | 2026-09-04 00:10:10 | 41.23357 | 2.26045 | 320° | 16km/h | 21776m | 2.9m/s | 0°C | 0% | 0hPa | 0V | 00:00:00 | 00:00:00 | 00:00:00 | |
| EA3IBE | 2026-09-04 00:10:08 | 41.23354 | 2.26049 | 309° | 16km/h | 21772m | 4.8m/s | 0°C | 0% | 0hPa | 0V | 00:00:00 | 00:00:00 | 00:00:00 | |
| EA3GEO | 2026-09-04 00:10:03 | 41.23347 | 2.26077 | 298° | 18km/h | 21749m | 3.7m/s | 0°C | 0% | 0hPa | 0V | 00:00:00 | 00:00:00 | 00:00:00 | |
| EA3IBE | 2026-09-04 00:10:00 | 41.23341 | 2.26097 | 291° | 20km/h | 21735m | 3.8m/s | 0°C | 0% | 0hPa | 0V | 00:00:00 | 00:00:00 | 00:00:00 | |
| EA3GEO | 2026-09-04 00:09:57 | 41.23332 | 2.26114 | 310° | 22km/h | 21722m | 3.2m/s | 0°C | 0% | 0hPa | 0V | 00:00:00 | 00:00:00 | 00:00:00 | |
| EA3IBE | 2026-09-04 00:09:56 | 41.23325 | 2.26129 | 293° | 29km/h | 21712m | 4.6m/s | 0°C | 0% | 0hPa | 0V | 00:00:00 | 00:00:00 | 00:00:00 | |
| EA3GEO | 2026-09-04 00:09:52 | 41.23316 | 2.26153 | 304° | 24km/h | 21699m | 4.0m/s | 0°C | 0% | 0hPa | 0V | 00:00:00 | 00:00:00 | 00:00:00 | |
| EA3IBE | 2026-09-04 00:09:50 | 41.23312 | 2.26165 | 286° | 18km/h | 21690m | 5.7m/s | 0°C | 0% | 0hPa | 0V | 00:00:00 | 00:00:00 | 00:00:00 | |
| EA3GEO | 2026-09-04 00:09:46 | 41.23306 | 2.26186 | 306° | 20km/h | 21671m | 4.0m/s | 0°C | 0% | 0hPa | 0V | 00:00:00 | 00:00:00 | 00:00:00 | |
| EA3GEO | 2026-09-04 00:09:41 | 41.23298 | 2.26230 | 279° | 24km/h | 21649m | 5.3m/s | 0°C | 0% | 0hPa | 0V | 00:00:00 | 00:00:00 | 00:00:00 | |
| EA3IBE | 2026-09-04 00:09:36 | 41.23300 | 2.26254 | 258° | 16km/h | 21626m | 4.5m/s | 0°C | 0% | 0hPa | 0V | 00:00:00 | 00:00:00 | 00:00:00 | |
| EA3GEO | 2026-09-04 00:09:30 | 41.23300 | 2.26288 | 235° | 20km/h | 21598m | 3.8m/s | 0°C | 0% | 0hPa | 0V | 00:00:00 | 00:00:00 | 00:00:00 | |
| EA3IBE | 2026-09-04 00:09:28 | 41.23306 | 2.26299 | 242° | 18km/h | 21589m | 4.2m/s | 0°C | 0% | 0hPa | 0V | 00:00:00 | 00:00:00 | 00:00:00 | |
| EA3GEO | 2026-09-04 00:09:24 | 41.23314 | 2.26319 | 260° | 15km/h | 21571m | 4.7m/s | 0°C | 0% | 0hPa | 0V | 00:00:00 | 00:00:00 | 00:00:00 | |
| EA3IBE | 2026-09-04 00:09:22 | 41.23313 | 2.26329 | 285° | 15km/h | 21561m | 3.2m/s | 0°C | 0% | 0hPa | 0V | 00:00:00 | 00:00:00 | 00:00:00 | |
| EA3GEO | 2026-09-04 00:09:19 | 41.23317 | 2.26341 | 219° | 18km/h | 21548m | 4.0m/s | 0°C | 0% | 0hPa | 0V | 00:00:00 | 00:00:00 | 00:00:00 | |
| EA3GEO | 2026-09-04 00:09:14 | 41.23327 | 2.26363 | 246° | 13km/h | 21526m | 5.1m/s | 0°C | 0% | 0hPa | 0V | 00:00:00 | 00:00:00 | 00:00:00 | |
| EA3IBE | 2026-09-04 00:09:06 | 41.23344 | 2.26402 | 240° | 26km/h | 21489m | 4.3m/s | 0°C | 0% | 0hPa | 0V | 00:00:00 | 00:00:00 | 00:00:00 | |
| EA3GEO | 2026-09-04 00:09:02 | 41.23354 | 2.26435 | 231° | 18km/h | 21466m | 4.2m/s | 0°C | 0% | 0hPa | 0V | 00:00:00 | 00:00:00 | 00:00:00 | |
| EA3IBE | 2026-09-04 00:09:00 | 41.23357 | 2.26439 | 234° | 18km/h | 21462m | 4.3m/s | 0°C | 0% | 0hPa | 0V | 00:00:00 | 00:00:00 | 00:00:00 | |
| EA3GEO | 2026-09-04 00:08:55 | 41.23370 | 2.26467 | 230° | 20km/h | 21439m | 3.6m/s | 0°C | 0% | 0hPa | 0V | 00:00:00 | 00:00:00 | 00:00:00 | |
| EA3IBE | 2026-09-04 00:08:54 | 41.23373 | 2.26472 | 235° | 16km/h | 21434m | 5.3m/s | 0°C | 0% | 0hPa | 0V | 00:00:00 | 00:00:00 | 00:00:00 | |
| EA3GEO | 2026-09-04 00:08:50 | 41.23379 | 2.26486 | 211° | 11km/h | 21417m | 4.9m/s | 0°C | 0% | 0hPa | 0V | 00:00:00 | 00:00:00 | 00:00:00 | |
| EA3GEO | 2026-09-04 00:08:44 | 41.23399 | 2.26515 | 224° | 26km/h | 21390m | 4.6m/s | 0°C | 0% | 0hPa | 0V | 00:00:00 | 00:00:00 | 00:00:00 | |
| EA3IBE | 2026-09-04 00:08:43 | 41.23403 | 2.26521 | 220° | 24km/h | 21386m | 3.6m/s | 0°C | 0% | 0hPa | 0V | 00:00:00 | 00:00:00 | 00:00:00 | |
| EA3GEO | 2026-09-04 00:08:38 | 41.23417 | 2.26548 | 235° | 24km/h | 21364m | 4.7m/s | 0°C | 0% | 0hPa | 0V | 00:00:00 | 00:00:00 | 00:00:00 | |
| EA3IBE | 2026-09-04 00:08:37 | 41.23421 | 2.26554 | 230° | 27km/h | 21360m | 3.7m/s | 0°C | 0% | 0hPa | 0V | 00:00:00 | 00:00:00 | 00:00:00 | |
| EA3GEO | 2026-09-04 00:08:33 | 41.23434 | 2.26575 | 228° | 13km/h | 21343m | 3.5m/s | 0°C | 0% | 0hPa | 0V | 00:00:00 | 00:00:00 | 00:00:00 | |
| EA3IBE | 2026-09-04 00:08:32 | 41.23436 | 2.26578 | 212° | 15km/h | 21338m | 5.3m/s | 0°C | 0% | 0hPa | 0V | 00:00:00 | 00:00:00 | 00:00:00 | |
| EA3GEO | 2026-09-04 00:08:28 | 41.23453 | 2.26590 | 226° | 16km/h | 21321m | 5.1m/s | 0°C | 0% | 0hPa | 0V | 00:00:00 | 00:00:00 | 00:00:00 | |
| EA3IBE | 2026-09-04 00:08:26 | 41.23458 | 2.26597 | 222° | 16km/h | 21312m | 4.5m/s | 0°C | 0% | 0hPa | 0V | 00:00:00 | 00:00:00 | 00:00:00 | |
| EA3GEO | 2026-09-04 00:08:22 | 41.23475 | 2.26608 | 203° | 13km/h | 21295m | 4.9m/s | 0°C | 0% | 0hPa | 0V | 00:00:00 | 00:00:00 | 00:00:00 | |
| EA3IBE | 2026-09-04 00:08:19 | 41.23484 | 2.26616 | 219° | 20km/h | 21281m | 4.4m/s | 0°C | 0% | 0hPa | 0V | 00:00:00 | 00:00:00 | 00:00:00 | |
| EA3GEO | 2026-09-04 00:08:16 | 41.23492 | 2.26630 | 260° | 15km/h | 21267m | 4.8m/s | 0°C | 0% | 0hPa | 0V | 00:00:00 | 00:00:00 | 00:00:00 | |
| EA3IBE | 2026-09-04 00:08:13 | 41.23497 | 2.26642 | 216° | 16km/h | 21254m | 5.5m/s | 0°C | 0% | 0hPa | 0V | 00:00:00 | 00:00:00 | 00:00:00 | |
| EA3GEO | 2026-09-04 00:08:10 | 41.23509 | 2.26651 | 218° | 16km/h | 21239m | 3.9m/s | 0°C | 0% | 0hPa | 0V | 00:00:00 | 00:00:00 | 00:00:00 | |
| EA3IBE | 2026-09-04 00:08:06 | 41.23523 | 2.26667 | 221° | 15km/h | 21222m | 4.0m/s | 0°C | 0% | 0hPa | 0V | 00:00:00 | 00:00:00 | 00:00:00 | |
| EA3GEO | 2026-09-04 00:08:05 | 41.23525 | 2.26670 | 235° | 9km/h | 21217m | 5.7m/s | 0°C | 0% | 0hPa | 0V | 00:00:00 | 00:00:00 | 00:00:00 | |
| EA3GEO | 2026-09-04 00:07:59 | 41.23537 | 2.26684 | 221° | 18km/h | 21190m | 5.0m/s | 0°C | 0% | 0hPa | 0V | 00:00:00 | 00:00:00 | 00:00:00 | |
| EA3IBE | 2026-09-04 00:07:55 | 41.23549 | 2.26698 | 215° | 20km/h | 21171m | 4.8m/s | 0°C | 0% | 0hPa | 0V | 00:00:00 | 00:00:00 | 00:00:00 | |
| EA3GEO | 2026-09-04 00:07:54 | 41.23554 | 2.26702 | 220° | 20km/h | 21167m | 3.9m/s | 0°C | 0% | 0hPa | 0V | 00:00:00 | 00:00:00 | 00:00:00 | |
| EA3GEO | 2026-09-04 00:07:49 | 41.23567 | 2.26726 | 224° | 22km/h | 21144m | 4.2m/s | 0°C | 0% | 0hPa | 0V | 00:00:00 | 00:00:00 | 00:00:00 | |
| EA3IBE | 2026-09-04 00:07:48 | 41.23571 | 2.26731 | 222° | 20km/h | 21140m | 5.0m/s | 0°C | 0% | 0hPa | 0V | 00:00:00 | 00:00:00 | 00:00:00 | |
| EA3IBE | 2026-09-04 00:07:43 | 41.23595 | 2.26755 | 220° | 31km/h | 21117m | 4.4m/s | 0°C | 0% | 0hPa | 0V | 00:00:00 | 00:00:00 | 00:00:00 | |
| EA3GEO | 2026-09-04 00:07:37 | 41.23620 | 2.26786 | 206° | 27km/h | 21090m | 4.4m/s | 0°C | 0% | 0hPa | 0V | 00:00:00 | 00:00:00 | 00:00:00 | |
| EA3GEO | 2026-09-04 00:07:30 | 41.23657 | 2.26826 | 231° | 27km/h | 21058m | 4.9m/s | 0°C | 0% | 0hPa | 0V | 00:00:00 | 00:00:00 | 00:00:00 | |
| EA3GEO | 2026-09-04 00:07:25 | 41.23678 | 2.26858 | 214° | 26km/h | 21035m | 3.6m/s | 0°C | 0% | 0hPa | 0V | 00:00:00 | 00:00:00 | 00:00:00 | |
| EA3GEO | 2026-09-04 00:07:19 | 41.23702 | 2.26884 | 232° | 27km/h | 21008m | 4.2m/s | 0°C | 0% | 0hPa | 0V | 00:00:00 | 00:00:00 | 00:00:00 | |
| EA3GEO | 2026-09-04 00:07:14 | 41.23719 | 2.26915 | 207° | 20km/h | 20984m | 4.2m/s | 0°C | 0% | 0hPa | 0V | 00:00:00 | 00:00:00 | 00:00:00 | |
| EA3GEO | 2026-09-04 00:07:09 | 41.23732 | 2.26922 | 216° | 11km/h | 20962m | 5.3m/s | 0°C | 0% | 0hPa | 0V | 00:00:00 | 00:00:00 | 00:00:00 | |
| EA3IBE | 2026-09-04 00:07:03 | 41.23748 | 2.26941 | 204° | 16km/h | 20934m | 5.7m/s | 0°C | 0% | 0hPa | 0V | 00:00:00 | 00:00:00 | 00:00:00 | |
| EA3GEO | 2026-09-04 00:06:57 | 41.23766 | 2.26963 | 233° | 20km/h | 20905m | 4.9m/s | 0°C | 0% | 0hPa | 0V | 00:00:00 | 00:00:00 | 00:00:00 | |
| EA3GEO | 2026-09-04 00:06:51 | 41.23785 | 2.26989 | 214° | 18km/h | 20876m | 3.4m/s | 0°C | 0% | 0hPa | 0V | 00:00:00 | 00:00:00 | 00:00:00 | |
| EA3IBE | 2026-09-04 00:06:47 | 41.23796 | 2.27010 | 238° | 24km/h | 20858m | 5.6m/s | 0°C | 0% | 0hPa | 0V | 00:00:00 | 00:00:00 | 00:00:00 | |
| EA3GEO | 2026-09-04 00:06:46 | 41.23800 | 2.27016 | 229° | 27km/h | 20853m | 4.9m/s | 0°C | 0% | 0hPa | 0V | 00:00:00 | 00:00:00 | 00:00:00 | |
| EA3IBE | 2026-09-04 00:06:41 | 41.23818 | 2.27050 | 232° | 20km/h | 20829m | 5.4m/s | 0°C | 0% | 0hPa | 0V | 00:00:00 | 00:00:00 | 00:00:00 | |
| EA3GEO | 2026-09-04 00:06:34 | 41.23850 | 2.27097 | 224° | 31km/h | 20797m | 5.0m/s | 0°C | 0% | 0hPa | 0V | 00:00:00 | 00:00:00 | 00:00:00 | |
| EA3IBE | 2026-09-04 00:06:29 | 41.23874 | 2.27134 | 233° | 29km/h | 20775m | 4.9m/s | 0°C | 0% | 0hPa | 0V | 00:00:00 | 00:00:00 | 00:00:00 | |
| EA3GEO | 2026-09-04 00:06:23 | 41.23907 | 2.27176 | 226° | 33km/h | 20749m | 4.4m/s | 0°C | 0% | 0hPa | 0V | 00:00:00 | 00:00:00 | 00:00:00 | |
| EA3GEO | 2026-09-04 00:06:12 | 41.23977 | 2.27232 | 202° | 35km/h | 20698m | 4.3m/s | 0°C | 0% | 0hPa | 0V | 00:00:00 | 00:00:00 | 00:00:00 | |
| EA3IBE | 2026-09-04 00:06:10 | 41.23995 | 2.27238 | 189° | 35km/h | 20689m | 4.5m/s | 0°C | 0% | 0hPa | 0V | 00:00:00 | 00:00:00 | 00:00:00 | |
| EA3GEO | 2026-09-04 00:06:06 | 41.24023 | 2.27247 | 197° | 22km/h | 20669m | 5.6m/s | 0°C | 0% | 0hPa | 0V | 00:00:00 | 00:00:00 | 00:00:00 | |
| EA3GEO | 2026-09-04 00:06:01 | 41.24068 | 2.27261 | 188° | 37km/h | 20640m | 5.0m/s | 0°C | 0% | 0hPa | 0V | 00:00:00 | 00:00:00 | 00:00:00 | |
| EA3IBE | 2026-09-04 00:06:00 | 41.24068 | 2.27261 | 188° | 37km/h | 20640m | 5.0m/s | 0°C | 0% | 0hPa | 0V | 00:00:00 | 00:00:00 | 00:00:00 | |
| EA3GEO | 2026-09-04 00:05:54 | 41.24107 | 2.27267 | 186° | 26km/h | 20613m | 4.3m/s | 0°C | 0% | 0hPa | 0V | 00:00:00 | 00:00:00 | 00:00:00 | |
| EA3GEO | 2026-09-04 00:05:49 | 41.24151 | 2.27284 | 185° | 27km/h | 20586m | 4.0m/s | 0°C | 0% | 0hPa | 0V | 00:00:00 | 00:00:00 | 00:00:00 | |
| EA3GEO | 2026-09-04 00:05:42 | 41.24182 | 2.27296 | 195° | 24km/h | 20558m | 4.1m/s | 0°C | 0% | 0hPa | 0V | 00:00:00 | 00:00:00 | 00:00:00 | |
| EA3GEO | 2026-09-04 00:05:36 | 41.24213 | 2.27312 | 212° | 15km/h | 20531m | 5.1m/s | 0°C | 0% | 0hPa | 0V | 00:00:00 | 00:00:00 | 00:00:00 | |
| EA3IBE | 2026-09-04 00:05:31 | 41.24236 | 2.27330 | 206° | 27km/h | 20508m | 3.9m/s | 0°C | 0% | 0hPa | 0V | 00:00:00 | 00:00:00 | 00:00:00 | |
| EA3GEO | 2026-09-04 00:05:30 | 41.24242 | 2.27335 | 216° | 29km/h | 20504m | 5.6m/s | 0°C | 0% | 0hPa | 0V | 00:00:00 | 00:00:00 | 00:00:00 | |
| EA3GEO | 2026-09-04 00:05:20 | 41.24275 | 2.27384 | 224° | 22km/h | 20459m | 5.3m/s | 0°C | 0% | 0hPa | 0V | 00:00:00 | 00:00:00 | 00:00:00 | |
| EA3GEO | 2026-09-04 00:05:14 | 41.24303 | 2.27413 | 230° | 22km/h | 20432m | 4.0m/s | 0°C | 0% | 0hPa | 0V | 00:00:00 | 00:00:00 | 00:00:00 | |
| EA3GEO | 2026-09-04 00:05:09 | 41.24318 | 2.27452 | 225° | 22km/h | 20409m | 5.1m/s | 0°C | 0% | 0hPa | 0V | 00:00:00 | 00:00:00 | 00:00:00 | |
| EA3IBE | 2026-09-04 00:05:06 | 41.24334 | 2.27463 | 210° | 29km/h | 20396m | 5.0m/s | 0°C | 0% | 0hPa | 0V | 00:00:00 | 00:00:00 | 00:00:00 | |
| EA3GEO | 2026-09-04 00:05:04 | 41.24345 | 2.27475 | 229° | 26km/h | 20388m | 4.1m/s | 0°C | 0% | 0hPa | 0V | 00:00:00 | 00:00:00 | 00:00:00 | |
| EA3IBE | 2026-09-04 00:05:00 | 41.24357 | 2.27496 | 234° | 22km/h | 20370m | 4.5m/s | 0°C | 0% | 0hPa | 0V | 00:00:00 | 00:00:00 | 00:00:00 | |
| EA3GEO | 2026-09-04 00:04:58 | 41.24366 | 2.27510 | 228° | 31km/h | 20362m | 3.4m/s | 0°C | 0% | 0hPa | 0V | 00:00:00 | 00:00:00 | 00:00:00 | |
| EA3GEO | 2026-09-04 00:04:53 | 41.24394 | 2.27530 | 202° | 29km/h | 20339m | 5.4m/s | 0°C | 0% | 0hPa | 0V | 00:00:00 | 00:00:00 | 00:00:00 | |
| EA3IBE | 2026-09-04 00:04:52 | 41.24400 | 2.27534 | 209° | 29km/h | 20334m | 4.0m/s | 0°C | 0% | 0hPa | 0V | 00:00:00 | 00:00:00 | 00:00:00 | |
| EA3GEO | 2026-09-04 00:04:47 | 41.24426 | 2.27555 | 205° | 29km/h | 20312m | 4.8m/s | 0°C | 0% | 0hPa | 0V | 00:00:00 | 00:00:00 | 00:00:00 | |
| EA3IBE | 2026-09-04 00:04:46 | 41.24433 | 2.27559 | 205° | 31km/h | 20308m | 3.5m/s | 0°C | 0% | 0hPa | 0V | 00:00:00 | 00:00:00 | 00:00:00 | |
| EA3GEO | 2026-09-04 00:04:43 | 41.24464 | 2.27581 | 205° | 31km/h | 20285m | 4.9m/s | 0°C | 0% | 0hPa | 0V | 00:00:00 | 00:00:00 | 00:00:00 | |
| EA3IBE | 2026-09-04 00:04:39 | 41.24486 | 2.27592 | 202° | 29km/h | 20271m | 4.2m/s | 0°C | 0% | 0hPa | 0V | 00:00:00 | 00:00:00 | 00:00:00 | |
| EA3GEO | 2026-09-04 00:04:31 | 41.24544 | 2.27623 | 195° | 35km/h | 20236m | 5.1m/s | 0°C | 0% | 0hPa | 0V | 00:00:00 | 00:00:00 | 00:00:00 | |
| EA3GEO | 2026-09-04 00:04:26 | 41.24588 | 2.27632 | 192° | 37km/h | 20213m | 5.7m/s | 0°C | 0% | 0hPa | 0V | 00:00:00 | 00:00:00 | 00:00:00 | |
| EA3IBE | 2026-09-04 00:04:21 | 41.24622 | 2.27643 | 193° | 31km/h | 20195m | 3.4m/s | 0°C | 0% | 0hPa | 0V | 00:00:00 | 00:00:00 | 00:00:00 | |
| EA3GEO | 2026-09-04 00:04:20 | 41.24640 | 2.27646 | 187° | 40km/h | 20185m | 5.1m/s | 0°C | 0% | 0hPa | 0V | 00:00:00 | 00:00:00 | 00:00:00 | |
| EA3IBE | 2026-09-04 00:04:14 | 41.24688 | 2.27653 | 183° | 40km/h | 20162m | 5.2m/s | 0°C | 0% | 0hPa | 0V | 00:00:00 | 00:00:00 | 00:00:00 | |
| EA3GEO | 2026-09-04 00:04:13 | 41.24699 | 2.27654 | 181° | 46km/h | 20157m | 5.1m/s | 0°C | 0% | 0hPa | 0V | 00:00:00 | 00:00:00 | 00:00:00 | |
| EA3IBE | 2026-09-04 00:04:09 | 41.24749 | 2.27655 | 186° | 38km/h | 20135m | 5.2m/s | 0°C | 0% | 0hPa | 0V | 00:00:00 | 00:00:00 | 00:00:00 | |
| EA3GEO | 2026-09-04 00:04:08 | 41.24760 | 2.27656 | 185° | 42km/h | 20131m | 4.2m/s | 0°C | 0% | 0hPa | 0V | 00:00:00 | 00:00:00 | 00:00:00 | |
| EA3IBE | 2026-09-04 00:04:02 | 41.24812 | 2.27647 | 165° | 47km/h | 20108m | 5.3m/s | 0°C | 0% | 0hPa | 0V | 00:00:00 | 00:00:00 | 00:00:00 | |
| EA3IBE | 2026-09-04 00:03:57 | 41.24872 | 2.27624 | 178° | 42km/h | 20081m | 4.8m/s | 0°C | 0% | 0hPa | 0V | 00:00:00 | 00:00:00 | 00:00:00 | |
| EA3GEO | 2026-09-04 00:03:56 | 41.24883 | 2.27623 | 178° | 42km/h | 20077m | 3.8m/s | 0°C | 0% | 0hPa | 0V | 00:00:00 | 00:00:00 | 00:00:00 | |
| EA3GEO | 2026-09-04 00:03:51 | 41.24925 | 2.27610 | 168° | 33km/h | 20054m | 4.9m/s | 0°C | 0% | 0hPa | 0V | 00:00:00 | 00:00:00 | 00:00:00 | |
| EA3IBE | 2026-09-04 00:03:49 | 41.24943 | 2.27606 | 170° | 37km/h | 20045m | 3.6m/s | 0°C | 0% | 0hPa | 0V | 00:00:00 | 00:00:00 | 00:00:00 | |
| EA3GEO | 2026-09-04 00:03:44 | 41.24977 | 2.27592 | 168° | 37km/h | 20027m | 4.7m/s | 0°C | 0% | 0hPa | 0V | 00:00:00 | 00:00:00 | 00:00:00 | |
| EA3IBE | 2026-09-04 00:03:42 | 41.24995 | 2.27587 | 165° | 35km/h | 20018m | 5.4m/s | 0°C | 0% | 0hPa | 0V | 00:00:00 | 00:00:00 | 00:00:00 | |
| EA3GEO | 2026-09-04 00:03:39 | 41.25030 | 2.27568 | 165° | 46km/h | 19998m | 5.3m/s | 0°C | 0% | 0hPa | 0V | 00:00:00 | 00:00:00 | 00:00:00 | |
| EA3IBE | 2026-09-04 00:03:36 | 41.25053 | 2.27559 | 162° | 44km/h | 19990m | 5.0m/s | 0°C | 0% | 0hPa | 0V | 00:00:00 | 00:00:00 | 00:00:00 | |
| EA3GEO | 2026-09-04 00:03:34 | 41.25085 | 2.27540 | 160° | 33km/h | 19972m | 4.5m/s | 0°C | 0% | 0hPa | 0V | 00:00:00 | 00:00:00 | 00:00:00 | |
| EA3IBE | 2026-09-04 00:03:31 | 41.25101 | 2.27530 | 149° | 38km/h | 19963m | 4.7m/s | 0°C | 0% | 0hPa | 0V | 00:00:00 | 00:00:00 | 00:00:00 | |
| EA3GEO | 2026-09-04 00:03:26 | 41.25132 | 2.27501 | 156° | 33km/h | 19945m | 4.6m/s | 0°C | 0% | 0hPa | 0V | 00:00:00 | 00:00:00 | 00:00:00 | |
| EA3GEO | 2026-09-04 00:03:22 | 41.25177 | 2.27466 | 145° | 49km/h | 19922m | 5.0m/s | 0°C | 0% | 0hPa | 0V | 00:00:00 | 00:00:00 | 00:00:00 | |
| EA3IBE | 2026-09-04 00:03:21 | 41.25177 | 2.27466 | 145° | 49km/h | 19922m | 5.0m/s | 0°C | 0% | 0hPa | 0V | 00:00:00 | 00:00:00 | 00:00:00 | |
| EA3GEO | 2026-09-04 00:03:16 | 41.25221 | 2.27425 | 141° | 42km/h | 19898m | 4.3m/s | 0°C | 0% | 0hPa | 0V | 00:00:00 | 00:00:00 | 00:00:00 | |
| EA3GEO | 2026-09-04 00:03:11 | 41.25270 | 2.27369 | 141° | 46km/h | 19869m | 5.4m/s | 0°C | 0% | 0hPa | 0V | 00:00:00 | 00:00:00 | 00:00:00 | |
| EA3GEO | 2026-09-04 00:03:05 | 41.25315 | 2.27314 | 134° | 37km/h | 19840m | 5.3m/s | 0°C | 0% | 0hPa | 0V | 00:00:00 | 00:00:00 | 00:00:00 | |
| EA3GEO | 2026-09-04 00:02:28 | 41.25544 | 2.26791 | 94° | 31km/h | 19577m | 4.6m/s | 0°C | 0% | 0hPa | 0V | 00:00:00 | 00:00:00 | 00:00:00 | |
| EA3IBE | 2026-09-04 00:02:20 | 41.25550 | 2.26723 | 97° | 31km/h | 19545m | 3.6m/s | 0°C | 0% | 0hPa | 0V | 00:00:00 | 00:00:00 | 00:00:00 | |
| EA3GEO | 2026-09-04 00:02:19 | 41.25550 | 2.26713 | 92° | 31km/h | 19541m | 5.0m/s | 0°C | 0% | 0hPa | 0V | 00:00:00 | 00:00:00 | 00:00:00 | |
| EA3IBE | 2026-09-04 00:02:12 | 41.25553 | 2.26670 | 113° | 20km/h | 19518m | 4.8m/s | 0°C | 0% | 0hPa | 0V | 00:00:00 | 00:00:00 | 00:00:00 | |
| EA3IBE | 2026-09-04 00:02:07 | 41.25556 | 2.26639 | 96° | 26km/h | 19497m | 4.3m/s | 0°C | 0% | 0hPa | 0V | 00:00:00 | 00:00:00 | 00:00:00 | |
| EA3GEO | 2026-09-04 00:02:02 | 41.25555 | 2.26613 | 77° | 22km/h | 19485m | 3.6m/s | 0°C | 0% | 0hPa | 0V | 00:00:00 | 00:00:00 | 00:00:00 | |
| EA3IBE | 2026-09-04 00:01:56 | 41.25551 | 2.26584 | 68° | 18km/h | 19464m | 4.5m/s | 0°C | 0% | 0hPa | 0V | 00:00:00 | 00:00:00 | 00:00:00 | |
| EA3GEO | 2026-09-04 00:01:55 | 41.25550 | 2.26577 | 72° | 22km/h | 19460m | 3.8m/s | 0°C | 0% | 0hPa | 0V | 00:00:00 | 00:00:00 | 00:00:00 | |
| EA3IBE | 2026-09-04 00:01:46 | 41.25543 | 2.26531 | 77° | 22km/h | 19439m | 3.5m/s | 0°C | 0% | 0hPa | 0V | 00:00:00 | 00:00:00 | 00:00:00 | |
| EA3IBE | 2026-09-04 00:01:37 | 41.25546 | 2.26504 | 77° | 26km/h | 19408m | 5.2m/s | 0°C | 0% | 0hPa | 0V | 00:00:00 | 00:00:00 | 00:00:00 | |
| EA3GEO | 2026-09-04 00:01:27 | 41.25544 | 2.26464 | 152° | 11km/h | 19379m | 5.1m/s | 0°C | 0% | 0hPa | 0V | 00:00:00 | 00:00:00 | 00:00:00 | |
| EA3IBE | 2026-09-04 00:01:26 | 41.25547 | 2.26462 | 153° | 15km/h | 19374m | 3.7m/s | 0°C | 0% | 0hPa | 0V | 00:00:00 | 00:00:00 | 00:00:00 | |
| EA3GEO | 2026-09-04 00:01:20 | 41.25543 | 2.26438 | 62° | 26km/h | 19355m | 3.8m/s | 0°C | 0% | 0hPa | 0V | 00:00:00 | 00:00:00 | 00:00:00 | |
| EA3IBE | 2026-09-04 00:01:17 | 41.25541 | 2.26423 | 104° | 18km/h | 19347m | 3.7m/s | 0°C | 0% | 0hPa | 0V | 00:00:00 | 00:00:00 | 00:00:00 | |
| EA3GEO | 2026-09-04 00:01:13 | 41.25548 | 2.26412 | 145° | 13km/h | 19335m | 3.4m/s | 0°C | 0% | 0hPa | 0V | 00:00:00 | 00:00:00 | 00:00:00 | |
| EA3IBE | 2026-09-04 00:01:04 | 41.25551 | 2.26382 | 86° | 20km/h | 19305m | 3.5m/s | 0°C | 0% | 0hPa | 0V | 00:00:00 | 00:00:00 | 00:00:00 | |
| EA3GEO | 2026-09-04 00:01:03 | 41.25555 | 2.26367 | 159° | 9km/h | 19289m | 3.8m/s | 0°C | 0% | 0hPa | 0V | 00:00:00 | 00:00:00 | 00:00:00 | |
| EA3IBE | 2026-09-04 00:01:00 | 41.25557 | 2.26365 | 146° | 13km/h | 19284m | 4.8m/s | 0°C | 0% | 0hPa | 0V | 00:00:00 | 00:00:00 | 00:00:00 | |
| EA3GEO | 2026-09-04 00:00:54 | 41.25563 | 2.26342 | 95° | 13km/h | 19264m | 3.3m/s | 0°C | 0% | 0hPa | 0V | 00:00:00 | 00:00:00 | 00:00:00 | |
| EA3IBE | 2026-09-04 00:00:53 | 41.25564 | 2.26337 | 103° | 16km/h | 19260m | 5.0m/s | 0°C | 0% | 0hPa | 0V | 00:00:00 | 00:00:00 | 00:00:00 | |
| EA3GEO | 2026-09-04 00:00:49 | 41.25572 | 2.26320 | 138° | 11km/h | 19244m | 3.7m/s | 0°C | 0% | 0hPa | 0V | 00:00:00 | 00:00:00 | 00:00:00 | |
| EA3IBE | 2026-09-04 00:00:48 | 41.25574 | 2.26317 | 122° | 11km/h | 19240m | 4.2m/s | 0°C | 0% | 0hPa | 0V | 00:00:00 | 00:00:00 | 00:00:00 | |
| EA3GEO | 2026-09-04 00:00:44 | 41.25582 | 2.26298 | 151° | 15km/h | 19219m | 4.2m/s | 0°C | 0% | 0hPa | 0V | 00:00:00 | 00:00:00 | 00:00:00 | |
| EA3GEO | 2026-09-04 00:00:38 | 41.25603 | 2.26281 | 153° | 16km/h | 19198m | 3.6m/s | 0°C | 0% | 0hPa | 0V | 00:00:00 | 00:00:00 | 00:00:00 | |
| EA3GEO | 2026-09-04 00:00:34 | 41.25640 | 2.26248 | 154° | 22km/h | 19151m | 3.9m/s | 0°C | 0% | 0hPa | 0V | 00:00:00 | 00:00:00 | 00:00:00 | |
| EA3IBE | 2026-09-04 00:00:28 | 41.25649 | 2.26240 | 147° | 20km/h | 19143m | 4.1m/s | 0°C | 0% | 0hPa | 0V | 00:00:00 | 00:00:00 | 00:00:00 | |
| EA3GEO | 2026-09-04 00:00:21 | 41.25662 | 2.26231 | 154° | 18km/h | 19126m | 4.5m/s | 0°C | 0% | 0hPa | 0V | 00:00:00 | 00:00:00 | 00:00:00 | |
| EA3IBE | 2026-09-04 00:00:19 | 41.25676 | 2.26218 | 127° | 15km/h | 19109m | 3.8m/s | 0°C | 0% | 0hPa | 0V | 00:00:00 | 00:00:00 | 00:00:00 | |
| EA3GEO | 2026-09-04 00:00:18 | 41.25679 | 2.26214 | 121° | 16km/h | 19105m | 5.0m/s | 0°C | 0% | 0hPa | 0V | 00:00:00 | 00:00:00 | 00:00:00 | |
| EA3IBE | 2026-09-04 00:00:10 | 41.25689 | 2.26196 | 139° | 13km/h | 19078m | 4.2m/s | 0°C | 0% | 0hPa | 0V | 00:00:00 | 00:00:00 | 00:00:00 | |
| EA3IBE | 2026-09-04 00:00:05 | 41.25701 | 2.26185 | 145° | 15km/h | 19056m | 3.4m/s | 0°C | 0% | 0hPa | 0V | 00:00:00 | 00:00:00 | 00:00:00 | |
| EA3GEO | 2026-09-04 00:00:04 | 41.25704 | 2.26182 | 152° | 11km/h | 19052m | 4.5m/s | 0°C | 0% | 0hPa | 0V | 00:00:00 | 00:00:00 | 00:00:00 | |
| EA3IBE | 2026-09-04 00:00:00 | 41.25712 | 2.26179 | 147° | 11km/h | 19034m | 3.8m/s | 0°C | 0% | 0hPa | 0V | 00:00:00 | 00:00:00 | 00:00:00 | |
| EA3GEO | 2026-09-03 23:59:57 | 41.25719 | 2.26175 | 172° | 9km/h | 19021m | 3.8m/s | 0°C | 0% | 0hPa | 0V | 00:00:00 | 00:00:00 | 00:00:00 | |
| EA3IBE | 2026-09-03 23:59:54 | 41.25726 | 2.26169 | 140° | 15km/h | 19008m | 3.6m/s | 0°C | 0% | 0hPa | 0V | 00:00:00 | 00:00:00 | 00:00:00 | |
| EA3GEO | 2026-09-03 23:59:51 | 41.25732 | 2.26166 | 188° | 5km/h | 18995m | 3.6m/s | 0°C | 0% | 0hPa | 0V | 00:00:00 | 00:00:00 | 00:00:00 | |
| EA3IBE | 2026-09-03 23:59:47 | 41.25744 | 2.26169 | 184° | 11km/h | 18973m | 4.7m/s | 0°C | 0% | 0hPa | 0V | 00:00:00 | 00:00:00 | 00:00:00 | |
| EA3GEO | 2026-09-03 23:59:45 | 41.25747 | 2.26168 | 159° | 13km/h | 18969m | 4.8m/s | 0°C | 0% | 0hPa | 0V | 00:00:00 | 00:00:00 | 00:00:00 | |
| EA3IBE | 2026-09-03 23:59:41 | 41.25756 | 2.26161 | 134° | 11km/h | 18952m | 4.7m/s | 0°C | 0% | 0hPa | 0V | 00:00:00 | 00:00:00 | 00:00:00 | |
| EA3GEO | 2026-09-03 23:59:39 | 41.25760 | 2.26156 | 141° | 11km/h | 18944m | 3.7m/s | 0°C | 0% | 0hPa | 0V | 00:00:00 | 00:00:00 | 00:00:00 | |
| EA3GEO | 2026-09-03 23:59:33 | 41.25776 | 2.26152 | 146° | 15km/h | 18919m | 4.4m/s | 0°C | 0% | 0hPa | 0V | 00:00:00 | 00:00:00 | 00:00:00 | |
| EA3GEO | 2026-09-03 23:59:28 | 41.25789 | 2.26133 | 132° | 11km/h | 18898m | 3.8m/s | 0°C | 0% | 0hPa | 0V | 00:00:00 | 00:00:00 | 00:00:00 | |
| EA3IBE | 2026-09-03 23:59:26 | 41.25793 | 2.26132 | 207° | 7km/h | 18888m | 3.9m/s | 0°C | 0% | 0hPa | 0V | 00:00:00 | 00:00:00 | 00:00:00 | |
| EA3GEO | 2026-09-03 23:59:22 | 41.25804 | 2.26125 | 135° | 20km/h | 18872m | 4.2m/s | 0°C | 0% | 0hPa | 0V | 00:00:00 | 00:00:00 | 00:00:00 | |
| EA3IBE | 2026-09-03 23:59:20 | 41.25811 | 2.26116 | 146° | 16km/h | 18863m | 4.6m/s | 0°C | 0% | 0hPa | 0V | 00:00:00 | 00:00:00 | 00:00:00 | |
| EA3GEO | 2026-09-03 23:59:17 | 41.25823 | 2.26105 | 145° | 22km/h | 18849m | 4.2m/s | 0°C | 0% | 0hPa | 0V | 00:00:00 | 00:00:00 | 00:00:00 | |
| EA3IBE | 2026-09-03 23:59:12 | 41.25842 | 2.26091 | 141° | 22km/h | 18827m | 5.7m/s | 0°C | 0% | 0hPa | 0V | 00:00:00 | 00:00:00 | 00:00:00 | |
| EA3GEO | 2026-09-03 23:59:11 | 41.25847 | 2.26085 | 138° | 26km/h | 18822m | 4.3m/s | 0°C | 0% | 0hPa | 0V | 00:00:00 | 00:00:00 | 00:00:00 | |
| EA3GEO | 2026-09-03 23:59:05 | 41.25878 | 2.26056 | 142° | 26km/h | 18795m | 3.4m/s | 0°C | 0% | 0hPa | 0V | 00:00:00 | 00:00:00 | 00:00:00 | |
| EA3IBE | 2026-09-03 23:59:04 | 41.25883 | 2.26051 | 150° | 24km/h | 18791m | 5.1m/s | 0°C | 0% | 0hPa | 0V | 00:00:00 | 00:00:00 | 00:00:00 | |
| EA3GEO | 2026-09-03 23:58:59 | 41.25907 | 2.26029 | 136° | 24km/h | 18770m | 4.9m/s | 0°C | 0% | 0hPa | 0V | 00:00:00 | 00:00:00 | 00:00:00 | |
| EA3IBE | 2026-09-03 23:58:55 | 41.25925 | 2.26002 | 122° | 35km/h | 18752m | 4.4m/s | 0°C | 0% | 0hPa | 0V | 00:00:00 | 00:00:00 | 00:00:00 | |
| EA3GEO | 2026-09-03 23:58:53 | 41.25934 | 2.25983 | 133° | 35km/h | 18744m | 5.0m/s | 0°C | 0% | 0hPa | 0V | 00:00:00 | 00:00:00 | 00:00:00 | |
| EA3GEO | 2026-09-03 23:58:48 | 41.25959 | 2.25951 | 124° | 27km/h | 18724m | 3.7m/s | 0°C | 0% | 0hPa | 0V | 00:00:00 | 00:00:00 | 00:00:00 | |
| EA3IBE | 2026-09-03 23:58:42 | 41.25988 | 2.25896 | 129° | 35km/h | 18697m | 5.1m/s | 0°C | 0% | 0hPa | 0V | 00:00:00 | 00:00:00 | 00:00:00 | |
| EA3GEO | 2026-09-03 23:58:36 | 41.26014 | 2.25846 | 124° | 27km/h | 18672m | 4.9m/s | 0°C | 0% | 0hPa | 0V | 00:00:00 | 00:00:00 | 00:00:00 | |
| EA3IBE | 2026-09-03 23:58:34 | 41.26023 | 2.25830 | 128° | 31km/h | 18664m | 4.5m/s | 0°C | 0% | 0hPa | 0V | 00:00:00 | 00:00:00 | 00:00:00 | |
| EA3GEO | 2026-09-03 23:58:30 | 41.26042 | 2.25794 | 131° | 33km/h | 18646m | 3.7m/s | 0°C | 0% | 0hPa | 0V | 00:00:00 | 00:00:00 | 00:00:00 | |
| EA3IBE | 2026-09-03 23:58:25 | 41.26064 | 2.25743 | 119° | 29km/h | 18626m | 4.7m/s | 0°C | 0% | 0hPa | 0V | 00:00:00 | 00:00:00 | 00:00:00 | |
| EA3IBE | 2026-09-03 23:58:20 | 41.26083 | 2.25704 | 121° | 35km/h | 18606m | 3.6m/s | 0°C | 0% | 0hPa | 0V | 00:00:00 | 00:00:00 | 00:00:00 | |
| EA3GEO | 2026-09-03 23:58:15 | 41.26099 | 2.25661 | 105° | 22km/h | 18584m | 2.8m/s | 0°C | 0% | 0hPa | 0V | 00:00:00 | 00:00:00 | 00:00:00 | |
| EA3IBE | 2026-09-03 23:58:09 | 41.26116 | 2.25617 | 109° | 31km/h | 18559m | 3.2m/s | 0°C | 0% | 0hPa | 0V | 00:00:00 | 00:00:00 | 00:00:00 | |
| EA3IBE | 2026-09-03 23:58:03 | 41.26125 | 2.25569 | 94° | 18km/h | 18533m | 5.1m/s | 0°C | 0% | 0hPa | 0V | 00:00:00 | 00:00:00 | 00:00:00 | |
| EA3GEO | 2026-09-03 23:58:01 | 41.26126 | 2.25558 | 104° | 20km/h | 18525m | 3.9m/s | 0°C | 0% | 0hPa | 0V | 00:00:00 | 00:00:00 | 00:00:00 | |
| EA3IBE | 2026-09-03 23:57:57 | 41.26133 | 2.25524 | 114° | 27km/h | 18508m | 3.5m/s | 0°C | 0% | 0hPa | 0V | 00:00:00 | 00:00:00 | 00:00:00 | |
| EA3GEO | 2026-09-03 23:57:55 | 41.26137 | 2.25507 | 93° | 26km/h | 18500m | 5.1m/s | 0°C | 0% | 0hPa | 0V | 00:00:00 | 00:00:00 | 00:00:00 | |
| EA3IBE | 2026-09-03 23:57:50 | 41.26130 | 2.25477 | 76° | 18km/h | 18477m | 4.3m/s | 0°C | 0% | 0hPa | 0V | 00:00:00 | 00:00:00 | 00:00:00 | |
| EA3GEO | 2026-09-03 23:57:44 | 41.26137 | 2.25440 | 97° | 18km/h | 18451m | 3.5m/s | 0°C | 0% | 0hPa | 0V | 00:00:00 | 00:00:00 | 00:00:00 | |
| EA3GEO | 2026-09-03 23:57:38 | 41.26135 | 2.25416 | 125° | 11km/h | 18425m | 5.3m/s | 0°C | 0% | 0hPa | 0V | 00:00:00 | 00:00:00 | 00:00:00 | |
| EA3IBE | 2026-09-03 23:57:37 | 41.26140 | 2.25408 | 134° | 20km/h | 18416m | 4.8m/s | 0°C | 0% | 0hPa | 0V | 00:00:00 | 00:00:00 | 00:00:00 | |
| EA3GEO | 2026-09-03 23:57:32 | 41.26147 | 2.25390 | 85° | 5km/h | 18399m | 4.7m/s | 0°C | 0% | 0hPa | 0V | 00:00:00 | 00:00:00 | 00:00:00 | |
| EA3IBE | 2026-09-03 23:57:31 | 41.26146 | 2.25388 | 43° | 5km/h | 18395m | 3.3m/s | 0°C | 0% | 0hPa | 0V | 00:00:00 | 00:00:00 | 00:00:00 | |
| EA3GEO | 2026-09-03 23:57:27 | 41.26142 | 2.25374 | 113° | 15km/h | 18378m | 4.9m/s | 0°C | 0% | 0hPa | 0V | 00:00:00 | 00:00:00 | 00:00:00 | |
| EA3IBE | 2026-09-03 23:57:25 | 41.26147 | 2.25365 | 138° | 18km/h | 18370m | 4.2m/s | 0°C | 0% | 0hPa | 0V | 00:00:00 | 00:00:00 | 00:00:00 | |
| EA3GEO | 2026-09-03 23:57:21 | 41.26158 | 2.25350 | 126° | 11km/h | 18353m | 4.0m/s | 0°C | 0% | 0hPa | 0V | 00:00:00 | 00:00:00 | 00:00:00 | |
| EA3IBE | 2026-09-03 23:57:16 | 41.26161 | 2.25333 | 153° | 15km/h | 18331m | 4.8m/s | 0°C | 0% | 0hPa | 0V | 00:00:00 | 00:00:00 | 00:00:00 | |
| EA3GEO | 2026-09-03 23:57:15 | 41.26164 | 2.25330 | 156° | 20km/h | 18326m | 4.6m/s | 0°C | 0% | 0hPa | 0V | 00:00:00 | 00:00:00 | 00:00:00 | |
| EA3IBE | 2026-09-03 23:57:10 | 41.26184 | 2.25308 | 137° | 15km/h | 18304m | 3.9m/s | 0°C | 0% | 0hPa | 0V | 00:00:00 | 00:00:00 | 00:00:00 | |
| EA3GEO | 2026-09-03 23:57:04 | 41.26197 | 2.25282 | 149° | 15km/h | 18277m | 3.2m/s | 0°C | 0% | 0hPa | 0V | 00:00:00 | 00:00:00 | 00:00:00 | |
| EA3IBE | 2026-09-03 23:57:02 | 41.26204 | 2.25274 | 131° | 22km/h | 18268m | 4.9m/s | 0°C | 0% | 0hPa | 0V | 00:00:00 | 00:00:00 | 00:00:00 | |
| EA3GEO | 2026-09-03 23:56:58 | 41.26216 | 2.25248 | 118° | 24km/h | 18250m | 4.4m/s | 0°C | 0% | 0hPa | 0V | 00:00:00 | 00:00:00 | 00:00:00 | |
| EA3IBE | 2026-09-03 23:56:57 | 41.26219 | 2.25241 | 116° | 24km/h | 18246m | 4.8m/s | 0°C | 0% | 0hPa | 0V | 00:00:00 | 00:00:00 | 00:00:00 | |
| EA3GEO | 2026-09-03 23:56:53 | 41.26230 | 2.25221 | 141° | 20km/h | 18228m | 4.1m/s | 0°C | 0% | 0hPa | 0V | 00:00:00 | 00:00:00 | 00:00:00 | |
| EA3GEO | 2026-09-03 23:56:47 | 41.26255 | 2.25178 | 120° | 26km/h | 18201m | 5.4m/s | 0°C | 0% | 0hPa | 0V | 00:00:00 | 00:00:00 | 00:00:00 | |
| EA3IBE | 2026-09-03 23:56:43 | 41.26269 | 2.25149 | 138° | 22km/h | 18183m | 4.2m/s | 0°C | 0% | 0hPa | 0V | 00:00:00 | 00:00:00 | 00:00:00 | |
| EA3GEO | 2026-09-03 23:56:42 | 41.26273 | 2.25144 | 138° | 26km/h | 18178m | 4.1m/s | 0°C | 0% | 0hPa | 0V | 00:00:00 | 00:00:00 | 00:00:00 | |
| EA3IBE | 2026-09-03 23:56:36 | 41.26299 | 2.25087 | 112° | 26km/h | 18151m | 4.5m/s | 0°C | 0% | 0hPa | 0V | 00:00:00 | 00:00:00 | 00:00:00 | |
| EA3GEO | 2026-09-03 23:56:35 | 41.26301 | 2.25079 | 108° | 24km/h | 18146m | 5.3m/s | 0°C | 0% | 0hPa | 0V | 00:00:00 | 00:00:00 | 00:00:00 | |
| EA3GEO | 2026-09-03 23:56:30 | 41.26311 | 2.25037 | 109° | 33km/h | 18124m | 4.2m/s | 0°C | 0% | 0hPa | 0V | 00:00:00 | 00:00:00 | 00:00:00 | |
| EA3GEO | 2026-09-03 23:56:24 | 41.26322 | 2.24966 | 112° | 27km/h | 18098m | 3.9m/s | 0°C | 0% | 0hPa | 0V | 00:00:00 | 00:00:00 | 00:00:00 | |
| EA3IBE | 2026-09-03 23:56:23 | 41.26324 | 2.24957 | 107° | 29km/h | 18093m | 5.2m/s | 0°C | 0% | 0hPa | 0V | 00:00:00 | 00:00:00 | 00:00:00 | |
| EA3GEO | 2026-09-03 23:56:19 | 41.26330 | 2.24915 | 101° | 31km/h | 18075m | 4.9m/s | 0°C | 0% | 0hPa | 0V | 00:00:00 | 00:00:00 | 00:00:00 | |
| EA3IBE | 2026-09-03 23:56:17 | 41.26333 | 2.24892 | 99° | 37km/h | 18065m | 5.2m/s | 0°C | 0% | 0hPa | 0V | 00:00:00 | 00:00:00 | 00:00:00 | |
| EA3GEO | 2026-09-03 23:56:12 | 41.26340 | 2.24832 | 101° | 37km/h | 18043m | 5.5m/s | 0°C | 0% | 0hPa | 0V | 00:00:00 | 00:00:00 | 00:00:00 | |
| EA3IBE | 2026-09-03 23:56:11 | 41.26341 | 2.24820 | 98° | 38km/h | 18038m | 4.2m/s | 0°C | 0% | 0hPa | 0V | 00:00:00 | 00:00:00 | 00:00:00 | |
| EA3IBE | 2026-09-03 23:56:06 | 41.26345 | 2.24758 | 95° | 38km/h | 18016m | 4.1m/s | 0°C | 0% | 0hPa | 0V | 00:00:00 | 00:00:00 | 00:00:00 | |
| EA3IBE | 2026-09-03 23:56:00 | 41.26341 | 2.24688 | 84° | 37km/h | 17989m | 4.7m/s | 0°C | 0% | 0hPa | 0V | 00:00:00 | 00:00:00 | 00:00:00 | |
| EA3IBE | 2026-09-03 23:55:54 | 41.26337 | 2.24621 | 91° | 31km/h | 17963m | 5.3m/s | 0°C | 0% | 0hPa | 0V | 00:00:00 | 00:00:00 | 00:00:00 | |
| EA3IBE | 2026-09-03 23:55:47 | 41.26330 | 2.24545 | 84° | 38km/h | 17931m | 5.3m/s | 0°C | 0% | 0hPa | 0V | 00:00:00 | 00:00:00 | 00:00:00 | |
| EA3IBE | 2026-09-03 23:55:40 | 41.26324 | 2.24469 | 87° | 29km/h | 17902m | 3.9m/s | 0°C | 0% | 0hPa | 0V | 00:00:00 | 00:00:00 | 00:00:00 | |
| EA3GEO | 2026-09-03 23:55:35 | 41.26319 | 2.24429 | 79° | 27km/h | 17880m | 3.0m/s | 0°C | 0% | 0hPa | 0V | 00:00:00 | 00:00:00 | 00:00:00 | |
| EA3IBE | 2026-09-03 23:55:34 | 41.26318 | 2.24420 | 83° | 26km/h | 17876m | 5.2m/s | 0°C | 0% | 0hPa | 0V | 00:00:00 | 00:00:00 | 00:00:00 | |
| EA3GEO | 2026-09-03 23:55:29 | 41.26318 | 2.24383 | 98° | 18km/h | 17853m | 3.5m/s | 0°C | 0% | 0hPa | 0V | 00:00:00 | 00:00:00 | 00:00:00 | |
| EA3IBE | 2026-09-03 23:55:26 | 41.26317 | 2.24361 | 80° | 27km/h | 17840m | 4.3m/s | 0°C | 0% | 0hPa | 0V | 00:00:00 | 00:00:00 | 00:00:00 | |
| EA3GEO | 2026-09-03 23:55:24 | 41.26314 | 2.24345 | 75° | 20km/h | 17830m | 4.8m/s | 0°C | 0% | 0hPa | 0V | 00:00:00 | 00:00:00 | 00:00:00 | |
| EA3GEO | 2026-09-03 23:55:18 | 41.26311 | 2.24309 | 114° | 20km/h | 17805m | 3.3m/s | 0°C | 0% | 0hPa | 0V | 00:00:00 | 00:00:00 | 00:00:00 | |
| EA3IBE | 2026-09-03 23:55:15 | 41.26316 | 2.24284 | 105° | 29km/h | 17792m | 6.0m/s | 0°C | 0% | 0hPa | 0V | 00:00:00 | 00:00:00 | 00:00:00 | |
| EA3GEO | 2026-09-03 23:55:13 | 41.26319 | 2.24268 | 99° | 24km/h | 17783m | 6.4m/s | 0°C | 0% | 0hPa | 0V | 00:00:00 | 00:00:00 | 00:00:00 | |
| EA3IBE | 2026-09-03 23:55:10 | 41.26325 | 2.24248 | 123° | 20km/h | 17767m | 3.5m/s | 0°C | 0% | 0hPa | 0V | 00:00:00 | 00:00:00 | 00:00:00 | |
| EA3GEO | 2026-09-03 23:55:08 | 41.26328 | 2.24236 | 96° | 22km/h | 17760m | 4.2m/s | 0°C | 0% | 0hPa | 0V | 00:00:00 | 00:00:00 | 00:00:00 | |
| EA3IBE | 2026-09-03 23:55:04 | 41.26330 | 2.24201 | 91° | 26km/h | 17741m | 8.1m/s | 0°C | 0% | 0hPa | 0V | 00:00:00 | 00:00:00 | 00:00:00 | |
| EA3GEO | 2026-09-03 23:55:02 | 41.26330 | 2.24187 | 99° | 20km/h | 17729m | 7.9m/s | 0°C | 0% | 0hPa | 0V | 00:00:00 | 00:00:00 | 00:00:00 | |
| EA3IBE | 2026-09-03 23:54:58 | 41.26338 | 2.24161 | 103° | 24km/h | 17713m | 3.5m/s | 0°C | 0% | 0hPa | 0V | 00:00:00 | 00:00:00 | 00:00:00 | |
| EA3GEO | 2026-09-03 23:54:56 | 41.26340 | 2.24145 | 103° | 26km/h | 17701m | 3.9m/s | 0°C | 0% | 0hPa | 0V | 00:00:00 | 00:00:00 | 00:00:00 | |
| EA3IBE | 2026-09-03 23:54:53 | 41.26342 | 2.24121 | 99° | 24km/h | 17684m | 8.9m/s | 0°C | 0% | 0hPa | 0V | 00:00:00 | 00:00:00 | 00:00:00 | |
| EA3GEO | 2026-09-03 23:54:51 | 41.26345 | 2.24105 | 101° | 24km/h | 17673m | 6.5m/s | 0°C | 0% | 0hPa | 0V | 00:00:00 | 00:00:00 | 00:00:00 | |
| EA3IBE | 2026-09-03 23:54:47 | 41.26351 | 2.24074 | 104° | 22km/h | 17654m | 3.2m/s | 0°C | 0% | 0hPa | 0V | 00:00:00 | 00:00:00 | 00:00:00 | |
| EA3GEO | 2026-09-03 23:54:46 | 41.26351 | 2.24068 | 94° | 18km/h | 17651m | 4.0m/s | 0°C | 0% | 0hPa | 0V | 00:00:00 | 00:00:00 | 00:00:00 | |
| EA3IBE | 2026-09-03 23:54:39 | 41.26361 | 2.24029 | 101° | 22km/h | 17615m | 4.9m/s | 0°C | 0% | 0hPa | 0V | 00:00:00 | 00:00:00 | 00:00:00 | |
| EA3GEO | 2026-09-03 23:54:34 | 41.26371 | 2.24000 | 141° | 16km/h | 17590m | 8.5m/s | 0°C | 0% | 0hPa | 0V | 00:00:00 | 00:00:00 | 00:00:00 | |
| EA3IBE | 2026-09-03 23:54:33 | 41.26375 | 2.23997 | 146° | 18km/h | 17585m | 1.7m/s | 0°C | 0% | 0hPa | 0V | 00:00:00 | 00:00:00 | 00:00:00 | |
| EA3GEO | 2026-09-03 23:54:29 | 41.26384 | 2.23973 | 112° | 26km/h | 17567m | 6.6m/s | 0°C | 0% | 0hPa | 0V | 00:00:00 | 00:00:00 | 00:00:00 | |
| EA3IBE | 2026-09-03 23:54:28 | 41.26387 | 2.23964 | 117° | 27km/h | 17561m | 5.1m/s | 0°C | 0% | 0hPa | 0V | 00:00:00 | 00:00:00 | 00:00:00 | |
| EA3GEO | 2026-09-03 23:54:23 | 41.26398 | 2.23932 | 130° | 20km/h | 17533m | 5.8m/s | 0°C | 0% | 0hPa | 0V | 00:00:00 | 00:00:00 | 00:00:00 | |
| EA3IBE | 2026-09-03 23:54:21 | 41.26403 | 2.23920 | 112° | 24km/h | 17524m | 4.4m/s | 0°C | 0% | 0hPa | 0V | 00:00:00 | 00:00:00 | 00:00:00 | |
| EA3IBE | 2026-09-03 23:54:16 | 41.26414 | 2.23885 | 132° | 20km/h | 17493m | 3.1m/s | 0°C | 0% | 0hPa | 0V | 00:00:00 | 00:00:00 | 00:00:00 | |
| EA3GEO | 2026-09-03 23:54:15 | 41.26418 | 2.23880 | 139° | 22km/h | 17489m | 4.5m/s | 0°C | 0% | 0hPa | 0V | 00:00:00 | 00:00:00 | 00:00:00 | |
| EA3IBE | 2026-09-03 23:54:10 | 41.26440 | 2.23853 | 136° | 27km/h | 17465m | 3.9m/s | 0°C | 0% | 0hPa | 0V | 00:00:00 | 00:00:00 | 00:00:00 | |
| EA3IBE | 2026-09-03 23:54:04 | 41.26464 | 2.23816 | 135° | 24km/h | 17433m | 3.5m/s | 0°C | 0% | 0hPa | 0V | 00:00:00 | 00:00:00 | 00:00:00 | |
| EA3IBE | 2026-09-03 23:53:58 | 41.26495 | 2.23780 | 139° | 26km/h | 17400m | 6.8m/s | 0°C | 0% | 0hPa | 0V | 00:00:00 | 00:00:00 | 00:00:00 | |
| EA3IBE | 2026-09-03 23:53:53 | 41.26516 | 2.23755 | 142° | 26km/h | 17377m | 2.0m/s | 0°C | 0% | 0hPa | 0V | 00:00:00 | 00:00:00 | 00:00:00 | |
| EA3IBE | 2026-09-03 23:53:47 | 41.26546 | 2.23720 | 136° | 27km/h | 17344m | 5.9m/s | 0°C | 0% | 0hPa | 0V | 00:00:00 | 00:00:00 | 00:00:00 | |
| EA3IBE | 2026-09-03 23:53:41 | 41.26570 | 2.23690 | 130° | 20km/h | 17315m | 2.1m/s | 0°C | 0% | 0hPa | 0V | 00:00:00 | 00:00:00 | 00:00:00 | |
| EA3IBE | 2026-09-03 23:53:36 | 41.26590 | 2.23669 | 139° | 15km/h | 17288m | 6.3m/s | 0°C | 0% | 0hPa | 0V | 00:00:00 | 00:00:00 | 00:00:00 | |
| EA3IBE | 2026-09-03 23:53:30 | 41.26609 | 2.23634 | 134° | 29km/h | 17256m | 4.7m/s | 0°C | 0% | 0hPa | 0V | 00:00:00 | 00:00:00 | 00:00:00 | |
| EA3IBE | 2026-09-03 23:53:25 | 41.26628 | 2.23598 | 125° | 20km/h | 17232m | 3.0m/s | 0°C | 0% | 0hPa | 0V | 00:00:00 | 00:00:00 | 00:00:00 | |
| EA3IBE | 2026-09-03 23:53:19 | 41.26641 | 2.23560 | 130° | 18km/h | 17202m | 1.4m/s | 0°C | 0% | 0hPa | 0V | 00:00:00 | 00:00:00 | 00:00:00 | |
| EA3IBE | 2026-09-03 23:53:14 | 41.26656 | 2.23536 | 109° | 16km/h | 17176m | 6.7m/s | 0°C | 0% | 0hPa | 0V | 00:00:00 | 00:00:00 | 00:00:00 | |
| EA3IBE | 2026-09-03 23:53:08 | 41.26670 | 2.23513 | 150° | 18km/h | 17147m | 3.1m/s | 0°C | 0% | 0hPa | 0V | 00:00:00 | 00:00:00 | 00:00:00 | |
| EA3GEO | 2026-09-03 23:53:07 | 41.26674 | 2.23510 | 147° | 16km/h | 17143m | 5.4m/s | 0°C | 0% | 0hPa | 0V | 00:00:00 | 00:00:00 | 00:00:00 | |
| EA3IBE | 2026-09-03 23:53:03 | 41.26686 | 2.23499 | 148° | 15km/h | 17122m | 4.1m/s | 0°C | 0% | 0hPa | 0V | 00:00:00 | 00:00:00 | 00:00:00 | |
| EA3GEO | 2026-09-03 23:53:02 | 41.26690 | 2.23497 | 163° | 13km/h | 17116m | 9.0m/s | 0°C | 0% | 0hPa | 0V | 00:00:00 | 00:00:00 | 00:00:00 | |
| EA3IBE | 2026-09-03 23:52:58 | 41.26703 | 2.23495 | 188° | 15km/h | 17094m | 11.0m/s | 0°C | 0% | 0hPa | 0V | 00:00:00 | 00:00:00 | 00:00:00 | |
| EA3GEO | 2026-09-03 23:52:55 | 41.26714 | 2.23494 | 164° | 16km/h | 17077m | 4.6m/s | 0°C | 0% | 0hPa | 0V | 00:00:00 | 00:00:00 | 00:00:00 | |
| EA3IBE | 2026-09-03 23:52:53 | 41.26720 | 2.23492 | 167° | 13km/h | 17067m | 1.6m/s | 0°C | 0% | 0hPa | 0V | 00:00:00 | 00:00:00 | 00:00:00 | |
| EA3IBE | 2026-09-03 23:52:48 | 41.26745 | 2.23483 | 174° | 24km/h | 17042m | 2.8m/s | 0°C | 0% | 0hPa | 0V | 00:00:00 | 00:00:00 | 00:00:00 | |
| EA3GEO | 2026-09-03 23:52:43 | 41.26773 | 2.23479 | 179° | 16km/h | 17018m | 3.1m/s | 0°C | 0% | 0hPa | 0V | 00:00:00 | 00:00:00 | 00:00:00 | |
| EA3IBE | 2026-09-03 23:52:31 | 41.26843 | 2.23464 | 172° | 24km/h | 16955m | 6.0m/s | 0°C | 0% | 0hPa | 0V | 00:00:00 | 00:00:00 | 00:00:00 | |
| EA3IBE | 2026-09-03 23:52:24 | 41.26900 | 2.23459 | 173° | 29km/h | 16918m | 2.4m/s | 0°C | 0% | 0hPa | 0V | 00:00:00 | 00:00:00 | 00:00:00 | |
| EA3IBE | 2026-09-03 23:52:19 | 41.26932 | 2.23454 | 174° | 35km/h | 16893m | 4.8m/s | 0°C | 0% | 0hPa | 0V | 00:00:00 | 00:00:00 | 00:00:00 | |
| EA3IBE | 2026-09-03 23:52:13 | 41.26986 | 2.23444 | 170° | 29km/h | 16864m | 8.2m/s | 0°C | 0% | 0hPa | 0V | 00:00:00 | 00:00:00 | 00:00:00 | |
| EA3IBE | 2026-09-03 23:52:07 | 41.27027 | 2.23429 | 162° | 33km/h | 16830m | 7.7m/s | 0°C | 0% | 0hPa | 0V | 00:00:00 | 00:00:00 | 00:00:00 | |
| EA3IBE | 2026-09-03 23:52:02 | 41.27068 | 2.23410 | 159° | 33km/h | 16801m | 4.5m/s | 0°C | 0% | 0hPa | 0V | 00:00:00 | 00:00:00 | 00:00:00 | |
| EA3GEO | 2026-09-03 23:52:01 | 41.27075 | 2.23405 | 155° | 29km/h | 16796m | 4.9m/s | 0°C | 0% | 0hPa | 0V | 00:00:00 | 00:00:00 | 00:00:00 | |
| EA3IBE | 2026-09-03 23:51:57 | 41.27099 | 2.23383 | 141° | 31km/h | 16776m | 3.3m/s | 0°C | 0% | 0hPa | 0V | 00:00:00 | 00:00:00 | 00:00:00 | |
| EA3GEO | 2026-09-03 23:51:56 | 41.27105 | 2.23377 | 139° | 31km/h | 16769m | 9.9m/s | 0°C | 0% | 0hPa | 0V | 00:00:00 | 00:00:00 | 00:00:00 | |
| EA3IBE | 2026-09-03 23:51:51 | 41.27139 | 2.23344 | 150° | 29km/h | 16744m | 2.0m/s | 0°C | 0% | 0hPa | 0V | 00:00:00 | 00:00:00 | 00:00:00 | |
| EA3GEO | 2026-09-03 23:51:50 | 41.27145 | 2.23339 | 149° | 27km/h | 16740m | 4.9m/s | 0°C | 0% | 0hPa | 0V | 00:00:00 | 00:00:00 | 00:00:00 | |
| EA3IBE | 2026-09-03 23:51:46 | 41.27167 | 2.23311 | 129° | 31km/h | 16716m | 4.6m/s | 0°C | 0% | 0hPa | 0V | 00:00:00 | 00:00:00 | 00:00:00 | |
| EA3GEO | 2026-09-03 23:51:44 | 41.27180 | 2.23294 | 144° | 40km/h | 16704m | 3.4m/s | 0°C | 0% | 0hPa | 0V | 00:00:00 | 00:00:00 | 00:00:00 | |
| EA3IBE | 2026-09-03 23:51:40 | 41.27209 | 2.23270 | 144° | 29km/h | 16685m | 3.8m/s | 0°C | 0% | 0hPa | 0V | 00:00:00 | 00:00:00 | 00:00:00 | |
| EA3GEO | 2026-09-03 23:51:38 | 41.27218 | 2.23257 | 121° | 24km/h | 16676m | 2.1m/s | 0°C | 0% | 0hPa | 0V | 00:00:00 | 00:00:00 | 00:00:00 | |
| EA3IBE | 2026-09-03 23:51:34 | 41.27238 | 2.23223 | 138° | 38km/h | 16655m | 6.7m/s | 0°C | 0% | 0hPa | 0V | 00:00:00 | 00:00:00 | 00:00:00 | |
| EA3GEO | 2026-09-03 23:51:33 | 41.27245 | 2.23215 | 146° | 40km/h | 16649m | 5.1m/s | 0°C | 0% | 0hPa | 0V | 00:00:00 | 00:00:00 | 00:00:00 | |
| EA3GEO | 2026-09-03 23:51:28 | 41.27282 | 2.23178 | 126° | 33km/h | 16624m | 4.4m/s | 0°C | 0% | 0hPa | 0V | 00:00:00 | 00:00:00 | 00:00:00 | |
| EA3GEO | 2026-09-03 23:51:22 | 41.27314 | 2.23123 | 130° | 38km/h | 16591m | 6.7m/s | 0°C | 0% | 0hPa | 0V | 00:00:00 | 00:00:00 | 00:00:00 | |
| EA3IBE | 2026-09-03 23:51:21 | 41.27321 | 2.23114 | 137° | 40km/h | 16586m | 2.7m/s | 0°C | 0% | 0hPa | 0V | 00:00:00 | 00:00:00 | 00:00:00 | |
| EA3IBE | 2026-09-03 23:51:16 | 41.27354 | 2.23065 | 133° | 40km/h | 16566m | 5.5m/s | 0°C | 0% | 0hPa | 0V | 00:00:00 | 00:00:00 | 00:00:00 | |
| EA3GEO | 2026-09-03 23:51:11 | 41.27383 | 2.23009 | 124° | 38km/h | 16536m | 8.0m/s | 0°C | 0% | 0hPa | 0V | 00:00:00 | 00:00:00 | 00:00:00 | |
| EA3IBE | 2026-09-03 23:51:10 | 41.27389 | 2.22999 | 128° | 38km/h | 16530m | 5.3m/s | 0°C | 0% | 0hPa | 0V | 00:00:00 | 00:00:00 | 00:00:00 | |
| EA3IBE | 2026-09-03 23:51:05 | 41.27419 | 2.22942 | 119° | 44km/h | 16505m | 7.6m/s | 0°C | 0% | 0hPa | 0V | 00:00:00 | 00:00:00 | 00:00:00 | |
| EA3IBE | 2026-09-03 23:51:00 | 41.27449 | 2.22885 | 138° | 42km/h | 16478m | 3.9m/s | 0°C | 0% | 0hPa | 0V | 00:00:00 | 00:00:00 | 00:00:00 | |
| EA3GEO | 2026-09-03 23:50:55 | 41.27480 | 2.22837 | 122° | 38km/h | 16451m | 3.9m/s | 0°C | 0% | 0hPa | 0V | 00:00:00 | 00:00:00 | 00:00:00 | |
| EA3IBE | 2026-09-03 23:50:54 | 41.27484 | 2.22825 | 118° | 38km/h | 16445m | 10.2m/s | 0°C | 0% | 0hPa | 0V | 00:00:00 | 00:00:00 | 00:00:00 | |
| EA3GEO | 2026-09-03 23:50:49 | 41.27514 | 2.22777 | 128° | 35km/h | 16417m | 2.8m/s | 0°C | 0% | 0hPa | 0V | 00:00:00 | 00:00:00 | 00:00:00 | |
| EA3IBE | 2026-09-03 23:50:47 | 41.27525 | 2.22759 | 135° | 40km/h | 16406m | 3.5m/s | 0°C | 0% | 0hPa | 0V | 00:00:00 | 00:00:00 | 00:00:00 | |
| EA3GEO | 2026-09-03 23:50:43 | 41.27552 | 2.22731 | 139° | 35km/h | 16388m | 2.7m/s | 0°C | 0% | 0hPa | 0V | 00:00:00 | 00:00:00 | 00:00:00 | |
| EA3IBE | 2026-09-03 23:50:40 | 41.27571 | 2.22707 | 142° | 35km/h | 16371m | 5.7m/s | 0°C | 0% | 0hPa | 0V | 00:00:00 | 00:00:00 | 00:00:00 | |
| EA3GEO | 2026-09-03 23:50:37 | 41.27592 | 2.22680 | 138° | 37km/h | 16354m | 7.0m/s | 0°C | 0% | 0hPa | 0V | 00:00:00 | 00:00:00 | 00:00:00 | |
| EA3IBE | 2026-09-03 23:50:35 | 41.27604 | 2.22666 | 141° | 27km/h | 16346m | 4.5m/s | 0°C | 0% | 0hPa | 0V | 00:00:00 | 00:00:00 | 00:00:00 | |
| EA3IBE | 2026-09-03 23:50:29 | 41.27643 | 2.22606 | 135° | 51km/h | 16309m | 4.6m/s | 0°C | 0% | 0hPa | 0V | 00:00:00 | 00:00:00 | 00:00:00 | |
| EA3GEO | 2026-09-03 23:50:24 | 41.27684 | 2.22560 | 142° | 40km/h | 16286m | 2.9m/s | 0°C | 0% | 0hPa | 0V | 00:00:00 | 00:00:00 | 00:00:00 | |
| EA3IBE | 2026-09-03 23:50:23 | 41.27692 | 2.22551 | 140° | 40km/h | 16282m | 4.6m/s | 0°C | 0% | 0hPa | 0V | 00:00:00 | 00:00:00 | 00:00:00 | |
| EA3IBE | 2026-09-03 23:50:17 | 41.27727 | 2.22499 | 133° | 42km/h | 16248m | 3.2m/s | 0°C | 0% | 0hPa | 0V | 00:00:00 | 00:00:00 | 00:00:00 | |
| EA3GEO | 2026-09-03 23:50:16 | 41.27734 | 2.22489 | 135° | 44km/h | 16244m | 4.9m/s | 0°C | 0% | 0hPa | 0V | 00:00:00 | 00:00:00 | 00:00:00 | |
| EA3IBE | 2026-09-03 23:50:12 | 41.27763 | 2.22454 | 142° | 31km/h | 16223m | 7.2m/s | 0°C | 0% | 0hPa | 0V | 00:00:00 | 00:00:00 | 00:00:00 | |
| EA3GEO | 2026-09-03 23:50:10 | 41.27774 | 2.22440 | 131° | 29km/h | 16214m | 5.9m/s | 0°C | 0% | 0hPa | 0V | 00:00:00 | 00:00:00 | 00:00:00 | |
| EA3GEO | 2026-09-03 23:50:04 | 41.27808 | 2.22387 | 138° | 37km/h | 16181m | 3.9m/s | 0°C | 0% | 0hPa | 0V | 00:00:00 | 00:00:00 | 00:00:00 | |
| EA3IBE | 2026-09-03 23:50:00 | 41.27834 | 2.22357 | 127° | 29km/h | 16158m | 3.3m/s | 0°C | 0% | 0hPa | 0V | 00:00:00 | 00:00:00 | 00:00:00 | |
| EA3GEO | 2026-09-03 23:49:59 | 41.27838 | 2.22349 | 126° | 29km/h | 16154m | 3.3m/s | 0°C | 0% | 0hPa | 0V | 00:00:00 | 00:00:00 | 00:00:00 | |
| EA3IBE | 2026-09-03 23:49:54 | 41.27862 | 2.22311 | 146° | 35km/h | 16130m | 5.2m/s | 0°C | 0% | 0hPa | 0V | 00:00:00 | 00:00:00 | 00:00:00 | |
| EA3GEO | 2026-09-03 23:49:53 | 41.27871 | 2.22304 | 154° | 40km/h | 16126m | 3.0m/s | 0°C | 0% | 0hPa | 0V | 00:00:00 | 00:00:00 | 00:00:00 | |
| EA3GEO | 2026-09-03 23:49:48 | 41.27902 | 2.22266 | 120° | 29km/h | 16096m | 5.3m/s | 0°C | 0% | 0hPa | 0V | 00:00:00 | 00:00:00 | 00:00:00 | |
| EA3IBE | 2026-09-03 23:49:42 | 41.27934 | 2.22226 | 150° | 27km/h | 16067m | 9.8m/s | 0°C | 0% | 0hPa | 0V | 00:00:00 | 00:00:00 | 00:00:00 | |
| EA3IBE | 2026-09-03 23:49:36 | 41.27963 | 2.22185 | 124° | 26km/h | 16037m | 2.5m/s | 0°C | 0% | 0hPa | 0V | 00:00:00 | 00:00:00 | 00:00:00 | |
| EA3GEO | 2026-09-03 23:49:30 | 41.27997 | 2.22150 | 157° | 27km/h | 16004m | 3.6m/s | 0°C | 0% | 0hPa | 0V | 00:00:00 | 00:00:00 | 00:00:00 | |
| EA3GEO | 2026-09-03 23:49:24 | 41.28028 | 2.22111 | 119° | 26km/h | 15970m | 3.0m/s | 0°C | 0% | 0hPa | 0V | 00:00:00 | 00:00:00 | 00:00:00 | |
| EA3GEO | 2026-09-03 23:49:19 | 41.28051 | 2.22080 | 141° | 31km/h | 15949m | 4.0m/s | 0°C | 0% | 0hPa | 0V | 00:00:00 | 00:00:00 | 00:00:00 | |
| EA3IBE | 2026-09-03 23:49:17 | 41.28063 | 2.22064 | 127° | 35km/h | 15940m | 5.0m/s | 0°C | 0% | 0hPa | 0V | 00:00:00 | 00:00:00 | 00:00:00 | |
| EA3GEO | 2026-09-03 23:49:14 | 41.28076 | 2.22038 | 133° | 31km/h | 15922m | 4.8m/s | 0°C | 0% | 0hPa | 0V | 00:00:00 | 00:00:00 | 00:00:00 | |
| EA3IBE | 2026-09-03 23:49:11 | 41.28088 | 2.22014 | 119° | 31km/h | 15907m | 7.0m/s | 0°C | 0% | 0hPa | 0V | 00:00:00 | 00:00:00 | 00:00:00 | |
| EA3GEO | 2026-09-03 23:49:05 | 41.28111 | 2.21943 | 122° | 40km/h | 15876m | 2.5m/s | 0°C | 0% | 0hPa | 0V | 00:00:00 | 00:00:00 | 00:00:00 | |
| EA3IBE | 2026-09-03 23:49:03 | 41.28123 | 2.21924 | 124° | 33km/h | 15867m | 4.4m/s | 0°C | 0% | 0hPa | 0V | 00:00:00 | 00:00:00 | 00:00:00 | |
| EA3GEO | 2026-09-03 23:48:59 | 41.28143 | 2.21879 | 119° | 42km/h | 15851m | 1.4m/s | 0°C | 0% | 0hPa | 0V | 00:00:00 | 00:00:00 | 00:00:00 | |
| EA3IBE | 2026-09-03 23:48:58 | 41.28149 | 2.21867 | 115° | 40km/h | 15852m | 5.0m/s | 0°C | 0% | 0hPa | 0V | 00:00:00 | 00:00:00 | 00:00:00 | |
| EA3IBE | 2026-09-03 23:48:53 | 41.28172 | 2.21804 | 119° | 38km/h | 15819m | 9.8m/s | 0°C | 0% | 0hPa | 0V | 00:00:00 | 00:00:00 | 00:00:00 | |
| EA3GEO | 2026-09-03 23:48:48 | 41.28205 | 2.21751 | 133° | 46km/h | 15793m | 6.6m/s | 0°C | 0% | 0hPa | 0V | 00:00:00 | 00:00:00 | 00:00:00 | |
| EA3IBE | 2026-09-03 23:48:45 | 41.28225 | 2.21715 | 126° | 46km/h | 15783m | 5.1m/s | 0°C | 0% | 0hPa | 0V | 00:00:00 | 00:00:00 | 00:00:00 | |
| EA3IBE | 2026-09-03 23:48:39 | 41.28251 | 2.21628 | 115° | 42km/h | 15750m | 6.7m/s | 0°C | 0% | 0hPa | 0V | 00:00:00 | 00:00:00 | 00:00:00 | |
| EA3GEO | 2026-09-03 23:48:36 | 41.28264 | 2.21591 | 116° | 38km/h | 15738m | 2.0m/s | 0°C | 0% | 0hPa | 0V | 00:00:00 | 00:00:00 | 00:00:00 | |
| EA3IBE | 2026-09-03 23:48:33 | 41.28275 | 2.21547 | 110° | 49km/h | 15726m | 6.4m/s | 0°C | 0% | 0hPa | 0V | 00:00:00 | 00:00:00 | 00:00:00 | |
| EA3GEO | 2026-09-03 23:48:31 | 41.28288 | 2.21501 | 112° | 49km/h | 15711m | 11.9m/s | 0°C | 0% | 0hPa | 0V | 00:00:00 | 00:00:00 | 00:00:00 | |
| EA3IBE | 2026-09-03 23:48:28 | 41.28293 | 2.21472 | 105° | 40km/h | 15697m | 7.4m/s | 0°C | 0% | 0hPa | 0V | 00:00:00 | 00:00:00 | 00:00:00 | |
| EA3GEO | 2026-09-03 23:48:24 | 41.28299 | 2.21416 | 104° | 46km/h | 15679m | 2.1m/s | 0°C | 0% | 0hPa | 0V | 00:00:00 | 00:00:00 | 00:00:00 | |
| EA3IBE | 2026-09-03 23:48:22 | 41.28304 | 2.21386 | 103° | 42km/h | 15670m | 3.7m/s | 0°C | 0% | 0hPa | 0V | 00:00:00 | 00:00:00 | 00:00:00 | |
| EA3GEO | 2026-09-03 23:48:18 | 41.28316 | 2.21338 | 110° | 38km/h | 15647m | 9.9m/s | 0°C | 0% | 0hPa | 0V | 00:00:00 | 00:00:00 | 00:00:00 | |
| EA3IBE | 2026-09-03 23:48:16 | 41.28319 | 2.21313 | 100° | 40km/h | 15634m | 8.2m/s | 0°C | 0% | 0hPa | 0V | 00:00:00 | 00:00:00 | 00:00:00 | |
| EA3GEO | 2026-09-03 23:48:13 | 41.28323 | 2.21272 | 99° | 38km/h | 15618m | 4.3m/s | 0°C | 0% | 0hPa | 0V | 00:00:00 | 00:00:00 | 00:00:00 | |
| EA3IBE | 2026-09-03 23:48:10 | 41.28330 | 2.21238 | 113° | 31km/h | 15602m | 3.2m/s | 0°C | 0% | 0hPa | 0V | 00:00:00 | 00:00:00 | 00:00:00 | |
| EA3GEO | 2026-09-03 23:48:07 | 41.28340 | 2.21206 | 119° | 31km/h | 15588m | 1.2m/s | 0°C | 0% | 0hPa | 0V | 00:00:00 | 00:00:00 | 00:00:00 | |
| EA3IBE | 2026-09-03 23:48:03 | 41.28353 | 2.21172 | 99° | 31km/h | 15569m | 3.6m/s | 0°C | 0% | 0hPa | 0V | 00:00:00 | 00:00:00 | 00:00:00 | |
| EA3GEO | 2026-09-03 23:48:01 | 41.28357 | 2.21151 | 119° | 33km/h | 15556m | 3.9m/s | 0°C | 0% | 0hPa | 0V | 00:00:00 | 00:00:00 | 00:00:00 | |
| EA3IBE | 2026-09-03 23:47:57 | 41.28373 | 2.21117 | 115° | 26km/h | 15533m | 2.6m/s | 0°C | 0% | 0hPa | 0V | 00:00:00 | 00:00:00 | 00:00:00 | |
| EA3GEO | 2026-09-03 23:47:55 | 41.28378 | 2.21101 | 123° | 27km/h | 15524m | 3.8m/s | 0°C | 0% | 0hPa | 0V | 00:00:00 | 00:00:00 | 00:00:00 | |
| EA3IBE | 2026-09-03 23:47:51 | 41.28400 | 2.21067 | 141° | 38km/h | 15506m | 8.7m/s | 0°C | 0% | 0hPa | 0V | 00:00:00 | 00:00:00 | 00:00:00 | |
| EA3GEO | 2026-09-03 23:47:50 | 41.28408 | 2.21060 | 158° | 35km/h | 15501m | 4.0m/s | 0°C | 0% | 0hPa | 0V | 00:00:00 | 00:00:00 | 00:00:00 | |
| EA3IBE | 2026-09-03 23:47:44 | 41.28448 | 2.21015 | 128° | 40km/h | 15469m | 2.5m/s | 0°C | 0% | 0hPa | 0V | 00:00:00 | 00:00:00 | 00:00:00 | |
| EA3GEO | 2026-09-03 23:47:38 | 41.28482 | 2.20964 | 118° | 33km/h | 15436m | 5.4m/s | 0°C | 0% | 0hPa | 0V | 00:00:00 | 00:00:00 | 00:00:00 | |
| EA3IBE | 2026-09-03 23:47:37 | 41.28486 | 2.20954 | 122° | 35km/h | 15429m | 9.7m/s | 0°C | 0% | 0hPa | 0V | 00:00:00 | 00:00:00 | 00:00:00 | |
| EA3GEO | 2026-09-03 23:47:33 | 41.28510 | 2.20912 | 131° | 35km/h | 15404m | 5.4m/s | 0°C | 0% | 0hPa | 0V | 00:00:00 | 00:00:00 | 00:00:00 | |
| EA3IBE | 2026-09-03 23:47:31 | 41.28521 | 2.20896 | 130° | 33km/h | 15395m | 3.7m/s | 0°C | 0% | 0hPa | 0V | 00:00:00 | 00:00:00 | 00:00:00 | |
| EA3GEO | 2026-09-03 23:47:27 | 41.28543 | 2.20860 | 130° | 35km/h | 15370m | 9.8m/s | 0°C | 0% | 0hPa | 0V | 00:00:00 | 00:00:00 | 00:00:00 | |
| EA3IBE | 2026-09-03 23:47:25 | 41.28553 | 2.20841 | 125° | 33km/h | 15359m | 5.5m/s | 0°C | 0% | 0hPa | 0V | 00:00:00 | 00:00:00 | 00:00:00 | |
| EA3GEO | 2026-09-03 23:47:23 | 41.28566 | 2.20810 | 119° | 37km/h | 15342m | 7.2m/s | 0°C | 0% | 0hPa | 0V | 00:00:00 | 00:00:00 | 00:00:00 | |
| EA3IBE | 2026-09-03 23:47:20 | 41.28573 | 2.20788 | 115° | 33km/h | 15331m | 5.6m/s | 0°C | 0% | 0hPa | 0V | 00:00:00 | 00:00:00 | 00:00:00 | |
| EA3GEO | 2026-09-03 23:47:17 | 41.28586 | 2.20764 | 133° | 29km/h | 15313m | 5.4m/s | 0°C | 0% | 0hPa | 0V | 00:00:00 | 00:00:00 | 00:00:00 | |
| EA3IBE | 2026-09-03 23:47:14 | 41.28603 | 2.20741 | 131° | 35km/h | 15296m | 7.2m/s | 0°C | 0% | 0hPa | 0V | 00:00:00 | 00:00:00 | 00:00:00 | |
| EA3GEO | 2026-09-03 23:47:11 | 41.28615 | 2.20711 | 110° | 31km/h | 15283m | 4.1m/s | 0°C | 0% | 0hPa | 0V | 00:00:00 | 00:00:00 | 00:00:00 | |
| EA3IBE | 2026-09-03 23:47:08 | 41.28623 | 2.20687 | 132° | 24km/h | 15268m | 3.7m/s | 0°C | 0% | 0hPa | 0V | 00:00:00 | 00:00:00 | 00:00:00 | |
| EA3GEO | 2026-09-03 23:47:07 | 41.28630 | 2.20676 | 126° | 22km/h | 15256m | 5.3m/s | 0°C | 0% | 0hPa | 0V | 00:00:00 | 00:00:00 | 00:00:00 | |
| EA3IBE | 2026-09-03 23:47:03 | 41.28645 | 2.20653 | 134° | 29km/h | 15238m | 9.5m/s | 0°C | 0% | 0hPa | 0V | 00:00:00 | 00:00:00 | 00:00:00 | |
| EA3GEO | 2026-09-03 23:47:01 | 41.28653 | 2.20639 | 124° | 29km/h | 15224m | 8.8m/s | 0°C | 0% | 0hPa | 0V | 00:00:00 | 00:00:00 | 00:00:00 | |
| EA3IBE | 2026-09-03 23:46:57 | 41.28667 | 2.20612 | 131° | 24km/h | 15205m | 7.1m/s | 0°C | 0% | 0hPa | 0V | 00:00:00 | 00:00:00 | 00:00:00 | |
| EA3GEO | 2026-09-03 23:46:55 | 41.28674 | 2.20600 | 133° | 22km/h | 15192m | 8.9m/s | 0°C | 0% | 0hPa | 0V | 00:00:00 | 00:00:00 | 00:00:00 | |
| EA3IBE | 2026-09-03 23:46:50 | 41.28699 | 2.20569 | 136° | 26km/h | 15164m | 5.2m/s | 0°C | 0% | 0hPa | 0V | 00:00:00 | 00:00:00 | 00:00:00 | |
| EA3GEO | 2026-09-03 23:46:49 | 41.28704 | 2.20563 | 128° | 26km/h | 15158m | 5.0m/s | 0°C | 0% | 0hPa | 0V | 00:00:00 | 00:00:00 | 00:00:00 | |
| EA3GEO | 2026-09-03 23:46:44 | 41.28721 | 2.20530 | 132° | 24km/h | 15130m | 7.8m/s | 0°C | 0% | 0hPa | 0V | 00:00:00 | 00:00:00 | 00:00:00 | |
| EA3IBE | 2026-09-03 23:46:38 | 41.28760 | 2.20492 | 147° | 33km/h | 15095m | 3.9m/s | 0°C | 0% | 0hPa | 0V | 00:00:00 | 00:00:00 | 00:00:00 | |
| EA3GEO | 2026-09-03 23:46:33 | 41.28782 | 2.20457 | 127° | 27km/h | 15063m | 3.9m/s | 0°C | 0% | 0hPa | 0V | 00:00:00 | 00:00:00 | 00:00:00 | |
| EA3GEO | 2026-09-03 23:46:27 | 41.28812 | 2.20413 | 124° | 26km/h | 15034m | 3.7m/s | 0°C | 0% | 0hPa | 0V | 00:00:00 | 00:00:00 | 00:00:00 | |
| EA3GEO | 2026-09-03 23:46:21 | 41.28832 | 2.20355 | 122° | 37km/h | 15000m | 1.0m/s | 0°C | 0% | 0hPa | 0V | 00:00:00 | 00:00:00 | 00:00:00 | |
| EA3GEO | 2026-09-03 23:46:16 | 41.28849 | 2.20304 | 118° | 33km/h | 14975m | 4.6m/s | 0°C | 0% | 0hPa | 0V | 00:00:00 | 00:00:00 | 00:00:00 | |
| EA3IBE | 2026-09-03 23:46:14 | 41.28856 | 2.20287 | 120° | 24km/h | 14965m | 3.6m/s | 0°C | 0% | 0hPa | 0V | 00:00:00 | 00:00:00 | 00:00:00 | |
| EA3GEO | 2026-09-03 23:46:10 | 41.28869 | 2.20258 | 113° | 22km/h | 14939m | 2.1m/s | 0°C | 0% | 0hPa | 0V | 00:00:00 | 00:00:00 | 00:00:00 | |
| EA3IBE | 2026-09-03 23:46:09 | 41.28871 | 2.20250 | 112° | 24km/h | 14933m | 8.1m/s | 0°C | 0% | 0hPa | 0V | 00:00:00 | 00:00:00 | 00:00:00 | |
| EA3GEO | 2026-09-03 23:46:04 | 41.28889 | 2.20197 | 117° | 37km/h | 14907m | 1.8m/s | 0°C | 0% | 0hPa | 0V | 00:00:00 | 00:00:00 | 00:00:00 | |
| EA3IBE | 2026-09-03 23:46:03 | 41.28893 | 2.20187 | 115° | 33km/h | 14902m | 8.7m/s | 0°C | 0% | 0hPa | 0V | 00:00:00 | 00:00:00 | 00:00:00 | |
| EA3GEO | 2026-09-03 23:45:58 | 41.28907 | 2.20162 | 120° | 22km/h | 14873m | 6.9m/s | 0°C | 0% | 0hPa | 0V | 00:00:00 | 00:00:00 | 00:00:00 | |
| EA3GEO | 2026-09-03 23:45:53 | 41.28928 | 2.20120 | 136° | 22km/h | 14847m | 2.6m/s | 0°C | 0% | 0hPa | 0V | 00:00:00 | 00:00:00 | 00:00:00 | |
| EA3IBE | 2026-09-03 23:45:52 | 41.28932 | 2.20115 | 143° | 18km/h | 14843m | 5.2m/s | 0°C | 0% | 0hPa | 0V | 00:00:00 | 00:00:00 | 00:00:00 | |
| EA3IBE | 2026-09-03 23:45:47 | 41.28947 | 2.20097 | 127° | 31km/h | 14814m | 3.8m/s | 0°C | 0% | 0hPa | 0V | 00:00:00 | 00:00:00 | 00:00:00 | |
| EA3IBE | 2026-09-03 23:45:42 | 41.28973 | 2.20049 | 140° | 26km/h | 14790m | 8.5m/s | 0°C | 0% | 0hPa | 0V | 00:00:00 | 00:00:00 | 00:00:00 | |
| EA3GEO | 2026-09-03 23:45:41 | 41.28978 | 2.20045 | 161° | 20km/h | 14782m | 5.8m/s | 0°C | 0% | 0hPa | 0V | 00:00:00 | 00:00:00 | 00:00:00 | |
| EA3IBE | 2026-09-03 23:45:28 | 41.29062 | 2.19981 | 159° | 40km/h | 14720m | 7.3m/s | 0°C | 0% | 0hPa | 0V | 00:00:00 | 00:00:00 | 00:00:00 | |
| EA3GEO | 2026-09-03 23:45:24 | 41.29095 | 2.19951 | 146° | 40km/h | 14702m | 5.9m/s | 0°C | 0% | 0hPa | 0V | 00:00:00 | 00:00:00 | 00:00:00 | |
| EA3IBE | 2026-09-03 23:45:23 | 41.29103 | 2.19944 | 157° | 38km/h | 14698m | 2.2m/s | 0°C | 0% | 0hPa | 0V | 00:00:00 | 00:00:00 | 00:00:00 | |
| EA3GEO | 2026-09-03 23:45:19 | 41.29137 | 2.19926 | 165° | 37km/h | 14679m | 9.3m/s | 0°C | 0% | 0hPa | 0V | 00:00:00 | 00:00:00 | 00:00:00 | |
| EA3IBE | 2026-09-03 23:45:17 | 41.29153 | 2.19916 | 143° | 37km/h | 14668m | 6.7m/s | 0°C | 0% | 0hPa | 0V | 00:00:00 | 00:00:00 | 00:00:00 | |
| EA3GEO | 2026-09-03 23:45:13 | 41.29179 | 2.19879 | 137° | 37km/h | 14646m | 11.3m/s | 0°C | 0% | 0hPa | 0V | 00:00:00 | 00:00:00 | 00:00:00 | |
| EA3IBE | 2026-09-03 23:45:11 | 41.29193 | 2.19864 | 138° | 35km/h | 14633m | 3.2m/s | 0°C | 0% | 0hPa | 0V | 00:00:00 | 00:00:00 | 00:00:00 | |
| EA3GEO | 2026-09-03 23:45:07 | 41.29221 | 2.19829 | 133° | 37km/h | 14610m | 5.2m/s | 0°C | 0% | 0hPa | 0V | 00:00:00 | 00:00:00 | 00:00:00 | |
| EA3IBE | 2026-09-03 23:45:01 | 41.29255 | 2.19772 | 129° | 38km/h | 14579m | 2.7m/s | 0°C | 0% | 0hPa | 0V | 00:00:00 | 00:00:00 | 00:00:00 | |
| EA3GEO | 2026-09-03 23:44:56 | 41.29286 | 2.19734 | 141° | 29km/h | 14555m | 2.6m/s | 0°C | 0% | 0hPa | 0V | 00:00:00 | 00:00:00 | 00:00:00 | |
| EA3IBE | 2026-09-03 23:44:54 | 41.29298 | 2.19719 | 139° | 35km/h | 14547m | 2.4m/s | 0°C | 0% | 0hPa | 0V | 00:00:00 | 00:00:00 | 00:00:00 | |
| EA3GEO | 2026-09-03 23:44:50 | 41.29323 | 2.19691 | 136° | 31km/h | 14526m | 6.0m/s | 0°C | 0% | 0hPa | 0V | 00:00:00 | 00:00:00 | 00:00:00 | |
| EA3IBE | 2026-09-03 23:44:48 | 41.29332 | 2.19676 | 132° | 31km/h | 14518m | 6.1m/s | 0°C | 0% | 0hPa | 0V | 00:00:00 | 00:00:00 | 00:00:00 | |
| EA3GEO | 2026-09-03 23:44:44 | 41.29357 | 2.19651 | 136° | 22km/h | 14498m | 1.7m/s | 0°C | 0% | 0hPa | 0V | 00:00:00 | 00:00:00 | 00:00:00 | |
| EA3IBE | 2026-09-03 23:44:42 | 41.29367 | 2.19640 | 138° | 33km/h | 14485m | 3.9m/s | 0°C | 0% | 0hPa | 0V | 00:00:00 | 00:00:00 | 00:00:00 | |
| EA3GEO | 2026-09-03 23:44:39 | 41.29384 | 2.19616 | 136° | 35km/h | 14468m | 4.5m/s | 0°C | 0% | 0hPa | 0V | 00:00:00 | 00:00:00 | 00:00:00 | |
| EA3GEO | 2026-09-03 23:44:33 | 41.29419 | 2.19586 | 132° | 35km/h | 14439m | 5.1m/s | 0°C | 0% | 0hPa | 0V | 00:00:00 | 00:00:00 | 00:00:00 | |
| EA3IBE | 2026-09-03 23:44:28 | 41.29453 | 2.19547 | 151° | 29km/h | 14416m | 3.9m/s | 0°C | 0% | 0hPa | 0V | 00:00:00 | 00:00:00 | 00:00:00 | |
| EA3GEO | 2026-09-03 23:44:26 | 41.29464 | 2.19536 | 137° | 26km/h | 14405m | 3.7m/s | 0°C | 0% | 0hPa | 0V | 00:00:00 | 00:00:00 | 00:00:00 | |
| EA3IBE | 2026-09-03 23:44:22 | 41.29482 | 2.19508 | 142° | 33km/h | 14386m | 4.2m/s | 0°C | 0% | 0hPa | 0V | 00:00:00 | 00:00:00 | 00:00:00 | |
| EA3GEO | 2026-09-03 23:44:20 | 41.29495 | 2.19493 | 133° | 35km/h | 14375m | 3.1m/s | 0°C | 0% | 0hPa | 0V | 00:00:00 | 00:00:00 | 00:00:00 | |
| EA3IBE | 2026-09-03 23:44:14 | 41.29525 | 2.19445 | 137° | 29km/h | 14348m | 7.1m/s | 0°C | 0% | 0hPa | 0V | 00:00:00 | 00:00:00 | 00:00:00 | |
| EA3IBE | 2026-09-03 23:44:08 | 41.29558 | 2.19403 | 120° | 27km/h | 14312m | 2.5m/s | 0°C | 0% | 0hPa | 0V | 00:00:00 | 00:00:00 | 00:00:00 | |
| EA3GEO | 2026-09-03 23:44:03 | 41.29571 | 2.19375 | 124° | 24km/h | 14288m | 3.7m/s | 0°C | 0% | 0hPa | 0V | 00:00:00 | 00:00:00 | 00:00:00 | |
| EA3IBE | 2026-09-03 23:44:00 | 41.29585 | 2.19351 | 132° | 31km/h | 14269m | 5.9m/s | 0°C | 0% | 0hPa | 0V | 00:00:00 | 00:00:00 | 00:00:00 | |
| EA3GEO | 2026-09-03 23:43:57 | 41.29598 | 2.19330 | 131° | 22km/h | 14253m | 7.9m/s | 0°C | 0% | 0hPa | 0V | 00:00:00 | 00:00:00 | 00:00:00 | |
| EA3IBE | 2026-09-03 23:43:47 | 41.29631 | 2.19292 | 158° | 18km/h | 14201m | 5.2m/s | 0°C | 0% | 0hPa | 0V | 00:00:00 | 00:00:00 | 00:00:00 | |
| EA3GEO | 2026-09-03 23:43:46 | 41.29637 | 2.19290 | 165° | 27km/h | 14196m | 2.7m/s | 0°C | 0% | 0hPa | 0V | 00:00:00 | 00:00:00 | 00:00:00 | |
| EA3IBE | 2026-09-03 23:43:42 | 41.29659 | 2.19274 | 157° | 20km/h | 14177m | 5.4m/s | 0°C | 0% | 0hPa | 0V | 00:00:00 | 00:00:00 | 00:00:00 | |
| EA3GEO | 2026-09-03 23:43:41 | 41.29664 | 2.19272 | 164° | 16km/h | 14171m | 6.6m/s | 0°C | 0% | 0hPa | 0V | 00:00:00 | 00:00:00 | 00:00:00 | |
| EA3IBE | 2026-09-03 23:43:36 | 41.29686 | 2.19253 | 136° | 29km/h | 14145m | 5.9m/s | 0°C | 0% | 0hPa | 0V | 00:00:00 | 00:00:00 | 00:00:00 | |
| EA3IBE | 2026-09-03 23:43:30 | 41.29712 | 2.19227 | 157° | 24km/h | 14113m | 3.0m/s | 0°C | 0% | 0hPa | 0V | 00:00:00 | 00:00:00 | 00:00:00 | |
| EA3GEO | 2026-09-03 23:43:25 | 41.29735 | 2.19204 | 130° | 18km/h | 14085m | 6.1m/s | 0°C | 0% | 0hPa | 0V | 00:00:00 | 00:00:00 | 00:00:00 | |
| EA3IBE | 2026-09-03 23:43:24 | 41.29737 | 2.19199 | 118° | 20km/h | 14080m | 2.5m/s | 0°C | 0% | 0hPa | 0V | 00:00:00 | 00:00:00 | 00:00:00 | |
| EA3IBE | 2026-09-03 23:43:19 | 41.29762 | 2.19158 | 143° | 37km/h | 14056m | 6.5m/s | 0°C | 0% | 0hPa | 0V | 00:00:00 | 00:00:00 | 00:00:00 | |
| EA3IBE | 2026-09-03 23:43:14 | 41.29788 | 2.19129 | 156° | 16km/h | 14022m | 4.0m/s | 0°C | 0% | 0hPa | 0V | 00:00:00 | 00:00:00 | 00:00:00 | |
| EA3GEO | 2026-09-03 23:43:13 | 41.29792 | 2.19125 | 136° | 20km/h | 14018m | 2.7m/s | 0°C | 0% | 0hPa | 0V | 00:00:00 | 00:00:00 | 00:00:00 | |
| EA3IBE | 2026-09-03 23:43:09 | 41.29810 | 2.19095 | 133° | 27km/h | 14003m | 3.8m/s | 0°C | 0% | 0hPa | 0V | 00:00:00 | 00:00:00 | 00:00:00 | |
| EA3GEO | 2026-09-03 23:43:08 | 41.29815 | 2.19088 | 134° | 27km/h | 13997m | 9.5m/s | 0°C | 0% | 0hPa | 0V | 00:00:00 | 00:00:00 | 00:00:00 | |
| EA3GEO | 2026-09-03 23:43:02 | 41.29840 | 2.19058 | 121° | 22km/h | 13958m | 6.9m/s | 0°C | 0% | 0hPa | 0V | 00:00:00 | 00:00:00 | 00:00:00 | |
| EA3IBE | 2026-09-03 23:43:00 | 41.29843 | 2.19047 | 114° | 15km/h | 13948m | 1.6m/s | 0°C | 0% | 0hPa | 0V | 00:00:00 | 00:00:00 | 00:00:00 | |
| EA3GEO | 2026-09-03 23:42:57 | 41.29854 | 2.19030 | 140° | 29km/h | 13932m | 7.6m/s | 0°C | 0% | 0hPa | 0V | 00:00:00 | 00:00:00 | 00:00:00 | |
| EA3IBE | 2026-09-03 23:42:55 | 41.29866 | 2.19018 | 145° | 31km/h | 13922m | 7.4m/s | 0°C | 0% | 0hPa | 0V | 00:00:00 | 00:00:00 | 00:00:00 | |
| EA3GEO | 2026-09-03 23:42:52 | 41.29878 | 2.19001 | 117° | 13km/h | 13907m | 4.3m/s | 0°C | 0% | 0hPa | 0V | 00:00:00 | 00:00:00 | 00:00:00 | |
| EA3IBE | 2026-09-03 23:42:49 | 41.29884 | 2.18990 | 122° | 16km/h | 13890m | 10.6m/s | 0°C | 0% | 0hPa | 0V | 00:00:00 | 00:00:00 | 00:00:00 | |
| EA3GEO | 2026-09-03 23:42:46 | 41.29896 | 2.18967 | 131° | 31km/h | 13870m | 4.0m/s | 0°C | 0% | 0hPa | 0V | 00:00:00 | 00:00:00 | 00:00:00 | |
| EA3IBE | 2026-09-03 23:42:43 | 41.29908 | 2.18948 | 143° | 20km/h | 13852m | 10.3m/s | 0°C | 0% | 0hPa | 0V | 00:00:00 | 00:00:00 | 00:00:00 | |
| EA3GEO | 2026-09-03 23:42:39 | 41.29920 | 2.18931 | 118° | 18km/h | 13831m | 3.8m/s | 0°C | 0% | 0hPa | 0V | 00:00:00 | 00:00:00 | 00:00:00 | |
| EA3IBE | 2026-09-03 23:42:37 | 41.29925 | 2.18920 | 139° | 22km/h | 13821m | 4.1m/s | 0°C | 0% | 0hPa | 0V | 00:00:00 | 00:00:00 | 00:00:00 | |
| EA3GEO | 2026-09-03 23:42:34 | 41.29936 | 2.18903 | 136° | 26km/h | 13803m | 8.9m/s | 0°C | 0% | 0hPa | 0V | 00:00:00 | 00:00:00 | 00:00:00 | |
| EA3IBE | 2026-09-03 23:42:31 | 41.29949 | 2.18882 | 134° | 26km/h | 13783m | 5.9m/s | 0°C | 0% | 0hPa | 0V | 00:00:00 | 00:00:00 | 00:00:00 | |
| EA3GEO | 2026-09-03 23:42:28 | 41.29959 | 2.18867 | 118° | 16km/h | 13765m | 4.6m/s | 0°C | 0% | 0hPa | 0V | 00:00:00 | 00:00:00 | 00:00:00 | |
| EA3IBE | 2026-09-03 23:42:26 | 41.29963 | 2.18852 | 108° | 29km/h | 13756m | 7.9m/s | 0°C | 0% | 0hPa | 0V | 00:00:00 | 00:00:00 | 00:00:00 | |
| EA3GEO | 2026-09-03 23:42:22 | 41.29980 | 2.18825 | 133° | 20km/h | 13728m | 3.8m/s | 0°C | 0% | 0hPa | 0V | 00:00:00 | 00:00:00 | 00:00:00 | |
| EA3IBE | 2026-09-03 23:42:20 | 41.29987 | 2.18816 | 142° | 22km/h | 13719m | 2.0m/s | 0°C | 0% | 0hPa | 0V | 00:00:00 | 00:00:00 | 00:00:00 | |
| EA3GEO | 2026-09-03 23:42:16 | 41.30006 | 2.18788 | 140° | 33km/h | 13696m | 4.9m/s | 0°C | 0% | 0hPa | 0V | 00:00:00 | 00:00:00 | 00:00:00 | |
| EA3IBE | 2026-09-03 23:42:13 | 41.30021 | 2.18767 | 127° | 20km/h | 13676m | 5.5m/s | 0°C | 0% | 0hPa | 0V | 00:00:00 | 00:00:00 | 00:00:00 | |
| EA3GEO | 2026-09-03 23:42:10 | 41.30033 | 2.18746 | 132° | 33km/h | 13662m | 6.6m/s | 0°C | 0% | 0hPa | 0V | 00:00:00 | 00:00:00 | 00:00:00 | |
| EA3IBE | 2026-09-03 23:42:07 | 41.30047 | 2.18719 | 124° | 29km/h | 13647m | 4.1m/s | 0°C | 0% | 0hPa | 0V | 00:00:00 | 00:00:00 | 00:00:00 | |
| EA3GEO | 2026-09-03 23:42:04 | 41.30059 | 2.18699 | 133° | 22km/h | 13625m | 8.9m/s | 0°C | 0% | 0hPa | 0V | 00:00:00 | 00:00:00 | 00:00:00 | |
| EA3IBE | 2026-09-03 23:42:00 | 41.30084 | 2.18674 | 138° | 31km/h | 13603m | 2.6m/s | 0°C | 0% | 0hPa | 0V | 00:00:00 | 00:00:00 | 00:00:00 | |
| EA3GEO | 2026-09-03 23:41:58 | 41.30095 | 2.18661 | 127° | 24km/h | 13591m | 4.3m/s | 0°C | 0% | 0hPa | 0V | 00:00:00 | 00:00:00 | 00:00:00 | |
| EA3IBE | 2026-09-03 23:41:55 | 41.30106 | 2.18642 | 142° | 26km/h | 13574m | 5.2m/s | 0°C | 0% | 0hPa | 0V | 00:00:00 | 00:00:00 | 00:00:00 | |
| EA3GEO | 2026-09-03 23:41:53 | 41.30115 | 2.18633 | 144° | 24km/h | 13562m | 2.3m/s | 0°C | 0% | 0hPa | 0V | 00:00:00 | 00:00:00 | 00:00:00 | |
| EA3IBE | 2026-09-03 23:41:49 | 41.30140 | 2.18606 | 136° | 35km/h | 13540m | 3.7m/s | 0°C | 0% | 0hPa | 0V | 00:00:00 | 00:00:00 | 00:00:00 | |
| EA3GEO | 2026-09-03 23:41:47 | 41.30150 | 2.18589 | 126° | 24km/h | 13529m | 6.8m/s | 0°C | 0% | 0hPa | 0V | 00:00:00 | 00:00:00 | 00:00:00 | |
| EA3IBE | 2026-09-03 23:41:43 | 41.30164 | 2.18567 | 136° | 31km/h | 13505m | 3.7m/s | 0°C | 0% | 0hPa | 0V | 00:00:00 | 00:00:00 | 00:00:00 | |
| EA3GEO | 2026-09-03 23:41:42 | 41.30170 | 2.18560 | 147° | 33km/h | 13501m | 3.5m/s | 0°C | 0% | 0hPa | 0V | 00:00:00 | 00:00:00 | 00:00:00 | |
| EA3IBE | 2026-09-03 23:41:36 | 41.30195 | 2.18521 | 110° | 20km/h | 13470m | 7.2m/s | 0°C | 0% | 0hPa | 0V | 00:00:00 | 00:00:00 | 00:00:00 | |
| EA3GEO | 2026-09-03 23:41:31 | 41.30218 | 2.18487 | 142° | 26km/h | 13441m | 2.8m/s | 0°C | 0% | 0hPa | 0V | 00:00:00 | 00:00:00 | 00:00:00 | |
| EA3IBE | 2026-09-03 23:41:28 | 41.30234 | 2.18476 | 161° | 26km/h | 13422m | 5.9m/s | 0°C | 0% | 0hPa | 0V | 00:00:00 | 00:00:00 | 00:00:00 | |
| EA3GEO | 2026-09-03 23:41:26 | 41.30247 | 2.18468 | 162° | 26km/h | 13411m | 8.8m/s | 0°C | 0% | 0hPa | 0V | 00:00:00 | 00:00:00 | 00:00:00 | |
| EA3IBE | 2026-09-03 23:41:21 | 41.30270 | 2.18436 | 128° | 24km/h | 13382m | 7.5m/s | 0°C | 0% | 0hPa | 0V | 00:00:00 | 00:00:00 | 00:00:00 | |
| EA3GEO | 2026-09-03 23:41:20 | 41.30275 | 2.18432 | 159° | 24km/h | 13376m | 4.4m/s | 0°C | 0% | 0hPa | 0V | 00:00:00 | 00:00:00 | 00:00:00 | |
| EA3IBE | 2026-09-03 23:41:15 | 41.30303 | 2.18413 | 142° | 24km/h | 13346m | 4.8m/s | 0°C | 0% | 0hPa | 0V | 00:00:00 | 00:00:00 | 00:00:00 | |
| EA3IBE | 2026-09-03 23:41:08 | 41.30337 | 2.18387 | 154° | 27km/h | 13303m | 3.5m/s | 0°C | 0% | 0hPa | 0V | 00:00:00 | 00:00:00 | 00:00:00 | |
| EA3GEO | 2026-09-03 23:41:07 | 41.30343 | 2.18382 | 151° | 29km/h | 13297m | 8.1m/s | 0°C | 0% | 0hPa | 0V | 00:00:00 | 00:00:00 | 00:00:00 | |
| EA3GEO | 2026-09-03 23:41:01 | 41.30377 | 2.18366 | 185° | 20km/h | 13263m | 4.9m/s | 0°C | 0% | 0hPa | 0V | 00:00:00 | 00:00:00 | 00:00:00 | |
| EA3GEO | 2026-09-03 23:40:55 | 41.30416 | 2.18347 | 159° | 20km/h | 13231m | 3.0m/s | 0°C | 0% | 0hPa | 0V | 00:00:00 | 00:00:00 | 00:00:00 | |
| EA3GEO | 2026-09-03 23:40:50 | 41.30447 | 2.18329 | 150° | 27km/h | 13203m | 3.8m/s | 0°C | 0% | 0hPa | 0V | 00:00:00 | 00:00:00 | 00:00:00 | |
| EA3IBE | 2026-09-03 23:40:49 | 41.30454 | 2.18324 | 158° | 31km/h | 13197m | 7.3m/s | 0°C | 0% | 0hPa | 0V | 00:00:00 | 00:00:00 | 00:00:00 | |
| EA3GEO | 2026-09-03 23:40:44 | 41.30487 | 2.18323 | 176° | 22km/h | 13164m | 6.4m/s | 0°C | 0% | 0hPa | 0V | 00:00:00 | 00:00:00 | 00:00:00 | |
| EA3IBE | 2026-09-03 23:40:43 | 41.30492 | 2.18321 | 157° | 22km/h | 13158m | 1.4m/s | 0°C | 0% | 0hPa | 0V | 00:00:00 | 00:00:00 | 00:00:00 | |
| EA3GEO | 2026-09-03 23:40:38 | 41.30529 | 2.18319 | 187° | 27km/h | 13133m | 4.2m/s | 0°C | 0% | 0hPa | 0V | 00:00:00 | 00:00:00 | 00:00:00 | |
| EA3IBE | 2026-09-03 23:40:37 | 41.30536 | 2.18320 | 184° | 29km/h | 13130m | 1.8m/s | 0°C | 0% | 0hPa | 0V | 00:00:00 | 00:00:00 | 00:00:00 | |
| EA3GEO | 2026-09-03 23:40:30 | 41.30580 | 2.18301 | 180° | 29km/h | 13095m | 1.5m/s | 0°C | 0% | 0hPa | 0V | 00:00:00 | 00:00:00 | 00:00:00 | |
| EA3IBE | 2026-09-03 23:40:29 | 41.30587 | 2.18301 | 184° | 29km/h | 13090m | 8.2m/s | 0°C | 0% | 0hPa | 0V | 00:00:00 | 00:00:00 | 00:00:00 | |
| EA3GEO | 2026-09-03 23:40:24 | 41.30622 | 2.18297 | 175° | 33km/h | 13061m | 7.4m/s | 0°C | 0% | 0hPa | 0V | 00:00:00 | 00:00:00 | 00:00:00 | |
| EA3IBE | 2026-09-03 23:40:23 | 41.30630 | 2.18296 | 172° | 31km/h | 13056m | 2.6m/s | 0°C | 0% | 0hPa | 0V | 00:00:00 | 00:00:00 | 00:00:00 | |
| EA3GEO | 2026-09-03 23:40:18 | 41.30668 | 2.18292 | 177° | 31km/h | 13028m | 3.3m/s | 0°C | 0% | 0hPa | 0V | 00:00:00 | 00:00:00 | 00:00:00 | |
| EA3IBE | 2026-09-03 23:40:15 | 41.30693 | 2.18290 | 175° | 31km/h | 13013m | 2.7m/s | 0°C | 0% | 0hPa | 0V | 00:00:00 | 00:00:00 | 00:00:00 | |
| EA3GEO | 2026-09-03 23:40:12 | 41.30714 | 2.18285 | 173° | 26km/h | 12991m | 1.4m/s | 0°C | 0% | 0hPa | 0V | 00:00:00 | 00:00:00 | 00:00:00 | |
| EA3GEO | 2026-09-03 23:40:08 | 41.30753 | 2.18283 | 190° | 35km/h | 12963m | 4.3m/s | 0°C | 0% | 0hPa | 0V | 00:00:00 | 00:00:00 | 00:00:00 | |
| EA3IBE | 2026-09-03 23:40:06 | 41.30762 | 2.18284 | 181° | 37km/h | 12958m | 3.3m/s | 0°C | 0% | 0hPa | 0V | 00:00:00 | 00:00:00 | 00:00:00 | |
| EA3GEO | 2026-09-03 23:40:00 | 41.30810 | 2.18273 | 174° | 29km/h | 12925m | 7.4m/s | 0°C | 0% | 0hPa | 0V | 00:00:00 | 00:00:00 | 00:00:00 | |
| EA3IBE | 2026-09-03 23:39:57 | 41.30833 | 2.18273 | 179° | 29km/h | 12909m | 2.9m/s | 0°C | 0% | 0hPa | 0V | 00:00:00 | 00:00:00 | 00:00:00 | |
| EA3GEO | 2026-09-03 23:39:55 | 41.30851 | 2.18273 | 179° | 37km/h | 12900m | 0.9m/s | 0°C | 0% | 0hPa | 0V | 00:00:00 | 00:00:00 | 00:00:00 | |
| EA3GEO | 2026-09-03 23:39:49 | 41.30905 | 2.18269 | 174° | 35km/h | 12871m | 4.4m/s | 0°C | 0% | 0hPa | 0V | 00:00:00 | 00:00:00 | 00:00:00 | |
| EA3IBE | 2026-09-03 23:39:47 | 41.30923 | 2.18266 | 177° | 35km/h | 12856m | 4.3m/s | 0°C | 0% | 0hPa | 0V | 00:00:00 | 00:00:00 | 00:00:00 | |
| EA3GEO | 2026-09-03 23:39:43 | 41.30952 | 2.18271 | 187° | 37km/h | 12834m | 3.5m/s | 0°C | 0% | 0hPa | 0V | 00:00:00 | 00:00:00 | 00:00:00 | |
| EA3IBE | 2026-09-03 23:39:39 | 41.30986 | 2.18264 | 178° | 33km/h | 12813m | 5.5m/s | 0°C | 0% | 0hPa | 0V | 00:00:00 | 00:00:00 | 00:00:00 | |
| EA3GEO | 2026-09-03 23:39:37 | 41.31002 | 2.18264 | 184° | 29km/h | 12798m | 4.0m/s | 0°C | 0% | 0hPa | 0V | 00:00:00 | 00:00:00 | 00:00:00 | |
| EA3IBE | 2026-09-03 23:39:31 | 41.31055 | 2.18263 | 167° | 35km/h | 12764m | 0.8m/s | 0°C | 0% | 0hPa | 0V | 00:00:00 | 00:00:00 | 00:00:00 | |
| EA3GEO | 2026-09-03 23:39:23 | 41.31115 | 2.18258 | 164° | 35km/h | 12724m | 4.6m/s | 0°C | 0% | 0hPa | 0V | 00:00:00 | 00:00:00 | 00:00:00 | |
| EA3GEO | 2026-09-03 23:39:15 | 41.31179 | 2.18259 | 172° | 35km/h | 12678m | 5.0m/s | 0°C | 0% | 0hPa | 0V | 00:00:00 | 00:00:00 | 00:00:00 | |
| EA3IBE | 2026-09-03 23:39:12 | 41.31203 | 2.18253 | 172° | 27km/h | 12662m | 2.3m/s | 0°C | 0% | 0hPa | 0V | 00:00:00 | 00:00:00 | 00:00:00 | |
| EA3GEO | 2026-09-03 23:39:09 | 41.31224 | 2.18254 | 192° | 31km/h | 12647m | 2.0m/s | 0°C | 0% | 0hPa | 0V | 00:00:00 | 00:00:00 | 00:00:00 | |
| EA3IBE | 2026-09-03 23:39:06 | 41.31249 | 2.18256 | 178° | 35km/h | 12632m | 7.3m/s | 0°C | 0% | 0hPa | 0V | 00:00:00 | 00:00:00 | 00:00:00 | |
| EA3GEO | 2026-09-03 23:39:02 | 41.31278 | 2.18255 | 186° | 26km/h | 12609m | 10.0m/s | 0°C | 0% | 0hPa | 0V | 00:00:00 | 00:00:00 | 00:00:00 | |
| EA3IBE | 2026-09-03 23:39:01 | 41.31285 | 2.18256 | 190° | 31km/h | 12602m | 5.7m/s | 0°C | 0% | 0hPa | 0V | 00:00:00 | 00:00:00 | 00:00:00 | |
| EA3GEO | 2026-09-03 23:38:57 | 41.31317 | 2.18262 | 174° | 29km/h | 12578m | 3.2m/s | 0°C | 0% | 0hPa | 0V | 00:00:00 | 00:00:00 | 00:00:00 | |
| EA3IBE | 2026-09-03 23:38:55 | 41.31330 | 2.18259 | 173° | 26km/h | 12566m | 3.3m/s | 0°C | 0% | 0hPa | 0V | 00:00:00 | 00:00:00 | 00:00:00 | |
| EA3GEO | 2026-09-03 23:38:50 | 41.31370 | 2.18266 | 197° | 33km/h | 12539m | 5.0m/s | 0°C | 0% | 0hPa | 0V | 00:00:00 | 00:00:00 | 00:00:00 | |
| EA3GEO | 2026-09-03 23:38:43 | 41.31421 | 2.18263 | 193° | 37km/h | 12500m | 3.2m/s | 0°C | 0% | 0hPa | 0V | 00:00:00 | 00:00:00 | 00:00:00 | |
| EA3IBE | 2026-09-03 23:38:39 | 41.31455 | 2.18269 | 173° | 29km/h | 12476m | 5.7m/s | 0°C | 0% | 0hPa | 0V | 00:00:00 | 00:00:00 | 00:00:00 | |
| EA3GEO | 2026-09-03 23:38:36 | 41.31475 | 2.18268 | 187° | 31km/h | 12460m | 1.8m/s | 0°C | 0% | 0hPa | 0V | 00:00:00 | 00:00:00 | 00:00:00 | |
| EA3GEO | 2026-09-03 23:38:21 | 41.31587 | 2.18282 | 191° | 37km/h | 12380m | 7.7m/s | 0°C | 0% | 0hPa | 0V | 00:00:00 | 00:00:00 | 00:00:00 | |
| EA3IBE | 2026-09-03 23:38:20 | 41.31595 | 2.18283 | 178° | 29km/h | 12375m | 4.2m/s | 0°C | 0% | 0hPa | 0V | 00:00:00 | 00:00:00 | 00:00:00 | |
| EA3GEO | 2026-09-03 23:38:16 | 41.31618 | 2.18284 | 200° | 20km/h | 12354m | 5.6m/s | 0°C | 0% | 0hPa | 0V | 00:00:00 | 00:00:00 | 00:00:00 | |
| EA3IBE | 2026-09-03 23:38:03 | 41.31708 | 2.18308 | 201° | 29km/h | 12281m | 6.2m/s | 0°C | 0% | 0hPa | 0V | 00:00:00 | 00:00:00 | 00:00:00 | |
| EA3GEO | 2026-09-03 23:37:41 | 41.31850 | 2.18342 | 184° | 29km/h | 12155m | 8.3m/s | 0°C | 0% | 0hPa | 0V | 00:00:00 | 00:00:00 | 00:00:00 | |
| EA3IBE | 2026-09-03 23:37:27 | 41.31929 | 2.18343 | 161° | 24km/h | 12074m | 3.5m/s | 0°C | 0% | 0hPa | 0V | 00:00:00 | 00:00:00 | 00:00:00 | |
| EA3GEO | 2026-09-03 23:37:18 | 41.31977 | 2.18328 | 171° | 22km/h | 12020m | 6.5m/s | 0°C | 0% | 0hPa | 0V | 00:00:00 | 00:00:00 | 00:00:00 | |
| EA3GEO | 2026-09-03 23:37:13 | 41.32001 | 2.18321 | 173° | 22km/h | 11996m | 0.6m/s | 0°C | 0% | 0hPa | 0V | 00:00:00 | 00:00:00 | 00:00:00 | |
| EA3IBE | 2026-09-03 23:37:11 | 41.32012 | 2.18318 | 157° | 20km/h | 11983m | 5.7m/s | 0°C | 0% | 0hPa | 0V | 00:00:00 | 00:00:00 | 00:00:00 | |
| EA3GEO | 2026-09-03 23:37:03 | 41.32053 | 2.18314 | 179° | 20km/h | 11943m | 3.0m/s | 0°C | 0% | 0hPa | 0V | 00:00:00 | 00:00:00 | 00:00:00 | |
| EA3IBE | 2026-09-03 23:37:00 | 41.32068 | 2.18312 | 174° | 16km/h | 11923m | 2.3m/s | 0°C | 0% | 0hPa | 0V | 00:00:00 | 00:00:00 | 00:00:00 | |
| EA3GEO | 2026-09-03 23:36:49 | 41.32120 | 2.18305 | 178° | 16km/h | 11856m | 2.6m/s | 0°C | 0% | 0hPa | 0V | 00:00:00 | 00:00:00 | 00:00:00 | |
| EA3GEO | 2026-09-03 23:36:40 | 41.32167 | 2.18295 | 169° | 20km/h | 11804m | 3.3m/s | 0°C | 0% | 0hPa | 0V | 00:00:00 | 00:00:00 | 00:00:00 | |
| EA3IBE | 2026-09-03 23:36:39 | 41.32172 | 2.18293 | 166° | 20km/h | 11801m | 1.5m/s | 0°C | 0% | 0hPa | 0V | 00:00:00 | 00:00:00 | 00:00:00 | |
| EA3GEO | 2026-09-03 23:36:34 | 41.32195 | 2.18284 | 156° | 22km/h | 11770m | 7.1m/s | 0°C | 0% | 0hPa | 0V | 00:00:00 | 00:00:00 | 00:00:00 | |
| EA3IBE | 2026-09-03 23:36:28 | 41.32221 | 2.18270 | 154° | 22km/h | 11739m | 4.5m/s | 0°C | 0% | 0hPa | 0V | 00:00:00 | 00:00:00 | 00:00:00 | |
| EA3GEO | 2026-09-03 23:36:26 | 41.32229 | 2.18265 | 158° | 16km/h | 11728m | 4.6m/s | 0°C | 0% | 0hPa | 0V | 00:00:00 | 00:00:00 | 00:00:00 | |
| EA3GEO | 2026-09-03 23:36:12 | 41.32288 | 2.18226 | 159° | 22km/h | 11652m | 5.2m/s | 0°C | 0% | 0hPa | 0V | 00:00:00 | 00:00:00 | 00:00:00 | |
| EA3GEO | 2026-09-03 23:36:07 | 41.32309 | 2.18208 | 146° | 16km/h | 11624m | 4.2m/s | 0°C | 0% | 0hPa | 0V | 00:00:00 | 00:00:00 | 00:00:00 | |
| EA3IBE | 2026-09-03 23:36:06 | 41.32314 | 2.18205 | 158° | 24km/h | 11617m | 10.3m/s | 0°C | 0% | 0hPa | 0V | 00:00:00 | 00:00:00 | 00:00:00 | |
| EA3GEO | 2026-09-03 23:36:01 | 41.32336 | 2.18186 | 147° | 22km/h | 11587m | 4.3m/s | 0°C | 0% | 0hPa | 0V | 00:00:00 | 00:00:00 | 00:00:00 | |
| EA3IBE | 2026-09-03 23:36:00 | 41.32340 | 2.18182 | 148° | 20km/h | 11584m | 1.7m/s | 0°C | 0% | 0hPa | 0V | 00:00:00 | 00:00:00 | 00:00:00 | |
| EA3IBE | 2026-09-03 23:35:49 | 41.32390 | 2.18142 | 140° | 16km/h | 11523m | 0.9m/s | 0°C | 0% | 0hPa | 0V | 00:00:00 | 00:00:00 | 00:00:00 | |
| EA3GEO | 2026-09-03 23:35:33 | 41.32456 | 2.18080 | 154° | 20km/h | 11434m | 6.2m/s | 0°C | 0% | 0hPa | 0V | 00:00:00 | 00:00:00 | 00:00:00 | |
| EA3GEO | 2026-09-03 23:35:23 | 41.32503 | 2.18049 | 155° | 15km/h | 11381m | 11.8m/s | 0°C | 0% | 0hPa | 0V | 00:00:00 | 00:00:00 | 00:00:00 | |
| EA3GEO | 2026-09-03 23:35:14 | 41.32542 | 2.18027 | 170° | 20km/h | 11327m | 4.0m/s | 0°C | 0% | 0hPa | 0V | 00:00:00 | 00:00:00 | 00:00:00 | |
| EA3GEO | 2026-09-03 23:35:07 | 41.32574 | 2.18012 | 163° | 20km/h | 11288m | 5.5m/s | 0°C | 0% | 0hPa | 0V | 00:00:00 | 00:00:00 | 00:00:00 | |
| EA3GEO | 2026-09-03 23:34:55 | 41.32629 | 2.17989 | 166° | 20km/h | 11222m | 4.1m/s | 0°C | 0% | 0hPa | 0V | 00:00:00 | 00:00:00 | 00:00:00 | |
| EA3GEO | 2026-09-03 23:34:49 | 41.32659 | 2.17980 | 179° | 24km/h | 11190m | 8.1m/s | 0°C | 0% | 0hPa | 0V | 00:00:00 | 00:00:00 | 00:00:00 | |
| EA3GEO | 2026-09-03 23:34:44 | 41.32686 | 2.17980 | 181° | 20km/h | 11161m | 5.1m/s | 0°C | 0% | 0hPa | 0V | 00:00:00 | 00:00:00 | 00:00:00 | |
| EA3IBE | 2026-09-03 23:34:34 | 41.32740 | 2.17963 | 164° | 24km/h | 11108m | 3.6m/s | 0°C | 0% | 0hPa | 0V | 00:00:00 | 00:00:00 | 00:00:00 | |
| EA3GEO | 2026-09-03 23:34:28 | 41.32777 | 2.17952 | 164° | 26km/h | 11069m | 5.3m/s | 0°C | 0% | 0hPa | 0V | 00:00:00 | 00:00:00 | 00:00:00 | |
| EA3GEO | 2026-09-03 23:34:11 | 41.32871 | 2.17895 | 155° | 26km/h | 10973m | 2.9m/s | 0°C | 0% | 0hPa | 0V | 00:00:00 | 00:00:00 | 00:00:00 | |
| EA3GEO | 2026-09-03 23:34:01 | 41.32931 | 2.17858 | 160° | 26km/h | 10918m | 7.1m/s | 0°C | 0% | 0hPa | 0V | 00:00:00 | 00:00:00 | 00:00:00 | |
| EA3GEO | 2026-09-03 23:33:53 | 41.32978 | 2.17831 | 150° | 26km/h | 10872m | 2.7m/s | 0°C | 0% | 0hPa | 0V | 00:00:00 | 00:00:00 | 00:00:00 | |
| EA3GEO | 2026-09-03 23:33:46 | 41.33020 | 2.17806 | 159° | 22km/h | 10831m | 5.9m/s | 0°C | 0% | 0hPa | 0V | 00:00:00 | 00:00:00 | 00:00:00 | |
| EA3GEO | 2026-09-03 23:33:40 | 41.33057 | 2.17782 | 152° | 27km/h | 10796m | 1.8m/s | 0°C | 0% | 0hPa | 0V | 00:00:00 | 00:00:00 | 00:00:00 | |
| EA3GEO | 2026-09-03 23:33:34 | 41.33093 | 2.17756 | 156° | 29km/h | 10761m | 7.4m/s | 0°C | 0% | 0hPa | 0V | 00:00:00 | 00:00:00 | 00:00:00 | |
| EA3IBE | 2026-09-03 23:33:32 | 41.33106 | 2.17749 | 151° | 29km/h | 10747m | 4.5m/s | 0°C | 0% | 0hPa | 0V | 00:00:00 | 00:00:00 | 00:00:00 | |
| EA3GEO | 2026-09-03 23:33:19 | 41.33184 | 2.17692 | 151° | 33km/h | 10676m | 7.3m/s | 0°C | 0% | 0hPa | 0V | 00:00:00 | 00:00:00 | 00:00:00 | |
| EA3GEO | 2026-09-03 23:33:13 | 41.33224 | 2.17668 | 157° | 24km/h | 10640m | 6.6m/s | 0°C | 0% | 0hPa | 0V | 00:00:00 | 00:00:00 | 00:00:00 | |
| EA3IBE | 2026-09-03 23:33:11 | 41.33236 | 2.17659 | 150° | 29km/h | 10631m | 2.7m/s | 0°C | 0% | 0hPa | 0V | 00:00:00 | 00:00:00 | 00:00:00 | |
| EA3GEO | 2026-09-03 23:33:07 | 41.33260 | 2.17642 | 148° | 24km/h | 10606m | 3.8m/s | 0°C | 0% | 0hPa | 0V | 00:00:00 | 00:00:00 | 00:00:00 | |
| EA3IBE | 2026-09-03 23:33:06 | 41.33264 | 2.17638 | 149° | 22km/h | 10602m | 3.4m/s | 0°C | 0% | 0hPa | 0V | 00:00:00 | 00:00:00 | 00:00:00 | |
| EA3GEO | 2026-09-03 23:33:01 | 41.33293 | 2.17616 | 158° | 27km/h | 10574m | 2.8m/s | 0°C | 0% | 0hPa | 0V | 00:00:00 | 00:00:00 | 00:00:00 | |
| EA3IBE | 2026-09-03 23:32:57 | 41.33316 | 2.17602 | 143° | 26km/h | 10551m | 4.4m/s | 0°C | 0% | 0hPa | 0V | 00:00:00 | 00:00:00 | 00:00:00 | |
| EA3GEO | 2026-09-03 23:32:53 | 41.33339 | 2.17582 | 152° | 27km/h | 10528m | 7.1m/s | 0°C | 0% | 0hPa | 0V | 00:00:00 | 00:00:00 | 00:00:00 | |
| EA3IBE | 2026-09-03 23:32:52 | 41.33345 | 2.17577 | 148° | 26km/h | 10522m | 3.9m/s | 0°C | 0% | 0hPa | 0V | 00:00:00 | 00:00:00 | 00:00:00 | |
| EA3GEO | 2026-09-03 23:32:48 | 41.33367 | 2.17562 | 156° | 29km/h | 10501m | 6.7m/s | 0°C | 0% | 0hPa | 0V | 00:00:00 | 00:00:00 | 00:00:00 | |
| EA3IBE | 2026-09-03 23:32:46 | 41.33380 | 2.17551 | 149° | 31km/h | 10490m | 3.0m/s | 0°C | 0% | 0hPa | 0V | 00:00:00 | 00:00:00 | 00:00:00 | |
| EA3GEO | 2026-09-03 23:32:42 | 41.33405 | 2.17532 | 152° | 24km/h | 10467m | 6.0m/s | 0°C | 0% | 0hPa | 0V | 00:00:00 | 00:00:00 | 00:00:00 | |
| EA3IBE | 2026-09-03 23:32:41 | 41.33410 | 2.17528 | 158° | 24km/h | 10461m | 4.2m/s | 0°C | 0% | 0hPa | 0V | 00:00:00 | 00:00:00 | 00:00:00 | |
| EA3IBE | 2026-09-03 23:32:35 | 41.33445 | 2.17498 | 153° | 26km/h | 10431m | 1.4m/s | 0°C | 0% | 0hPa | 0V | 00:00:00 | 00:00:00 | 00:00:00 | |
| EA3GEO | 2026-09-03 23:32:30 | 41.33472 | 2.17481 | 147° | 24km/h | 10400m | 3.6m/s | 0°C | 0% | 0hPa | 0V | 00:00:00 | 00:00:00 | 00:00:00 | |
| EA3GEO | 2026-09-03 23:32:24 | 41.33503 | 2.17451 | 155° | 24km/h | 10366m | 4.4m/s | 0°C | 0% | 0hPa | 0V | 00:00:00 | 00:00:00 | 00:00:00 | |
| EA3IBE | 2026-09-03 23:32:23 | 41.33508 | 2.17448 | 165° | 24km/h | 10362m | 2.1m/s | 0°C | 0% | 0hPa | 0V | 00:00:00 | 00:00:00 | 00:00:00 | |
| EA3GEO | 2026-09-03 23:32:18 | 41.33532 | 2.17424 | 145° | 22km/h | 10336m | 2.0m/s | 0°C | 0% | 0hPa | 0V | 00:00:00 | 00:00:00 | 00:00:00 | |
| EA3IBE | 2026-09-03 23:32:13 | 41.33556 | 2.17409 | 151° | 24km/h | 10303m | 4.1m/s | 0°C | 0% | 0hPa | 0V | 00:00:00 | 00:00:00 | 00:00:00 | |
| EA3GEO | 2026-09-03 23:32:12 | 41.33561 | 2.17405 | 144° | 26km/h | 10299m | 4.0m/s | 0°C | 0% | 0hPa | 0V | 00:00:00 | 00:00:00 | 00:00:00 | |
| EA3IBE | 2026-09-03 23:32:07 | 41.33587 | 2.17385 | 155° | 24km/h | 10269m | 3.7m/s | 0°C | 0% | 0hPa | 0V | 00:00:00 | 00:00:00 | 00:00:00 | |
| EA3GEO | 2026-09-03 23:32:06 | 41.33591 | 2.17381 | 144° | 22km/h | 10265m | 3.6m/s | 0°C | 0% | 0hPa | 0V | 00:00:00 | 00:00:00 | 00:00:00 | |
| EA3GEO | 2026-09-03 23:32:00 | 41.33617 | 2.17354 | 154° | 22km/h | 10232m | 4.3m/s | 0°C | 0% | 0hPa | 0V | 00:00:00 | 00:00:00 | 00:00:00 | |
| EA3IBE | 2026-09-03 23:31:54 | 41.33643 | 2.17329 | 142° | 22km/h | 10195m | 3.1m/s | 0°C | 0% | 0hPa | 0V | 00:00:00 | 00:00:00 | 00:00:00 | |
| EA3GEO | 2026-09-03 23:31:52 | 41.33653 | 2.17320 | 148° | 26km/h | 10188m | 3.8m/s | 0°C | 0% | 0hPa | 0V | 00:00:00 | 00:00:00 | 00:00:00 | |
| EA3GEO | 2026-09-03 23:31:47 | 41.33675 | 2.17300 | 153° | 20km/h | 10156m | 2.9m/s | 0°C | 0% | 0hPa | 0V | 00:00:00 | 00:00:00 | 00:00:00 | |
| EA3IBE | 2026-09-03 23:31:41 | 41.33699 | 2.17277 | 149° | 22km/h | 10124m | 3.6m/s | 0°C | 0% | 0hPa | 0V | 00:00:00 | 00:00:00 | 00:00:00 | |
| EA3GEO | 2026-09-03 23:31:40 | 41.33703 | 2.17274 | 162° | 24km/h | 10121m | 2.2m/s | 0°C | 0% | 0hPa | 0V | 00:00:00 | 00:00:00 | 00:00:00 | |
| EA3IBE | 2026-09-03 23:31:35 | 41.33729 | 2.17257 | 156° | 18km/h | 10088m | 4.1m/s | 0°C | 0% | 0hPa | 0V | 00:00:00 | 00:00:00 | 00:00:00 | |
| EA3GEO | 2026-09-03 23:31:34 | 41.33733 | 2.17254 | 144° | 22km/h | 10085m | 3.7m/s | 0°C | 0% | 0hPa | 0V | 00:00:00 | 00:00:00 | 00:00:00 | |
| EA3IBE | 2026-09-03 23:31:29 | 41.33757 | 2.17229 | 147° | 22km/h | 10054m | 5.1m/s | 0°C | 0% | 0hPa | 0V | 00:00:00 | 00:00:00 | 00:00:00 | |
| EA3GEO | 2026-09-03 23:31:28 | 41.33762 | 2.17226 | 167° | 24km/h | 10049m | 4.3m/s | 0°C | 0% | 0hPa | 0V | 00:00:00 | 00:00:00 | 00:00:00 | |
| EA3IBE | 2026-09-03 23:31:24 | 41.33785 | 2.17216 | 153° | 20km/h | 10031m | 7.0m/s | 0°C | 0% | 0hPa | 0V | 00:00:00 | 00:00:00 | 00:00:00 | |
| EA3GEO | 2026-09-03 23:31:21 | 41.33795 | 2.17200 | 128° | 22km/h | 10011m | 5.8m/s | 0°C | 0% | 0hPa | 0V | 00:00:00 | 00:00:00 | 00:00:00 | |
| EA3IBE | 2026-09-03 23:31:18 | 41.33810 | 2.17188 | 151° | 24km/h | 9997m | 3.5m/s | 0°C | 0% | 0hPa | 0V | 00:00:00 | 00:00:00 | 00:00:00 | |
| EA3GEO | 2026-09-03 23:31:16 | 41.33819 | 2.17179 | 144° | 20km/h | 9990m | 6.6m/s | 0°C | 0% | 0hPa | 0V | 00:00:00 | 00:00:00 | 00:00:00 | |
| EA3IBE | 2026-09-03 23:31:08 | 41.33857 | 2.17152 | 161° | 15km/h | 9939m | 3.7m/s | 0°C | 0% | 0hPa | 0V | 00:00:00 | 00:00:00 | 00:00:00 | |
| EA3GEO | 2026-09-03 23:31:06 | 41.33863 | 2.17147 | 154° | 15km/h | 9929m | 8.1m/s | 0°C | 0% | 0hPa | 0V | 00:00:00 | 00:00:00 | 00:00:00 | |
| EA3GEO | 2026-09-03 23:31:01 | 41.33886 | 2.17136 | 153° | 20km/h | 9893m | 6.0m/s | 0°C | 0% | 0hPa | 0V | 00:00:00 | 00:00:00 | 00:00:00 | |
| EA3IBE | 2026-09-03 23:30:59 | 41.33896 | 2.17129 | 147° | 24km/h | 9883m | 3.0m/s | 0°C | 0% | 0hPa | 0V | 00:00:00 | 00:00:00 | 00:00:00 | |
| EA3GEO | 2026-09-03 23:30:56 | 41.33909 | 2.17117 | 148° | 16km/h | 9868m | 7.4m/s | 0°C | 0% | 0hPa | 0V | 00:00:00 | 00:00:00 | 00:00:00 | |
| EA3IBE | 2026-09-03 23:30:53 | 41.33923 | 2.17108 | 163° | 24km/h | 9848m | 6.7m/s | 0°C | 0% | 0hPa | 0V | 00:00:00 | 00:00:00 | 00:00:00 | |
| EA3IBE | 2026-09-03 23:30:48 | 41.33949 | 2.17097 | 156° | 26km/h | 9825m | 7.8m/s | 0°C | 0% | 0hPa | 0V | 00:00:00 | 00:00:00 | 00:00:00 | |
| EA3GEO | 2026-09-03 23:30:42 | 41.33978 | 2.17086 | 171° | 18km/h | 9790m | 4.4m/s | 0°C | 0% | 0hPa | 0V | 00:00:00 | 00:00:00 | 00:00:00 | |
| EA3IBE | 2026-09-03 23:30:39 | 41.33991 | 2.17080 | 151° | 22km/h | 9779m | 8.7m/s | 0°C | 0% | 0hPa | 0V | 00:00:00 | 00:00:00 | 00:00:00 | |
| EA3IBE | 2026-09-03 23:30:34 | 41.34019 | 2.17068 | 177° | 20km/h | 9748m | 4.7m/s | 0°C | 0% | 0hPa | 0V | 00:00:00 | 00:00:00 | 00:00:00 | |
| EA3GEO | 2026-09-03 23:30:31 | 41.34030 | 2.17067 | 145° | 16km/h | 9740m | 2.9m/s | 0°C | 0% | 0hPa | 0V | 00:00:00 | 00:00:00 | 00:00:00 | |
| EA3GEO | 2026-09-03 23:30:26 | 41.34052 | 2.17038 | 162° | 29km/h | 9706m | 6.9m/s | 0°C | 0% | 0hPa | 0V | 00:00:00 | 00:00:00 | 00:00:00 | |
| EA3IBE | 2026-09-03 23:30:24 | 41.34064 | 2.17034 | 169° | 22km/h | 9694m | 7.0m/s | 0°C | 0% | 0hPa | 0V | 00:00:00 | 00:00:00 | 00:00:00 | |
| EA3GEO | 2026-09-03 23:30:20 | 41.34071 | 2.17022 | 135° | 16km/h | 9673m | 4.3m/s | 0°C | 0% | 0hPa | 0V | 00:00:00 | 00:00:00 | 00:00:00 | |
| EA3IBE | 2026-09-03 23:30:16 | 41.34101 | 2.17010 | 166° | 31km/h | 9653m | 4.6m/s | 0°C | 0% | 0hPa | 0V | 00:00:00 | 00:00:00 | 00:00:00 | |
| EA3GEO | 2026-09-03 23:30:14 | 41.34109 | 2.17007 | 167° | 33km/h | 9648m | 6.3m/s | 0°C | 0% | 0hPa | 0V | 00:00:00 | 00:00:00 | 00:00:00 | |
| EA3GEO | 2026-09-03 23:30:08 | 41.34138 | 2.16982 | 136° | 20km/h | 9616m | 6.5m/s | 0°C | 0% | 0hPa | 0V | 00:00:00 | 00:00:00 | 00:00:00 | |
| EA3IBE | 2026-09-03 23:30:07 | 41.34142 | 2.16977 | 142° | 26km/h | 9612m | 4.5m/s | 0°C | 0% | 0hPa | 0V | 00:00:00 | 00:00:00 | 00:00:00 | |
| EA3GEO | 2026-09-03 23:30:03 | 41.34163 | 2.16959 | 148° | 22km/h | 9595m | 6.1m/s | 0°C | 0% | 0hPa | 0V | 00:00:00 | 00:00:00 | 00:00:00 | |
| EA3IBE | 2026-09-03 23:29:58 | 41.34185 | 2.16936 | 139° | 24km/h | 9575m | 3.8m/s | 0°C | 0% | 0hPa | 0V | 00:00:00 | 00:00:00 | 00:00:00 | |
| EA3GEO | 2026-09-03 23:29:56 | 41.34193 | 2.16924 | 135° | 24km/h | 9568m | 4.1m/s | 0°C | 0% | 0hPa | 0V | 00:00:00 | 00:00:00 | 00:00:00 | |
| EA3GEO | 2026-09-03 23:29:50 | 41.34222 | 2.16892 | 138° | 24km/h | 9547m | 5.3m/s | 0°C | 0% | 0hPa | 0V | 00:00:00 | 00:00:00 | 00:00:00 | |
| EA3IBE | 2026-09-03 23:29:48 | 41.34231 | 2.16883 | 143° | 22km/h | 9538m | 4.3m/s | 0°C | 0% | 0hPa | 0V | 00:00:00 | 00:00:00 | 00:00:00 | |
| EA3GEO | 2026-09-03 23:29:44 | 41.34251 | 2.16862 | 140° | 24km/h | 9523m | 3.2m/s | 0°C | 0% | 0hPa | 0V | 00:00:00 | 00:00:00 | 00:00:00 | |
| EA3GEO | 2026-09-03 23:29:39 | 41.34268 | 2.16838 | 142° | 18km/h | 9508m | 2.3m/s | 0°C | 0% | 0hPa | 0V | 00:00:00 | 00:00:00 | 00:00:00 | |
| EA3IBE | 2026-09-03 23:29:37 | 41.34275 | 2.16829 | 128° | 20km/h | 9499m | 5.6m/s | 0°C | 0% | 0hPa | 0V | 00:00:00 | 00:00:00 | 00:00:00 | |
| EA3GEO | 2026-09-03 23:29:34 | 41.34287 | 2.16815 | 153° | 20km/h | 9487m | 3.1m/s | 0°C | 0% | 0hPa | 0V | 00:00:00 | 00:00:00 | 00:00:00 | |
| EA3IBE | 2026-09-03 23:29:27 | 41.34316 | 2.16787 | 146° | 20km/h | 9461m | 3.7m/s | 0°C | 0% | 0hPa | 0V | 00:00:00 | 00:00:00 | 00:00:00 | |
| EA3GEO | 2026-09-03 23:29:21 | 41.34342 | 2.16763 | 147° | 20km/h | 9439m | 4.3m/s | 0°C | 0% | 0hPa | 0V | 00:00:00 | 00:00:00 | 00:00:00 | |
| EA3IBE | 2026-09-03 23:29:17 | 41.34356 | 2.16751 | 132° | 15km/h | 9424m | 3.7m/s | 0°C | 0% | 0hPa | 0V | 00:00:00 | 00:00:00 | 00:00:00 | |
| EA3GEO | 2026-09-03 23:29:15 | 41.34362 | 2.16745 | 162° | 16km/h | 9417m | 3.2m/s | 0°C | 0% | 0hPa | 0V | 00:00:00 | 00:00:00 | 00:00:00 | |
| EA3GEO | 2026-09-03 23:29:10 | 41.34381 | 2.16731 | 146° | 18km/h | 9399m | 4.2m/s | 0°C | 0% | 0hPa | 0V | 00:00:00 | 00:00:00 | 00:00:00 | |
| EA3GEO | 2026-09-03 23:29:04 | 41.34400 | 2.16714 | 150° | 15km/h | 9374m | 4.4m/s | 0°C | 0% | 0hPa | 0V | 00:00:00 | 00:00:00 | 00:00:00 | |
| EA3IBE | 2026-09-03 23:29:02 | 41.34407 | 2.16708 | 156° | 16km/h | 9366m | 4.4m/s | 0°C | 0% | 0hPa | 0V | 00:00:00 | 00:00:00 | 00:00:00 | |
| EA3GEO | 2026-09-03 23:28:59 | 41.34416 | 2.16698 | 119° | 15km/h | 9354m | 4.3m/s | 0°C | 0% | 0hPa | 0V | 00:00:00 | 00:00:00 | 00:00:00 | |
| EA3GEO | 2026-09-03 23:28:53 | 41.34436 | 2.16677 | 153° | 15km/h | 9331m | 3.3m/s | 0°C | 0% | 0hPa | 0V | 00:00:00 | 00:00:00 | 00:00:00 | |
| EA3IBE | 2026-09-03 23:28:49 | 41.34445 | 2.16665 | 132° | 13km/h | 9316m | 5.3m/s | 0°C | 0% | 0hPa | 0V | 00:00:00 | 00:00:00 | 00:00:00 | |
| EA3GEO | 2026-09-03 23:28:48 | 41.34447 | 2.16662 | 159° | 13km/h | 9312m | 3.8m/s | 0°C | 0% | 0hPa | 0V | 00:00:00 | 00:00:00 | 00:00:00 | |
| EA3GEO | 2026-09-03 23:28:43 | 41.34462 | 2.16652 | 158° | 11km/h | 9292m | 3.4m/s | 0°C | 0% | 0hPa | 0V | 00:00:00 | 00:00:00 | 00:00:00 | |
| EA3IBE | 2026-09-03 23:28:42 | 41.34464 | 2.16650 | 150° | 15km/h | 9288m | 4.2m/s | 0°C | 0% | 0hPa | 0V | 00:00:00 | 00:00:00 | 00:00:00 | |
| EA3GEO | 2026-09-03 23:28:38 | 41.34478 | 2.16638 | 162° | 18km/h | 9273m | 2.8m/s | 0°C | 0% | 0hPa | 0V | 00:00:00 | 00:00:00 | 00:00:00 | |
| EA3IBE | 2026-09-03 23:28:33 | 41.34492 | 2.16631 | 147° | 11km/h | 9254m | 5.1m/s | 0°C | 0% | 0hPa | 0V | 00:00:00 | 00:00:00 | 00:00:00 | |
| EA3GEO | 2026-09-03 23:28:32 | 41.34494 | 2.16629 | 130° | 13km/h | 9249m | 4.8m/s | 0°C | 0% | 0hPa | 0V | 00:00:00 | 00:00:00 | 00:00:00 | |
| EA3GEO | 2026-09-03 23:28:26 | 41.34514 | 2.16610 | 166° | 15km/h | 9225m | 3.6m/s | 0°C | 0% | 0hPa | 0V | 00:00:00 | 00:00:00 | 00:00:00 | |
| EA3IBE | 2026-09-03 23:28:23 | 41.34521 | 2.16607 | 146° | 9km/h | 9213m | 3.1m/s | 0°C | 0% | 0hPa | 0V | 00:00:00 | 00:00:00 | 00:00:00 | |
| EA3GEO | 2026-09-03 23:28:20 | 41.34530 | 2.16600 | 159° | 20km/h | 9204m | 3.8m/s | 0°C | 0% | 0hPa | 0V | 00:00:00 | 00:00:00 | 00:00:00 | |
| EA3GEO | 2026-09-03 23:28:14 | 41.34551 | 2.16586 | 146° | 15km/h | 9178m | 5.6m/s | 0°C | 0% | 0hPa | 0V | 00:00:00 | 00:00:00 | 00:00:00 | |
| EA3IBE | 2026-09-03 23:28:09 | 41.34572 | 2.16572 | 146° | 20km/h | 9157m | 3.0m/s | 0°C | 0% | 0hPa | 0V | 00:00:00 | 00:00:00 | 00:00:00 | |
| EA3GEO | 2026-09-03 23:28:08 | 41.34575 | 2.16569 | 148° | 13km/h | 9154m | 3.6m/s | 0°C | 0% | 0hPa | 0V | 00:00:00 | 00:00:00 | 00:00:00 | |
| EA3IBE | 2026-09-03 23:28:02 | 41.34594 | 2.16557 | 171° | 15km/h | 9131m | 3.7m/s | 0°C | 0% | 0hPa | 0V | 00:00:00 | 00:00:00 | 00:00:00 | |
| EA3GEO | 2026-09-03 23:27:57 | 41.34614 | 2.16545 | 148° | 16km/h | 9112m | 4.3m/s | 0°C | 0% | 0hPa | 0V | 00:00:00 | 00:00:00 | 00:00:00 | |
| EA3IBE | 2026-09-03 23:27:56 | 41.34618 | 2.16541 | 135° | 18km/h | 9108m | 5.0m/s | 0°C | 0% | 0hPa | 0V | 00:00:00 | 00:00:00 | 00:00:00 | |
| EA3GEO | 2026-09-03 23:27:50 | 41.34637 | 2.16525 | 150° | 16km/h | 9084m | 3.1m/s | 0°C | 0% | 0hPa | 0V | 00:00:00 | 00:00:00 | 00:00:00 | |
| EA3IBE | 2026-09-03 23:27:49 | 41.34641 | 2.16523 | 156° | 15km/h | 9080m | 4.5m/s | 0°C | 0% | 0hPa | 0V | 00:00:00 | 00:00:00 | 00:00:00 | |
| EA3GEO | 2026-09-03 23:27:44 | 41.34658 | 2.16506 | 154° | 15km/h | 9059m | 3.5m/s | 0°C | 0% | 0hPa | 0V | 00:00:00 | 00:00:00 | 00:00:00 | |
| EA3IBE | 2026-09-03 23:27:40 | 41.34672 | 2.16494 | 150° | 15km/h | 9042m | 5.2m/s | 0°C | 0% | 0hPa | 0V | 00:00:00 | 00:00:00 | 00:00:00 | |
| EA3GEO | 2026-09-03 23:27:38 | 41.34679 | 2.16489 | 145° | 15km/h | 9035m | 6.2m/s | 0°C | 0% | 0hPa | 0V | 00:00:00 | 00:00:00 | 00:00:00 | |
| EA3IBE | 2026-09-03 23:27:31 | 41.34698 | 2.16462 | 130° | 18km/h | 9007m | 4.1m/s | 0°C | 0% | 0hPa | 0V | 00:00:00 | 00:00:00 | 00:00:00 | |
| EA3GEO | 2026-09-03 23:27:28 | 41.34706 | 2.16449 | 132° | 18km/h | 8996m | 5.0m/s | 0°C | 0% | 0hPa | 0V | 00:00:00 | 00:00:00 | 00:00:00 | |
| EA3IBE | 2026-09-03 23:27:25 | 41.34716 | 2.16440 | 167° | 13km/h | 8984m | 4.4m/s | 0°C | 0% | 0hPa | 0V | 00:00:00 | 00:00:00 | 00:00:00 | |
| EA3GEO | 2026-09-03 23:27:22 | 41.34724 | 2.16434 | 151° | 13km/h | 8972m | 3.9m/s | 0°C | 0% | 0hPa | 0V | 00:00:00 | 00:00:00 | 00:00:00 | |
| EA3IBE | 2026-09-03 23:27:18 | 41.34736 | 2.16424 | 152° | 18km/h | 8954m | 5.5m/s | 0°C | 0% | 0hPa | 0V | 00:00:00 | 00:00:00 | 00:00:00 | |
| EA3GEO | 2026-09-03 23:27:16 | 41.34743 | 2.16418 | 140° | 18km/h | 8945m | 4.5m/s | 0°C | 0% | 0hPa | 0V | 00:00:00 | 00:00:00 | 00:00:00 | |
| EA3IBE | 2026-09-03 23:27:12 | 41.34753 | 2.16404 | 154° | 15km/h | 8930m | 2.8m/s | 0°C | 0% | 0hPa | 0V | 00:00:00 | 00:00:00 | 00:00:00 | |
| EA3GEO | 2026-09-03 23:27:10 | 41.34759 | 2.16400 | 142° | 13km/h | 8922m | 3.7m/s | 0°C | 0% | 0hPa | 0V | 00:00:00 | 00:00:00 | 00:00:00 | |
| EA3IBE | 2026-09-03 23:27:06 | 41.34771 | 2.16386 | 130° | 18km/h | 8907m | 3.1m/s | 0°C | 0% | 0hPa | 0V | 00:00:00 | 00:00:00 | 00:00:00 | |
| EA3GEO | 2026-09-03 23:27:04 | 41.34777 | 2.16377 | 132° | 15km/h | 8900m | 3.4m/s | 0°C | 0% | 0hPa | 0V | 00:00:00 | 00:00:00 | 00:00:00 | |
| EA3IBE | 2026-09-03 23:27:00 | 41.34785 | 2.16365 | 152° | 15km/h | 8883m | 4.1m/s | 0°C | 0% | 0hPa | 0V | 00:00:00 | 00:00:00 | 00:00:00 | |
| EA3GEO | 2026-09-03 23:26:59 | 41.34788 | 2.16362 | 151° | 16km/h | 8879m | 2.9m/s | 0°C | 0% | 0hPa | 0V | 00:00:00 | 00:00:00 | 00:00:00 | |
| EA3IBE | 2026-09-03 23:26:55 | 41.34803 | 2.16351 | 151° | 16km/h | 8863m | 4.5m/s | 0°C | 0% | 0hPa | 0V | 00:00:00 | 00:00:00 | 00:00:00 | |
| EA3GEO | 2026-09-03 23:26:53 | 41.34808 | 2.16345 | 111° | 13km/h | 8854m | 4.9m/s | 0°C | 0% | 0hPa | 0V | 00:00:00 | 00:00:00 | 00:00:00 | |
| EA3IBE | 2026-09-03 23:26:49 | 41.34816 | 2.16330 | 150° | 18km/h | 8838m | 4.6m/s | 0°C | 0% | 0hPa | 0V | 00:00:00 | 00:00:00 | 00:00:00 | |
| EA3GEO | 2026-09-03 23:26:47 | 41.34823 | 2.16323 | 134° | 15km/h | 8830m | 5.3m/s | 0°C | 0% | 0hPa | 0V | 00:00:00 | 00:00:00 | 00:00:00 | |
| EA3IBE | 2026-09-03 23:26:44 | 41.34830 | 2.16312 | 135° | 15km/h | 8817m | 4.9m/s | 0°C | 0% | 0hPa | 0V | 00:00:00 | 00:00:00 | 00:00:00 | |
| EA3GEO | 2026-09-03 23:26:42 | 41.34834 | 2.16304 | 117° | 15km/h | 8808m | 5.6m/s | 0°C | 0% | 0hPa | 0V | 00:00:00 | 00:00:00 | 00:00:00 | |
| EA3IBE | 2026-09-03 23:26:38 | 41.34842 | 2.16282 | 125° | 18km/h | 8790m | 5.6m/s | 0°C | 0% | 0hPa | 0V | 00:00:00 | 00:00:00 | 00:00:00 | |
| EA3GEO | 2026-09-03 23:26:37 | 41.34844 | 2.16277 | 118° | 18km/h | 8786m | 3.8m/s | 0°C | 0% | 0hPa | 0V | 00:00:00 | 00:00:00 | 00:00:00 | |
| EA3GEO | 2026-09-03 23:26:32 | 41.34857 | 2.16244 | 117° | 16km/h | 8766m | 5.2m/s | 0°C | 0% | 0hPa | 0V | 00:00:00 | 00:00:00 | 00:00:00 | |
| EA3IBE | 2026-09-03 23:26:26 | 41.34870 | 2.16210 | 111° | 24km/h | 8742m | 4.9m/s | 0°C | 0% | 0hPa | 0V | 00:00:00 | 00:00:00 | 00:00:00 | |
| EA3IBE | 2026-09-03 23:26:21 | 41.34882 | 2.16180 | 106° | 13km/h | 8722m | 4.0m/s | 0°C | 0% | 0hPa | 0V | 00:00:00 | 00:00:00 | 00:00:00 | |
| EA3GEO | 2026-09-03 23:26:20 | 41.34882 | 2.16176 | 103° | 13km/h | 8717m | 6.5m/s | 0°C | 0% | 0hPa | 0V | 00:00:00 | 00:00:00 | 00:00:00 | |
| EA3IBE | 2026-09-03 23:26:15 | 41.34892 | 2.16148 | 120° | 26km/h | 8696m | 5.1m/s | 0°C | 0% | 0hPa | 0V | 00:00:00 | 00:00:00 | 00:00:00 | |
| EA3GEO | 2026-09-03 23:26:14 | 41.34895 | 2.16141 | 128° | 26km/h | 8692m | 4.5m/s | 0°C | 0% | 0hPa | 0V | 00:00:00 | 00:00:00 | 00:00:00 | |
| EA3IBE | 2026-09-03 23:26:10 | 41.34905 | 2.16119 | 100° | 13km/h | 8675m | 4.1m/s | 0°C | 0% | 0hPa | 0V | 00:00:00 | 00:00:00 | 00:00:00 | |
| EA3GEO | 2026-09-03 23:26:08 | 41.34906 | 2.16111 | 110° | 15km/h | 8667m | 5.2m/s | 0°C | 0% | 0hPa | 0V | 00:00:00 | 00:00:00 | 00:00:00 | |
| EA3IBE | 2026-09-03 23:26:04 | 41.34914 | 2.16087 | 119° | 18km/h | 8651m | 3.8m/s | 0°C | 0% | 0hPa | 0V | 00:00:00 | 00:00:00 | 00:00:00 | |
| EA3GEO | 2026-09-03 23:26:02 | 41.34918 | 2.16075 | 114° | 20km/h | 8643m | 4.6m/s | 0°C | 0% | 0hPa | 0V | 00:00:00 | 00:00:00 | 00:00:00 | |
| EA3IBE | 2026-09-03 23:25:58 | 41.34925 | 2.16054 | 110° | 18km/h | 8624m | 6.1m/s | 0°C | 0% | 0hPa | 0V | 00:00:00 | 00:00:00 | 00:00:00 | |
| EA3GEO | 2026-09-03 23:25:56 | 41.34929 | 2.16043 | 122° | 18km/h | 8614m | 5.4m/s | 0°C | 0% | 0hPa | 0V | 00:00:00 | 00:00:00 | 00:00:00 | |
| EA3IBE | 2026-09-03 23:25:52 | 41.34939 | 2.16020 | 119° | 20km/h | 8601m | 4.2m/s | 0°C | 0% | 0hPa | 0V | 00:00:00 | 00:00:00 | 00:00:00 | |
| EA3GEO | 2026-09-03 23:25:50 | 41.34945 | 2.16009 | 131° | 18km/h | 8594m | 3.2m/s | 0°C | 0% | 0hPa | 0V | 00:00:00 | 00:00:00 | 00:00:00 | |
| EA3IBE | 2026-09-03 23:25:47 | 41.34954 | 2.15995 | 135° | 18km/h | 8584m | 3.7m/s | 0°C | 0% | 0hPa | 0V | 00:00:00 | 00:00:00 | 00:00:00 | |
| EA3GEO | 2026-09-03 23:25:45 | 41.34958 | 2.15986 | 105° | 20km/h | 8577m | 6.2m/s | 0°C | 0% | 0hPa | 0V | 00:00:00 | 00:00:00 | 00:00:00 | |
| EA3IBE | 2026-09-03 23:25:41 | 41.34966 | 2.15957 | 120° | 18km/h | 8561m | 3.7m/s | 0°C | 0% | 0hPa | 0V | 00:00:00 | 00:00:00 | 00:00:00 | |
| EA3GEO | 2026-09-03 23:25:39 | 41.34969 | 2.15947 | 110° | 13km/h | 8552m | 4.8m/s | 0°C | 0% | 0hPa | 0V | 00:00:00 | 00:00:00 | 00:00:00 | |
| EA3IBE | 2026-09-03 23:25:36 | 41.34973 | 2.15932 | 117° | 20km/h | 8538m | 3.5m/s | 0°C | 0% | 0hPa | 0V | 00:00:00 | 00:00:00 | 00:00:00 | |
| EA3GEO | 2026-09-03 23:25:34 | 41.34978 | 2.15922 | 129° | 18km/h | 8529m | 5.3m/s | 0°C | 0% | 0hPa | 0V | 00:00:00 | 00:00:00 | 00:00:00 | |
| EA3IBE | 2026-09-03 23:25:30 | 41.34989 | 2.15901 | 123° | 22km/h | 8515m | 3.4m/s | 0°C | 0% | 0hPa | 0V | 00:00:00 | 00:00:00 | 00:00:00 | |
| EA3GEO | 2026-09-03 23:25:29 | 41.34992 | 2.15895 | 120° | 20km/h | 8511m | 4.8m/s | 0°C | 0% | 0hPa | 0V | 00:00:00 | 00:00:00 | 00:00:00 | |
| EA3IBE | 2026-09-03 23:25:24 | 41.35000 | 2.15868 | 105° | 18km/h | 8491m | 5.7m/s | 0°C | 0% | 0hPa | 0V | 00:00:00 | 00:00:00 | 00:00:00 | |
| EA3GEO | 2026-09-03 23:25:23 | 41.35001 | 2.15862 | 114° | 16km/h | 8486m | 4.1m/s | 0°C | 0% | 0hPa | 0V | 00:00:00 | 00:00:00 | 00:00:00 | |
| EA3IBE | 2026-09-03 23:25:18 | 41.35010 | 2.15832 | 107° | 15km/h | 8466m | 4.0m/s | 0°C | 0% | 0hPa | 0V | 00:00:00 | 00:00:00 | 00:00:00 | |
| EA3GEO | 2026-09-03 23:25:17 | 41.35011 | 2.15827 | 110° | 15km/h | 8462m | 5.1m/s | 0°C | 0% | 0hPa | 0V | 00:00:00 | 00:00:00 | 00:00:00 | |
| EA3IBE | 2026-09-03 23:25:13 | 41.35016 | 2.15806 | 109° | 18km/h | 8446m | 4.1m/s | 0°C | 0% | 0hPa | 0V | 00:00:00 | 00:00:00 | 00:00:00 | |
| EA3GEO | 2026-09-03 23:25:11 | 41.35021 | 2.15794 | 125° | 24km/h | 8438m | 2.5m/s | 0°C | 0% | 0hPa | 0V | 00:00:00 | 00:00:00 | 00:00:00 | |
| EA3IBE | 2026-09-03 23:25:07 | 41.35028 | 2.15764 | 103° | 22km/h | 8424m | 3.5m/s | 0°C | 0% | 0hPa | 0V | 00:00:00 | 00:00:00 | 00:00:00 | |
| EA3GEO | 2026-09-03 23:25:05 | 41.35030 | 2.15750 | 95° | 24km/h | 8416m | 4.8m/s | 0°C | 0% | 0hPa | 0V | 00:00:00 | 00:00:00 | 00:00:00 | |
| EA3IBE | 2026-09-03 23:25:01 | 41.35037 | 2.15728 | 126° | 18km/h | 8402m | 4.9m/s | 0°C | 0% | 0hPa | 0V | 00:00:00 | 00:00:00 | 00:00:00 | |
| EA3GEO | 2026-09-03 23:24:59 | 41.35042 | 2.15716 | 116° | 24km/h | 8394m | 4.2m/s | 0°C | 0% | 0hPa | 0V | 00:00:00 | 00:00:00 | 00:00:00 | |
| EA3IBE | 2026-09-03 23:24:56 | 41.35048 | 2.15694 | 108° | 24km/h | 8380m | 5.1m/s | 0°C | 0% | 0hPa | 0V | 00:00:00 | 00:00:00 | 00:00:00 | |
| EA3GEO | 2026-09-03 23:24:53 | 41.35054 | 2.15673 | 111° | 20km/h | 8368m | 3.3m/s | 0°C | 0% | 0hPa | 0V | 00:00:00 | 00:00:00 | 00:00:00 | |
| EA3IBE | 2026-09-03 23:24:50 | 41.35056 | 2.15655 | 103° | 18km/h | 8358m | 4.9m/s | 0°C | 0% | 0hPa | 0V | 00:00:00 | 00:00:00 | 00:00:00 | |
| EA3GEO | 2026-09-03 23:24:48 | 41.35060 | 2.15643 | 117° | 22km/h | 8350m | 4.1m/s | 0°C | 0% | 0hPa | 0V | 00:00:00 | 00:00:00 | 00:00:00 | |
| EA3IBE | 2026-09-03 23:24:44 | 41.35068 | 2.15617 | 115° | 18km/h | 8334m | 4.8m/s | 0°C | 0% | 0hPa | 0V | 00:00:00 | 00:00:00 | 00:00:00 | |
| EA3GEO | 2026-09-03 23:24:42 | 41.35072 | 2.15605 | 113° | 20km/h | 8327m | 5.2m/s | 0°C | 0% | 0hPa | 0V | 00:00:00 | 00:00:00 | 00:00:00 | |
| EA3IBE | 2026-09-03 23:24:38 | 41.35080 | 2.15576 | 121° | 22km/h | 8312m | 3.5m/s | 0°C | 0% | 0hPa | 0V | 00:00:00 | 00:00:00 | 00:00:00 | |
| EA3GEO | 2026-09-03 23:24:36 | 41.35084 | 2.15562 | 104° | 24km/h | 8304m | 3.1m/s | 0°C | 0% | 0hPa | 0V | 00:00:00 | 00:00:00 | 00:00:00 | |
| EA3IBE | 2026-09-03 23:24:33 | 41.35089 | 2.15540 | 119° | 20km/h | 8294m | 4.4m/s | 0°C | 0% | 0hPa | 0V | 00:00:00 | 00:00:00 | 00:00:00 | |
| EA3GEO | 2026-09-03 23:24:31 | 41.35092 | 2.15527 | 104° | 20km/h | 8286m | 2.8m/s | 0°C | 0% | 0hPa | 0V | 00:00:00 | 00:00:00 | 00:00:00 | |
| EA3IBE | 2026-09-03 23:24:27 | 41.35101 | 2.15500 | 111° | 20km/h | 8272m | 4.0m/s | 0°C | 0% | 0hPa | 0V | 00:00:00 | 00:00:00 | 00:00:00 | |
| EA3GEO | 2026-09-03 23:24:25 | 41.35105 | 2.15487 | 124° | 22km/h | 8264m | 4.7m/s | 0°C | 0% | 0hPa | 0V | 00:00:00 | 00:00:00 | 00:00:00 | |
| EA3IBE | 2026-09-03 23:24:22 | 41.35114 | 2.15470 | 118° | 16km/h | 8253m | 3.6m/s | 0°C | 0% | 0hPa | 0V | 00:00:00 | 00:00:00 | 00:00:00 | |
| EA3GEO | 2026-09-03 23:24:20 | 41.35118 | 2.15459 | 115° | 22km/h | 8246m | 3.8m/s | 0°C | 0% | 0hPa | 0V | 00:00:00 | 00:00:00 | 00:00:00 | |
| EA3IBE | 2026-09-03 23:24:17 | 41.35124 | 2.15436 | 103° | 24km/h | 8236m | 4.3m/s | 0°C | 0% | 0hPa | 0V | 00:00:00 | 00:00:00 | 00:00:00 | |
| EA3GEO | 2026-09-03 23:24:15 | 41.35128 | 2.15422 | 119° | 22km/h | 8229m | 5.3m/s | 0°C | 0% | 0hPa | 0V | 00:00:00 | 00:00:00 | 00:00:00 | |
| EA3IBE | 2026-09-03 23:24:12 | 41.35135 | 2.15403 | 113° | 18km/h | 8218m | 3.0m/s | 0°C | 0% | 0hPa | 0V | 00:00:00 | 00:00:00 | 00:00:00 | |
| EA3GEO | 2026-09-03 23:24:09 | 41.35143 | 2.15384 | 141° | 24km/h | 8207m | 5.9m/s | 0°C | 0% | 0hPa | 0V | 00:00:00 | 00:00:00 | 00:00:00 | |
| EA3IBE | 2026-09-03 23:24:06 | 41.35152 | 2.15364 | 118° | 24km/h | 8195m | 4.3m/s | 0°C | 0% | 0hPa | 0V | 00:00:00 | 00:00:00 | 00:00:00 | |
| EA3GEO | 2026-09-03 23:24:03 | 41.35162 | 2.15345 | 118° | 22km/h | 8182m | 4.6m/s | 0°C | 0% | 0hPa | 0V | 00:00:00 | 00:00:00 | 00:00:00 | |
| EA3IBE | 2026-09-03 23:24:01 | 41.35167 | 2.15333 | 136° | 24km/h | 8174m | 3.5m/s | 0°C | 0% | 0hPa | 0V | 00:00:00 | 00:00:00 | 00:00:00 | |
| EA3GEO | 2026-09-03 23:23:58 | 41.35176 | 2.15317 | 122° | 18km/h | 8163m | 3.7m/s | 0°C | 0% | 0hPa | 0V | 00:00:00 | 00:00:00 | 00:00:00 | |
| EA3IBE | 2026-09-03 23:23:57 | 41.35180 | 2.15305 | 117° | 22km/h | 8154m | 3.8m/s | 0°C | 0% | 0hPa | 0V | 00:00:00 | 00:00:00 | 00:00:00 | |
| EA3GEO | 2026-09-03 23:23:52 | 41.35189 | 2.15278 | 120° | 24km/h | 8140m | 4.7m/s | 0°C | 0% | 0hPa | 0V | 00:00:00 | 00:00:00 | 00:00:00 | |
| EA3GEO | 2026-09-03 23:23:47 | 41.35206 | 2.15253 | 136° | 18km/h | 8122m | 5.1m/s | 0°C | 0% | 0hPa | 0V | 00:00:00 | 00:00:00 | 00:00:00 | |
| EA3IBE | 2026-09-03 23:23:45 | 41.35214 | 2.15242 | 133° | 24km/h | 8114m | 2.8m/s | 0°C | 0% | 0hPa | 0V | 00:00:00 | 00:00:00 | 00:00:00 | |
| EA3GEO | 2026-09-03 23:23:41 | 41.35228 | 2.15219 | 127° | 24km/h | 8100m | 4.7m/s | 0°C | 0% | 0hPa | 0V | 00:00:00 | 00:00:00 | 00:00:00 | |
| EA3IBE | 2026-09-03 23:23:39 | 41.35236 | 2.15207 | 138° | 22km/h | 8092m | 4.8m/s | 0°C | 0% | 0hPa | 0V | 00:00:00 | 00:00:00 | 00:00:00 | |
| EA3GEO | 2026-09-03 23:23:36 | 41.35248 | 2.15194 | 138° | 24km/h | 8080m | 4.5m/s | 0°C | 0% | 0hPa | 0V | 00:00:00 | 00:00:00 | 00:00:00 | |
| EA3IBE | 2026-09-03 23:23:33 | 41.35261 | 2.15178 | 137° | 20km/h | 8069m | 3.6m/s | 0°C | 0% | 0hPa | 0V | 00:00:00 | 00:00:00 | 00:00:00 | |
| EA3GEO | 2026-09-03 23:23:30 | 41.35273 | 2.15163 | 139° | 22km/h | 8056m | 4.7m/s | 0°C | 0% | 0hPa | 0V | 00:00:00 | 00:00:00 | 00:00:00 | |
| EA3IBE | 2026-09-03 23:23:27 | 41.35285 | 2.15149 | 150° | 24km/h | 8044m | 4.7m/s | 0°C | 0% | 0hPa | 0V | 00:00:00 | 00:00:00 | 00:00:00 | |
| EA3GEO | 2026-09-03 23:23:24 | 41.35300 | 2.15136 | 140° | 18km/h | 8032m | 4.5m/s | 0°C | 0% | 0hPa | 0V | 00:00:00 | 00:00:00 | 00:00:00 | |
| EA3IBE | 2026-09-03 23:23:22 | 41.35305 | 2.15129 | 132° | 13km/h | 8024m | 5.6m/s | 0°C | 0% | 0hPa | 0V | 00:00:00 | 00:00:00 | 00:00:00 | |
| EA3GEO | 2026-09-03 23:23:18 | 41.35321 | 2.15118 | 155° | 26km/h | 8008m | 3.6m/s | 0°C | 0% | 0hPa | 0V | 00:00:00 | 00:00:00 | 00:00:00 | |
| EA3IBE | 2026-09-03 23:23:16 | 41.35334 | 2.15111 | 160° | 24km/h | 8000m | 4.4m/s | 0°C | 0% | 0hPa | 0V | 00:00:00 | 00:00:00 | 00:00:00 | |
| EA3GEO | 2026-09-03 23:23:12 | 41.35348 | 2.15099 | 137° | 13km/h | 7983m | 4.0m/s | 0°C | 0% | 0hPa | 0V | 00:00:00 | 00:00:00 | 00:00:00 | |
| EA3IBE | 2026-09-03 23:23:11 | 41.35351 | 2.15097 | 160° | 11km/h | 7979m | 4.2m/s | 0°C | 0% | 0hPa | 0V | 00:00:00 | 00:00:00 | 00:00:00 | |
| EA3GEO | 2026-09-03 23:23:06 | 41.35379 | 2.15080 | 144° | 26km/h | 7962m | 4.9m/s | 0°C | 0% | 0hPa | 0V | 00:00:00 | 00:00:00 | 00:00:00 | |
| EA3IBE | 2026-09-03 23:23:05 | 41.35383 | 2.15075 | 137° | 18km/h | 7958m | 4.6m/s | 0°C | 0% | 0hPa | 0V | 00:00:00 | 00:00:00 | 00:00:00 | |
| EA3GEO | 2026-09-03 23:23:00 | 41.35398 | 2.15057 | 151° | 26km/h | 7932m | 6.0m/s | 0°C | 0% | 0hPa | 0V | 00:00:00 | 00:00:00 | 00:00:00 | |
| EA3IBE | 2026-09-03 23:22:59 | 41.35404 | 2.15053 | 162° | 22km/h | 7927m | 5.7m/s | 0°C | 0% | 0hPa | 0V | 00:00:00 | 00:00:00 | 00:00:00 | |
| EA3IBE | 2026-09-03 23:22:54 | 41.35419 | 2.15036 | 130° | 15km/h | 7896m | 5.0m/s | 0°C | 0% | 0hPa | 0V | 00:00:00 | 00:00:00 | 00:00:00 | |
| EA3GEO | 2026-09-03 23:22:49 | 41.35442 | 2.15018 | 159° | 27km/h | 7870m | 4.4m/s | 0°C | 0% | 0hPa | 0V | 00:00:00 | 00:00:00 | 00:00:00 | |
| EA3IBE | 2026-09-03 23:22:48 | 41.35448 | 2.15014 | 152° | 27km/h | 7865m | 3.1m/s | 0°C | 0% | 0hPa | 0V | 00:00:00 | 00:00:00 | 00:00:00 | |
| EA3IBE | 2026-09-03 23:22:43 | 41.35475 | 2.14989 | 145° | 24km/h | 7839m | 4.0m/s | 0°C | 0% | 0hPa | 0V | 00:00:00 | 00:00:00 | 00:00:00 | |
| EA3IBE | 2026-09-03 23:22:38 | 41.35497 | 2.14971 | 150° | 15km/h | 7808m | 5.1m/s | 0°C | 0% | 0hPa | 0V | 00:00:00 | 00:00:00 | 00:00:00 | |
| EA3GEO | 2026-09-03 23:22:37 | 41.35501 | 2.14969 | 174° | 15km/h | 7803m | 4.0m/s | 0°C | 0% | 0hPa | 0V | 00:00:00 | 00:00:00 | 00:00:00 | |
| EA3IBE | 2026-09-03 23:22:33 | 41.35513 | 2.14964 | 143° | 16km/h | 7785m | 3.4m/s | 0°C | 0% | 0hPa | 0V | 00:00:00 | 00:00:00 | 00:00:00 | |
| EA3GEO | 2026-09-03 23:22:32 | 41.35516 | 2.14961 | 143° | 18km/h | 7780m | 5.2m/s | 0°C | 0% | 0hPa | 0V | 00:00:00 | 00:00:00 | 00:00:00 | |
| EA3IBE | 2026-09-03 23:22:27 | 41.35533 | 2.14935 | 131° | 20km/h | 7756m | 4.8m/s | 0°C | 0% | 0hPa | 0V | 00:00:00 | 00:00:00 | 00:00:00 | |
| EA3GEO | 2026-09-03 23:22:26 | 41.35536 | 2.14931 | 150° | 18km/h | 7752m | 5.4m/s | 0°C | 0% | 0hPa | 0V | 00:00:00 | 00:00:00 | 00:00:00 | |
| EA3IBE | 2026-09-03 23:22:21 | 41.35560 | 2.14912 | 130° | 26km/h | 7727m | 7.6m/s | 0°C | 0% | 0hPa | 0V | 00:00:00 | 00:00:00 | 00:00:00 | |
| EA3GEO | 2026-09-03 23:22:20 | 41.35564 | 2.14905 | 135° | 24km/h | 7722m | 6.0m/s | 0°C | 0% | 0hPa | 0V | 00:00:00 | 00:00:00 | 00:00:00 | |
| EA3GEO | 2026-09-03 23:22:14 | 41.35584 | 2.14872 | 145° | 16km/h | 7695m | 9.9m/s | 0°C | 0% | 0hPa | 0V | 00:00:00 | 00:00:00 | 00:00:00 | |
| EA3IBE | 2026-09-03 23:22:08 | 41.35611 | 2.14864 | 161° | 20km/h | 7658m | 9.0m/s | 0°C | 0% | 0hPa | 0V | 00:00:00 | 00:00:00 | 00:00:00 | |
| EA3IBE | 2026-09-03 23:22:03 | 41.35632 | 2.14847 | 142° | 18km/h | 7628m | 7.2m/s | 0°C | 0% | 0hPa | 0V | 00:00:00 | 00:00:00 | 00:00:00 | |
| EA3GEO | 2026-09-03 23:21:58 | 41.35654 | 2.14828 | 160° | 27km/h | 7594m | 8.5m/s | 0°C | 0% | 0hPa | 0V | 00:00:00 | 00:00:00 | 00:00:00 | |
| EA3IBE | 2026-09-03 23:21:57 | 41.35660 | 2.14825 | 166° | 22km/h | 7588m | 7.0m/s | 0°C | 0% | 0hPa | 0V | 00:00:00 | 00:00:00 | 00:00:00 | |
| EA3GEO | 2026-09-03 23:21:53 | 41.35678 | 2.14814 | 166° | 16km/h | 7563m | 6.3m/s | 0°C | 0% | 0hPa | 0V | 00:00:00 | 00:00:00 | 00:00:00 | |
| EA3IBE | 2026-09-03 23:21:51 | 41.35686 | 2.14810 | 153° | 22km/h | 7551m | 7.0m/s | 0°C | 0% | 0hPa | 0V | 00:00:00 | 00:00:00 | 00:00:00 | |
| EA3GEO | 2026-09-03 23:21:47 | 41.35703 | 2.14790 | 145° | 22km/h | 7524m | 5.8m/s | 0°C | 0% | 0hPa | 0V | 00:00:00 | 00:00:00 | 00:00:00 | |
| EA3IBE | 2026-09-03 23:21:45 | 41.35712 | 2.14782 | 153° | 24km/h | 7511m | 4.3m/s | 0°C | 0% | 0hPa | 0V | 00:00:00 | 00:00:00 | 00:00:00 | |
| EA3GEO | 2026-09-03 23:21:41 | 41.35732 | 2.14769 | 142° | 20km/h | 7484m | 6.2m/s | 0°C | 0% | 0hPa | 0V | 00:00:00 | 00:00:00 | 00:00:00 | |
| EA3IBE | 2026-09-03 23:21:40 | 41.35736 | 2.14766 | 160° | 16km/h | 7477m | 6.7m/s | 0°C | 0% | 0hPa | 0V | 00:00:00 | 00:00:00 | 00:00:00 | |
| EA3GEO | 2026-09-03 23:21:36 | 41.35751 | 2.14752 | 147° | 20km/h | 7456m | 3.1m/s | 0°C | 0% | 0hPa | 0V | 00:00:00 | 00:00:00 | 00:00:00 | |
| EA3IBE | 2026-09-03 23:21:35 | 41.35755 | 2.14748 | 142° | 22km/h | 7450m | 3.3m/s | 0°C | 0% | 0hPa | 0V | 00:00:00 | 00:00:00 | 00:00:00 | |
| EA3IBE | 2026-09-03 23:21:30 | 41.35783 | 2.14730 | 158° | 26km/h | 7422m | 3.7m/s | 0°C | 0% | 0hPa | 0V | 00:00:00 | 00:00:00 | 00:00:00 | |
| EA3IBE | 2026-09-03 23:21:24 | 41.35824 | 2.14701 | 152° | 31km/h | 7393m | 4.3m/s | 0°C | 0% | 0hPa | 0V | 00:00:00 | 00:00:00 | 00:00:00 | |
| EA3IBE | 2026-09-03 23:21:18 | 41.35855 | 2.14677 | 151° | 18km/h | 7357m | 4.8m/s | 0°C | 0% | 0hPa | 0V | 00:00:00 | 00:00:00 | 00:00:00 | |
| EA3GEO | 2026-09-03 23:21:13 | 41.35875 | 2.14658 | 142° | 22km/h | 7335m | 4.2m/s | 0°C | 0% | 0hPa | 0V | 00:00:00 | 00:00:00 | 00:00:00 | |
| EA3IBE | 2026-09-03 23:21:12 | 41.35879 | 2.14653 | 141° | 20km/h | 7330m | 2.9m/s | 0°C | 0% | 0hPa | 0V | 00:00:00 | 00:00:00 | 00:00:00 | |
| EA3IBE | 2026-09-03 23:21:07 | 41.35902 | 2.14634 | 151° | 22km/h | 7309m | 7.6m/s | 0°C | 0% | 0hPa | 0V | 00:00:00 | 00:00:00 | 00:00:00 | |
| EA3IBE | 2026-09-03 23:21:02 | 41.35923 | 2.14614 | 140° | 18km/h | 7281m | 5.5m/s | 0°C | 0% | 0hPa | 0V | 00:00:00 | 00:00:00 | 00:00:00 | |
| EA3GEO | 2026-09-03 23:21:01 | 41.35927 | 2.14612 | 163° | 16km/h | 7276m | 6.9m/s | 0°C | 0% | 0hPa | 0V | 00:00:00 | 00:00:00 | 00:00:00 | |
| EA3GEO | 2026-09-03 23:20:56 | 41.35947 | 2.14593 | 129° | 24km/h | 7241m | 8.7m/s | 0°C | 0% | 0hPa | 0V | 00:00:00 | 00:00:00 | 00:00:00 | |
| EA3IBE | 2026-09-03 23:20:50 | 41.35967 | 2.14563 | 146° | 15km/h | 7208m | 4.4m/s | 0°C | 0% | 0hPa | 0V | 00:00:00 | 00:00:00 | 00:00:00 | |
| EA3IBE | 2026-09-03 23:20:44 | 41.35997 | 2.14540 | 140° | 26km/h | 7176m | 7.4m/s | 0°C | 0% | 0hPa | 0V | 00:00:00 | 00:00:00 | 00:00:00 | |
| EA3IBE | 2026-09-03 23:20:39 | 41.36014 | 2.14513 | 116° | 18km/h | 7149m | 7.6m/s | 0°C | 0% | 0hPa | 0V | 00:00:00 | 00:00:00 | 00:00:00 | |
| EA3GEO | 2026-09-03 23:20:38 | 41.36016 | 2.14508 | 135° | 16km/h | 7145m | 5.4m/s | 0°C | 0% | 0hPa | 0V | 00:00:00 | 00:00:00 | 00:00:00 | |
| EA3GEO | 2026-09-03 23:20:33 | 41.36032 | 2.14490 | 136° | 16km/h | 7120m | 8.5m/s | 0°C | 0% | 0hPa | 0V | 00:00:00 | 00:00:00 | 00:00:00 | |
| EA3IBE | 2026-09-03 23:20:28 | 41.36043 | 2.14460 | 118° | 24km/h | 7086m | 6.7m/s | 0°C | 0% | 0hPa | 0V | 00:00:00 | 00:00:00 | 00:00:00 | |
| EA3IBE | 2026-09-03 23:20:22 | 41.36067 | 2.14421 | 152° | 26km/h | 7043m | 4.5m/s | 0°C | 0% | 0hPa | 0V | 00:00:00 | 00:00:00 | 00:00:00 | |
| EA3IBE | 2026-09-03 23:20:16 | 41.36095 | 2.14390 | 100° | 22km/h | 7014m | 3.1m/s | 0°C | 0% | 0hPa | 0V | 00:00:00 | 00:00:00 | 00:00:00 | |
| EA3IBE | 2026-09-03 23:20:11 | 41.36103 | 2.14360 | 111° | 20km/h | 6992m | 5.8m/s | 0°C | 0% | 0hPa | 0V | 00:00:00 | 00:00:00 | 00:00:00 | |
| EA3GEO | 2026-09-03 23:20:10 | 41.36105 | 2.14353 | 103° | 22km/h | 6987m | 6.7m/s | 0°C | 0% | 0hPa | 0V | 00:00:00 | 00:00:00 | 00:00:00 | |
| EA3IBE | 2026-09-03 23:20:05 | 41.36116 | 2.14316 | 121° | 27km/h | 6963m | 4.6m/s | 0°C | 0% | 0hPa | 0V | 00:00:00 | 00:00:00 | 00:00:00 | |
| EA3GEO | 2026-09-03 23:20:04 | 41.36120 | 2.14308 | 126° | 24km/h | 6959m | 5.1m/s | 0°C | 0% | 0hPa | 0V | 00:00:00 | 00:00:00 | 00:00:00 | |
| EA3IBE | 2026-09-03 23:20:00 | 41.36134 | 2.14287 | 142° | 15km/h | 6937m | 8.6m/s | 0°C | 0% | 0hPa | 0V | 00:00:00 | 00:00:00 | 00:00:00 | |
| EA3GEO | 2026-09-03 23:19:58 | 41.36136 | 2.14282 | 157° | 11km/h | 6923m | 6.9m/s | 0°C | 0% | 0hPa | 0V | 00:00:00 | 00:00:00 | 00:00:00 | |
| EA3IBE | 2026-09-03 23:19:54 | 41.36148 | 2.14269 | 145° | 22km/h | 6896m | 9.2m/s | 0°C | 0% | 0hPa | 0V | 00:00:00 | 00:00:00 | 00:00:00 | |
| EA3GEO | 2026-09-03 23:19:53 | 41.36152 | 2.14265 | 126° | 18km/h | 6887m | 6.7m/s | 0°C | 0% | 0hPa | 0V | 00:00:00 | 00:00:00 | 00:00:00 | |
| EA3IBE | 2026-09-03 23:19:48 | 41.36173 | 2.14237 | 131° | 27km/h | 6857m | 6.9m/s | 0°C | 0% | 0hPa | 0V | 00:00:00 | 00:00:00 | 00:00:00 | |
| EA3GEO | 2026-09-03 23:19:47 | 41.36178 | 2.14231 | 144° | 26km/h | 6850m | 3.9m/s | 0°C | 0% | 0hPa | 0V | 00:00:00 | 00:00:00 | 00:00:00 | |
| EA3IBE | 2026-09-03 23:19:43 | 41.36192 | 2.14208 | 119° | 16km/h | 6828m | 4.9m/s | 0°C | 0% | 0hPa | 0V | 00:00:00 | 00:00:00 | 00:00:00 | |
| EA3GEO | 2026-09-03 23:19:42 | 41.36194 | 2.14204 | 137° | 18km/h | 6824m | 3.6m/s | 0°C | 0% | 0hPa | 0V | 00:00:00 | 00:00:00 | 00:00:00 | |
| EA3GEO | 2026-09-03 23:19:37 | 41.36206 | 2.14196 | 164° | 9km/h | 6799m | 5.3m/s | 0°C | 0% | 0hPa | 0V | 00:00:00 | 00:00:00 | 00:00:00 | |
| EA3IBE | 2026-09-03 23:19:31 | 41.36228 | 2.14175 | 145° | 29km/h | 6760m | 6.2m/s | 0°C | 0% | 0hPa | 0V | 00:00:00 | 00:00:00 | 00:00:00 | |
| EA3GEO | 2026-09-03 23:19:25 | 41.36251 | 2.14157 | 162° | 11km/h | 6722m | 7.1m/s | 0°C | 0% | 0hPa | 0V | 00:00:00 | 00:00:00 | 00:00:00 | |
| EA3IBE | 2026-09-03 23:19:24 | 41.36253 | 2.14156 | 173° | 15km/h | 6714m | 8.0m/s | 0°C | 0% | 0hPa | 0V | 00:00:00 | 00:00:00 | 00:00:00 | |
| EA3GEO | 2026-09-03 23:19:19 | 41.36272 | 2.14137 | 146° | 18km/h | 6685m | 7.5m/s | 0°C | 0% | 0hPa | 0V | 00:00:00 | 00:00:00 | 00:00:00 | |
| EA3IBE | 2026-09-03 23:19:18 | 41.36276 | 2.14134 | 158° | 22km/h | 6676m | 7.8m/s | 0°C | 0% | 0hPa | 0V | 00:00:00 | 00:00:00 | 00:00:00 | |
| EA3GEO | 2026-09-03 23:19:14 | 41.36294 | 2.14122 | 132° | 18km/h | 6653m | 5.6m/s | 0°C | 0% | 0hPa | 0V | 00:00:00 | 00:00:00 | 00:00:00 | |
| EA3IBE | 2026-09-03 23:19:13 | 41.36296 | 2.14119 | 132° | 9km/h | 6646m | 5.4m/s | 0°C | 0% | 0hPa | 0V | 00:00:00 | 00:00:00 | 00:00:00 | |
| EA3GEO | 2026-09-03 23:19:08 | 41.36317 | 2.14113 | 161° | 18km/h | 6622m | 6.8m/s | 0°C | 0% | 0hPa | 0V | 00:00:00 | 00:00:00 | 00:00:00 | |
| EA3IBE | 2026-09-03 23:19:07 | 41.36321 | 2.14111 | 158° | 16km/h | 6617m | 5.3m/s | 0°C | 0% | 0hPa | 0V | 00:00:00 | 00:00:00 | 00:00:00 | |
| EA3GEO | 2026-09-03 23:19:03 | 41.36337 | 2.14100 | 133° | 20km/h | 6597m | 7.4m/s | 0°C | 0% | 0hPa | 0V | 00:00:00 | 00:00:00 | 00:00:00 | |
| EA3IBE | 2026-09-03 23:19:01 | 41.36341 | 2.14092 | 118° | 15km/h | 6586m | 8.6m/s | 0°C | 0% | 0hPa | 0V | 00:00:00 | 00:00:00 | 00:00:00 | |
| EA3GEO | 2026-09-03 23:18:57 | 41.36345 | 2.14087 | 202° | 7km/h | 6562m | 8.4m/s | 0°C | 0% | 0hPa | 0V | 00:00:00 | 00:00:00 | 00:00:00 | |
| EA3IBE | 2026-09-03 23:18:56 | 41.36348 | 2.14086 | 158° | 16km/h | 6555m | 9.0m/s | 0°C | 0% | 0hPa | 0V | 00:00:00 | 00:00:00 | 00:00:00 | |
| EA3GEO | 2026-09-03 23:18:51 | 41.36368 | 2.14067 | 144° | 20km/h | 6526m | 5.5m/s | 0°C | 0% | 0hPa | 0V | 00:00:00 | 00:00:00 | 00:00:00 | |
| EA3IBE | 2026-09-03 23:18:50 | 41.36371 | 2.14063 | 124° | 16km/h | 6521m | 6.1m/s | 0°C | 0% | 0hPa | 0V | 00:00:00 | 00:00:00 | 00:00:00 | |
| EA3GEO | 2026-09-03 23:18:46 | 41.36380 | 2.14049 | 143° | 11km/h | 6497m | 5.1m/s | 0°C | 0% | 0hPa | 0V | 00:00:00 | 00:00:00 | 00:00:00 | |
| EA3IBE | 2026-09-03 23:18:45 | 41.36383 | 2.14046 | 137° | 16km/h | 6491m | 7.0m/s | 0°C | 0% | 0hPa | 0V | 00:00:00 | 00:00:00 | 00:00:00 | |
| EA3IBE | 2026-09-03 23:18:40 | 41.36403 | 2.14030 | 136° | 20km/h | 6464m | 4.3m/s | 0°C | 0% | 0hPa | 0V | 00:00:00 | 00:00:00 | 00:00:00 | |
| EA3IBE | 2026-09-03 23:18:34 | 41.36411 | 2.14014 | 125° | 5km/h | 6434m | 8.6m/s | 0°C | 0% | 0hPa | 0V | 00:00:00 | 00:00:00 | 00:00:00 | |
| EA3GEO | 2026-09-03 23:18:28 | 41.36423 | 2.14008 | 142° | 20km/h | 6394m | 7.7m/s | 0°C | 0% | 0hPa | 0V | 00:00:00 | 00:00:00 | 00:00:00 | |
| EA3IBE | 2026-09-03 23:18:23 | 41.36433 | 2.13987 | 117° | 18km/h | 6365m | 6.4m/s | 0°C | 0% | 0hPa | 0V | 00:00:00 | 00:00:00 | 00:00:00 | |
| EA3GEO | 2026-09-03 23:18:22 | 41.36434 | 2.13981 | 104° | 16km/h | 6359m | 5.6m/s | 0°C | 0% | 0hPa | 0V | 00:00:00 | 00:00:00 | 00:00:00 | |
| EA3IBE | 2026-09-03 23:18:17 | 41.36440 | 2.13959 | 142° | 18km/h | 6330m | 7.0m/s | 0°C | 0% | 0hPa | 0V | 00:00:00 | 00:00:00 | 00:00:00 | |
| EA3IBE | 2026-09-03 23:18:12 | 41.36463 | 2.13929 | 114° | 9km/h | 6299m | 5.9m/s | 0°C | 0% | 0hPa | 0V | 00:00:00 | 00:00:00 | 00:00:00 | |
| EA3IBE | 2026-09-03 23:18:06 | 41.36470 | 2.13910 | 127° | 13km/h | 6268m | 6.9m/s | 0°C | 0% | 0hPa | 0V | 00:00:00 | 00:00:00 | 00:00:00 | |
| EA3IBE | 2026-09-03 23:18:00 | 41.36490 | 2.13900 | 161° | 13km/h | 6230m | 6.4m/s | 0°C | 0% | 0hPa | 0V | 00:00:00 | 00:00:00 | 00:00:00 | |
| EA3IBE | 2026-09-03 23:17:54 | 41.36513 | 2.13878 | 140° | 16km/h | 6199m | 4.9m/s | 0°C | 0% | 0hPa | 0V | 00:00:00 | 00:00:00 | 00:00:00 | |
| EA3GEO | 2026-09-03 23:17:49 | 41.36521 | 2.13862 | 125° | 7km/h | 6172m | 5.2m/s | 0°C | 0% | 0hPa | 0V | 00:00:00 | 00:00:00 | 00:00:00 | |
| EA3IBE | 2026-09-03 23:17:48 | 41.36523 | 2.13860 | 146° | 9km/h | 6167m | 6.4m/s | 0°C | 0% | 0hPa | 0V | 00:00:00 | 00:00:00 | 00:00:00 | |
| EA3GEO | 2026-09-03 23:17:44 | 41.36530 | 2.13852 | 147° | 11km/h | 6143m | 6.5m/s | 0°C | 0% | 0hPa | 0V | 00:00:00 | 00:00:00 | 00:00:00 | |
| EA3IBE | 2026-09-03 23:17:42 | 41.36534 | 2.13846 | 138° | 15km/h | 6132m | 5.8m/s | 0°C | 0% | 0hPa | 0V | 00:00:00 | 00:00:00 | 00:00:00 | |
| EA3GEO | 2026-09-03 23:17:38 | 41.36547 | 2.13836 | 134° | 11km/h | 6111m | 6.1m/s | 0°C | 0% | 0hPa | 0V | 00:00:00 | 00:00:00 | 00:00:00 | |
| EA3IBE | 2026-09-03 23:17:36 | 41.36551 | 2.13830 | 147° | 18km/h | 6097m | 8.4m/s | 0°C | 0% | 0hPa | 0V | 00:00:00 | 00:00:00 | 00:00:00 | |
| EA3GEO | 2026-09-03 23:17:32 | 41.36560 | 2.13821 | 129° | 5km/h | 6063m | 5.6m/s | 0°C | 0% | 0hPa | 0V | 00:00:00 | 00:00:00 | 00:00:00 | |
| EA3IBE | 2026-09-03 23:17:31 | 41.36562 | 2.13819 | 130° | 7km/h | 6057m | 3.8m/s | 0°C | 0% | 0hPa | 0V | 00:00:00 | 00:00:00 | 00:00:00 | |
| EA3GEO | 2026-09-03 23:17:27 | 41.36568 | 2.13807 | 154° | 9km/h | 6037m | 4.8m/s | 0°C | 0% | 0hPa | 0V | 00:00:00 | 00:00:00 | 00:00:00 | |
| EA3IBE | 2026-09-03 23:17:25 | 41.36574 | 2.13803 | 164° | 13km/h | 6022m | 5.6m/s | 0°C | 0% | 0hPa | 0V | 00:00:00 | 00:00:00 | 00:00:00 | |
| EA3GEO | 2026-09-03 23:17:21 | 41.36583 | 2.13790 | 124° | 16km/h | 5996m | 5.7m/s | 0°C | 0% | 0hPa | 0V | 00:00:00 | 00:00:00 | 00:00:00 | |
| EA3IBE | 2026-09-03 23:17:19 | 41.36586 | 2.13779 | 98° | 16km/h | 5985m | 3.2m/s | 0°C | 0% | 0hPa | 0V | 00:00:00 | 00:00:00 | 00:00:00 | |
| EA3GEO | 2026-09-03 23:17:16 | 41.36586 | 2.13766 | 95° | 5km/h | 5973m | 3.6m/s | 0°C | 0% | 0hPa | 0V | 00:00:00 | 00:00:00 | 00:00:00 | |
| EA3IBE | 2026-09-03 23:17:14 | 41.36586 | 2.13761 | 110° | 7km/h | 5964m | 4.2m/s | 0°C | 0% | 0hPa | 0V | 00:00:00 | 00:00:00 | 00:00:00 | |
| EA3GEO | 2026-09-03 23:17:10 | 41.36588 | 2.13745 | 113° | 15km/h | 5943m | 6.5m/s | 0°C | 0% | 0hPa | 0V | 00:00:00 | 00:00:00 | 00:00:00 | |
| EA3IBE | 2026-09-03 23:17:09 | 41.36589 | 2.13740 | 132° | 20km/h | 5938m | 7.1m/s | 0°C | 0% | 0hPa | 0V | 00:00:00 | 00:00:00 | 00:00:00 | |
| EA3GEO | 2026-09-03 23:17:04 | 41.36602 | 2.13722 | 71° | 9km/h | 5909m | 4.9m/s | 0°C | 0% | 0hPa | 0V | 00:00:00 | 00:00:00 | 00:00:00 | |
| EA3IBE | 2026-09-03 23:17:03 | 41.36601 | 2.13719 | 65° | 11km/h | 5904m | 4.0m/s | 0°C | 0% | 0hPa | 0V | 00:00:00 | 00:00:00 | 00:00:00 | |
| EA3GEO | 2026-09-03 23:16:59 | 41.36597 | 2.13703 | 139° | 13km/h | 5888m | 5.5m/s | 0°C | 0% | 0hPa | 0V | 00:00:00 | 00:00:00 | 00:00:00 | |
| EA3IBE | 2026-09-03 23:16:57 | 41.36601 | 2.13696 | 124° | 15km/h | 5874m | 7.3m/s | 0°C | 0% | 0hPa | 0V | 00:00:00 | 00:00:00 | 00:00:00 | |
| EA3GEO | 2026-09-03 23:16:53 | 41.36610 | 2.13682 | 128° | 11km/h | 5847m | 4.9m/s | 0°C | 0% | 0hPa | 0V | 00:00:00 | 00:00:00 | 00:00:00 | |
| EA3IBE | 2026-09-03 23:16:52 | 41.36612 | 2.13680 | 123° | 9km/h | 5842m | 4.5m/s | 0°C | 0% | 0hPa | 0V | 00:00:00 | 00:00:00 | 00:00:00 | |
| EA3GEO | 2026-09-03 23:16:47 | 41.36612 | 2.13672 | 141° | 5km/h | 5820m | 4.8m/s | 0°C | 0% | 0hPa | 0V | 00:00:00 | 00:00:00 | 00:00:00 | |
| EA3IBE | 2026-09-03 23:16:46 | 41.36614 | 2.13671 | 143° | 11km/h | 5814m | 5.3m/s | 0°C | 0% | 0hPa | 0V | 00:00:00 | 00:00:00 | 00:00:00 | |
| EA3GEO | 2026-09-03 23:16:42 | 41.36624 | 2.13669 | 184° | 11km/h | 5793m | 4.6m/s | 0°C | 0% | 0hPa | 0V | 00:00:00 | 00:00:00 | 00:00:00 | |
| EA3IBE | 2026-09-03 23:16:40 | 41.36629 | 2.13667 | 152° | 11km/h | 5782m | 5.4m/s | 0°C | 0% | 0hPa | 0V | 00:00:00 | 00:00:00 | 00:00:00 | |
| EA3GEO | 2026-09-03 23:16:36 | 41.36637 | 2.13660 | 178° | 11km/h | 5760m | 4.3m/s | 0°C | 0% | 0hPa | 0V | 00:00:00 | 00:00:00 | 00:00:00 | |
| EA3IBE | 2026-09-03 23:16:35 | 41.36640 | 2.13660 | 183° | 11km/h | 5756m | 6.9m/s | 0°C | 0% | 0hPa | 0V | 00:00:00 | 00:00:00 | 00:00:00 | |
| EA3GEO | 2026-09-03 23:16:30 | 41.36651 | 2.13639 | 84° | 18km/h | 5726m | 8.4m/s | 0°C | 0% | 0hPa | 0V | 00:00:00 | 00:00:00 | 00:00:00 | |
| EA3IBE | 2026-09-03 23:16:29 | 41.36651 | 2.13632 | 94° | 20km/h | 5720m | 6.3m/s | 0°C | 0% | 0hPa | 0V | 00:00:00 | 00:00:00 | 00:00:00 | |
| EA3GEO | 2026-09-03 23:16:25 | 41.36651 | 2.13617 | 101° | 9km/h | 5697m | 7.4m/s | 0°C | 0% | 0hPa | 0V | 00:00:00 | 00:00:00 | 00:00:00 | |
| EA3IBE | 2026-09-03 23:16:22 | 41.36655 | 2.13609 | 148° | 13km/h | 5680m | 4.8m/s | 0°C | 0% | 0hPa | 0V | 00:00:00 | 00:00:00 | 00:00:00 | |
| EA3GEO | 2026-09-03 23:16:19 | 41.36663 | 2.13600 | 124° | 16km/h | 5663m | 6.1m/s | 0°C | 0% | 0hPa | 0V | 00:00:00 | 00:00:00 | 00:00:00 | |
| EA3IBE | 2026-09-03 23:16:17 | 41.36669 | 2.13590 | 118° | 20km/h | 5653m | 4.8m/s | 0°C | 0% | 0hPa | 0V | 00:00:00 | 00:00:00 | 00:00:00 | |
| EA3GEO | 2026-09-03 23:16:14 | 41.36675 | 2.13571 | 123° | 24km/h | 5635m | 6.7m/s | 0°C | 0% | 0hPa | 0V | 00:00:00 | 00:00:00 | 00:00:00 | |
| EA3IBE | 2026-09-03 23:16:11 | 41.36680 | 2.13551 | 103° | 16km/h | 5615m | 6.2m/s | 0°C | 0% | 0hPa | 0V | 00:00:00 | 00:00:00 | 00:00:00 | |
| EA3GEO | 2026-09-03 23:16:09 | 41.36681 | 2.13540 | 98° | 16km/h | 5604m | 4.4m/s | 0°C | 0% | 0hPa | 0V | 00:00:00 | 00:00:00 | 00:00:00 | |
| EA3IBE | 2026-09-03 23:16:06 | 41.36682 | 2.13527 | 103° | 16km/h | 5590m | 8.7m/s | 0°C | 0% | 0hPa | 0V | 00:00:00 | 00:00:00 | 00:00:00 | |
| EA3GEO | 2026-09-03 23:16:04 | 41.36685 | 2.13520 | 128° | 16km/h | 5577m | 4.8m/s | 0°C | 0% | 0hPa | 0V | 00:00:00 | 00:00:00 | 00:00:00 | |
| EA3IBE | 2026-09-03 23:16:01 | 41.36695 | 2.13512 | 142° | 16km/h | 5562m | 3.8m/s | 0°C | 0% | 0hPa | 0V | 00:00:00 | 00:00:00 | 00:00:00 | |
| EA3GEO | 2026-09-03 23:15:58 | 41.36701 | 2.13495 | 127° | 15km/h | 5549m | 4.8m/s | 0°C | 0% | 0hPa | 0V | 00:00:00 | 00:00:00 | 00:00:00 | |
| EA3IBE | 2026-09-03 23:15:56 | 41.36705 | 2.13490 | 143° | 2km/h | 5538m | 9.1m/s | 0°C | 0% | 0hPa | 0V | 00:00:00 | 00:00:00 | 00:00:00 | |
| EA3GEO | 2026-09-03 23:15:53 | 41.36712 | 2.13488 | 159° | 16km/h | 5519m | 6.7m/s | 0°C | 0% | 0hPa | 0V | 00:00:00 | 00:00:00 | 00:00:00 | |
| EA3IBE | 2026-09-03 23:15:50 | 41.36728 | 2.13480 | 153° | 22km/h | 5502m | 7.6m/s | 0°C | 0% | 0hPa | 0V | 00:00:00 | 00:00:00 | 00:00:00 | |
| EA3GEO | 2026-09-03 23:15:47 | 41.36740 | 2.13473 | 169° | 13km/h | 5480m | 7.3m/s | 0°C | 0% | 0hPa | 0V | 00:00:00 | 00:00:00 | 00:00:00 | |
| EA3IBE | 2026-09-03 23:15:44 | 41.36753 | 2.13467 | 165° | 20km/h | 5458m | 6.2m/s | 0°C | 0% | 0hPa | 0V | 00:00:00 | 00:00:00 | 00:00:00 | |
| EA3GEO | 2026-09-03 23:15:41 | 41.36767 | 2.13461 | 174° | 18km/h | 5435m | 4.1m/s | 0°C | 0% | 0hPa | 0V | 00:00:00 | 00:00:00 | 00:00:00 | |
| EA3IBE | 2026-09-03 23:15:39 | 41.36775 | 2.13458 | 155° | 16km/h | 5425m | 4.3m/s | 0°C | 0% | 0hPa | 0V | 00:00:00 | 00:00:00 | 00:00:00 | |
| EA3GEO | 2026-09-03 23:15:35 | 41.36790 | 2.13441 | 145° | 29km/h | 5400m | 2.8m/s | 0°C | 0% | 0hPa | 0V | 00:00:00 | 00:00:00 | 00:00:00 | |
| EA3IBE | 2026-09-03 23:15:33 | 41.36806 | 2.13431 | 154° | 33km/h | 5390m | 3.8m/s | 0°C | 0% | 0hPa | 0V | 00:00:00 | 00:00:00 | 00:00:00 | |
| EA3GEO | 2026-09-03 23:15:29 | 41.36834 | 2.13421 | 172° | 24km/h | 5367m | 4.9m/s | 0°C | 0% | 0hPa | 0V | 00:00:00 | 00:00:00 | 00:00:00 | |
| EA3IBE | 2026-09-03 23:15:27 | 41.36843 | 2.13420 | 164° | 15km/h | 5354m | 3.6m/s | 0°C | 0% | 0hPa | 0V | 00:00:00 | 00:00:00 | 00:00:00 | |
| EA3GEO | 2026-09-03 23:15:23 | 41.36859 | 2.13414 | 171° | 24km/h | 5338m | 4.9m/s | 0°C | 0% | 0hPa | 0V | 00:00:00 | 00:00:00 | 00:00:00 | |
| EA3IBE | 2026-09-03 23:15:22 | 41.36865 | 2.13411 | 152° | 24km/h | 5332m | 5.2m/s | 0°C | 0% | 0hPa | 0V | 00:00:00 | 00:00:00 | 00:00:00 | |
| EA3IBE | 2026-09-03 23:15:17 | 41.36887 | 2.13399 | 185° | 20km/h | 5306m | 6.8m/s | 0°C | 0% | 0hPa | 0V | 00:00:00 | 00:00:00 | 00:00:00 | |
| EA3IBE | 2026-09-03 23:15:11 | 41.36916 | 2.13397 | 158° | 22km/h | 5270m | 7.2m/s | 0°C | 0% | 0hPa | 0V | 00:00:00 | 00:00:00 | 00:00:00 | |
| EA3GEO | 2026-09-03 23:15:06 | 41.36943 | 2.13369 | 135° | 26km/h | 5244m | 6.4m/s | 0°C | 0% | 0hPa | 0V | 00:00:00 | 00:00:00 | 00:00:00 | |
| EA3IBE | 2026-09-03 23:15:05 | 41.36948 | 2.13363 | 143° | 33km/h | 5238m | 5.8m/s | 0°C | 0% | 0hPa | 0V | 00:00:00 | 00:00:00 | 00:00:00 | |
| EA3IBE | 2026-09-03 23:15:00 | 41.36975 | 2.13331 | 156° | 22km/h | 5208m | 6.0m/s | 0°C | 0% | 0hPa | 0V | 00:00:00 | 00:00:00 | 00:00:00 | |
| EA3IBE | 2026-09-03 23:14:55 | 41.36996 | 2.13310 | 147° | 20km/h | 5171m | 6.4m/s | 0°C | 0% | 0hPa | 0V | 00:00:00 | 00:00:00 | 00:00:00 | |
| EA3IBE | 2026-09-03 23:14:49 | 41.37025 | 2.13302 | 163° | 13km/h | 5137m | 7.1m/s | 0°C | 0% | 0hPa | 0V | 00:00:00 | 00:00:00 | 00:00:00 | |
| EA3IBE | 2026-09-03 23:14:43 | 41.37052 | 2.13297 | 160° | 13km/h | 5099m | 6.2m/s | 0°C | 0% | 0hPa | 0V | 00:00:00 | 00:00:00 | 00:00:00 | |
| EA3IBE | 2026-09-03 23:14:37 | 41.37071 | 2.13287 | 166° | 15km/h | 5060m | 6.8m/s | 0°C | 0% | 0hPa | 0V | 00:00:00 | 00:00:00 | 00:00:00 | |
| EA3GEO | 2026-09-03 23:14:33 | 41.37087 | 2.13278 | 162° | 20km/h | 5034m | 5.7m/s | 0°C | 0% | 0hPa | 0V | 00:00:00 | 00:00:00 | 00:00:00 | |
| EA3IBE | 2026-09-03 23:14:32 | 41.37092 | 2.13277 | 187° | 20km/h | 5029m | 3.0m/s | 0°C | 0% | 0hPa | 0V | 00:00:00 | 00:00:00 | 00:00:00 | |
| EA3IBE | 2026-09-03 23:14:27 | 41.37108 | 2.13276 | 126° | 9km/h | 5006m | 7.4m/s | 0°C | 0% | 0hPa | 0V | 00:00:00 | 00:00:00 | 00:00:00 | |
| EA3GEO | 2026-09-03 23:14:22 | 41.37125 | 2.13260 | 153° | 27km/h | 4970m | 5.7m/s | 0°C | 0% | 0hPa | 0V | 00:00:00 | 00:00:00 | 00:00:00 | |
| EA3IBE | 2026-09-03 23:14:21 | 41.37130 | 2.13254 | 139° | 29km/h | 4964m | 4.7m/s | 0°C | 0% | 0hPa | 0V | 00:00:00 | 00:00:00 | 00:00:00 | |
| EA3IBE | 2026-09-03 23:14:16 | 41.37146 | 2.13229 | 125° | 11km/h | 4937m | 3.6m/s | 0°C | 0% | 0hPa | 0V | 00:00:00 | 00:00:00 | 00:00:00 | |
| EA3GEO | 2026-09-03 23:14:10 | 41.37164 | 2.13216 | 125° | 20km/h | 4909m | 5.7m/s | 0°C | 0% | 0hPa | 0V | 00:00:00 | 00:00:00 | 00:00:00 | |
| EA3IBE | 2026-09-03 23:14:05 | 41.37166 | 2.13186 | 117° | 11km/h | 4885m | 5.5m/s | 0°C | 0% | 0hPa | 0V | 00:00:00 | 00:00:00 | 00:00:00 | |
| EA3IBE | 2026-09-03 23:14:00 | 41.37183 | 2.13173 | 155° | 22km/h | 4852m | 7.4m/s | 0°C | 0% | 0hPa | 0V | 00:00:00 | 00:00:00 | 00:00:00 | |
| EA3IBE | 2026-09-03 23:13:54 | 41.37210 | 2.13136 | 127° | 20km/h | 4816m | 7.5m/s | 0°C | 0% | 0hPa | 0V | 00:00:00 | 00:00:00 | 00:00:00 | |
| EA3IBE | 2026-09-03 23:13:49 | 41.37221 | 2.13111 | 116° | 26km/h | 4784m | 7.2m/s | 0°C | 0% | 0hPa | 0V | 00:00:00 | 00:00:00 | 00:00:00 | |
| EA3IBE | 2026-09-03 23:13:43 | 41.37251 | 2.13066 | 140° | 35km/h | 4749m | 5.2m/s | 0°C | 0% | 0hPa | 0V | 00:00:00 | 00:00:00 | 00:00:00 | |
| EA3IBE | 2026-09-03 23:13:38 | 41.37281 | 2.13037 | 133° | 9km/h | 4725m | 9.3m/s | 0°C | 0% | 0hPa | 0V | 00:00:00 | 00:00:00 | 00:00:00 | |
| EA3GEO | 2026-09-03 23:13:37 | 41.37283 | 2.13034 | 130° | 11km/h | 4719m | 7.3m/s | 0°C | 0% | 0hPa | 0V | 00:00:00 | 00:00:00 | 00:00:00 | |
| EA3IBE | 2026-09-03 23:13:32 | 41.37300 | 2.13019 | 144° | 18km/h | 4689m | 7.6m/s | 0°C | 0% | 0hPa | 0V | 00:00:00 | 00:00:00 | 00:00:00 | |
| EA3GEO | 2026-09-03 23:13:26 | 41.37328 | 2.13006 | 173° | 26km/h | 4647m | 4.8m/s | 0°C | 0% | 0hPa | 0V | 00:00:00 | 00:00:00 | 00:00:00 | |
| EA3IBE | 2026-09-03 23:13:25 | 41.37334 | 2.13003 | 164° | 26km/h | 4641m | 5.3m/s | 0°C | 0% | 0hPa | 0V | 00:00:00 | 00:00:00 | 00:00:00 | |
| EA3GEO | 2026-09-03 23:13:21 | 41.37359 | 2.12985 | 134° | 29km/h | 4620m | 6.7m/s | 0°C | 0% | 0hPa | 0V | 00:00:00 | 00:00:00 | 00:00:00 | |
| EA3IBE | 2026-09-03 23:13:18 | 41.37371 | 2.12968 | 136° | 22km/h | 4601m | 7.4m/s | 0°C | 0% | 0hPa | 0V | 00:00:00 | 00:00:00 | 00:00:00 | |
| EA3GEO | 2026-09-03 23:13:15 | 41.37384 | 2.12952 | 143° | 22km/h | 4580m | 7.9m/s | 0°C | 0% | 0hPa | 0V | 00:00:00 | 00:00:00 | 00:00:00 | |
| EA3IBE | 2026-09-03 23:13:13 | 41.37397 | 2.12945 | 157° | 27km/h | 4566m | 7.0m/s | 0°C | 0% | 0hPa | 0V | 00:00:00 | 00:00:00 | 00:00:00 | |
| EA3GEO | 2026-09-03 23:13:09 | 41.37419 | 2.12925 | 108° | 20km/h | 4544m | 4.7m/s | 0°C | 0% | 0hPa | 0V | 00:00:00 | 00:00:00 | 00:00:00 | |
| EA3IBE | 2026-09-03 23:13:08 | 41.37421 | 2.12918 | 97° | 24km/h | 4540m | 4.0m/s | 0°C | 0% | 0hPa | 0V | 00:00:00 | 00:00:00 | 00:00:00 | |
| EA3GEO | 2026-09-03 23:13:04 | 41.37432 | 2.12899 | 163° | 20km/h | 4520m | 6.8m/s | 0°C | 0% | 0hPa | 0V | 00:00:00 | 00:00:00 | 00:00:00 | |
| EA3IBE | 2026-09-03 23:13:03 | 41.37436 | 2.12897 | 168° | 15km/h | 4513m | 7.1m/s | 0°C | 0% | 0hPa | 0V | 00:00:00 | 00:00:00 | 00:00:00 | |
| EA3IBE | 2026-09-03 23:12:58 | 41.37451 | 2.12890 | 148° | 13km/h | 4484m | 6.7m/s | 0°C | 0% | 0hPa | 0V | 00:00:00 | 00:00:00 | 00:00:00 | |
| EA3GEO | 2026-09-03 23:12:52 | 41.37468 | 2.12866 | 146° | 15km/h | 4437m | 5.2m/s | 0°C | 0% | 0hPa | 0V | 00:00:00 | 00:00:00 | 00:00:00 | |
| EA3IBE | 2026-09-03 23:12:47 | 41.37477 | 2.12833 | 96° | 20km/h | 4410m | 3.2m/s | 0°C | 0% | 0hPa | 0V | 00:00:00 | 00:00:00 | 00:00:00 | |
| EA3GEO | 2026-09-03 23:12:46 | 41.37478 | 2.12827 | 114° | 15km/h | 4406m | 3.6m/s | 0°C | 0% | 0hPa | 0V | 00:00:00 | 00:00:00 | 00:00:00 | |
| EA3IBE | 2026-09-03 23:12:41 | 41.37494 | 2.12800 | 127° | 27km/h | 4374m | 4.6m/s | 0°C | 0% | 0hPa | 0V | 00:00:00 | 00:00:00 | 00:00:00 | |
| EA3GEO | 2026-09-03 23:12:40 | 41.37497 | 2.12793 | 124° | 20km/h | 4369m | 5.1m/s | 0°C | 0% | 0hPa | 0V | 00:00:00 | 00:00:00 | 00:00:00 | |
| EA3IBE | 2026-09-03 23:12:36 | 41.37502 | 2.12776 | 89° | 13km/h | 4350m | 6.0m/s | 0°C | 0% | 0hPa | 0V | 00:00:00 | 00:00:00 | 00:00:00 | |
| EA3GEO | 2026-09-03 23:12:34 | 41.37501 | 2.12765 | 93° | 16km/h | 4342m | 5.9m/s | 0°C | 0% | 0hPa | 0V | 00:00:00 | 00:00:00 | 00:00:00 | |
| EA3IBE | 2026-09-03 23:12:30 | 41.37511 | 2.12741 | 139° | 24km/h | 4316m | 7.2m/s | 0°C | 0% | 0hPa | 0V | 00:00:00 | 00:00:00 | 00:00:00 | |
| EA3GEO | 2026-09-03 23:12:28 | 41.37517 | 2.12728 | 105° | 20km/h | 4301m | 6.1m/s | 0°C | 0% | 0hPa | 0V | 00:00:00 | 00:00:00 | 00:00:00 | |
| EA3IBE | 2026-09-03 23:12:24 | 41.37523 | 2.12701 | 126° | 22km/h | 4285m | 3.3m/s | 0°C | 0% | 0hPa | 0V | 00:00:00 | 00:00:00 | 00:00:00 | |
| EA3GEO | 2026-09-03 23:12:23 | 41.37527 | 2.12695 | 136° | 29km/h | 4281m | 3.4m/s | 0°C | 0% | 0hPa | 0V | 00:00:00 | 00:00:00 | 00:00:00 | |
| EA3IBE | 2026-09-03 23:12:19 | 41.37537 | 2.12679 | 140° | 5km/h | 4267m | 3.3m/s | 0°C | 0% | 0hPa | 0V | 00:00:00 | 00:00:00 | 00:00:00 | |
| EA3GEO | 2026-09-03 23:12:17 | 41.37538 | 2.12673 | 101° | 13km/h | 4260m | 3.8m/s | 0°C | 0% | 0hPa | 0V | 00:00:00 | 00:00:00 | 00:00:00 | |
| EA3IBE | 2026-09-03 23:12:13 | 41.37549 | 2.12643 | 120° | 38km/h | 4244m | 3.2m/s | 0°C | 0% | 0hPa | 0V | 00:00:00 | 00:00:00 | 00:00:00 | |
| EA3GEO | 2026-09-03 23:12:12 | 41.37553 | 2.12632 | 118° | 35km/h | 4241m | 2.5m/s | 0°C | 0% | 0hPa | 0V | 00:00:00 | 00:00:00 | 00:00:00 | |
| EA3IBE | 2026-09-03 23:12:07 | 41.37572 | 2.12616 | 177° | 13km/h | 4209m | 6.2m/s | 0°C | 0% | 0hPa | 0V | 00:00:00 | 00:00:00 | 00:00:00 | |
| EA3GEO | 2026-09-03 23:12:06 | 41.37576 | 2.12614 | 163° | 18km/h | 4204m | 4.4m/s | 0°C | 0% | 0hPa | 0V | 00:00:00 | 00:00:00 | 00:00:00 | |
| EA3IBE | 2026-09-03 23:12:02 | 41.37589 | 2.12593 | 116° | 26km/h | 4176m | 5.1m/s | 0°C | 0% | 0hPa | 0V | 00:00:00 | 00:00:00 | 00:00:00 | |
| EA3GEO | 2026-09-03 23:12:01 | 41.37591 | 2.12585 | 103° | 24km/h | 4171m | 2.8m/s | 0°C | 0% | 0hPa | 0V | 00:00:00 | 00:00:00 | 00:00:00 | |
| EA3IBE | 2026-09-03 23:11:56 | 41.37602 | 2.12569 | 184° | 16km/h | 4143m | 6.4m/s | 0°C | 0% | 0hPa | 0V | 00:00:00 | 00:00:00 | 00:00:00 | |
| EA3GEO | 2026-09-03 23:11:55 | 41.37607 | 2.12569 | 180° | 27km/h | 4138m | 4.1m/s | 0°C | 0% | 0hPa | 0V | 00:00:00 | 00:00:00 | 00:00:00 | |
| EA3GEO | 2026-09-03 23:11:50 | 41.37638 | 2.12561 | 151° | 20km/h | 4107m | 6.6m/s | 0°C | 0% | 0hPa | 0V | 00:00:00 | 00:00:00 | 00:00:00 | |
| EA3IBE | 2026-09-03 23:11:44 | 41.37664 | 2.12553 | 186° | 29km/h | 4071m | 2.3m/s | 0°C | 0% | 0hPa | 0V | 00:00:00 | 00:00:00 | 00:00:00 | |
| EA3GEO | 2026-09-03 23:11:38 | 41.37687 | 2.12543 | 165° | 15km/h | 4038m | 6.1m/s | 0°C | 0% | 0hPa | 0V | 00:00:00 | 00:00:00 | 00:00:00 | |
| EA3IBE | 2026-09-03 23:11:33 | 41.37703 | 2.12553 | 196° | 13km/h | 4009m | 5.8m/s | 0°C | 0% | 0hPa | 0V | 00:00:00 | 00:00:00 | 00:00:00 | |
| EA3GEO | 2026-09-03 23:11:32 | 41.37706 | 2.12553 | 183° | 13km/h | 4005m | 5.2m/s | 0°C | 0% | 0hPa | 0V | 00:00:00 | 00:00:00 | 00:00:00 | |
| EA3IBE | 2026-09-03 23:11:27 | 41.37717 | 2.12553 | 171° | 7km/h | 3967m | 7.3m/s | 0°C | 0% | 0hPa | 0V | 00:00:00 | 00:00:00 | 00:00:00 | |
| EA3GEO | 2026-09-03 23:11:26 | 41.37719 | 2.12553 | 167° | 4km/h | 3961m | 6.2m/s | 0°C | 0% | 0hPa | 0V | 00:00:00 | 00:00:00 | 00:00:00 | |
| EA3IBE | 2026-09-03 23:11:22 | 41.37723 | 2.12538 | 106° | 9km/h | 3941m | 6.2m/s | 0°C | 0% | 0hPa | 0V | 00:00:00 | 00:00:00 | 00:00:00 | |
| EA3GEO | 2026-09-03 23:11:20 | 41.37727 | 2.12534 | 170° | 2km/h | 3924m | 10.8m/s | 0°C | 0% | 0hPa | 0V | 00:00:00 | 00:00:00 | 00:00:00 | |
| EA3IBE | 2026-09-03 23:11:16 | 41.37731 | 2.12529 | 197° | 4km/h | 3891m | 5.4m/s | 0°C | 0% | 0hPa | 0V | 00:00:00 | 00:00:00 | 00:00:00 | |
| EA3GEO | 2026-09-03 23:11:14 | 41.37733 | 2.12531 | 280° | 5km/h | 3874m | 5.6m/s | 0°C | 0% | 0hPa | 0V | 00:00:00 | 00:00:00 | 00:00:00 | |
| EA3IBE | 2026-09-03 23:11:10 | 41.37738 | 2.12536 | 173° | 15km/h | 3853m | 7.1m/s | 0°C | 0% | 0hPa | 0V | 00:00:00 | 00:00:00 | 00:00:00 | |
| EA3GEO | 2026-09-03 23:11:09 | 41.37742 | 2.12535 | 153° | 9km/h | 3847m | 2.8m/s | 0°C | 0% | 0hPa | 0V | 00:00:00 | 00:00:00 | 00:00:00 | |
| EA3IBE | 2026-09-03 23:11:05 | 41.37747 | 2.12537 | 211° | 9km/h | 3821m | 3.5m/s | 0°C | 0% | 0hPa | 0V | 00:00:00 | 00:00:00 | 00:00:00 | |
| EA3IBE | 2026-09-03 23:10:58 | 41.37761 | 2.12547 | 188° | 11km/h | 3789m | 7.0m/s | 0°C | 0% | 0hPa | 0V | 00:00:00 | 00:00:00 | 00:00:00 | |
| EA3IBE | 2026-09-03 23:10:53 | 41.37775 | 2.12545 | 160° | 13km/h | 3763m | 10.0m/s | 0°C | 0% | 0hPa | 0V | 00:00:00 | 00:00:00 | 00:00:00 | |
| EA3GEO | 2026-09-03 23:10:52 | 41.37777 | 2.12544 | 145° | 7km/h | 3755m | 7.2m/s | 0°C | 0% | 0hPa | 0V | 00:00:00 | 00:00:00 | 00:00:00 | |
| EA3IBE | 2026-09-03 23:10:47 | 41.37775 | 2.12542 | 214° | 5km/h | 3724m | 8.4m/s | 0°C | 0% | 0hPa | 0V | 00:00:00 | 00:00:00 | 00:00:00 | |
| EA3GEO | 2026-09-03 23:10:46 | 41.37777 | 2.12545 | 232° | 15km/h | 3716m | 7.7m/s | 0°C | 0% | 0hPa | 0V | 00:00:00 | 00:00:00 | 00:00:00 | |
| EA3IBE | 2026-09-03 23:10:41 | 41.37784 | 2.12546 | 107° | 9km/h | 3691m | 5.3m/s | 0°C | 0% | 0hPa | 0V | 00:00:00 | 00:00:00 | 00:00:00 | |
| EA3IBE | 2026-09-03 23:10:35 | 41.37784 | 2.12546 | 140° | 4km/h | 3651m | 7.9m/s | 0°C | 0% | 0hPa | 0V | 00:00:00 | 00:00:00 | 00:00:00 | |
| EA3GEO | 2026-09-03 23:10:33 | 41.37785 | 2.12546 | 163° | 5km/h | 3633m | 7.2m/s | 0°C | 0% | 0hPa | 0V | 00:00:00 | 00:00:00 | 00:00:00 | |
| EA3IBE | 2026-09-03 23:10:30 | 41.37791 | 2.12548 | 212° | 15km/h | 3614m | 5.2m/s | 0°C | 0% | 0hPa | 0V | 00:00:00 | 00:00:00 | 00:00:00 | |
| EA3GEO | 2026-09-03 23:10:28 | 41.37796 | 2.12553 | 218° | 13km/h | 3604m | 3.9m/s | 0°C | 0% | 0hPa | 0V | 00:00:00 | 00:00:00 | 00:00:00 | |
| EA3IBE | 2026-09-03 23:10:24 | 41.37799 | 2.12562 | 290° | 2km/h | 3584m | 4.6m/s | 0°C | 0% | 0hPa | 0V | 00:00:00 | 00:00:00 | 00:00:00 | |
| EA3GEO | 2026-09-03 23:10:23 | 41.37800 | 2.12563 | 192° | 9km/h | 3579m | 4.5m/s | 0°C | 0% | 0hPa | 0V | 00:00:00 | 00:00:00 | 00:00:00 | |
| EA3IBE | 2026-09-03 23:10:19 | 41.37806 | 2.12563 | 279° | 7km/h | 3562m | 3.3m/s | 0°C | 0% | 0hPa | 0V | 00:00:00 | 00:00:00 | 00:00:00 | |
| EA3GEO | 2026-09-03 23:10:17 | 41.37805 | 2.12567 | 310° | 5km/h | 3554m | 3.2m/s | 0°C | 0% | 0hPa | 0V | 00:00:00 | 00:00:00 | 00:00:00 | |
| EA3IBE | 2026-09-03 23:10:13 | 41.37795 | 2.12577 | 303° | 18km/h | 3541m | 4.0m/s | 0°C | 0% | 0hPa | 0V | 00:00:00 | 00:00:00 | 00:00:00 | |
| EA3GEO | 2026-09-03 23:10:12 | 41.37794 | 2.12583 | 265° | 18km/h | 3536m | 5.1m/s | 0°C | 0% | 0hPa | 0V | 00:00:00 | 00:00:00 | 00:00:00 | |
| EA3IBE | 2026-09-03 23:10:08 | 41.37800 | 2.12597 | 134° | 5km/h | 3508m | 6.4m/s | 0°C | 0% | 0hPa | 0V | 00:00:00 | 00:00:00 | 00:00:00 | |
| EA3GEO | 2026-09-03 23:10:06 | 41.37801 | 2.12594 | 102° | 4km/h | 3492m | 6.9m/s | 0°C | 0% | 0hPa | 0V | 00:00:00 | 00:00:00 | 00:00:00 | |
| EA3IBE | 2026-09-03 23:10:02 | 41.37798 | 2.12593 | 244° | 4km/h | 3466m | 5.8m/s | 0°C | 0% | 0hPa | 0V | 00:00:00 | 00:00:00 | 00:00:00 | |
| EA3GEO | 2026-09-03 23:09:59 | 41.37805 | 2.12593 | 154° | 13km/h | 3445m | 5.3m/s | 0°C | 0% | 0hPa | 0V | 00:00:00 | 00:00:00 | 00:00:00 | |
| EA3IBE | 2026-09-03 23:09:57 | 41.37810 | 2.12589 | 137° | 9km/h | 3434m | 3.5m/s | 0°C | 0% | 0hPa | 0V | 00:00:00 | 00:00:00 | 00:00:00 | |
| EA3GEO | 2026-09-03 23:09:54 | 41.37813 | 2.12596 | 240° | 16km/h | 3420m | 6.8m/s | 0°C | 0% | 0hPa | 0V | 00:00:00 | 00:00:00 | 00:00:00 | |
| EA3IBE | 2026-09-03 23:09:51 | 41.37822 | 2.12604 | 183° | 15km/h | 3397m | 4.9m/s | 0°C | 0% | 0hPa | 0V | 00:00:00 | 00:00:00 | 00:00:00 | |
| EA3IBE | 2026-09-03 23:09:45 | 41.37836 | 2.12612 | 236° | 16km/h | 3363m | 4.2m/s | 0°C | 0% | 0hPa | 0V | 00:00:00 | 00:00:00 | 00:00:00 | |
| EA3GEO | 2026-09-03 23:09:43 | 41.37838 | 2.12619 | 260° | 7km/h | 3352m | 4.8m/s | 0°C | 0% | 0hPa | 0V | 00:00:00 | 00:00:00 | 00:00:00 | |
| EA3IBE | 2026-09-03 23:09:38 | 41.37831 | 2.12635 | 282° | 9km/h | 3324m | 3.8m/s | 0°C | 0% | 0hPa | 0V | 00:00:00 | 00:00:00 | 00:00:00 | |
| EA3GEO | 2026-09-03 23:09:37 | 41.37832 | 2.12637 | 218° | 9km/h | 3318m | 6.0m/s | 0°C | 0% | 0hPa | 0V | 00:00:00 | 00:00:00 | 00:00:00 | |
| EA3IBE | 2026-09-03 23:09:33 | 41.37846 | 2.12640 | 189° | 16km/h | 3296m | 3.6m/s | 0°C | 0% | 0hPa | 0V | 00:00:00 | 00:00:00 | 00:00:00 | |
| EA3GEO | 2026-09-03 23:09:31 | 41.37852 | 2.12640 | 190° | 13km/h | 3288m | 3.6m/s | 0°C | 0% | 0hPa | 0V | 00:00:00 | 00:00:00 | 00:00:00 | |
| EA3IBE | 2026-09-03 23:09:27 | 41.37860 | 2.12638 | 190° | 9km/h | 3264m | 6.5m/s | 0°C | 0% | 0hPa | 0V | 00:00:00 | 00:00:00 | 00:00:00 | |
| EA3GEO | 2026-09-03 23:09:26 | 41.37862 | 2.12640 | 217° | 9km/h | 3257m | 5.9m/s | 0°C | 0% | 0hPa | 0V | 00:00:00 | 00:00:00 | 00:00:00 | |
| EA3IBE | 2026-09-03 23:09:22 | 41.37872 | 2.12651 | 218° | 11km/h | 3232m | 5.4m/s | 0°C | 0% | 0hPa | 0V | 00:00:00 | 00:00:00 | 00:00:00 | |
| EA3GEO | 2026-09-03 23:09:20 | 41.37878 | 2.12651 | 189° | 15km/h | 3220m | 7.9m/s | 0°C | 0% | 0hPa | 0V | 00:00:00 | 00:00:00 | 00:00:00 | |
| EA3IBE | 2026-09-03 23:09:16 | 41.37896 | 2.12658 | 195° | 16km/h | 3195m | 5.7m/s | 0°C | 0% | 0hPa | 0V | 00:00:00 | 00:00:00 | 00:00:00 | |
| EA3GEO | 2026-09-03 23:09:15 | 41.37900 | 2.12660 | 208° | 16km/h | 3190m | 5.1m/s | 0°C | 0% | 0hPa | 0V | 00:00:00 | 00:00:00 | 00:00:00 | |
| EA3IBE | 2026-09-03 23:09:10 | 41.37919 | 2.12663 | 176° | 15km/h | 3157m | 5.4m/s | 0°C | 0% | 0hPa | 0V | 00:00:00 | 00:00:00 | 00:00:00 | |
| EA3IBE | 2026-09-03 23:09:04 | 41.37936 | 2.12683 | 243° | 13km/h | 3127m | 4.5m/s | 0°C | 0% | 0hPa | 0V | 00:00:00 | 00:00:00 | 00:00:00 | |
| EA3IBE | 2026-09-03 23:08:59 | 41.37938 | 2.12693 | 287° | 2km/h | 3105m | 3.9m/s | 0°C | 0% | 0hPa | 0V | 00:00:00 | 00:00:00 | 00:00:00 | |
| EA3GEO | 2026-09-03 23:08:54 | 41.37945 | 2.12702 | 200° | 16km/h | 3076m | 7.4m/s | 0°C | 0% | 0hPa | 0V | 00:00:00 | 00:00:00 | 00:00:00 | |
| EA3GEO | 2026-09-03 23:08:48 | 41.37964 | 2.12724 | 230° | 4km/h | 3039m | 4.8m/s | 0°C | 0% | 0hPa | 0V | 00:00:00 | 00:00:00 | 00:00:00 | |
| EA3IBE | 2026-09-03 23:08:47 | 41.37964 | 2.12725 | 344° | 2km/h | 3033m | 4.9m/s | 0°C | 0% | 0hPa | 0V | 00:00:00 | 00:00:00 | 00:00:00 | |
| EA3GEO | 2026-09-03 23:08:42 | 41.37958 | 2.12740 | 300° | 9km/h | 3012m | 3.9m/s | 0°C | 0% | 0hPa | 0V | 00:00:00 | 00:00:00 | 00:00:00 | |
| EA3IBE | 2026-09-03 23:08:36 | 41.37955 | 2.12735 | 289° | 9km/h | 2982m | 4.6m/s | 0°C | 0% | 0hPa | 0V | 00:00:00 | 00:00:00 | 00:00:00 | |
| EA3IBE | 2026-09-03 23:08:30 | 41.37964 | 2.12744 | 134° | 11km/h | 2944m | 5.1m/s | 0°C | 0% | 0hPa | 0V | 00:00:00 | 00:00:00 | 00:00:00 | |
| EA3IBE | 2026-09-03 23:08:25 | 41.37966 | 2.12744 | 316° | 5km/h | 2922m | 7.6m/s | 0°C | 0% | 0hPa | 0V | 00:00:00 | 00:00:00 | 00:00:00 | |
| EA3GEO | 2026-09-03 23:08:19 | 41.37962 | 2.12741 | 154° | 5km/h | 2881m | 3.9m/s | 0°C | 0% | 0hPa | 0V | 00:00:00 | 00:00:00 | 00:00:00 | |
| EA3GEO | 2026-09-03 23:08:13 | 41.37965 | 2.12762 | 304° | 18km/h | 2856m | 3.1m/s | 0°C | 0% | 0hPa | 0V | 00:00:00 | 00:00:00 | 00:00:00 | |
| EA3IBE | 2026-09-03 23:08:07 | 41.37972 | 2.12790 | 182° | 15km/h | 2826m | 4.2m/s | 0°C | 0% | 0hPa | 0V | 00:00:00 | 00:00:00 | 00:00:00 | |
| EA3IBE | 2026-09-03 23:08:02 | 41.37976 | 2.12794 | 300° | 5km/h | 2795m | 6.9m/s | 0°C | 0% | 0hPa | 0V | 00:00:00 | 00:00:00 | 00:00:00 | |
| EA3IBE | 2026-09-03 23:07:56 | 41.37980 | 2.12808 | 212° | 26km/h | 2765m | 5.2m/s | 0°C | 0% | 0hPa | 0V | 00:00:00 | 00:00:00 | 00:00:00 | |
| EA3IBE | 2026-09-03 23:07:51 | 41.37994 | 2.12844 | 289° | 20km/h | 2739m | 5.2m/s | 0°C | 0% | 0hPa | 0V | 00:00:00 | 00:00:00 | 00:00:00 | |
| EA3GEO | 2026-09-03 23:07:50 | 41.37993 | 2.12849 | 288° | 11km/h | 2733m | 6.8m/s | 0°C | 0% | 0hPa | 0V | 00:00:00 | 00:00:00 | 00:00:00 | |
| EA3IBE | 2026-09-03 23:07:45 | 41.38005 | 2.12857 | 208° | 24km/h | 2703m | 3.9m/s | 0°C | 0% | 0hPa | 0V | 00:00:00 | 00:00:00 | 00:00:00 | |
| EA3GEO | 2026-09-03 23:07:43 | 41.38012 | 2.12868 | 259° | 16km/h | 2692m | 5.0m/s | 0°C | 0% | 0hPa | 0V | 00:00:00 | 00:00:00 | 00:00:00 | |
| EA3IBE | 2026-09-03 23:07:40 | 41.38011 | 2.12879 | 279° | 7km/h | 2675m | 5.9m/s | 0°C | 0% | 0hPa | 0V | 00:00:00 | 00:00:00 | 00:00:00 | |
| EA3GEO | 2026-09-03 23:07:37 | 41.38013 | 2.12886 | 211° | 7km/h | 2651m | 5.2m/s | 0°C | 0% | 0hPa | 0V | 00:00:00 | 00:00:00 | 00:00:00 | |
| EA3IBE | 2026-09-03 23:07:34 | 41.38013 | 2.12893 | 297° | 9km/h | 2638m | 2.8m/s | 0°C | 0% | 0hPa | 0V | 00:00:00 | 00:00:00 | 00:00:00 | |
| EA3GEO | 2026-09-03 23:07:32 | 41.38012 | 2.12896 | 329° | 2km/h | 2632m | 4.6m/s | 0°C | 0% | 0hPa | 0V | 00:00:00 | 00:00:00 | 00:00:00 | |
| EA3IBE | 2026-09-03 23:07:28 | 41.38011 | 2.12896 | 197° | 7km/h | 2612m | 3.1m/s | 0°C | 0% | 0hPa | 0V | 00:00:00 | 00:00:00 | 00:00:00 | |
| EA3GEO | 2026-09-03 23:07:27 | 41.38014 | 2.12898 | 216° | 15km/h | 2608m | 4.3m/s | 0°C | 0% | 0hPa | 0V | 00:00:00 | 00:00:00 | 00:00:00 | |
| EA3IBE | 2026-09-03 23:07:22 | 41.38030 | 2.12908 | 140° | 4km/h | 2577m | 6.0m/s | 0°C | 0% | 0hPa | 0V | 00:00:00 | 00:00:00 | 00:00:00 | |
| EA3GEO | 2026-09-03 23:07:21 | 41.38030 | 2.12908 | 227° | 2km/h | 2571m | 5.8m/s | 0°C | 0% | 0hPa | 0V | 00:00:00 | 00:00:00 | 00:00:00 | |
| EA3IBE | 2026-09-03 23:07:16 | 41.38046 | 2.12917 | 197° | 18km/h | 2542m | 2.6m/s | 0°C | 0% | 0hPa | 0V | 00:00:00 | 00:00:00 | 00:00:00 | |
| EA3GEO | 2026-09-03 23:07:15 | 41.38050 | 2.12919 | 203° | 20km/h | 2539m | 2.6m/s | 0°C | 0% | 0hPa | 0V | 00:00:00 | 00:00:00 | 00:00:00 | |
| EA3IBE | 2026-09-03 23:07:10 | 41.38056 | 2.12935 | 301° | 20km/h | 2510m | 2.8m/s | 0°C | 0% | 0hPa | 0V | 00:00:00 | 00:00:00 | 00:00:00 | |
| EA3GEO | 2026-09-03 23:07:05 | 41.38063 | 2.12951 | 167° | 11km/h | 2478m | 6.2m/s | 0°C | 0% | 0hPa | 0V | 00:00:00 | 00:00:00 | 00:00:00 | |
| EA3IBE | 2026-09-03 23:07:02 | 41.38067 | 2.12953 | 299° | 11km/h | 2455m | 6.5m/s | 0°C | 0% | 0hPa | 0V | 00:00:00 | 00:00:00 | 00:00:00 | |
| EA3GEO | 2026-09-03 23:06:59 | 41.38063 | 2.12958 | 121° | 9km/h | 2435m | 3.7m/s | 0°C | 0% | 0hPa | 0V | 00:00:00 | 00:00:00 | 00:00:00 | |
| EA3IBE | 2026-09-03 23:06:57 | 41.38066 | 2.12950 | 137° | 16km/h | 2424m | 4.8m/s | 0°C | 0% | 0hPa | 0V | 00:00:00 | 00:00:00 | 00:00:00 | |
| EA3GEO | 2026-09-03 23:06:52 | 41.38073 | 2.12947 | 224° | 15km/h | 2395m | 4.9m/s | 0°C | 0% | 0hPa | 0V | 00:00:00 | 00:00:00 | 00:00:00 | |
| EA3IBE | 2026-09-03 23:06:51 | 41.38076 | 2.12950 | 208° | 15km/h | 2390m | 4.0m/s | 0°C | 0% | 0hPa | 0V | 00:00:00 | 00:00:00 | 00:00:00 | |
| EA3IBE | 2026-09-03 23:06:44 | 41.38093 | 2.12931 | 210° | 15km/h | 2349m | 4.2m/s | 0°C | 0% | 0hPa | 0V | 00:00:00 | 00:00:00 | 00:00:00 | |
| EA3IBE | 2026-09-03 23:06:38 | 41.38099 | 2.12955 | 242° | 9km/h | 2319m | 5.1m/s | 0°C | 0% | 0hPa | 0V | 00:00:00 | 00:00:00 | 00:00:00 | |
| EA3GEO | 2026-09-03 23:06:36 | 41.38104 | 2.12956 | 133° | 18km/h | 2309m | 4.6m/s | 0°C | 0% | 0hPa | 0V | 00:00:00 | 00:00:00 | 00:00:00 | |
| EA3IBE | 2026-09-03 23:06:33 | 41.38109 | 2.12938 | 107° | 20km/h | 2294m | 5.6m/s | 0°C | 0% | 0hPa | 0V | 00:00:00 | 00:00:00 | 00:00:00 | |
| EA3GEO | 2026-09-03 23:06:30 | 41.38122 | 2.12926 | 181° | 18km/h | 2274m | 5.8m/s | 0°C | 0% | 0hPa | 0V | 00:00:00 | 00:00:00 | 00:00:00 | |
| EA3IBE | 2026-09-03 23:06:27 | 41.38127 | 2.12930 | 349° | 7km/h | 2256m | 5.5m/s | 0°C | 0% | 0hPa | 0V | 00:00:00 | 00:00:00 | 00:00:00 | |
| EA3GEO | 2026-09-03 23:06:24 | 41.38128 | 2.12931 | 167° | 13km/h | 2237m | 5.1m/s | 0°C | 0% | 0hPa | 0V | 00:00:00 | 00:00:00 | 00:00:00 | |
| EA3IBE | 2026-09-03 23:06:21 | 41.38145 | 2.12922 | 145° | 29km/h | 2222m | 5.5m/s | 0°C | 0% | 0hPa | 0V | 00:00:00 | 00:00:00 | 00:00:00 | |
| EA3GEO | 2026-09-03 23:06:19 | 41.38155 | 2.12915 | 161° | 16km/h | 2209m | 6.2m/s | 0°C | 0% | 0hPa | 0V | 00:00:00 | 00:00:00 | 00:00:00 | |
| EA3IBE | 2026-09-03 23:06:16 | 41.38160 | 2.12913 | 91° | 5km/h | 2189m | 5.2m/s | 0°C | 0% | 0hPa | 0V | 00:00:00 | 00:00:00 | 00:00:00 | |
| EA3GEO | 2026-09-03 23:06:14 | 41.38160 | 2.12908 | 102° | 9km/h | 2179m | 4.0m/s | 0°C | 0% | 0hPa | 0V | 00:00:00 | 00:00:00 | 00:00:00 | |
| EA3IBE | 2026-09-03 23:06:10 | 41.38163 | 2.12894 | 122° | 15km/h | 2152m | 6.4m/s | 0°C | 0% | 0hPa | 0V | 00:00:00 | 00:00:00 | 00:00:00 | |
| EA3GEO | 2026-09-03 23:06:08 | 41.38169 | 2.12885 | 151° | 20km/h | 2138m | 5.1m/s | 0°C | 0% | 0hPa | 0V | 00:00:00 | 00:00:00 | 00:00:00 | |
| EA3IBE | 2026-09-03 23:06:04 | 41.38188 | 2.12875 | 135° | 18km/h | 2117m | 5.0m/s | 0°C | 0% | 0hPa | 0V | 00:00:00 | 00:00:00 | 00:00:00 | |
| EA3GEO | 2026-09-03 23:06:02 | 41.38192 | 2.12863 | 92° | 18km/h | 2105m | 7.0m/s | 0°C | 0% | 0hPa | 0V | 00:00:00 | 00:00:00 | 00:00:00 | |
| EA3IBE | 2026-09-03 23:05:58 | 41.38193 | 2.12846 | 83° | 11km/h | 2077m | 6.5m/s | 0°C | 0% | 0hPa | 0V | 00:00:00 | 00:00:00 | 00:00:00 | |
| EA3GEO | 2026-09-03 23:05:57 | 41.38192 | 2.12842 | 90° | 13km/h | 2071m | 3.9m/s | 0°C | 0% | 0hPa | 0V | 00:00:00 | 00:00:00 | 00:00:00 | |
| EA3IBE | 2026-09-03 23:05:53 | 41.38204 | 2.12832 | 193° | 18km/h | 2049m | 4.8m/s | 0°C | 0% | 0hPa | 0V | 00:00:00 | 00:00:00 | 00:00:00 | |
| EA3GEO | 2026-09-03 23:05:52 | 41.38207 | 2.12834 | 217° | 11km/h | 2043m | 4.9m/s | 0°C | 0% | 0hPa | 0V | 00:00:00 | 00:00:00 | 00:00:00 | |
| EA3IBE | 2026-09-03 23:05:47 | 41.38211 | 2.12821 | 135° | 22km/h | 2016m | 3.4m/s | 0°C | 0% | 0hPa | 0V | 00:00:00 | 00:00:00 | 00:00:00 | |
| EA3GEO | 2026-09-03 23:05:46 | 41.38215 | 2.12816 | 133° | 24km/h | 2013m | 3.9m/s | 0°C | 0% | 0hPa | 0V | 00:00:00 | 00:00:00 | 00:00:00 | |
| EA3IBE | 2026-09-03 23:05:42 | 41.38222 | 2.12790 | 55° | 11km/h | 1992m | 6.1m/s | 0°C | 0% | 0hPa | 0V | 00:00:00 | 00:00:00 | 00:00:00 | |
| EA3GEO | 2026-09-03 23:05:41 | 41.38221 | 2.12789 | 0° | 0km/h | 1986m | 6.1m/s | 0°C | 0% | 0hPa | 0V | 00:00:00 | 00:00:00 | 00:00:00 | |
| EA3IBE | 2026-09-03 23:05:36 | 41.38230 | 2.12790 | 154° | 13km/h | 1956m | 4.7m/s | 0°C | 0% | 0hPa | 0V | 00:00:00 | 00:00:00 | 00:00:00 | |
| EA3GEO | 2026-09-03 23:05:35 | 41.38233 | 2.12788 | 144° | 13km/h | 1951m | 5.1m/s | 0°C | 0% | 0hPa | 0V | 00:00:00 | 00:00:00 | 00:00:00 | |
| EA3GEO | 2026-09-03 23:05:29 | 41.38247 | 2.12784 | 94° | 16km/h | 1914m | 7.4m/s | 0°C | 0% | 0hPa | 0V | 00:00:00 | 00:00:00 | 00:00:00 | |
| EA3IBE | 2026-09-03 23:05:24 | 41.38252 | 2.12764 | 284° | 4km/h | 1885m | 5.3m/s | 0°C | 0% | 0hPa | 0V | 00:00:00 | 00:00:00 | 00:00:00 | |
| EA3GEO | 2026-09-03 23:05:24 | 41.38252 | 2.12764 | 284° | 4km/h | 1885m | 5.3m/s | 0°C | 0% | 0hPa | 0V | 00:00:00 | 00:00:00 | 00:00:00 | |
| EA3GEO | 2026-09-03 23:05:18 | 41.38268 | 2.12773 | 142° | 5km/h | 1848m | 7.2m/s | 0°C | 0% | 0hPa | 0V | 00:00:00 | 00:00:00 | 00:00:00 | |
| EA3IBE | 2026-09-03 23:05:18 | 41.38268 | 2.12773 | 142° | 5km/h | 1848m | 7.2m/s | 0°C | 0% | 0hPa | 0V | 00:00:00 | 00:00:00 | 00:00:00 | |
| EA3GEO | 2026-09-03 23:05:13 | 41.38261 | 2.12761 | 339° | 9km/h | 1818m | 3.8m/s | 0°C | 0% | 0hPa | 0V | 00:00:00 | 00:00:00 | 00:00:00 | |
| EA3IBE | 2026-09-03 23:05:12 | 41.38260 | 2.12762 | 306° | 4km/h | 1813m | 4.2m/s | 0°C | 0% | 0hPa | 0V | 00:00:00 | 00:00:00 | 00:00:00 | |
| EA3GEO | 2026-09-03 23:05:07 | 41.38269 | 2.12751 | 133° | 22km/h | 1785m | 6.8m/s | 0°C | 0% | 0hPa | 0V | 00:00:00 | 00:00:00 | 00:00:00 | |
| EA3IBE | 2026-09-03 23:05:06 | 41.38273 | 2.12747 | 149° | 18km/h | 1778m | 3.5m/s | 0°C | 0% | 0hPa | 0V | 00:00:00 | 00:00:00 | 00:00:00 | |
| EA3GEO | 2026-09-03 23:05:01 | 41.38274 | 2.12738 | 122° | 7km/h | 1749m | 5.7m/s | 0°C | 0% | 0hPa | 0V | 00:00:00 | 00:00:00 | 00:00:00 | |
| EA3IBE | 2026-09-03 23:05:01 | 41.38274 | 2.12738 | 122° | 7km/h | 1749m | 5.7m/s | 0°C | 0% | 0hPa | 0V | 00:00:00 | 00:00:00 | 00:00:00 | |
| EA3GEO | 2026-09-03 23:04:55 | 41.38280 | 2.12726 | 151° | 13km/h | 1711m | 7.0m/s | 0°C | 0% | 0hPa | 0V | 00:00:00 | 00:00:00 | 00:00:00 | |
| EA3IBE | 2026-09-03 23:04:55 | 41.38280 | 2.12726 | 151° | 13km/h | 1711m | 7.0m/s | 0°C | 0% | 0hPa | 0V | 00:00:00 | 00:00:00 | 00:00:00 | |
| EA3GEO | 2026-09-03 23:04:49 | 41.38294 | 2.12721 | 139° | 18km/h | 1676m | 4.8m/s | 0°C | 0% | 0hPa | 0V | 00:00:00 | 00:00:00 | 00:00:00 | |
| EA3IBE | 2026-09-03 23:04:49 | 41.38294 | 2.12721 | 139° | 18km/h | 1676m | 4.8m/s | 0°C | 0% | 0hPa | 0V | 00:00:00 | 00:00:00 | 00:00:00 | |
| EA3GEO | 2026-09-03 23:04:43 | 41.38307 | 2.12711 | 127° | 16km/h | 1641m | 6.1m/s | 0°C | 0% | 0hPa | 0V | 00:00:00 | 00:00:00 | 00:00:00 | |
| EA3IBE | 2026-09-03 23:04:43 | 41.38307 | 2.12711 | 127° | 16km/h | 1641m | 6.1m/s | 0°C | 0% | 0hPa | 0V | 00:00:00 | 00:00:00 | 00:00:00 | |
| EA3GEO | 2026-09-03 23:04:38 | 41.38322 | 2.12707 | 111° | 16km/h | 1609m | 6.2m/s | 0°C | 0% | 0hPa | 0V | 00:00:00 | 00:00:00 | 00:00:00 | |
| EA3IBE | 2026-09-03 23:04:38 | 41.38322 | 2.12707 | 111° | 16km/h | 1609m | 6.2m/s | 0°C | 0% | 0hPa | 0V | 00:00:00 | 00:00:00 | 00:00:00 | |
| EA3GEO | 2026-09-03 23:04:33 | 41.38329 | 2.12689 | 182° | 13km/h | 1580m | 4.9m/s | 0°C | 0% | 0hPa | 0V | 00:00:00 | 00:00:00 | 00:00:00 | |
| EA3IBE | 2026-09-03 23:04:32 | 41.38332 | 2.12690 | 179° | 16km/h | 1575m | 4.4m/s | 0°C | 0% | 0hPa | 0V | 00:00:00 | 00:00:00 | 00:00:00 | |
| EA3GEO | 2026-09-03 23:04:28 | 41.38352 | 2.12679 | 154° | 26km/h | 1552m | 7.1m/s | 0°C | 0% | 0hPa | 0V | 00:00:00 | 00:00:00 | 00:00:00 | |
| EA3IBE | 2026-09-03 23:04:26 | 41.38362 | 2.12672 | 145° | 15km/h | 1539m | 4.2m/s | 0°C | 0% | 0hPa | 0V | 00:00:00 | 00:00:00 | 00:00:00 | |
| EA3GEO | 2026-09-03 23:04:22 | 41.38365 | 2.12669 | 349° | 5km/h | 1517m | 6.7m/s | 0°C | 0% | 0hPa | 0V | 00:00:00 | 00:00:00 | 00:00:00 | |
| EA3IBE | 2026-09-03 23:04:21 | 41.38364 | 2.12669 | 76° | 7km/h | 1511m | 5.3m/s | 0°C | 0% | 0hPa | 0V | 00:00:00 | 00:00:00 | 00:00:00 | |
| EA3GEO | 2026-09-03 23:04:16 | 41.38381 | 2.12651 | 168° | 20km/h | 1486m | 5.5m/s | 0°C | 0% | 0hPa | 0V | 00:00:00 | 00:00:00 | 00:00:00 | |
| EA3IBE | 2026-09-03 23:04:16 | 41.38381 | 2.12651 | 168° | 20km/h | 1486m | 5.5m/s | 0°C | 0% | 0hPa | 0V | 00:00:00 | 00:00:00 | 00:00:00 | |
| EA3GEO | 2026-09-03 23:04:10 | 41.38390 | 2.12631 | 91° | 5km/h | 1448m | 5.4m/s | 0°C | 0% | 0hPa | 0V | 00:00:00 | 00:00:00 | 00:00:00 | |
| EA3IBE | 2026-09-03 23:04:10 | 41.38390 | 2.12631 | 91° | 5km/h | 1448m | 5.4m/s | 0°C | 0% | 0hPa | 0V | 00:00:00 | 00:00:00 | 00:00:00 | |
| EA3GEO | 2026-09-03 23:04:06 | 41.38409 | 2.12621 | 163° | 24km/h | 1413m | 6.4m/s | 0°C | 0% | 0hPa | 0V | 00:00:00 | 00:00:00 | 00:00:00 | |
| EA3IBE | 2026-09-03 23:04:04 | 41.38414 | 2.12618 | 159° | 18km/h | 1407m | 5.5m/s | 0°C | 0% | 0hPa | 0V | 00:00:00 | 00:00:00 | 00:00:00 | |
| EA3GEO | 2026-09-03 23:03:59 | 41.38429 | 2.12610 | 137° | 15km/h | 1377m | 4.9m/s | 0°C | 0% | 0hPa | 0V | 00:00:00 | 00:00:00 | 00:00:00 | |
| EA3IBE | 2026-09-03 23:03:59 | 41.38429 | 2.12610 | 137° | 15km/h | 1377m | 4.9m/s | 0°C | 0% | 0hPa | 0V | 00:00:00 | 00:00:00 | 00:00:00 | |
| EA3GEO | 2026-09-03 23:03:54 | 41.38431 | 2.12599 | 210° | 11km/h | 1349m | 4.8m/s | 0°C | 0% | 0hPa | 0V | 00:00:00 | 00:00:00 | 00:00:00 | |
| EA3IBE | 2026-09-03 23:03:54 | 41.38431 | 2.12599 | 210° | 11km/h | 1349m | 4.8m/s | 0°C | 0% | 0hPa | 0V | 00:00:00 | 00:00:00 | 00:00:00 | |
| EA3IBE | 2026-09-03 23:03:48 | 41.38434 | 2.12595 | 244° | 4km/h | 1312m | 6.1m/s | 0°C | 0% | 0hPa | 0V | 00:00:00 | 00:00:00 | 00:00:00 | |
| EA3GEO | 2026-09-03 23:03:48 | 41.38434 | 2.12595 | 244° | 4km/h | 1312m | 6.1m/s | 0°C | 0% | 0hPa | 0V | 00:00:00 | 00:00:00 | 00:00:00 | |
| EA3IBE | 2026-09-03 23:03:43 | 41.38441 | 2.12584 | 147° | 9km/h | 1285m | 5.6m/s | 0°C | 0% | 0hPa | 0V | 00:00:00 | 00:00:00 | 00:00:00 | |
| EA3GEO | 2026-09-03 23:03:42 | 41.38443 | 2.12582 | 152° | 11km/h | 1278m | 6.4m/s | 0°C | 0% | 0hPa | 0V | 00:00:00 | 00:00:00 | 00:00:00 | |
| EA3IBE | 2026-09-03 23:03:38 | 41.38439 | 2.12585 | 326° | 11km/h | 1250m | 7.4m/s | 0°C | 0% | 0hPa | 0V | 00:00:00 | 00:00:00 | 00:00:00 | |
| EA3GEO | 2026-09-03 23:03:36 | 41.38433 | 2.12587 | 356° | 11km/h | 1239m | 5.9m/s | 0°C | 0% | 0hPa | 0V | 00:00:00 | 00:00:00 | 00:00:00 | |
| EA3IBE | 2026-09-03 23:03:32 | 41.38434 | 2.12583 | 166° | 5km/h | 1216m | 6.9m/s | 0°C | 0% | 0hPa | 0V | 00:00:00 | 00:00:00 | 00:00:00 | |
| EA3GEO | 2026-09-03 23:03:31 | 41.38436 | 2.12583 | 311° | 4km/h | 1210m | 6.5m/s | 0°C | 0% | 0hPa | 0V | 00:00:00 | 00:00:00 | 00:00:00 | |
| EA3IBE | 2026-09-03 23:03:26 | 41.38432 | 2.12577 | 69° | 7km/h | 1183m | 7.0m/s | 0°C | 0% | 0hPa | 0V | 00:00:00 | 00:00:00 | 00:00:00 | |
| EA3GEO | 2026-09-03 23:03:25 | 41.38430 | 2.12575 | 60° | 5km/h | 1176m | 6.3m/s | 0°C | 0% | 0hPa | 0V | 00:00:00 | 00:00:00 | 00:00:00 | |
| EA3IBE | 2026-09-03 23:03:21 | 41.38428 | 2.12572 | 281° | 7km/h | 1152m | 4.5m/s | 0°C | 0% | 0hPa | 0V | 00:00:00 | 00:00:00 | 00:00:00 | |
| EA3GEO | 2026-09-03 23:03:20 | 41.38427 | 2.12574 | 297° | 9km/h | 1147m | 6.3m/s | 0°C | 0% | 0hPa | 0V | 00:00:00 | 00:00:00 | 00:00:00 | |
| EA3IBE | 2026-09-03 23:03:15 | 41.38429 | 2.12560 | 135° | 7km/h | 1116m | 5.4m/s | 0°C | 0% | 0hPa | 0V | 00:00:00 | 00:00:00 | 00:00:00 | |
| EA3GEO | 2026-09-03 23:03:14 | 41.38430 | 2.12559 | 98° | 2km/h | 1110m | 4.8m/s | 0°C | 0% | 0hPa | 0V | 00:00:00 | 00:00:00 | 00:00:00 | |
| EA3IBE | 2026-09-03 23:03:10 | 41.38430 | 2.12545 | 130° | 18km/h | 1084m | 4.3m/s | 0°C | 0% | 0hPa | 0V | 00:00:00 | 00:00:00 | 00:00:00 | |
| EA3GEO | 2026-09-03 23:03:08 | 41.38435 | 2.12540 | 187° | 9km/h | 1072m | 5.7m/s | 0°C | 0% | 0hPa | 0V | 00:00:00 | 00:00:00 | 00:00:00 | |
| EA3IBE | 2026-09-03 23:03:04 | 41.38428 | 2.12532 | 61° | 11km/h | 1049m | 5.9m/s | 0°C | 0% | 0hPa | 0V | 00:00:00 | 00:00:00 | 00:00:00 | |
| EA3GEO | 2026-09-03 23:03:03 | 41.38428 | 2.12529 | 104° | 11km/h | 1042m | 7.2m/s | 0°C | 0% | 0hPa | 0V | 00:00:00 | 00:00:00 | 00:00:00 | |
| EA3IBE | 2026-09-03 23:02:58 | 41.38434 | 2.12510 | 55° | 11km/h | 1009m | 5.3m/s | 0°C | 0% | 0hPa | 0V | 00:00:00 | 00:00:00 | 00:00:00 | |
| EA3GEO | 2026-09-03 23:02:57 | 41.38433 | 2.12506 | 62° | 11km/h | 1001m | 7.7m/s | 0°C | 0% | 0hPa | 0V | 00:00:00 | 00:00:00 | 00:00:00 | |
| EA3IBE | 2026-09-03 23:02:52 | 41.38438 | 2.12495 | 307° | 2km/h | 968m | 4.8m/s | 0°C | 0% | 0hPa | 0V | 00:00:00 | 00:00:00 | 00:00:00 | |
| EA3GEO | 2026-09-03 23:02:52 | 41.38438 | 2.12495 | 307° | 2km/h | 968m | 4.8m/s | 0°C | 0% | 0hPa | 0V | 00:00:00 | 00:00:00 | 00:00:00 | |
| EA3GEO | 2026-09-03 23:02:48 | 41.38437 | 2.12478 | 120° | 16km/h | 940m | 5.2m/s | 0°C | 0% | 0hPa | 0V | 00:00:00 | 00:00:00 | 00:00:00 | |
| EA3IBE | 2026-09-03 23:02:47 | 41.38437 | 2.12478 | 120° | 16km/h | 940m | 5.2m/s | 0°C | 0% | 0hPa | 0V | 00:00:00 | 00:00:00 | 00:00:00 | |
| EA3GEO | 2026-09-03 23:02:41 | 41.38442 | 2.12456 | 155° | 5km/h | 908m | 6.8m/s | 0°C | 0% | 0hPa | 0V | 00:00:00 | 00:00:00 | 00:00:00 | |
| EA3IBE | 2026-09-03 23:02:41 | 41.38442 | 2.12456 | 155° | 5km/h | 908m | 6.8m/s | 0°C | 0% | 0hPa | 0V | 00:00:00 | 00:00:00 | 00:00:00 | |
| EA3GEO | 2026-09-03 23:02:35 | 41.38448 | 2.12438 | 133° | 9km/h | 875m | 4.8m/s | 0°C | 0% | 0hPa | 0V | 00:00:00 | 00:00:00 | 00:00:00 | |
| EA3IBE | 2026-09-03 23:02:35 | 41.38448 | 2.12438 | 133° | 9km/h | 875m | 4.8m/s | 0°C | 0% | 0hPa | 0V | 00:00:00 | 00:00:00 | 00:00:00 | |
| EA3GEO | 2026-09-03 23:02:30 | 41.38450 | 2.12425 | 130° | 18km/h | 848m | 4.9m/s | 0°C | 0% | 0hPa | 0V | 00:00:00 | 00:00:00 | 00:00:00 | |
| EA3GEO | 2026-09-03 23:02:25 | 41.38451 | 2.12406 | 98° | 22km/h | 810m | 4.9m/s | 0°C | 0% | 0hPa | 0V | 00:00:00 | 00:00:00 | 00:00:00 | |
| EA3IBE | 2026-09-03 23:02:19 | 41.38451 | 2.12389 | 72° | 15km/h | 784m | 4.8m/s | 0°C | 0% | 0hPa | 0V | 00:00:00 | 00:00:00 | 00:00:00 | |
| EA3GEO | 2026-09-03 23:02:19 | 41.38451 | 2.12389 | 72° | 15km/h | 784m | 4.8m/s | 0°C | 0% | 0hPa | 0V | 00:00:00 | 00:00:00 | 00:00:00 | |
| EA3GEO | 2026-09-03 23:02:13 | 41.38449 | 2.12368 | 76° | 5km/h | 751m | 7.2m/s | 0°C | 0% | 0hPa | 0V | 00:00:00 | 00:00:00 | 00:00:00 | |
| EA3IBE | 2026-09-03 23:02:13 | 41.38449 | 2.12368 | 76° | 5km/h | 751m | 7.2m/s | 0°C | 0% | 0hPa | 0V | 00:00:00 | 00:00:00 | 00:00:00 | |
| EA3GEO | 2026-09-03 23:02:07 | 41.38450 | 2.12332 | 102° | 11km/h | 714m | 5.6m/s | 0°C | 0% | 0hPa | 0V | 00:00:00 | 00:00:00 | 00:00:00 | |
| EA3IBE | 2026-09-03 23:02:06 | 41.38451 | 2.12328 | 127° | 18km/h | 709m | 4.8m/s | 0°C | 0% | 0hPa | 0V | 00:00:00 | 00:00:00 | 00:00:00 | |
| EA3GEO | 2026-09-03 23:02:01 | 41.38457 | 2.12300 | 103° | 9km/h | 681m | 5.0m/s | 0°C | 0% | 0hPa | 0V | 00:00:00 | 00:00:00 | 00:00:00 | |
| EA3IBE | 2026-09-03 23:02:00 | 41.38457 | 2.12296 | 108° | 13km/h | 675m | 5.3m/s | 0°C | 0% | 0hPa | 0V | 00:00:00 | 00:00:00 | 00:00:00 | |
| EA3GEO | 2026-09-03 23:01:55 | 41.38458 | 2.12267 | 101° | 11km/h | 648m | 3.6m/s | 0°C | 0% | 0hPa | 0V | 00:00:00 | 00:00:00 | 00:00:00 | |
| EA3IBE | 2026-09-03 23:01:54 | 41.38459 | 2.12263 | 122° | 13km/h | 645m | 3.5m/s | 0°C | 0% | 0hPa | 0V | 00:00:00 | 00:00:00 | 00:00:00 | |
| EA3GEO | 2026-09-03 23:01:50 | 41.38460 | 2.12243 | 74° | 13km/h | 626m | 4.7m/s | 0°C | 0% | 0hPa | 0V | 00:00:00 | 00:00:00 | 00:00:00 | |
| EA3IBE | 2026-09-03 23:01:49 | 41.38460 | 2.12239 | 74° | 11km/h | 620m | 5.2m/s | 0°C | 0% | 0hPa | 0V | 00:00:00 | 00:00:00 | 00:00:00 | |
| EA3GEO | 2026-09-03 23:01:44 | 41.38458 | 2.12216 | 84° | 13km/h | 593m | 7.9m/s | 0°C | 0% | 0hPa | 0V | 00:00:00 | 00:00:00 | 00:00:00 | |
| EA3IBE | 2026-09-03 23:01:43 | 41.38458 | 2.12211 | 101° | 16km/h | 585m | 6.1m/s | 0°C | 0% | 0hPa | 0V | 00:00:00 | 00:00:00 | 00:00:00 | |
| EA3GEO | 2026-09-03 23:01:38 | 41.38454 | 2.12173 | 78° | 9km/h | 563m | 7.1m/s | 0°C | 0% | 0hPa | 0V | 00:00:00 | 00:00:00 | 00:00:00 | |
| EA3IBE | 2026-09-03 23:01:38 | 41.38454 | 2.12173 | 78° | 9km/h | 563m | 7.1m/s | 0°C | 0% | 0hPa | 0V | 00:00:00 | 00:00:00 | 00:00:00 | |
| EA3GEO | 2026-09-03 23:01:32 | 41.38457 | 2.12156 | 99° | 7km/h | 530m | 2.9m/s | 0°C | 0% | 0hPa | 0V | 00:00:00 | 00:00:00 | 00:00:00 | |
| EA3GEO | 2026-09-03 23:01:26 | 41.38463 | 2.12130 | 81° | 18km/h | 504m | 5.7m/s | 0°C | 0% | 0hPa | 0V | 00:00:00 | 00:00:00 | 00:00:00 | |
| EA3GEO | 2026-09-03 23:01:21 | 41.38464 | 2.12092 | 82° | 18km/h | 471m | 5.3m/s | 0°C | 0% | 0hPa | 0V | 00:00:00 | 00:00:00 | 00:00:00 | |
| EA3GEO | 2026-09-03 23:01:16 | 41.38463 | 2.12064 | 83° | 9km/h | 442m | 5.6m/s | 0°C | 0% | 0hPa | 0V | 00:00:00 | 00:00:00 | 00:00:00 | |
| EA3GEO | 2026-09-03 23:01:10 | 41.38463 | 2.12019 | 97° | 24km/h | 410m | 5.5m/s | 0°C | 0% | 0hPa | 0V | 00:00:00 | 00:00:00 | 00:00:00 | |
| EA3GEO | 2026-09-03 23:01:04 | 41.38457 | 2.11982 | 90° | 22km/h | 374m | 6.2m/s | 0°C | 0% | 0hPa | 0V | 00:00:00 | 00:00:00 | 00:00:00 | |
| EA3GEO | 2026-09-03 23:00:58 | 41.38454 | 2.11943 | 120° | 7km/h | 346m | 6.2m/s | 0°C | 0% | 0hPa | 0V | 00:00:00 | 00:00:00 | 00:00:00 | |
| EA3GEO | 2026-09-03 23:00:53 | 41.38455 | 2.11914 | 47° | 11km/h | 320m | 4.7m/s | 0°C | 0% | 0hPa | 0V | 00:00:00 | 00:00:00 | 00:00:00 | |
| EA3GEO | 2026-09-03 23:00:48 | 41.38456 | 2.11886 | 52° | 22km/h | 295m | 4.4m/s | 0°C | 0% | 0hPa | 0V | 00:00:00 | 00:00:00 | 00:00:00 | |
| EA3GEO | 2026-09-03 23:00:40 | 41.38449 | 2.11846 | 113° | 9km/h | 257m | 4.1m/s | 0°C | 0% | 0hPa | 0V | 00:00:00 | 00:00:00 | 00:00:00 | |
| EA3GEO | 2026-09-03 23:00:34 | 41.38445 | 2.11812 | 243° | 5km/h | 225m | 4.2m/s | 0°C | 0% | 0hPa | 0V | 00:00:00 | 00:00:00 | 00:00:00 |